<?xml version='1.0' encoding='UTF-8'?><gpx version="1.1" creator="JPX - https://github.com/jenetics/jpx" xmlns="http://www.topografix.com/GPX/1/1"><trk><trkseg><trkpt lat="45.98385931858871" lon="9.437354479001852"><ele>565.0</ele><time>2026-03-28T12:42:35.99Z</time></trkpt><trkpt lat="45.983857104398645" lon="9.437249194441705"><ele>565.0</ele><time>2026-03-28T12:42:54.989Z</time></trkpt><trkpt lat="45.983909796647175" lon="9.437106804203646"><ele>565.0</ele><time>2026-03-28T12:42:56.989Z</time></trkpt><trkpt lat="45.98393823110568" lon="9.437025974245191"><ele>565.0</ele><time>2026-03-28T12:42:57.989Z</time></trkpt><trkpt lat="45.98398958033357" lon="9.436921775949115"><ele>565.0</ele><time>2026-03-28T12:42:59.989Z</time></trkpt><trkpt lat="45.98396982145152" lon="9.436802235612992"><ele>565.0</ele><time>2026-03-28T12:43:41.988Z</time></trkpt><trkpt lat="45.984004354909985" lon="9.436724417003525"><ele>564.4</ele><time>2026-03-28T12:43:42.988Z</time></trkpt><trkpt lat="45.9840639936958" lon="9.436580775825362"><ele>563.8</ele><time>2026-03-28T12:43:44.988Z</time></trkpt><trkpt lat="45.984115648927045" lon="9.436467551863359"><ele>563.2</ele><time>2026-03-28T12:43:46.988Z</time></trkpt><trkpt lat="45.98417517743269" lon="9.43643314474587"><ele>562.6</ele><time>2026-03-28T12:43:48.988Z</time></trkpt><trkpt lat="45.98433325576132" lon="9.436469841421944"><ele>562.0</ele><time>2026-03-28T12:43:50.988Z</time></trkpt><trkpt lat="45.984448591146595" lon="9.436482602644842"><ele>565.0</ele><time>2026-03-28T12:43:51.988Z</time></trkpt><trkpt lat="45.984570304643874" lon="9.43646892826726"><ele>568.0</ele><time>2026-03-28T12:43:52.988Z</time></trkpt><trkpt lat="45.98467886357313" lon="9.436450376230633"><ele>571.0</ele><time>2026-03-28T12:43:53.988Z</time></trkpt><trkpt lat="45.984811946181544" lon="9.436406522530605"><ele>574.0</ele><time>2026-03-28T12:43:54.988Z</time></trkpt><trkpt lat="45.9849461477756" lon="9.436340014449243"><ele>576.25</ele><time>2026-03-28T12:43:55.988Z</time></trkpt><trkpt lat="45.98507239064708" lon="9.436270099045037"><ele>578.5</ele><time>2026-03-28T12:43:56.988Z</time></trkpt><trkpt lat="45.985187970304494" lon="9.43620106511803"><ele>580.75</ele><time>2026-03-28T12:43:57.988Z</time></trkpt><trkpt lat="45.985296975511986" lon="9.436153631872019"><ele>583.0</ele><time>2026-03-28T12:43:58.988Z</time></trkpt><trkpt lat="45.98540059977044" lon="9.436180544098615"><ele>583.0</ele><time>2026-03-28T12:43:59.988Z</time></trkpt><trkpt lat="45.985495997348956" lon="9.43622181116318"><ele>583.0</ele><time>2026-03-28T12:44:00.988Z</time></trkpt><trkpt lat="45.98551887443365" lon="9.436321575800783"><ele>583.0</ele><time>2026-03-28T12:44:02.988Z</time></trkpt><trkpt lat="45.98546159807625" lon="9.436408622372218"><ele>583.0</ele><time>2026-03-28T12:44:03.988Z</time></trkpt><trkpt lat="45.9853966333904" lon="9.436531358358417"><ele>583.0</ele><time>2026-03-28T12:44:04.988Z</time></trkpt><trkpt lat="45.98529919346902" lon="9.43669630203795"><ele>585.0</ele><time>2026-03-28T12:44:05.988Z</time></trkpt><trkpt lat="45.98520145726847" lon="9.436879339740416"><ele>587.0</ele><time>2026-03-28T12:44:06.988Z</time></trkpt><trkpt lat="45.98510794682342" lon="9.437073567909854"><ele>589.0</ele><time>2026-03-28T12:44:07.988Z</time></trkpt><trkpt lat="45.98502119054807" lon="9.437251630494742"><ele>586.75</ele><time>2026-03-28T12:44:08.988Z</time></trkpt><trkpt lat="45.98493743773051" lon="9.437387141134831"><ele>584.5</ele><time>2026-03-28T12:44:09.988Z</time></trkpt><trkpt lat="45.98487671507331" lon="9.437527867748582"><ele>582.25</ele><time>2026-03-28T12:44:10.988Z</time></trkpt><trkpt lat="45.98480046321814" lon="9.437684545765533"><ele>580.0</ele><time>2026-03-28T12:44:11.988Z</time></trkpt><trkpt lat="45.98471443787836" lon="9.437851604681232"><ele>581.25</ele><time>2026-03-28T12:44:12.988Z</time></trkpt><trkpt lat="45.984641060291366" lon="9.438003511567004"><ele>582.5</ele><time>2026-03-28T12:44:13.988Z</time></trkpt><trkpt lat="45.98455368573549" lon="9.438134794179126"><ele>583.75</ele><time>2026-03-28T12:44:14.988Z</time></trkpt><trkpt lat="45.98445670302131" lon="9.438237804528566"><ele>585.0</ele><time>2026-03-28T12:44:15.99Z</time></trkpt><trkpt lat="45.984353990648195" lon="9.438307726974282"><ele>585.0</ele><time>2026-03-28T12:44:16.99Z</time></trkpt><trkpt lat="45.98426456809815" lon="9.438401008560234"><ele>585.0</ele><time>2026-03-28T12:44:17.99Z</time></trkpt><trkpt lat="45.98418671654572" lon="9.438522949752118"><ele>585.0</ele><time>2026-03-28T12:44:18.989Z</time></trkpt><trkpt lat="45.9841096913696" lon="9.43862811053035"><ele>585.0</ele><time>2026-03-28T12:44:19.989Z</time></trkpt><trkpt lat="45.98403747122775" lon="9.438753678268666"><ele>585.0</ele><time>2026-03-28T12:44:20.989Z</time></trkpt><trkpt lat="45.98396921282842" lon="9.438867037152663"><ele>582.8</ele><time>2026-03-28T12:44:21.99Z</time></trkpt><trkpt lat="45.98393525727501" lon="9.438966507261155"><ele>580.6</ele><time>2026-03-28T12:44:22.989Z</time></trkpt><trkpt lat="45.98389771648259" lon="9.4390858596497"><ele>578.4</ele><time>2026-03-28T12:44:23.989Z</time></trkpt><trkpt lat="45.9838789782882" lon="9.43926713229779"><ele>576.2</ele><time>2026-03-28T12:44:24.99Z</time></trkpt><trkpt lat="45.98384684118178" lon="9.439460866467895"><ele>574.0</ele><time>2026-03-28T12:44:25.99Z</time></trkpt><trkpt lat="45.98382693538394" lon="9.439639003813134"><ele>574.0</ele><time>2026-03-28T12:44:26.99Z</time></trkpt><trkpt lat="45.983807919322366" lon="9.439865011852078"><ele>574.0</ele><time>2026-03-28T12:44:27.989Z</time></trkpt><trkpt lat="45.98377154023761" lon="9.440038549118785"><ele>574.0</ele><time>2026-03-28T12:44:28.99Z</time></trkpt><trkpt lat="45.983741389774835" lon="9.440214592815703"><ele>574.0</ele><time>2026-03-28T12:44:29.99Z</time></trkpt><trkpt lat="45.9836990578821" lon="9.44032916821906"><ele>575.3333333333334</ele><time>2026-03-28T12:44:30.99Z</time></trkpt><trkpt lat="45.98362080647658" lon="9.440482495442529"><ele>576.6666666666667</ele><time>2026-03-28T12:44:32.99Z</time></trkpt><trkpt lat="45.983585579361446" lon="9.44058301889712"><ele>578.0</ele><time>2026-03-28T12:44:33.99Z</time></trkpt><trkpt lat="45.98353244197609" lon="9.440651590564208"><ele>579.3333333333334</ele><time>2026-03-28T12:44:34.99Z</time></trkpt><trkpt lat="45.983469915271975" lon="9.44074856668166"><ele>580.6666666666666</ele><time>2026-03-28T12:44:36.99Z</time></trkpt><trkpt lat="45.983429018198606" lon="9.440821719254608"><ele>582.0</ele><time>2026-03-28T12:44:38.99Z</time></trkpt><trkpt lat="45.98337199551931" lon="9.440930706880795"><ele>583.5</ele><time>2026-03-28T12:44:40.99Z</time></trkpt><trkpt lat="45.983310629911436" lon="9.441040722767854"><ele>585.0</ele><time>2026-03-28T12:44:41.99Z</time></trkpt><trkpt lat="45.983229199771294" lon="9.44117364994353"><ele>586.5</ele><time>2026-03-28T12:44:42.99Z</time></trkpt><trkpt lat="45.98313982715214" lon="9.44132521272837"><ele>588.0</ele><time>2026-03-28T12:44:43.99Z</time></trkpt><trkpt lat="45.983065590009204" lon="9.441399474473796"><ele>588.0</ele><time>2026-03-28T12:44:44.989Z</time></trkpt><trkpt lat="45.9830390424429" lon="9.441555553337968"><ele>588.0</ele><time>2026-03-28T12:44:46.989Z</time></trkpt><trkpt lat="45.98307186778392" lon="9.441723621935234"><ele>588.0</ele><time>2026-03-28T12:44:47.989Z</time></trkpt><trkpt lat="45.98307043371462" lon="9.441892392248349"><ele>588.0</ele><time>2026-03-28T12:44:48.989Z</time></trkpt><trkpt lat="45.98300905234491" lon="9.442026485753479"><ele>590.1999999999999</ele><time>2026-03-28T12:44:49.989Z</time></trkpt><trkpt lat="45.98293235443233" lon="9.442158194319223"><ele>592.4</ele><time>2026-03-28T12:44:50.989Z</time></trkpt><trkpt lat="45.98288832966113" lon="9.442246547206446"><ele>594.5999999999999</ele><time>2026-03-28T12:44:51.989Z</time></trkpt><trkpt lat="45.982899450494074" lon="9.442348902101886"><ele>596.8</ele><time>2026-03-28T12:44:53.989Z</time></trkpt><trkpt lat="45.98302968791995" lon="9.442310656231605"><ele>599.0</ele><time>2026-03-28T12:44:55.989Z</time></trkpt><trkpt lat="45.98310196635412" lon="9.442207474941819"><ele>596.8</ele><time>2026-03-28T12:44:56.989Z</time></trkpt><trkpt lat="45.98319884006496" lon="9.442110112220686"><ele>594.5999999999999</ele><time>2026-03-28T12:44:57.989Z</time></trkpt><trkpt lat="45.98328102652523" lon="9.442079149151933"><ele>592.4</ele><time>2026-03-28T12:44:58.989Z</time></trkpt><trkpt lat="45.983361189155794" lon="9.442137907331642"><ele>590.1999999999999</ele><time>2026-03-28T12:44:59.989Z</time></trkpt><trkpt lat="45.98342981897903" lon="9.442250749957841"><ele>588.0</ele><time>2026-03-28T12:45:00.989Z</time></trkpt><trkpt lat="45.98349778514247" lon="9.442406701183057"><ele>592.8</ele><time>2026-03-28T12:45:01.989Z</time></trkpt><trkpt lat="45.98358619771938" lon="9.44256340025038"><ele>597.5999999999999</ele><time>2026-03-28T12:45:02.989Z</time></trkpt><trkpt lat="45.98364747255748" lon="9.442676475803754"><ele>602.4000000000001</ele><time>2026-03-28T12:45:03.989Z</time></trkpt><trkpt lat="45.983718770280475" lon="9.44281160149578"><ele>607.2</ele><time>2026-03-28T12:45:05.989Z</time></trkpt><trkpt lat="45.98375434898109" lon="9.442890230292639"><ele>612.0</ele><time>2026-03-28T12:45:06.989Z</time></trkpt><trkpt lat="45.98378478531321" lon="9.442978773260704"><ele>614.0</ele><time>2026-03-28T12:45:07.989Z</time></trkpt><trkpt lat="45.983691426154536" lon="9.443037709326667"><ele>616.0</ele><time>2026-03-28T12:45:09.989Z</time></trkpt><trkpt lat="45.98362621285669" lon="9.44305155644828"><ele>618.0</ele><time>2026-03-28T12:45:10.989Z</time></trkpt><trkpt lat="45.98353698024067" lon="9.44309782734399"><ele>620.0</ele><time>2026-03-28T12:45:11.989Z</time></trkpt><trkpt lat="45.98346541990937" lon="9.443167309498465"><ele>622.0</ele><time>2026-03-28T12:45:12.989Z</time></trkpt><trkpt lat="45.98340803499502" lon="9.443225966782927"><ele>624.0</ele><time>2026-03-28T12:45:13.989Z</time></trkpt><trkpt lat="45.98335474012315" lon="9.443360796820102"><ele>624.0</ele><time>2026-03-28T12:45:15.989Z</time></trkpt><trkpt lat="45.98343262588821" lon="9.443409529640771"><ele>624.0</ele><time>2026-03-28T12:47:09.989Z</time></trkpt><trkpt lat="45.98342832053363" lon="9.44350524960737"><ele>624.0</ele><time>2026-03-28T12:47:12.989Z</time></trkpt><trkpt lat="45.98339090367296" lon="9.443604224777555"><ele>624.0</ele><time>2026-03-28T12:47:14.989Z</time></trkpt><trkpt lat="45.98344698807548" lon="9.443667895265333"><ele>624.0</ele><time>2026-03-28T12:47:20.989Z</time></trkpt><trkpt lat="45.983389285808336" lon="9.443604293772704"><ele>624.0</ele><time>2026-03-28T12:48:44.989Z</time></trkpt><trkpt lat="45.98344985938038" lon="9.443479095501738"><ele>624.0</ele><time>2026-03-28T12:48:46.989Z</time></trkpt><trkpt lat="45.98340271678135" lon="9.443384605179473"><ele>624.0</ele><time>2026-03-28T12:48:49.989Z</time></trkpt><trkpt lat="45.98333233750449" lon="9.443356637044227"><ele>624.0</ele><time>2026-03-28T12:49:13.988Z</time></trkpt><trkpt lat="45.98332329612768" lon="9.443455282343253"><ele>624.0</ele><time>2026-03-28T12:49:48.988Z</time></trkpt><trkpt lat="45.98333674411735" lon="9.443362282442815"><ele>624.0</ele><time>2026-03-28T12:49:52.988Z</time></trkpt><trkpt lat="45.98341454986206" lon="9.443288934568555"><ele>624.0</ele><time>2026-03-28T12:49:54.988Z</time></trkpt><trkpt lat="45.983471043860284" lon="9.443206012147884"><ele>624.0</ele><time>2026-03-28T12:49:56.988Z</time></trkpt><trkpt lat="45.98352571982295" lon="9.443115989561422"><ele>624.0</ele><time>2026-03-28T12:50:00.988Z</time></trkpt><trkpt lat="45.983592065395726" lon="9.443077411327081"><ele>624.0</ele><time>2026-03-28T12:50:02.988Z</time></trkpt><trkpt lat="45.98366766220308" lon="9.443029254821715"><ele>624.0</ele><time>2026-03-28T12:50:04.988Z</time></trkpt><trkpt lat="45.98371983583777" lon="9.442977534656531"><ele>624.0</ele><time>2026-03-28T12:50:06.988Z</time></trkpt><trkpt lat="45.9837992812957" lon="9.44297071009222"><ele>624.0</ele><time>2026-03-28T12:50:09.988Z</time></trkpt><trkpt lat="45.9838753195029" lon="9.443032890838232"><ele>624.0</ele><time>2026-03-28T12:50:12.988Z</time></trkpt><trkpt lat="45.98393304056509" lon="9.44309207816092"><ele>624.0</ele><time>2026-03-28T12:50:14.988Z</time></trkpt><trkpt lat="45.984004280318274" lon="9.443090742038448"><ele>624.0</ele><time>2026-03-28T12:50:18.988Z</time></trkpt><trkpt lat="45.98411360896422" lon="9.44304745600009"><ele>624.0</ele><time>2026-03-28T12:50:21.987Z</time></trkpt><trkpt lat="45.984198777521684" lon="9.442959841251309"><ele>624.0</ele><time>2026-03-28T12:50:23.987Z</time></trkpt><trkpt lat="45.984264219491216" lon="9.442929934554895"><ele>624.0</ele><time>2026-03-28T12:50:24.987Z</time></trkpt><trkpt lat="45.984325865470844" lon="9.44289251142001"><ele>625.1428571428572</ele><time>2026-03-28T12:50:25.987Z</time></trkpt><trkpt lat="45.98438937129927" lon="9.442841379352311"><ele>626.2857142857142</ele><time>2026-03-28T12:50:26.987Z</time></trkpt><trkpt lat="45.9844637959254" lon="9.442797690272236"><ele>627.4285714285714</ele><time>2026-03-28T12:50:27.987Z</time></trkpt><trkpt lat="45.98451548638463" lon="9.442736487611578"><ele>628.5714285714287</ele><time>2026-03-28T12:50:28.987Z</time></trkpt><trkpt lat="45.9845789473997" lon="9.442676145687855"><ele>629.7142857142858</ele><time>2026-03-28T12:50:29.987Z</time></trkpt><trkpt lat="45.98465070755783" lon="9.442622708681887"><ele>630.8571428571429</ele><time>2026-03-28T12:50:31.987Z</time></trkpt><trkpt lat="45.98471239738078" lon="9.44264664842419"><ele>632.0</ele><time>2026-03-28T12:50:33.99Z</time></trkpt><trkpt lat="45.984767521585546" lon="9.442573649984453"><ele>632.0</ele><time>2026-03-28T12:50:37.989Z</time></trkpt><trkpt lat="45.98486616788646" lon="9.44248141063031"><ele>632.0</ele><time>2026-03-28T12:50:39.99Z</time></trkpt><trkpt lat="45.98495763161625" lon="9.442431298022038"><ele>632.0</ele><time>2026-03-28T12:50:41.989Z</time></trkpt><trkpt lat="45.98503489292342" lon="9.44235888574799"><ele>632.0</ele><time>2026-03-28T12:50:43.989Z</time></trkpt><trkpt lat="45.98509642107093" lon="9.442299162052285"><ele>632.0</ele><time>2026-03-28T12:50:46.99Z</time></trkpt><trkpt lat="45.9851751824529" lon="9.442189033479302"><ele>634.8</ele><time>2026-03-28T12:50:48.99Z</time></trkpt><trkpt lat="45.98520746181109" lon="9.44208321383194"><ele>637.6</ele><time>2026-03-28T12:50:49.99Z</time></trkpt><trkpt lat="45.98522771899151" lon="9.441949891038892"><ele>640.4</ele><time>2026-03-28T12:50:50.99Z</time></trkpt><trkpt lat="45.98526423043648" lon="9.441814377081345"><ele>643.1999999999999</ele><time>2026-03-28T12:50:51.99Z</time></trkpt><trkpt lat="45.98528921781889" lon="9.441674697436495"><ele>646.0</ele><time>2026-03-28T12:50:52.99Z</time></trkpt><trkpt lat="45.985313845955986" lon="9.441562751570377"><ele>646.0</ele><time>2026-03-28T12:50:53.99Z</time></trkpt><trkpt lat="45.98537294414248" lon="9.441448567694371"><ele>646.0</ele><time>2026-03-28T12:50:54.99Z</time></trkpt><trkpt lat="45.98541413734777" lon="9.441344939439055"><ele>646.0</ele><time>2026-03-28T12:50:55.99Z</time></trkpt><trkpt lat="45.985408306534616" lon="9.441228673838493"><ele>646.0</ele><time>2026-03-28T12:50:57.99Z</time></trkpt><trkpt lat="45.98534302278782" lon="9.441179312719818"><ele>646.0</ele><time>2026-03-28T12:50:58.99Z</time></trkpt><trkpt lat="45.9852612727814" lon="9.441124426769878"><ele>646.0</ele><time>2026-03-28T12:50:59.99Z</time></trkpt><trkpt lat="45.98517000989622" lon="9.441049002779602"><ele>643.0</ele><time>2026-03-28T12:51:00.99Z</time></trkpt><trkpt lat="45.985081462645525" lon="9.440982195778659"><ele>640.0</ele><time>2026-03-28T12:51:01.99Z</time></trkpt><trkpt lat="45.98499925657357" lon="9.440910145324619"><ele>637.0</ele><time>2026-03-28T12:51:02.99Z</time></trkpt><trkpt lat="45.984917854100374" lon="9.440866471579039"><ele>634.0</ele><time>2026-03-28T12:51:03.99Z</time></trkpt><trkpt lat="45.984846264080076" lon="9.440806198483946"><ele>631.0</ele><time>2026-03-28T12:51:04.99Z</time></trkpt><trkpt lat="45.9847636874871" lon="9.440763100473495"><ele>624.6</ele><time>2026-03-28T12:51:05.99Z</time></trkpt><trkpt lat="45.98466752040389" lon="9.440696201327222"><ele>618.2</ele><time>2026-03-28T12:51:06.99Z</time></trkpt><trkpt lat="45.98462247212131" lon="9.440631602468143"><ele>611.8</ele><time>2026-03-28T12:51:07.99Z</time></trkpt><trkpt lat="45.98456432537798" lon="9.440562931345161"><ele>605.4</ele><time>2026-03-28T12:51:09.989Z</time></trkpt><trkpt lat="45.98448969161876" lon="9.440585474852455"><ele>599.0</ele><time>2026-03-28T12:51:11.989Z</time></trkpt><trkpt lat="45.98435683599454" lon="9.440608011045109"><ele>599.0</ele><time>2026-03-28T12:51:18.989Z</time></trkpt><trkpt lat="45.98429372367179" lon="9.440603502666164"><ele>599.0</ele><time>2026-03-28T12:51:19.989Z</time></trkpt><trkpt lat="45.98423044574673" lon="9.44057590081923"><ele>599.0</ele><time>2026-03-28T12:51:20.989Z</time></trkpt><trkpt lat="45.98417559043992" lon="9.440461690301493"><ele>599.0</ele><time>2026-03-28T12:51:22.989Z</time></trkpt><trkpt lat="45.984204719726414" lon="9.440378920406108"><ele>599.0</ele><time>2026-03-28T12:51:24.989Z</time></trkpt><trkpt lat="45.98427592275995" lon="9.440301290445623"><ele>599.0</ele><time>2026-03-28T12:51:27.989Z</time></trkpt><trkpt lat="45.98428593388808" lon="9.44020573691046"><ele>599.0</ele><time>2026-03-28T12:51:28.989Z</time></trkpt><trkpt lat="45.984286142530415" lon="9.44010281169776"><ele>598.0</ele><time>2026-03-28T12:51:29.989Z</time></trkpt><trkpt lat="45.98427908000146" lon="9.439963375965606"><ele>597.0</ele><time>2026-03-28T12:51:31.989Z</time></trkpt><trkpt lat="45.984308251283935" lon="9.439848560845638"><ele>596.0</ele><time>2026-03-28T12:51:33.989Z</time></trkpt><trkpt lat="45.984226674456096" lon="9.439745213409608"><ele>595.0</ele><time>2026-03-28T12:51:36.989Z</time></trkpt><trkpt lat="45.98427169540876" lon="9.4396094792629"><ele>594.0</ele><time>2026-03-28T12:51:38.989Z</time></trkpt><trkpt lat="45.98417815803072" lon="9.43959238862263"><ele>589.6</ele><time>2026-03-28T12:51:41.989Z</time></trkpt><trkpt lat="45.984113980448896" lon="9.439580099112714"><ele>585.2</ele><time>2026-03-28T12:51:42.989Z</time></trkpt><trkpt lat="45.9841072269091" lon="9.43947911516322"><ele>580.8000000000001</ele><time>2026-03-28T12:51:45.989Z</time></trkpt><trkpt lat="45.98401555763779" lon="9.439401556824784"><ele>576.4</ele><time>2026-03-28T12:51:48.989Z</time></trkpt><trkpt lat="45.98396304585658" lon="9.439324161139211"><ele>572.0</ele><time>2026-03-28T12:51:52.989Z</time></trkpt><trkpt lat="45.983948300665915" lon="9.439130331919936"><ele>572.0</ele><time>2026-03-28T12:51:54.989Z</time></trkpt><trkpt lat="45.98391865900265" lon="9.438957394757065"><ele>572.0</ele><time>2026-03-28T12:51:55.989Z</time></trkpt><trkpt lat="45.98388733641887" lon="9.438861109058616"><ele>572.0</ele><time>2026-03-28T12:51:56.989Z</time></trkpt><trkpt lat="45.983831965483624" lon="9.43875693964716"><ele>572.0</ele><time>2026-03-28T12:51:57.989Z</time></trkpt><trkpt lat="45.98375871050134" lon="9.438613109838775"><ele>572.0</ele><time>2026-03-28T12:51:58.989Z</time></trkpt><trkpt lat="45.98368274038225" lon="9.438485791461805"><ele>571.0</ele><time>2026-03-28T12:51:59.989Z</time></trkpt><trkpt lat="45.98360383611676" lon="9.438369452845754"><ele>570.0</ele><time>2026-03-28T12:52:00.989Z</time></trkpt><trkpt lat="45.98353311509089" lon="9.438266446899465"><ele>569.0</ele><time>2026-03-28T12:52:01.989Z</time></trkpt><trkpt lat="45.983459616290425" lon="9.43817133145449"><ele>568.0</ele><time>2026-03-28T12:52:02.989Z</time></trkpt><trkpt lat="45.98338592083986" lon="9.43810445456458"><ele>567.0</ele><time>2026-03-28T12:52:03.989Z</time></trkpt><trkpt lat="45.983324135579814" lon="9.438054161245255"><ele>564.5</ele><time>2026-03-28T12:52:04.989Z</time></trkpt><trkpt lat="45.983268595572945" lon="9.438002872326003"><ele>562.0</ele><time>2026-03-28T12:52:05.989Z</time></trkpt><trkpt lat="45.983200160340544" lon="9.437971715945697"><ele>559.5</ele><time>2026-03-28T12:52:07.989Z</time></trkpt><trkpt lat="45.98309169206387" lon="9.437917770938851"><ele>557.0</ele><time>2026-03-28T12:52:11.989Z</time></trkpt><trkpt lat="45.983028334994046" lon="9.437840348637847"><ele>554.5</ele><time>2026-03-28T12:52:13.989Z</time></trkpt><trkpt lat="45.98299514671895" lon="9.437712427168098"><ele>552.0</ele><time>2026-03-28T12:52:14.989Z</time></trkpt><trkpt lat="45.98294039367937" lon="9.437591234527288"><ele>551.75</ele><time>2026-03-28T12:52:15.989Z</time></trkpt><trkpt lat="45.98283136348001" lon="9.43746703331768"><ele>551.5</ele><time>2026-03-28T12:52:16.989Z</time></trkpt><trkpt lat="45.982723635653876" lon="9.43736245673342"><ele>551.25</ele><time>2026-03-28T12:52:17.989Z</time></trkpt><trkpt lat="45.98262648112721" lon="9.437283120100325"><ele>551.0</ele><time>2026-03-28T12:52:18.989Z</time></trkpt><trkpt lat="45.982537143936256" lon="9.437227225625227"><ele>549.2</ele><time>2026-03-28T12:52:19.989Z</time></trkpt><trkpt lat="45.98243865609539" lon="9.437186678183979"><ele>547.4000000000001</ele><time>2026-03-28T12:52:20.989Z</time></trkpt><trkpt lat="45.98234373398668" lon="9.437130963547215"><ele>545.6</ele><time>2026-03-28T12:52:21.989Z</time></trkpt><trkpt lat="45.98225275053608" lon="9.43709472366773"><ele>543.8000000000001</ele><time>2026-03-28T12:52:22.988Z</time></trkpt><trkpt lat="45.98216620821899" lon="9.437039722801032"><ele>542.0</ele><time>2026-03-28T12:52:23.988Z</time></trkpt><trkpt lat="45.98207584852" lon="9.436983689346834"><ele>541.5</ele><time>2026-03-28T12:52:24.988Z</time></trkpt><trkpt lat="45.98196186020845" lon="9.436910831931147"><ele>541.0</ele><time>2026-03-28T12:52:25.988Z</time></trkpt><trkpt lat="45.98183703939389" lon="9.436806936205674"><ele>540.5</ele><time>2026-03-28T12:52:26.988Z</time></trkpt><trkpt lat="45.981721338708844" lon="9.43666112806926"><ele>540.0</ele><time>2026-03-28T12:52:27.988Z</time></trkpt><trkpt lat="45.98164608181208" lon="9.436562218941857"><ele>539.8</ele><time>2026-03-28T12:52:28.988Z</time></trkpt><trkpt lat="45.9815574191055" lon="9.43646212749326"><ele>539.6</ele><time>2026-03-28T12:52:29.988Z</time></trkpt><trkpt lat="45.981479708905" lon="9.436361989482561"><ele>539.4</ele><time>2026-03-28T12:52:30.988Z</time></trkpt><trkpt lat="45.98139660984376" lon="9.43627706378864"><ele>539.2</ele><time>2026-03-28T12:52:31.988Z</time></trkpt><trkpt lat="45.98132192235881" lon="9.436182806648258"><ele>539.0</ele><time>2026-03-28T12:52:32.988Z</time></trkpt><trkpt lat="45.98124190963252" lon="9.436090869412642"><ele>538.25</ele><time>2026-03-28T12:52:33.988Z</time></trkpt><trkpt lat="45.981145361790226" lon="9.435973476024632"><ele>537.5</ele><time>2026-03-28T12:52:34.988Z</time></trkpt><trkpt lat="45.981043872986355" lon="9.435880761921842"><ele>536.75</ele><time>2026-03-28T12:52:35.988Z</time></trkpt><trkpt lat="45.98094031308642" lon="9.43580188779673"><ele>536.0</ele><time>2026-03-28T12:52:36.988Z</time></trkpt><trkpt lat="45.98082946511352" lon="9.435709480951575"><ele>535.2</ele><time>2026-03-28T12:52:37.988Z</time></trkpt><trkpt lat="45.98072847198465" lon="9.435613920803652"><ele>534.4000000000001</ele><time>2026-03-28T12:52:38.988Z</time></trkpt><trkpt lat="45.980647071463586" lon="9.435545628735685"><ele>533.6</ele><time>2026-03-28T12:52:39.989Z</time></trkpt><trkpt lat="45.98056295560332" lon="9.435445337868641"><ele>532.8000000000001</ele><time>2026-03-28T12:52:40.989Z</time></trkpt><trkpt lat="45.980484353651924" lon="9.435381792859081"><ele>532.0</ele><time>2026-03-28T12:52:41.989Z</time></trkpt><trkpt lat="45.980377455888096" lon="9.435295948325184"><ele>531.8000000000001</ele><time>2026-03-28T12:52:42.989Z</time></trkpt><trkpt lat="45.98027455461485" lon="9.435220142457899"><ele>531.6</ele><time>2026-03-28T12:52:43.989Z</time></trkpt><trkpt lat="45.980187315116204" lon="9.435141281514865"><ele>531.4000000000001</ele><time>2026-03-28T12:52:44.989Z</time></trkpt><trkpt lat="45.98010845517661" lon="9.435055086938402"><ele>531.2</ele><time>2026-03-28T12:52:45.989Z</time></trkpt><trkpt lat="45.980017432726854" lon="9.434997665471514"><ele>531.0</ele><time>2026-03-28T12:52:46.989Z</time></trkpt><trkpt lat="45.97992287142794" lon="9.434937552069599"><ele>530.5</ele><time>2026-03-28T12:52:47.989Z</time></trkpt><trkpt lat="45.97981643133319" lon="9.434869327190125"><ele>530.0</ele><time>2026-03-28T12:52:48.989Z</time></trkpt><trkpt lat="45.97970907309053" lon="9.434801974220438"><ele>529.5</ele><time>2026-03-28T12:52:49.989Z</time></trkpt><trkpt lat="45.979585925271394" lon="9.434726027807905"><ele>529.0</ele><time>2026-03-28T12:52:50.989Z</time></trkpt><trkpt lat="45.97946107932981" lon="9.43465348954713"><ele>528.75</ele><time>2026-03-28T12:52:51.99Z</time></trkpt><trkpt lat="45.97934850078737" lon="9.434594323759809"><ele>528.5</ele><time>2026-03-28T12:52:52.99Z</time></trkpt><trkpt lat="45.97923423583644" lon="9.434535927704985"><ele>528.25</ele><time>2026-03-28T12:52:53.99Z</time></trkpt><trkpt lat="45.97912674849744" lon="9.434473495157288"><ele>528.0</ele><time>2026-03-28T12:52:54.99Z</time></trkpt><trkpt lat="45.979040401412945" lon="9.434402432292124"><ele>528.0</ele><time>2026-03-28T12:52:55.99Z</time></trkpt><trkpt lat="45.978958941708626" lon="9.434332622844078"><ele>528.0</ele><time>2026-03-28T12:52:56.99Z</time></trkpt><trkpt lat="45.97887885419059" lon="9.43426987252968"><ele>528.0</ele><time>2026-03-28T12:52:57.99Z</time></trkpt><trkpt lat="45.978809113208996" lon="9.434177650224074"><ele>528.0</ele><time>2026-03-28T12:52:58.99Z</time></trkpt><trkpt lat="45.978766179166655" lon="9.434048729380635"><ele>528.0</ele><time>2026-03-28T12:52:59.99Z</time></trkpt><trkpt lat="45.97875274150414" lon="9.433861489225539"><ele>528.0</ele><time>2026-03-28T12:53:00.99Z</time></trkpt><trkpt lat="45.97874698733352" lon="9.433665439105281"><ele>528.0</ele><time>2026-03-28T12:53:01.99Z</time></trkpt><trkpt lat="45.97872174702453" lon="9.433505094062104"><ele>528.0</ele><time>2026-03-28T12:53:02.99Z</time></trkpt><trkpt lat="45.97867464365141" lon="9.433383201471097"><ele>528.0</ele><time>2026-03-28T12:53:03.99Z</time></trkpt><trkpt lat="45.978598383756236" lon="9.433267775583937"><ele>528.0</ele><time>2026-03-28T12:53:04.99Z</time></trkpt><trkpt lat="45.97854469893365" lon="9.433128980491878"><ele>528.0</ele><time>2026-03-28T12:53:05.99Z</time></trkpt><trkpt lat="45.97851952421313" lon="9.433007505267492"><ele>528.0</ele><time>2026-03-28T12:53:06.99Z</time></trkpt><trkpt lat="45.97853560251265" lon="9.432876477376183"><ele>528.0</ele><time>2026-03-28T12:53:07.99Z</time></trkpt><trkpt lat="45.97857954785" lon="9.43272525405527"><ele>528.0</ele><time>2026-03-28T12:53:08.99Z</time></trkpt><trkpt lat="45.978655906574296" lon="9.432572555427424"><ele>527.5</ele><time>2026-03-28T12:53:09.989Z</time></trkpt><trkpt lat="45.978707283206745" lon="9.432385652988508"><ele>527.0</ele><time>2026-03-28T12:53:10.989Z</time></trkpt><trkpt lat="45.97872752561251" lon="9.432216564026954"><ele>526.5</ele><time>2026-03-28T12:53:11.989Z</time></trkpt><trkpt lat="45.97874193687747" lon="9.432081208764833"><ele>526.0</ele><time>2026-03-28T12:53:12.989Z</time></trkpt><trkpt lat="45.97879451514387" lon="9.431944991826326"><ele>525.4</ele><time>2026-03-28T12:53:13.989Z</time></trkpt><trkpt lat="45.97886619611157" lon="9.431784373229446"><ele>524.8</ele><time>2026-03-28T12:53:14.989Z</time></trkpt><trkpt lat="45.978918035965854" lon="9.431668657697635"><ele>524.1999999999999</ele><time>2026-03-28T12:53:15.989Z</time></trkpt><trkpt lat="45.97897200670643" lon="9.431561956361637"><ele>523.6</ele><time>2026-03-28T12:53:16.989Z</time></trkpt><trkpt lat="45.979030501486825" lon="9.43145408371584"><ele>523.0</ele><time>2026-03-28T12:53:17.989Z</time></trkpt><trkpt lat="45.97910817702017" lon="9.431325546755964"><ele>523.25</ele><time>2026-03-28T12:53:18.989Z</time></trkpt><trkpt lat="45.97920789769293" lon="9.431191733320404"><ele>523.5</ele><time>2026-03-28T12:53:19.989Z</time></trkpt><trkpt lat="45.97931134188119" lon="9.431051709054957"><ele>523.75</ele><time>2026-03-28T12:53:20.989Z</time></trkpt><trkpt lat="45.979407444587316" lon="9.430929608246315"><ele>524.0</ele><time>2026-03-28T12:53:21.989Z</time></trkpt><trkpt lat="45.97951640722007" lon="9.430783988207835"><ele>524.0</ele><time>2026-03-28T12:53:22.989Z</time></trkpt><trkpt lat="45.979622689640486" lon="9.430659418349753"><ele>524.0</ele><time>2026-03-28T12:53:23.989Z</time></trkpt><trkpt lat="45.97971853749063" lon="9.430554509678771"><ele>524.0</ele><time>2026-03-28T12:53:24.989Z</time></trkpt><trkpt lat="45.97981700401355" lon="9.430479526554832"><ele>524.0</ele><time>2026-03-28T12:53:25.989Z</time></trkpt><trkpt lat="45.97991780540757" lon="9.430433218982548"><ele>523.0</ele><time>2026-03-28T12:53:26.989Z</time></trkpt><trkpt lat="45.98003781374836" lon="9.430364467574094"><ele>522.0</ele><time>2026-03-28T12:53:27.989Z</time></trkpt><trkpt lat="45.98016536581131" lon="9.430296541866047"><ele>521.0</ele><time>2026-03-28T12:53:28.989Z</time></trkpt><trkpt lat="45.98028291931534" lon="9.430226430726774"><ele>520.0</ele><time>2026-03-28T12:53:29.989Z</time></trkpt><trkpt lat="45.98038386485499" lon="9.430159160799565"><ele>520.0</ele><time>2026-03-28T12:53:30.989Z</time></trkpt><trkpt lat="45.98047959015816" lon="9.430098513452217"><ele>520.0</ele><time>2026-03-28T12:53:31.989Z</time></trkpt><trkpt lat="45.98059151359705" lon="9.430034348214704"><ele>520.0</ele><time>2026-03-28T12:53:32.989Z</time></trkpt><trkpt lat="45.98069627317454" lon="9.42996845726193"><ele>520.0</ele><time>2026-03-28T12:53:33.989Z</time></trkpt><trkpt lat="45.980801123573364" lon="9.429895875480018"><ele>520.0</ele><time>2026-03-28T12:53:34.989Z</time></trkpt><trkpt lat="45.98090732706064" lon="9.429833930433036"><ele>520.0</ele><time>2026-03-28T12:53:35.989Z</time></trkpt><trkpt lat="45.98101458317259" lon="9.429758849434961"><ele>520.0</ele><time>2026-03-28T12:53:36.989Z</time></trkpt><trkpt lat="45.98113202081267" lon="9.42967790146503"><ele>520.0</ele><time>2026-03-28T12:53:37.989Z</time></trkpt><trkpt lat="45.981240512291755" lon="9.429596453234279"><ele>519.4</ele><time>2026-03-28T12:53:38.989Z</time></trkpt><trkpt lat="45.981330058756356" lon="9.429509242480277"><ele>518.8</ele><time>2026-03-28T12:53:39.989Z</time></trkpt><trkpt lat="45.98141404656466" lon="9.429434379373731"><ele>518.2</ele><time>2026-03-28T12:53:40.989Z</time></trkpt><trkpt lat="45.98150134133478" lon="9.429343059141743"><ele>517.6</ele><time>2026-03-28T12:53:41.989Z</time></trkpt><trkpt lat="45.981594492610306" lon="9.429246033939425"><ele>517.0</ele><time>2026-03-28T12:53:42.989Z</time></trkpt><trkpt lat="45.98170521831148" lon="9.429120934521967"><ele>517.0</ele><time>2026-03-28T12:53:43.989Z</time></trkpt><trkpt lat="45.981807892331354" lon="9.428986391049857"><ele>517.0</ele><time>2026-03-28T12:53:44.989Z</time></trkpt><trkpt lat="45.98190054979311" lon="9.428863190887752"><ele>517.0</ele><time>2026-03-28T12:53:45.989Z</time></trkpt><trkpt lat="45.98199774529445" lon="9.428724030079458"><ele>517.0</ele><time>2026-03-28T12:53:46.989Z</time></trkpt><trkpt lat="45.98209279748078" lon="9.42857386842207"><ele>516.75</ele><time>2026-03-28T12:53:47.989Z</time></trkpt><trkpt lat="45.98217901087868" lon="9.428450131221489"><ele>516.5</ele><time>2026-03-28T12:53:48.989Z</time></trkpt><trkpt lat="45.98227251825206" lon="9.42831945595986"><ele>516.25</ele><time>2026-03-28T12:53:49.989Z</time></trkpt><trkpt lat="45.9823796989431" lon="9.428153815830782"><ele>516.0</ele><time>2026-03-28T12:53:50.989Z</time></trkpt><trkpt lat="45.98247621049453" lon="9.42798349151131"><ele>515.5</ele><time>2026-03-28T12:53:51.989Z</time></trkpt><trkpt lat="45.982553210245115" lon="9.42782477834221"><ele>515.0</ele><time>2026-03-28T12:53:52.989Z</time></trkpt><trkpt lat="45.98262490603942" lon="9.427676912702545"><ele>514.5</ele><time>2026-03-28T12:53:53.989Z</time></trkpt><trkpt lat="45.98268607469377" lon="9.427539405809423"><ele>514.0</ele><time>2026-03-28T12:53:54.989Z</time></trkpt><trkpt lat="45.9827607978802" lon="9.427414188413366"><ele>514.0</ele><time>2026-03-28T12:53:55.989Z</time></trkpt><trkpt lat="45.9828283900974" lon="9.427282088271662"><ele>514.0</ele><time>2026-03-28T12:53:56.989Z</time></trkpt><trkpt lat="45.982902677020995" lon="9.427140298176878"><ele>514.0</ele><time>2026-03-28T12:53:57.989Z</time></trkpt><trkpt lat="45.98297348040403" lon="9.426995227835016"><ele>514.0</ele><time>2026-03-28T12:53:58.989Z</time></trkpt><trkpt lat="45.983042382213775" lon="9.42682995521882"><ele>514.0</ele><time>2026-03-28T12:53:59.989Z</time></trkpt><trkpt lat="45.98311389800822" lon="9.426654870252397"><ele>514.0</ele><time>2026-03-28T12:54:00.989Z</time></trkpt><trkpt lat="45.98316121752831" lon="9.426485407633434"><ele>514.0</ele><time>2026-03-28T12:54:01.989Z</time></trkpt><trkpt lat="45.98321484131745" lon="9.426338544043478"><ele>514.0</ele><time>2026-03-28T12:54:02.989Z</time></trkpt><trkpt lat="45.98326031741796" lon="9.426188073035233"><ele>513.25</ele><time>2026-03-28T12:54:03.989Z</time></trkpt><trkpt lat="45.98331085107414" lon="9.42601331902675"><ele>512.5</ele><time>2026-03-28T12:54:04.989Z</time></trkpt><trkpt lat="45.983365047025515" lon="9.4258512386265"><ele>511.75</ele><time>2026-03-28T12:54:05.989Z</time></trkpt><trkpt lat="45.98342231804732" lon="9.425684719544034"><ele>511.0</ele><time>2026-03-28T12:54:06.989Z</time></trkpt><trkpt lat="45.98346977733363" lon="9.425533005453357"><ele>512.2</ele><time>2026-03-28T12:54:07.989Z</time></trkpt><trkpt lat="45.98351704829962" lon="9.42539149756175"><ele>513.4000000000001</ele><time>2026-03-28T12:54:08.989Z</time></trkpt><trkpt lat="45.9835519480116" lon="9.425265697603729"><ele>514.6</ele><time>2026-03-28T12:54:09.989Z</time></trkpt><trkpt lat="45.98360229354461" lon="9.42515423051086"><ele>515.8000000000001</ele><time>2026-03-28T12:54:10.989Z</time></trkpt><trkpt lat="45.9836613470951" lon="9.425012067822498"><ele>517.0</ele><time>2026-03-28T12:54:11.989Z</time></trkpt><trkpt lat="45.98372818523685" lon="9.424873688077614"><ele>517.0</ele><time>2026-03-28T12:54:12.989Z</time></trkpt><trkpt lat="45.98377097429099" lon="9.424770862280297"><ele>517.0</ele><time>2026-03-28T12:54:13.989Z</time></trkpt><trkpt lat="45.98377641281698" lon="9.424648078278224"><ele>517.0</ele><time>2026-03-28T12:54:14.989Z</time></trkpt><trkpt lat="45.98375886967948" lon="9.424522318817397"><ele>517.0</ele><time>2026-03-28T12:54:15.989Z</time></trkpt><trkpt lat="45.983715582984374" lon="9.424428339915291"><ele>517.0</ele><time>2026-03-28T12:54:16.989Z</time></trkpt><trkpt lat="45.983646890583266" lon="9.424348044383496"><ele>517.0</ele><time>2026-03-28T12:54:18.989Z</time></trkpt><trkpt lat="45.98352172230212" lon="9.424300901830144"><ele>516.3333333333334</ele><time>2026-03-28T12:54:20.989Z</time></trkpt><trkpt lat="45.983451288480154" lon="9.42426449784458"><ele>515.6666666666667</ele><time>2026-03-28T12:54:21.989Z</time></trkpt><trkpt lat="45.98338768848101" lon="9.4242256128885"><ele>515.0</ele><time>2026-03-28T12:54:22.989Z</time></trkpt><trkpt lat="45.98326034715282" lon="9.424201865055128"><ele>514.3333333333334</ele><time>2026-03-28T12:54:24.988Z</time></trkpt><trkpt lat="45.9831885660499" lon="9.424240895722173"><ele>513.6666666666666</ele><time>2026-03-28T12:54:25.988Z</time></trkpt><trkpt lat="45.98314292841187" lon="9.424312062608296"><ele>513.0</ele><time>2026-03-28T12:54:26.988Z</time></trkpt><trkpt lat="45.983019344441864" lon="9.424366503968342"><ele>512.0</ele><time>2026-03-28T12:54:28.988Z</time></trkpt><trkpt lat="45.982926718354655" lon="9.424373603126401"><ele>510.99999999999994</ele><time>2026-03-28T12:54:29.988Z</time></trkpt><trkpt lat="45.98283744901652" lon="9.4243825551"><ele>509.99999999999994</ele><time>2026-03-28T12:54:30.988Z</time></trkpt><trkpt lat="45.98274293299221" lon="9.424362989058405"><ele>509.0</ele><time>2026-03-28T12:54:31.988Z</time></trkpt><trkpt lat="45.98264943486074" lon="9.424322570229535"><ele>508.0</ele><time>2026-03-28T12:54:32.988Z</time></trkpt><trkpt lat="45.98253570907768" lon="9.424262084830149"><ele>509.0</ele><time>2026-03-28T12:54:33.988Z</time></trkpt><trkpt lat="45.98239868359073" lon="9.42418887336767"><ele>510.0</ele><time>2026-03-28T12:54:34.988Z</time></trkpt><trkpt lat="45.98230656876788" lon="9.42414131597337"><ele>511.0</ele><time>2026-03-28T12:54:35.988Z</time></trkpt><trkpt lat="45.98220296817256" lon="9.424080150962325"><ele>512.0</ele><time>2026-03-28T12:54:36.988Z</time></trkpt><trkpt lat="45.9821002247927" lon="9.42402560873967"><ele>512.0</ele><time>2026-03-28T12:54:37.988Z</time></trkpt><trkpt lat="45.98201812614229" lon="9.42395727936183"><ele>512.0</ele><time>2026-03-28T12:54:38.988Z</time></trkpt><trkpt lat="45.98194950500861" lon="9.423874173510985"><ele>512.0</ele><time>2026-03-28T12:54:39.988Z</time></trkpt><trkpt lat="45.98187048163079" lon="9.42376630615212"><ele>512.0</ele><time>2026-03-28T12:54:40.988Z</time></trkpt><trkpt lat="45.98179581088005" lon="9.423664399818467"><ele>512.0</ele><time>2026-03-28T12:54:41.988Z</time></trkpt><trkpt lat="45.98174833110412" lon="9.423564839769675"><ele>512.25</ele><time>2026-03-28T12:54:42.988Z</time></trkpt><trkpt lat="45.981701722053494" lon="9.423423118413334"><ele>512.5</ele><time>2026-03-28T12:54:43.988Z</time></trkpt><trkpt lat="45.98165515898619" lon="9.42328380210429"><ele>512.75</ele><time>2026-03-28T12:54:44.989Z</time></trkpt><trkpt lat="45.98157982146032" lon="9.42314849606275"><ele>513.0</ele><time>2026-03-28T12:54:45.989Z</time></trkpt><trkpt lat="45.98153131285275" lon="9.422978996234425"><ele>515.25</ele><time>2026-03-28T12:54:46.989Z</time></trkpt><trkpt lat="45.98147367586099" lon="9.422818687592969"><ele>517.5</ele><time>2026-03-28T12:54:47.99Z</time></trkpt><trkpt lat="45.98141473333956" lon="9.422644745191667"><ele>519.75</ele><time>2026-03-28T12:54:48.989Z</time></trkpt><trkpt lat="45.98135889825564" lon="9.422499488408697"><ele>522.0</ele><time>2026-03-28T12:54:49.989Z</time></trkpt><trkpt lat="45.981306237421784" lon="9.422384902609613"><ele>522.0</ele><time>2026-03-28T12:54:50.989Z</time></trkpt><trkpt lat="45.98125536020397" lon="9.422267211238841"><ele>522.0</ele><time>2026-03-28T12:54:51.989Z</time></trkpt><trkpt lat="45.98120116985795" lon="9.422149927172025"><ele>522.0</ele><time>2026-03-28T12:54:52.989Z</time></trkpt><trkpt lat="45.98113972219795" lon="9.422020966971463"><ele>522.0</ele><time>2026-03-28T12:54:53.989Z</time></trkpt><trkpt lat="45.981079624728146" lon="9.421902356010502"><ele>522.0</ele><time>2026-03-28T12:54:54.989Z</time></trkpt><trkpt lat="45.981019046398885" lon="9.42177507290969"><ele>523.2</ele><time>2026-03-28T12:54:55.989Z</time></trkpt><trkpt lat="45.98096090527008" lon="9.421657713429186"><ele>524.4000000000001</ele><time>2026-03-28T12:54:56.989Z</time></trkpt><trkpt lat="45.980904955282696" lon="9.421541141479826"><ele>525.5999999999999</ele><time>2026-03-28T12:54:57.989Z</time></trkpt><trkpt lat="45.98083997272558" lon="9.421409206286613"><ele>526.8</ele><time>2026-03-28T12:54:58.989Z</time></trkpt><trkpt lat="45.980773305027064" lon="9.42128597488682"><ele>528.0</ele><time>2026-03-28T12:54:59.989Z</time></trkpt><trkpt lat="45.98072529591025" lon="9.421197344261767"><ele>530.6666666666666</ele><time>2026-03-28T12:55:00.989Z</time></trkpt><trkpt lat="45.980672047392474" lon="9.42111701658794"><ele>533.3333333333334</ele><time>2026-03-28T12:55:01.989Z</time></trkpt><trkpt lat="45.98059579206409" lon="9.420981073653286"><ele>536.0</ele><time>2026-03-28T12:55:03.989Z</time></trkpt><trkpt lat="45.980553293275186" lon="9.420878669069744"><ele>538.6666666666667</ele><time>2026-03-28T12:55:04.989Z</time></trkpt><trkpt lat="45.980526955942544" lon="9.420771845639123"><ele>541.3333333333334</ele><time>2026-03-28T12:55:05.989Z</time></trkpt><trkpt lat="45.98051842682136" lon="9.42065410660553"><ele>544.0</ele><time>2026-03-28T12:55:06.989Z</time></trkpt><trkpt lat="45.980502491063596" lon="9.420540834695096"><ele>545.1666666666667</ele><time>2026-03-28T12:55:07.989Z</time></trkpt><trkpt lat="45.9804873462449" lon="9.420448228692665"><ele>546.3333333333334</ele><time>2026-03-28T12:55:08.989Z</time></trkpt><trkpt lat="45.98046723844147" lon="9.420321382505001"><ele>547.5</ele><time>2026-03-28T12:55:09.989Z</time></trkpt><trkpt lat="45.980450619208945" lon="9.42020874144988"><ele>548.6666666666666</ele><time>2026-03-28T12:55:10.989Z</time></trkpt><trkpt lat="45.98043523243419" lon="9.420071731184294"><ele>549.8333333333333</ele><time>2026-03-28T12:55:11.989Z</time></trkpt><trkpt lat="45.9803986197602" lon="9.419960818296902"><ele>551.0</ele><time>2026-03-28T12:55:12.989Z</time></trkpt><trkpt lat="45.98036937378638" lon="9.419847423650651"><ele>551.0</ele><time>2026-03-28T12:55:13.989Z</time></trkpt><trkpt lat="45.980348297078464" lon="9.419727545620802"><ele>551.0</ele><time>2026-03-28T12:55:14.989Z</time></trkpt><trkpt lat="45.98032661585941" lon="9.419607296767964"><ele>551.0</ele><time>2026-03-28T12:55:15.989Z</time></trkpt><trkpt lat="45.98030663933976" lon="9.419508472103281"><ele>551.0</ele><time>2026-03-28T12:55:16.989Z</time></trkpt><trkpt lat="45.980278164672775" lon="9.419416354947899"><ele>551.0</ele><time>2026-03-28T12:55:17.989Z</time></trkpt><trkpt lat="45.98025752380929" lon="9.41928184316519"><ele>551.0</ele><time>2026-03-28T12:55:18.989Z</time></trkpt><trkpt lat="45.98024417364377" lon="9.41918884128606"><ele>551.8333333333333</ele><time>2026-03-28T12:55:19.989Z</time></trkpt><trkpt lat="45.98022310832449" lon="9.419075848716245"><ele>552.6666666666666</ele><time>2026-03-28T12:55:20.989Z</time></trkpt><trkpt lat="45.98019254077069" lon="9.418996333623054"><ele>553.5</ele><time>2026-03-28T12:55:21.989Z</time></trkpt><trkpt lat="45.980175309624286" lon="9.418868319778879"><ele>554.3333333333334</ele><time>2026-03-28T12:55:22.989Z</time></trkpt><trkpt lat="45.98015904765325" lon="9.418773492023751"><ele>555.1666666666667</ele><time>2026-03-28T12:55:23.989Z</time></trkpt><trkpt lat="45.98013208175813" lon="9.41862741029441"><ele>556.0</ele><time>2026-03-28T12:55:24.989Z</time></trkpt><trkpt lat="45.98011317480544" lon="9.418528217646717"><ele>557.4</ele><time>2026-03-28T12:55:25.989Z</time></trkpt><trkpt lat="45.980096732757495" lon="9.418405143694901"><ele>558.8</ele><time>2026-03-28T12:55:26.989Z</time></trkpt><trkpt lat="45.980064397038056" lon="9.41829572704354"><ele>560.1999999999999</ele><time>2026-03-28T12:55:27.989Z</time></trkpt><trkpt lat="45.980032259656234" lon="9.418185861312097"><ele>561.6</ele><time>2026-03-28T12:55:28.989Z</time></trkpt><trkpt lat="45.97998436539111" lon="9.418010302602122"><ele>563.0</ele><time>2026-03-28T12:55:30.989Z</time></trkpt><trkpt lat="45.97998440308782" lon="9.41789686320292"><ele>567.0</ele><time>2026-03-28T12:55:31.989Z</time></trkpt><trkpt lat="45.979950910407815" lon="9.4177879524641"><ele>571.0</ele><time>2026-03-28T12:55:32.989Z</time></trkpt><trkpt lat="45.97992673764708" lon="9.41770049995724"><ele>575.0</ele><time>2026-03-28T12:55:33.989Z</time></trkpt><trkpt lat="45.97987997953067" lon="9.417597898641922"><ele>579.0</ele><time>2026-03-28T12:55:34.989Z</time></trkpt><trkpt lat="45.97983319894314" lon="9.417535239427668"><ele>583.0</ele><time>2026-03-28T12:55:35.989Z</time></trkpt><trkpt lat="45.97980490737182" lon="9.41734449900655"><ele>587.0</ele><time>2026-03-28T12:55:37.989Z</time></trkpt><trkpt lat="45.97975499638887" lon="9.417235078207169"><ele>587.1428571428571</ele><time>2026-03-28T12:55:38.989Z</time></trkpt><trkpt lat="45.97971325844403" lon="9.417146735505487"><ele>587.2857142857143</ele><time>2026-03-28T12:55:39.989Z</time></trkpt><trkpt lat="45.97965298180663" lon="9.417069789935288"><ele>587.4285714285714</ele><time>2026-03-28T12:55:40.989Z</time></trkpt><trkpt lat="45.97962069309877" lon="9.41698916210355"><ele>587.5714285714286</ele><time>2026-03-28T12:55:41.989Z</time></trkpt><trkpt lat="45.97960046719707" lon="9.416867891901155"><ele>587.7142857142858</ele><time>2026-03-28T12:55:43.989Z</time></trkpt><trkpt lat="45.97963749840927" lon="9.416768128685518"><ele>587.8571428571429</ele><time>2026-03-28T12:55:45.989Z</time></trkpt><trkpt lat="45.97969007972568" lon="9.416715867181663"><ele>588.0</ele><time>2026-03-28T12:55:46.989Z</time></trkpt><trkpt lat="45.97976458416172" lon="9.416678318207044"><ele>588.0</ele><time>2026-03-28T12:55:48.989Z</time></trkpt><trkpt lat="45.979881007552564" lon="9.416631416188553"><ele>588.0</ele><time>2026-03-28T12:55:50.989Z</time></trkpt><trkpt lat="45.979947645720074" lon="9.41657011485044"><ele>588.0</ele><time>2026-03-28T12:55:52.989Z</time></trkpt><trkpt lat="45.980028964257244" lon="9.416442854438705"><ele>588.0</ele><time>2026-03-28T12:55:54.988Z</time></trkpt><trkpt lat="45.98006804860582" lon="9.41635586676161"><ele>588.0</ele><time>2026-03-28T12:55:55.988Z</time></trkpt><trkpt lat="45.980171181506314" lon="9.41625376357363"><ele>583.8</ele><time>2026-03-28T12:55:57.988Z</time></trkpt><trkpt lat="45.98026543311389" lon="9.416208369747268"><ele>579.5999999999999</ele><time>2026-03-28T12:55:59.988Z</time></trkpt><trkpt lat="45.980326946666246" lon="9.416183681690176"><ele>575.4000000000001</ele><time>2026-03-28T12:56:00.988Z</time></trkpt><trkpt lat="45.98038549797877" lon="9.416140438892153"><ele>571.2</ele><time>2026-03-28T12:56:01.988Z</time></trkpt><trkpt lat="45.98044825633624" lon="9.415998246860847"><ele>567.0</ele><time>2026-03-28T12:56:03.988Z</time></trkpt><trkpt lat="45.9805310266409" lon="9.415886712985847"><ele>567.0</ele><time>2026-03-28T12:56:05.988Z</time></trkpt><trkpt lat="45.98059086382331" lon="9.415804325156019"><ele>567.0</ele><time>2026-03-28T12:56:07.988Z</time></trkpt><trkpt lat="45.98063598326853" lon="9.41572704202053"><ele>567.0</ele><time>2026-03-28T12:56:08.988Z</time></trkpt><trkpt lat="45.98069439785272" lon="9.415651400867688"><ele>567.0</ele><time>2026-03-28T12:56:09.988Z</time></trkpt><trkpt lat="45.98076046639369" lon="9.415581767254814"><ele>567.0</ele><time>2026-03-28T12:56:10.988Z</time></trkpt><trkpt lat="45.980810552626124" lon="9.415518246289142"><ele>567.0</ele><time>2026-03-28T12:56:11.988Z</time></trkpt><trkpt lat="45.98084741932947" lon="9.415439227779466"><ele>567.0</ele><time>2026-03-28T12:56:13.988Z</time></trkpt><trkpt lat="45.980904276636856" lon="9.415342898201079"><ele>563.8333333333334</ele><time>2026-03-28T12:56:15.988Z</time></trkpt><trkpt lat="45.980954727726896" lon="9.415203825593402"><ele>560.6666666666666</ele><time>2026-03-28T12:56:17.988Z</time></trkpt><trkpt lat="45.980988593995875" lon="9.415087450058394"><ele>557.5</ele><time>2026-03-28T12:56:19.988Z</time></trkpt><trkpt lat="45.98103666718186" lon="9.415016368518657"><ele>554.3333333333333</ele><time>2026-03-28T12:56:20.988Z</time></trkpt><trkpt lat="45.981095049609245" lon="9.41495032178235"><ele>551.1666666666666</ele><time>2026-03-28T12:56:21.988Z</time></trkpt><trkpt lat="45.981139711937374" lon="9.414838255228025"><ele>548.0</ele><time>2026-03-28T12:56:23.988Z</time></trkpt><trkpt lat="45.98119558990666" lon="9.414713038331737"><ele>547.8333333333333</ele><time>2026-03-28T12:56:25.988Z</time></trkpt><trkpt lat="45.9812710312745" lon="9.414558315683113"><ele>547.6666666666666</ele><time>2026-03-28T12:56:27.988Z</time></trkpt><trkpt lat="45.9813130253629" lon="9.414488892455884"><ele>547.5</ele><time>2026-03-28T12:56:28.988Z</time></trkpt><trkpt lat="45.98137600551668" lon="9.414433338547905"><ele>547.3333333333334</ele><time>2026-03-28T12:56:29.988Z</time></trkpt><trkpt lat="45.98143704994579" lon="9.414401557897616"><ele>547.1666666666667</ele><time>2026-03-28T12:56:30.988Z</time></trkpt><trkpt lat="45.98153857692141" lon="9.414326318989966"><ele>547.0</ele><time>2026-03-28T12:56:32.988Z</time></trkpt><trkpt lat="45.981608270586236" lon="9.414278470986346"><ele>547.0</ele><time>2026-03-28T12:56:33.988Z</time></trkpt><trkpt lat="45.981672242124475" lon="9.414233818849352"><ele>547.0</ele><time>2026-03-28T12:56:34.988Z</time></trkpt><trkpt lat="45.981737820159545" lon="9.414178541910188"><ele>547.0</ele><time>2026-03-28T12:56:35.988Z</time></trkpt><trkpt lat="45.98180314490452" lon="9.41403524667071"><ele>547.0</ele><time>2026-03-28T12:56:37.988Z</time></trkpt><trkpt lat="45.98182441269929" lon="9.413925699551598"><ele>547.0</ele><time>2026-03-28T12:56:38.988Z</time></trkpt><trkpt lat="45.981846967504396" lon="9.413828805684574"><ele>547.0</ele><time>2026-03-28T12:56:39.988Z</time></trkpt><trkpt lat="45.98189372689559" lon="9.41375308355048"><ele>544.6666666666667</ele><time>2026-03-28T12:56:40.988Z</time></trkpt><trkpt lat="45.98193289463708" lon="9.413675081765287"><ele>542.3333333333334</ele><time>2026-03-28T12:56:41.988Z</time></trkpt><trkpt lat="45.981976174262265" lon="9.413594289994752"><ele>540.0</ele><time>2026-03-28T12:56:42.988Z</time></trkpt><trkpt lat="45.98201204659207" lon="9.413494624023357"><ele>537.6666666666666</ele><time>2026-03-28T12:56:44.988Z</time></trkpt><trkpt lat="45.9820837639722" lon="9.413422167182643"><ele>535.3333333333333</ele><time>2026-03-28T12:56:47.988Z</time></trkpt><trkpt lat="45.982145141359815" lon="9.41333059802696"><ele>533.0</ele><time>2026-03-28T12:56:49.989Z</time></trkpt><trkpt lat="45.98211905932465" lon="9.413237170740134"><ele>533.0</ele><time>2026-03-28T12:57:01.989Z</time></trkpt><trkpt lat="45.98206898235547" lon="9.413141351480016"><ele>533.0</ele><time>2026-03-28T12:57:04.989Z</time></trkpt><trkpt lat="45.98207520331919" lon="9.413043683614552"><ele>533.0</ele><time>2026-03-28T12:57:07.989Z</time></trkpt><trkpt lat="45.982098985853824" lon="9.412928336360363"><ele>533.0</ele><time>2026-03-28T12:57:16.989Z</time></trkpt><trkpt lat="45.98209648010536" lon="9.412816585353026"><ele>533.0</ele><time>2026-03-28T12:57:20.989Z</time></trkpt><trkpt lat="45.982111962679504" lon="9.412725285148431"><ele>533.0</ele><time>2026-03-28T12:57:23.989Z</time></trkpt><trkpt lat="45.98213405577159" lon="9.412632125299204"><ele>533.0</ele><time>2026-03-28T12:57:26.989Z</time></trkpt><trkpt lat="45.98215658834249" lon="9.412504373378786"><ele>534.6</ele><time>2026-03-28T12:57:29.989Z</time></trkpt><trkpt lat="45.98217986339025" lon="9.41240687938454"><ele>536.1999999999999</ele><time>2026-03-28T12:57:31.989Z</time></trkpt><trkpt lat="45.98222024337045" lon="9.412318970762346"><ele>537.8</ele><time>2026-03-28T12:57:33.989Z</time></trkpt><trkpt lat="45.98228961536789" lon="9.412109513878178"><ele>539.4</ele><time>2026-03-28T12:57:34.989Z</time></trkpt><trkpt lat="45.982324134078375" lon="9.411977917919002"><ele>541.0</ele><time>2026-03-28T12:57:36.989Z</time></trkpt><trkpt lat="45.982329565300525" lon="9.411868964274792"><ele>541.3333333333334</ele><time>2026-03-28T12:57:38.989Z</time></trkpt><trkpt lat="45.982365352963384" lon="9.411793368373928"><ele>541.6666666666667</ele><time>2026-03-28T12:57:40.989Z</time></trkpt><trkpt lat="45.98243401503077" lon="9.411718705802166"><ele>542.0</ele><time>2026-03-28T12:57:42.989Z</time></trkpt><trkpt lat="45.98250219743899" lon="9.41161917892204"><ele>542.3333333333334</ele><time>2026-03-28T12:57:45.988Z</time></trkpt><trkpt lat="45.98253249546547" lon="9.411529508672592"><ele>542.6666666666666</ele><time>2026-03-28T12:57:47.988Z</time></trkpt><trkpt lat="45.98257218171646" lon="9.411427728053923"><ele>543.0</ele><time>2026-03-28T12:57:50.988Z</time></trkpt><trkpt lat="45.98259077358044" lon="9.411295808778476"><ele>543.0</ele><time>2026-03-28T12:57:53.988Z</time></trkpt><trkpt lat="45.982611353612455" lon="9.411201819906847"><ele>543.0</ele><time>2026-03-28T12:57:55.988Z</time></trkpt><trkpt lat="45.982653037991966" lon="9.41107429519669"><ele>543.0</ele><time>2026-03-28T12:58:00.988Z</time></trkpt><trkpt lat="45.98267836302506" lon="9.410979314540432"><ele>543.0</ele><time>2026-03-28T12:58:02.988Z</time></trkpt><trkpt lat="45.982732594278" lon="9.410919039782714"><ele>543.0</ele><time>2026-03-28T12:58:04.988Z</time></trkpt><trkpt lat="45.982779101902786" lon="9.410827849053685"><ele>543.0</ele><time>2026-03-28T12:58:07.988Z</time></trkpt><trkpt lat="45.982799765918095" lon="9.410712628552176"><ele>543.0</ele><time>2026-03-28T12:58:09.988Z</time></trkpt><trkpt lat="45.98281487918578" lon="9.410601107593841"><ele>543.0</ele><time>2026-03-28T12:58:12.988Z</time></trkpt><trkpt lat="45.98282795355743" lon="9.410508781808476"><ele>543.0</ele><time>2026-03-28T12:58:15.988Z</time></trkpt><trkpt lat="45.9828820244596" lon="9.410233143544275"><ele>543.0</ele><time>2026-03-28T12:58:17.988Z</time></trkpt><trkpt lat="45.98288556775379" lon="9.41014136149846"><ele>543.0</ele><time>2026-03-28T12:58:19.988Z</time></trkpt><trkpt lat="45.982868286858356" lon="9.410013711313486"><ele>543.0</ele><time>2026-03-28T12:58:22.988Z</time></trkpt><trkpt lat="45.98285733746911" lon="9.409924490319883"><ele>543.0</ele><time>2026-03-28T12:58:24.988Z</time></trkpt><trkpt lat="45.9828215365354" lon="9.409814791388724"><ele>543.0</ele><time>2026-03-28T12:58:26.988Z</time></trkpt><trkpt lat="45.98281219059151" lon="9.409682433862804"><ele>543.0</ele><time>2026-03-28T12:58:29.988Z</time></trkpt><trkpt lat="45.98276231003305" lon="9.409577905947856"><ele>543.0</ele><time>2026-03-28T12:58:32.988Z</time></trkpt><trkpt lat="45.98273229122929" lon="9.409467278859495"><ele>543.0</ele><time>2026-03-28T12:58:35.988Z</time></trkpt><trkpt lat="45.982681357918345" lon="9.409377415669715"><ele>542.6666666666666</ele><time>2026-03-28T12:58:38.988Z</time></trkpt><trkpt lat="45.98262284541076" lon="9.409321543739798"><ele>542.3333333333334</ele><time>2026-03-28T12:58:55.989Z</time></trkpt><trkpt lat="45.98262607433653" lon="9.409215509020187"><ele>542.0</ele><time>2026-03-28T12:58:58.989Z</time></trkpt><trkpt lat="45.98264672335062" lon="9.409123967173826"><ele>541.6666666666667</ele><time>2026-03-28T12:59:01.989Z</time></trkpt><trkpt lat="45.982679428170464" lon="9.409028136290011"><ele>541.3333333333334</ele><time>2026-03-28T12:59:03.989Z</time></trkpt><trkpt lat="45.98275233919211" lon="9.408968153791811"><ele>541.0</ele><time>2026-03-28T12:59:07.989Z</time></trkpt><trkpt lat="45.982825790372594" lon="9.408895179391362"><ele>541.2</ele><time>2026-03-28T12:59:10.989Z</time></trkpt><trkpt lat="45.98291658779482" lon="9.408809574941746"><ele>541.4000000000001</ele><time>2026-03-28T12:59:12.989Z</time></trkpt><trkpt lat="45.98298754397613" lon="9.408759383186496"><ele>541.6</ele><time>2026-03-28T12:59:14.989Z</time></trkpt><trkpt lat="45.983045600862006" lon="9.408645251666226"><ele>541.8000000000001</ele><time>2026-03-28T12:59:16.989Z</time></trkpt><trkpt lat="45.98308849272645" lon="9.408534966417951"><ele>542.0</ele><time>2026-03-28T12:59:18.989Z</time></trkpt><trkpt lat="45.98314696947808" lon="9.408412545048247"><ele>542.0</ele><time>2026-03-28T12:59:20.989Z</time></trkpt><trkpt lat="45.983201578251894" lon="9.408272609189066"><ele>542.0</ele><time>2026-03-28T12:59:22.989Z</time></trkpt><trkpt lat="45.983235173795556" lon="9.408177786807"><ele>542.0</ele><time>2026-03-28T12:59:23.989Z</time></trkpt><trkpt lat="45.98330507568791" lon="9.408045592968207"><ele>542.0</ele><time>2026-03-28T12:59:25.989Z</time></trkpt><trkpt lat="45.98337389017507" lon="9.407941208774998"><ele>542.0</ele><time>2026-03-28T12:59:27.989Z</time></trkpt><trkpt lat="45.98344573237882" lon="9.407879996368644"><ele>537.6666666666666</ele><time>2026-03-28T12:59:29.989Z</time></trkpt><trkpt lat="45.98350003066525" lon="9.40780120082587"><ele>533.3333333333333</ele><time>2026-03-28T12:59:31.989Z</time></trkpt><trkpt lat="45.98355280508691" lon="9.407741858442572"><ele>529.0</ele><time>2026-03-28T12:59:34.989Z</time></trkpt><trkpt lat="45.98361444134381" lon="9.40765436088114"><ele>524.6666666666666</ele><time>2026-03-28T12:59:39.989Z</time></trkpt><trkpt lat="45.983597513754916" lon="9.407535283182572"><ele>520.3333333333334</ele><time>2026-03-28T12:59:43.988Z</time></trkpt><trkpt lat="45.98365895085254" lon="9.407466327436339"><ele>516.0</ele><time>2026-03-28T12:59:48.988Z</time></trkpt><trkpt lat="45.983731503339285" lon="9.40745616668195"><ele>515.9999999999999</ele><time>2026-03-28T12:59:50.988Z</time></trkpt><trkpt lat="45.98379291755089" lon="9.40742179443072"><ele>516.0</ele><time>2026-03-28T12:59:53.988Z</time></trkpt><trkpt lat="45.983819605587456" lon="9.407339451737258"><ele>516.0</ele><time>2026-03-28T12:59:55.988Z</time></trkpt><trkpt lat="45.98386137805383" lon="9.407254068433181"><ele>516.0</ele><time>2026-03-28T12:59:57.988Z</time></trkpt><trkpt lat="45.98389065052087" lon="9.40715962341154"><ele>516.0</ele><time>2026-03-28T12:59:59.988Z</time></trkpt><trkpt lat="45.98390888550604" lon="9.407070973951585"><ele>515.9999999999999</ele><time>2026-03-28T13:00:00.988Z</time></trkpt><trkpt lat="45.9839390529084" lon="9.40697905241828"><ele>516.0</ele><time>2026-03-28T13:00:01.988Z</time></trkpt><trkpt lat="45.9839753461122" lon="9.406897023454556"><ele>519.5</ele><time>2026-03-28T13:00:02.988Z</time></trkpt><trkpt lat="45.98401342163384" lon="9.40671369441222"><ele>523.0</ele><time>2026-03-28T13:00:04.988Z</time></trkpt><trkpt lat="45.98403185092918" lon="9.406508014738861"><ele>526.5</ele><time>2026-03-28T13:00:06.988Z</time></trkpt><trkpt lat="45.984063739535415" lon="9.406395129528637"><ele>530.0</ele><time>2026-03-28T13:00:07.988Z</time></trkpt><trkpt lat="45.98410663092932" lon="9.40627124386199"><ele>528.3333333333333</ele><time>2026-03-28T13:00:08.988Z</time></trkpt><trkpt lat="45.984141772378884" lon="9.406153910858386"><ele>526.6666666666666</ele><time>2026-03-28T13:00:09.988Z</time></trkpt><trkpt lat="45.98417545297016" lon="9.406032058940779"><ele>525.0</ele><time>2026-03-28T13:00:10.988Z</time></trkpt><trkpt lat="45.984214925621345" lon="9.40592304928052"><ele>523.3333333333334</ele><time>2026-03-28T13:00:11.988Z</time></trkpt><trkpt lat="45.9842573606043" lon="9.405798439277849"><ele>521.6666666666667</ele><time>2026-03-28T13:00:12.988Z</time></trkpt><trkpt lat="45.98428877782908" lon="9.405693487769879"><ele>520.0</ele><time>2026-03-28T13:00:13.988Z</time></trkpt><trkpt lat="45.98434092951115" lon="9.405607983631192"><ele>522.2</ele><time>2026-03-28T13:00:14.988Z</time></trkpt><trkpt lat="45.98439564352832" lon="9.405471436873231"><ele>524.4</ele><time>2026-03-28T13:00:16.988Z</time></trkpt><trkpt lat="45.98443409273664" lon="9.405369211410703"><ele>526.6</ele><time>2026-03-28T13:00:18.988Z</time></trkpt><trkpt lat="45.984473520351884" lon="9.405226445507266"><ele>528.8</ele><time>2026-03-28T13:00:20.988Z</time></trkpt><trkpt lat="45.984525018527016" lon="9.40507234757319"><ele>531.0</ele><time>2026-03-28T13:00:22.988Z</time></trkpt><trkpt lat="45.98455974231608" lon="9.404960946398434"><ele>531.0</ele><time>2026-03-28T13:00:23.988Z</time></trkpt><trkpt lat="45.98457807644518" lon="9.404869030739183"><ele>531.0</ele><time>2026-03-28T13:00:25.988Z</time></trkpt><trkpt lat="45.984593560934286" lon="9.40476288639928"><ele>531.0</ele><time>2026-03-28T13:00:29.988Z</time></trkpt><trkpt lat="45.98467361614722" lon="9.40472317227283"><ele>531.0</ele><time>2026-03-28T13:00:31.988Z</time></trkpt><trkpt lat="45.984743637261325" lon="9.404611233115597"><ele>531.0</ele><time>2026-03-28T13:00:33.988Z</time></trkpt><trkpt lat="45.984776268672306" lon="9.404531883543925"><ele>531.0</ele><time>2026-03-28T13:00:34.988Z</time></trkpt><trkpt lat="45.98485416412461" lon="9.404417707696739"><ele>531.0</ele><time>2026-03-28T13:00:36.988Z</time></trkpt><trkpt lat="45.98491200878658" lon="9.404323508786515"><ele>531.0</ele><time>2026-03-28T13:00:37.988Z</time></trkpt><trkpt lat="45.98496301193837" lon="9.404193249286445"><ele>531.0</ele><time>2026-03-28T13:00:38.988Z</time></trkpt><trkpt lat="45.98498330772127" lon="9.40402429834325"><ele>531.0</ele><time>2026-03-28T13:00:40.988Z</time></trkpt><trkpt lat="45.984971989845114" lon="9.403840898883718"><ele>531.0</ele><time>2026-03-28T13:00:42.988Z</time></trkpt><trkpt lat="45.985020392581355" lon="9.40375513727198"><ele>531.0</ele><time>2026-03-28T13:00:45.988Z</time></trkpt><trkpt lat="45.985093610871424" lon="9.403701692154558"><ele>531.0</ele><time>2026-03-28T13:00:48.988Z</time></trkpt><trkpt lat="45.98519832182688" lon="9.40362531486398"><ele>531.0</ele><time>2026-03-28T13:00:51.988Z</time></trkpt><trkpt lat="45.985289723405906" lon="9.40354265337725"><ele>531.0</ele><time>2026-03-28T13:00:53.988Z</time></trkpt><trkpt lat="45.98540384066443" lon="9.403501221794587"><ele>531.0</ele><time>2026-03-28T13:00:55.987Z</time></trkpt><trkpt lat="45.98550319218143" lon="9.40352418266719"><ele>531.0</ele><time>2026-03-28T13:00:57.987Z</time></trkpt><trkpt lat="45.9855829021961" lon="9.403429627614049"><ele>531.0</ele><time>2026-03-28T13:00:59.987Z</time></trkpt><trkpt lat="45.98559236793166" lon="9.403319051633453"><ele>531.0</ele><time>2026-03-28T13:01:00.987Z</time></trkpt><trkpt lat="45.98560229871946" lon="9.403199337976707"><ele>531.0</ele><time>2026-03-28T13:01:03.989Z</time></trkpt><trkpt lat="45.98564664093081" lon="9.403108529709193"><ele>531.0</ele><time>2026-03-28T13:01:06.989Z</time></trkpt><trkpt lat="45.98573001733735" lon="9.40310763835331"><ele>531.0</ele><time>2026-03-28T13:01:08.988Z</time></trkpt><trkpt lat="45.98577710969472" lon="9.403046453495342"><ele>530.5</ele><time>2026-03-28T13:01:11.989Z</time></trkpt><trkpt lat="45.985811651043534" lon="9.40294014510874"><ele>530.0</ele><time>2026-03-28T13:01:14.988Z</time></trkpt><trkpt lat="45.9858457601091" lon="9.402856951813378"><ele>529.5</ele><time>2026-03-28T13:01:17.988Z</time></trkpt><trkpt lat="45.98592252047132" lon="9.402799491159554"><ele>529.0</ele><time>2026-03-28T13:01:20.988Z</time></trkpt><trkpt lat="45.98601558854549" lon="9.402757231629263"><ele>528.5</ele><time>2026-03-28T13:01:22.988Z</time></trkpt><trkpt lat="45.98607511648564" lon="9.402675634038419"><ele>528.0</ele><time>2026-03-28T13:01:24.988Z</time></trkpt><trkpt lat="45.98617435789549" lon="9.402533844069508"><ele>528.0</ele><time>2026-03-28T13:01:26.988Z</time></trkpt><trkpt lat="45.98620996153684" lon="9.402447774648984"><ele>528.0</ele><time>2026-03-28T13:01:27.988Z</time></trkpt><trkpt lat="45.98625079966644" lon="9.402375827690252"><ele>528.0</ele><time>2026-03-28T13:01:28.988Z</time></trkpt><trkpt lat="45.98630872425869" lon="9.402257960264134"><ele>528.0</ele><time>2026-03-28T13:01:30.988Z</time></trkpt><trkpt lat="45.98639050455394" lon="9.402188332551168"><ele>528.0</ele><time>2026-03-28T13:01:32.988Z</time></trkpt><trkpt lat="45.98647833507262" lon="9.402055410858784"><ele>528.4285714285714</ele><time>2026-03-28T13:01:34.988Z</time></trkpt><trkpt lat="45.98653077023139" lon="9.401999332202612"><ele>528.8571428571429</ele><time>2026-03-28T13:01:35.988Z</time></trkpt><trkpt lat="45.9865882642099" lon="9.40195437927329"><ele>529.2857142857143</ele><time>2026-03-28T13:01:36.988Z</time></trkpt><trkpt lat="45.98666363860211" lon="9.401917887353333"><ele>529.7142857142858</ele><time>2026-03-28T13:01:38.988Z</time></trkpt><trkpt lat="45.986709036746326" lon="9.401831697158912"><ele>530.1428571428572</ele><time>2026-03-28T13:01:41.988Z</time></trkpt><trkpt lat="45.986782803877624" lon="9.401807962944943"><ele>530.5714285714286</ele><time>2026-03-28T13:01:43.988Z</time></trkpt><trkpt lat="45.986842724761836" lon="9.40174279324527"><ele>531.0</ele><time>2026-03-28T13:01:45.988Z</time></trkpt><trkpt lat="45.98684424505651" lon="9.401617839749585"><ele>531.0</ele><time>2026-03-28T13:01:49.988Z</time></trkpt><trkpt lat="45.98682403836134" lon="9.401487906732351"><ele>531.0</ele><time>2026-03-28T13:01:53.988Z</time></trkpt><trkpt lat="45.98682118314311" lon="9.401392765378164"><ele>531.0</ele><time>2026-03-28T13:01:56.988Z</time></trkpt><trkpt lat="45.98684448894114" lon="9.401296919943741"><ele>531.0</ele><time>2026-03-28T13:01:59.988Z</time></trkpt><trkpt lat="45.98685048521776" lon="9.401177167783194"><ele>531.0</ele><time>2026-03-28T13:02:03.988Z</time></trkpt><trkpt lat="45.98686363295513" lon="9.40107599378074"><ele>531.0</ele><time>2026-03-28T13:02:07.988Z</time></trkpt><trkpt lat="45.98687712841808" lon="9.400974352612451"><ele>532.0</ele><time>2026-03-28T13:02:10.988Z</time></trkpt><trkpt lat="45.98688162904928" lon="9.400875243910596"><ele>533.0</ele><time>2026-03-28T13:02:13.988Z</time></trkpt><trkpt lat="45.98686309388729" lon="9.400787232572661"><ele>534.0</ele><time>2026-03-28T13:02:18.988Z</time></trkpt><trkpt lat="45.98688600491123" lon="9.400698081063265"><ele>535.0</ele><time>2026-03-28T13:02:24.988Z</time></trkpt><trkpt lat="45.98690223822591" lon="9.400598096376509"><ele>536.0</ele><time>2026-03-28T13:02:34.987Z</time></trkpt><trkpt lat="45.986915513292125" lon="9.400508612407993"><ele>537.0</ele><time>2026-03-28T13:02:41.987Z</time></trkpt><trkpt lat="45.98696961104396" lon="9.40045838675239"><ele>538.0</ele><time>2026-03-28T13:02:45.987Z</time></trkpt><trkpt lat="45.98701777272697" lon="9.400399761616361"><ele>539.7142857142858</ele><time>2026-03-28T13:02:56.987Z</time></trkpt><trkpt lat="45.98708741489833" lon="9.400437175038602"><ele>541.4285714285714</ele><time>2026-03-28T13:02:59.987Z</time></trkpt><trkpt lat="45.987160090252765" lon="9.40047102986414"><ele>543.1428571428571</ele><time>2026-03-28T13:03:03.987Z</time></trkpt><trkpt lat="45.98722788946471" lon="9.40046496710908"><ele>544.8571428571429</ele><time>2026-03-28T13:03:07.989Z</time></trkpt><trkpt lat="45.98730331297947" lon="9.400439995021532"><ele>546.5714285714286</ele><time>2026-03-28T13:03:11.989Z</time></trkpt><trkpt lat="45.987366158098624" lon="9.400419787631975"><ele>548.2857142857143</ele><time>2026-03-28T13:03:14.989Z</time></trkpt><trkpt lat="45.987441996183264" lon="9.400396575194781"><ele>550.0</ele><time>2026-03-28T13:03:18.988Z</time></trkpt><trkpt lat="45.98752769161583" lon="9.400375728851358"><ele>545.1666666666667</ele><time>2026-03-28T13:03:22.989Z</time></trkpt><trkpt lat="45.98762009389594" lon="9.400362313876357"><ele>540.3333333333334</ele><time>2026-03-28T13:03:26.989Z</time></trkpt><trkpt lat="45.987698130352705" lon="9.40036248540336"><ele>535.5</ele><time>2026-03-28T13:03:29.989Z</time></trkpt><trkpt lat="45.98778634524801" lon="9.400358280356532"><ele>530.6666666666666</ele><time>2026-03-28T13:03:33.989Z</time></trkpt><trkpt lat="45.98785322997191" lon="9.400351823666364"><ele>525.8333333333333</ele><time>2026-03-28T13:03:35.988Z</time></trkpt><trkpt lat="45.98792563341756" lon="9.400324851447357"><ele>521.0</ele><time>2026-03-28T13:03:39.988Z</time></trkpt><trkpt lat="45.98800344840598" lon="9.400307154834357"><ele>521.0</ele><time>2026-03-28T13:03:47.988Z</time></trkpt><trkpt lat="45.98802987224492" lon="9.400206772196281"><ele>521.0</ele><time>2026-03-28T13:03:51.988Z</time></trkpt><trkpt lat="45.98802185319604" lon="9.400083039025638"><ele>521.0</ele><time>2026-03-28T13:03:54.988Z</time></trkpt><trkpt lat="45.988037574879776" lon="9.399991702415411"><ele>521.0</ele><time>2026-03-28T13:03:56.988Z</time></trkpt><trkpt lat="45.98802953597253" lon="9.399900861724632"><ele>521.0</ele><time>2026-03-28T13:03:58.988Z</time></trkpt><trkpt lat="45.9879991378245" lon="9.399788993553576"><ele>521.0</ele><time>2026-03-28T13:04:01.988Z</time></trkpt><trkpt lat="45.98800019728616" lon="9.399696826785696"><ele>521.0</ele><time>2026-03-28T13:04:03.988Z</time></trkpt><trkpt lat="45.98802123358162" lon="9.399604236070928"><ele>521.7142857142857</ele><time>2026-03-28T13:04:06.988Z</time></trkpt><trkpt lat="45.988027199598626" lon="9.39949592556336"><ele>522.4285714285714</ele><time>2026-03-28T13:04:09.988Z</time></trkpt><trkpt lat="45.988008986773146" lon="9.399395625366415"><ele>523.1428571428571</ele><time>2026-03-28T13:04:12.988Z</time></trkpt><trkpt lat="45.98794856792453" lon="9.399357452042231"><ele>523.8571428571429</ele><time>2026-03-28T13:04:16.988Z</time></trkpt><trkpt lat="45.987978072879145" lon="9.399264874070408"><ele>524.5714285714286</ele><time>2026-03-28T13:04:21.988Z</time></trkpt><trkpt lat="45.98799891629154" lon="9.399172039650757"><ele>525.2857142857142</ele><time>2026-03-28T13:04:23.988Z</time></trkpt><trkpt lat="45.98802979032112" lon="9.399062860234585"><ele>526.0</ele><time>2026-03-28T13:04:27.988Z</time></trkpt><trkpt lat="45.988073217305654" lon="9.398992772320149"><ele>526.0</ele><time>2026-03-28T13:04:30.988Z</time></trkpt><trkpt lat="45.9881177974932" lon="9.398919382148527"><ele>526.0</ele><time>2026-03-28T13:04:33.987Z</time></trkpt><trkpt lat="45.98816292515819" lon="9.398813604767044"><ele>526.0</ele><time>2026-03-28T13:04:36.986Z</time></trkpt><trkpt lat="45.9882136336342" lon="9.398724038662348"><ele>526.0</ele><time>2026-03-28T13:04:40.986Z</time></trkpt><trkpt lat="45.9882419108268" lon="9.398639855299926"><ele>526.0</ele><time>2026-03-28T13:04:42.986Z</time></trkpt><trkpt lat="45.98827865855515" lon="9.398530891239842"><ele>526.0</ele><time>2026-03-28T13:04:45.985Z</time></trkpt><trkpt lat="45.98831362490627" lon="9.398442474217141"><ele>525.0</ele><time>2026-03-28T13:04:48.985Z</time></trkpt><trkpt lat="45.98834990810777" lon="9.398352933992063"><ele>524.0</ele><time>2026-03-28T13:04:51.985Z</time></trkpt><trkpt lat="45.98836842591583" lon="9.398250137969908"><ele>523.0</ele><time>2026-03-28T13:04:54.984Z</time></trkpt><trkpt lat="45.98840045258177" lon="9.398142232161046"><ele>522.0</ele><time>2026-03-28T13:04:56.984Z</time></trkpt><trkpt lat="45.98843478319741" lon="9.398011568406625"><ele>521.0</ele><time>2026-03-28T13:04:58.984Z</time></trkpt><trkpt lat="45.98847460925816" lon="9.397884450753834"><ele>520.0</ele><time>2026-03-28T13:05:01.984Z</time></trkpt><trkpt lat="45.98851999752637" lon="9.397761675201007"><ele>520.0000000000001</ele><time>2026-03-28T13:05:04.984Z</time></trkpt><trkpt lat="45.98855248244444" lon="9.397658724279044"><ele>520.0</ele><time>2026-03-28T13:05:07.984Z</time></trkpt><trkpt lat="45.98858836537202" lon="9.39757731618268"><ele>520.0</ele><time>2026-03-28T13:05:14.985Z</time></trkpt><trkpt lat="45.98863374880239" lon="9.397506078297978"><ele>520.0</ele><time>2026-03-28T13:05:19.986Z</time></trkpt><trkpt lat="45.988670488775796" lon="9.397400467644733"><ele>520.0</ele><time>2026-03-28T13:05:24.985Z</time></trkpt><trkpt lat="45.98868453660581" lon="9.397297312329703"><ele>520.0000000000001</ele><time>2026-03-28T13:05:26.984Z</time></trkpt><trkpt lat="45.9887026015111" lon="9.397209861476671"><ele>520.0</ele><time>2026-03-28T13:05:28.984Z</time></trkpt><trkpt lat="45.9887169181472" lon="9.397117031999427"><ele>523.3333333333334</ele><time>2026-03-28T13:05:30.984Z</time></trkpt><trkpt lat="45.98875071990032" lon="9.39698221542154"><ele>526.6666666666667</ele><time>2026-03-28T13:05:33.984Z</time></trkpt><trkpt lat="45.9888000044994" lon="9.396894571929284"><ele>530.0</ele><time>2026-03-28T13:05:35.984Z</time></trkpt><trkpt lat="45.988842245408094" lon="9.396799617319813"><ele>533.3333333333334</ele><time>2026-03-28T13:05:37.984Z</time></trkpt><trkpt lat="45.988880112166505" lon="9.396713069843718"><ele>536.6666666666666</ele><time>2026-03-28T13:05:41.984Z</time></trkpt><trkpt lat="45.98891862618088" lon="9.396620862898871"><ele>540.0</ele><time>2026-03-28T13:05:45.984Z</time></trkpt><trkpt lat="45.98897746789242" lon="9.396576967210207"><ele>540.0</ele><time>2026-03-28T13:05:51.984Z</time></trkpt><trkpt lat="45.98904006596953" lon="9.396547698150975"><ele>540.0</ele><time>2026-03-28T13:05:54.984Z</time></trkpt><trkpt lat="45.989083006564904" lon="9.396471846044662"><ele>540.0</ele><time>2026-03-28T13:05:57.984Z</time></trkpt><trkpt lat="45.98913903474502" lon="9.396343795051108"><ele>540.0</ele><time>2026-03-28T13:06:24.984Z</time></trkpt><trkpt lat="45.989183999242336" lon="9.396259923787698"><ele>540.0</ele><time>2026-03-28T13:06:39.983Z</time></trkpt><trkpt lat="45.98925677715578" lon="9.396271044838489"><ele>540.0</ele><time>2026-03-28T13:06:45.983Z</time></trkpt><trkpt lat="45.98924478270746" lon="9.396361287005234"><ele>536.7142857142857</ele><time>2026-03-28T13:06:49.983Z</time></trkpt><trkpt lat="45.9892518732904" lon="9.396482601927644"><ele>533.4285714285713</ele><time>2026-03-28T13:06:53.983Z</time></trkpt><trkpt lat="45.98927719388845" lon="9.396572556645935"><ele>530.1428571428571</ele><time>2026-03-28T13:06:55.983Z</time></trkpt><trkpt lat="45.989331408697765" lon="9.396622053997035"><ele>526.8571428571429</ele><time>2026-03-28T13:07:06.983Z</time></trkpt><trkpt lat="45.98935193597099" lon="9.396531977402887"><ele>523.5714285714287</ele><time>2026-03-28T13:07:11.983Z</time></trkpt><trkpt lat="45.989404590739426" lon="9.396455473815564"><ele>520.2857142857143</ele><time>2026-03-28T13:07:15.983Z</time></trkpt><trkpt lat="45.98943216017276" lon="9.39635569724295"><ele>517.0</ele><time>2026-03-28T13:07:22.985Z</time></trkpt><trkpt lat="45.9894736567362" lon="9.396283504839188"><ele>517.0</ele><time>2026-03-28T13:07:32.985Z</time></trkpt><trkpt lat="45.98949750313512" lon="9.396193904638345"><ele>517.0</ele><time>2026-03-28T13:07:42.985Z</time></trkpt><trkpt lat="45.989498077973806" lon="9.396074815468785"><ele>517.0</ele><time>2026-03-28T13:07:45.985Z</time></trkpt><trkpt lat="45.98952060114873" lon="9.395955965812654"><ele>517.0</ele><time>2026-03-28T13:07:51.985Z</time></trkpt><trkpt lat="45.98954767956105" lon="9.39585540762803"><ele>517.0</ele><time>2026-03-28T13:07:56.984Z</time></trkpt><trkpt lat="45.98956262387185" lon="9.395761260785894"><ele>517.0</ele><time>2026-03-28T13:07:59.984Z</time></trkpt><trkpt lat="45.989589285657395" lon="9.395650758229687"><ele>517.0</ele><time>2026-03-28T13:08:03.984Z</time></trkpt><trkpt lat="45.98961551583871" lon="9.395559748972563"><ele>517.0</ele><time>2026-03-28T13:08:06.984Z</time></trkpt><trkpt lat="45.98965715361343" lon="9.395405401342074"><ele>517.0</ele><time>2026-03-28T13:08:21.984Z</time></trkpt><trkpt lat="45.989658330214674" lon="9.395307973770208"><ele>517.0</ele><time>2026-03-28T13:08:40.984Z</time></trkpt><trkpt lat="45.9896593156063" lon="9.395206929235291"><ele>517.0</ele><time>2026-03-28T13:08:57.984Z</time></trkpt><trkpt lat="45.989734902682784" lon="9.39518457666122"><ele>517.0</ele><time>2026-03-28T13:09:05.983Z</time></trkpt><trkpt lat="45.989771492679026" lon="9.395096560480415"><ele>520.5714285714286</ele><time>2026-03-28T13:09:12.983Z</time></trkpt><trkpt lat="45.98980007818421" lon="9.394996745992465"><ele>524.1428571428572</ele><time>2026-03-28T13:09:17.983Z</time></trkpt><trkpt lat="45.989829385103036" lon="9.39490850372373"><ele>527.7142857142858</ele><time>2026-03-28T13:09:20.983Z</time></trkpt><trkpt lat="45.98986339897019" lon="9.394830025966192"><ele>531.2857142857143</ele><time>2026-03-28T13:09:23.983Z</time></trkpt><trkpt lat="45.98992791899017" lon="9.394775853220194"><ele>534.8571428571429</ele><time>2026-03-28T13:09:27.985Z</time></trkpt><trkpt lat="45.98996927923242" lon="9.394690830481743"><ele>538.4285714285714</ele><time>2026-03-28T13:09:30.984Z</time></trkpt><trkpt lat="45.989982929985274" lon="9.394601231639417"><ele>542.0</ele><time>2026-03-28T13:09:33.985Z</time></trkpt><trkpt lat="45.990002689344685" lon="9.39448662459488"><ele>538.3333333333333</ele><time>2026-03-28T13:09:47.984Z</time></trkpt><trkpt lat="45.99006539498216" lon="9.394409714701267"><ele>534.6666666666666</ele><time>2026-03-28T13:09:50.984Z</time></trkpt><trkpt lat="45.99009335123521" lon="9.394320599766953"><ele>531.0</ele><time>2026-03-28T13:09:53.984Z</time></trkpt><trkpt lat="45.9901587532464" lon="9.394244495779615"><ele>527.3333333333334</ele><time>2026-03-28T13:09:57.984Z</time></trkpt><trkpt lat="45.99019670441185" lon="9.394146182577988"><ele>523.6666666666667</ele><time>2026-03-28T13:10:10.984Z</time></trkpt><trkpt lat="45.990217482080176" lon="9.394044745953966"><ele>520.0</ele><time>2026-03-28T13:10:18.984Z</time></trkpt><trkpt lat="45.99028096931851" lon="9.394001520042934"><ele>520.0000000000001</ele><time>2026-03-28T13:10:23.984Z</time></trkpt><trkpt lat="45.99033132404429" lon="9.393934817279716"><ele>520.0</ele><time>2026-03-28T13:10:27.984Z</time></trkpt><trkpt lat="45.990372792030605" lon="9.393854710698243"><ele>520.0</ele><time>2026-03-28T13:10:32.984Z</time></trkpt><trkpt lat="45.9904050758282" lon="9.393740949111947"><ele>520.0</ele><time>2026-03-28T13:10:35.984Z</time></trkpt><trkpt lat="45.99045569599314" lon="9.393678345317339"><ele>520.0</ele><time>2026-03-28T13:10:37.984Z</time></trkpt><trkpt lat="45.99047077434187" lon="9.393588125104777"><ele>520.0000000000001</ele><time>2026-03-28T13:10:40.984Z</time></trkpt><trkpt lat="45.99047702301179" lon="9.393490850803351"><ele>520.0</ele><time>2026-03-28T13:10:43.984Z</time></trkpt><trkpt lat="45.990493451452664" lon="9.393400146344515"><ele>524.5714285714287</ele><time>2026-03-28T13:10:46.984Z</time></trkpt><trkpt lat="45.990532043081494" lon="9.393315300115209"><ele>529.1428571428571</ele><time>2026-03-28T13:10:50.984Z</time></trkpt><trkpt lat="45.99054350946899" lon="9.393219264864399"><ele>533.7142857142858</ele><time>2026-03-28T13:10:54.983Z</time></trkpt><trkpt lat="45.99058065736116" lon="9.393136346652875"><ele>538.2857142857143</ele><time>2026-03-28T13:11:09.983Z</time></trkpt><trkpt lat="45.99061479370261" lon="9.393050923335991"><ele>542.8571428571429</ele><time>2026-03-28T13:11:34.985Z</time></trkpt><trkpt lat="45.99068209931869" lon="9.39307192517543"><ele>547.4285714285714</ele><time>2026-03-28T13:11:56.984Z</time></trkpt><trkpt lat="45.99074243344131" lon="9.39302291907929"><ele>552.0</ele><time>2026-03-28T13:12:04.984Z</time></trkpt><trkpt lat="45.990823739950656" lon="9.392912616357108"><ele>548.1666666666666</ele><time>2026-03-28T13:12:08.984Z</time></trkpt><trkpt lat="45.990882105274636" lon="9.39281875304155"><ele>544.3333333333334</ele><time>2026-03-28T13:12:11.984Z</time></trkpt><trkpt lat="45.99091482946104" lon="9.392706404487374"><ele>540.5</ele><time>2026-03-28T13:12:13.984Z</time></trkpt><trkpt lat="45.990960538408395" lon="9.392620214694105"><ele>536.6666666666667</ele><time>2026-03-28T13:12:16.983Z</time></trkpt><trkpt lat="45.99100403041847" lon="9.392535035025919"><ele>532.8333333333334</ele><time>2026-03-28T13:12:19.983Z</time></trkpt><trkpt lat="45.99104832111389" lon="9.392406705716962"><ele>529.0</ele><time>2026-03-28T13:12:22.983Z</time></trkpt><trkpt lat="45.99109958529716" lon="9.392246811971466"><ele>529.0</ele><time>2026-03-28T13:12:24.983Z</time></trkpt><trkpt lat="45.99113952292412" lon="9.392173577773029"><ele>529.0</ele><time>2026-03-28T13:12:25.983Z</time></trkpt><trkpt lat="45.99117196440533" lon="9.392065714307183"><ele>529.0</ele><time>2026-03-28T13:12:27.983Z</time></trkpt><trkpt lat="45.99120634294606" lon="9.391962665982794"><ele>529.0</ele><time>2026-03-28T13:12:32.983Z</time></trkpt><trkpt lat="45.99127781006537" lon="9.3918884567455"><ele>529.0</ele><time>2026-03-28T13:12:36.983Z</time></trkpt><trkpt lat="45.991328138093266" lon="9.391822723660937"><ele>529.0</ele><time>2026-03-28T13:12:38.983Z</time></trkpt><trkpt lat="45.99134325443892" lon="9.391712813674715"><ele>529.3333333333334</ele><time>2026-03-28T13:12:41.983Z</time></trkpt><trkpt lat="45.99141975174331" lon="9.391618971582327"><ele>529.6666666666667</ele><time>2026-03-28T13:12:43.983Z</time></trkpt><trkpt lat="45.991492127265374" lon="9.391533452611739"><ele>530.0</ele><time>2026-03-28T13:12:46.983Z</time></trkpt><trkpt lat="45.99154135298795" lon="9.391475835455687"><ele>530.3333333333334</ele><time>2026-03-28T13:12:48.983Z</time></trkpt><trkpt lat="45.9915559391655" lon="9.391382124435939"><ele>530.6666666666666</ele><time>2026-03-28T13:12:50.983Z</time></trkpt><trkpt lat="45.991590386021834" lon="9.391268230983972"><ele>531.0</ele><time>2026-03-28T13:12:53.983Z</time></trkpt><trkpt lat="45.99170035620861" lon="9.390967374112929"><ele>531.0</ele><time>2026-03-28T13:12:56.983Z</time></trkpt><trkpt lat="45.991755046175946" lon="9.39086886073267"><ele>531.0</ele><time>2026-03-28T13:12:58.983Z</time></trkpt><trkpt lat="45.99182485516746" lon="9.390814853958927"><ele>531.0</ele><time>2026-03-28T13:13:01.983Z</time></trkpt><trkpt lat="45.991852781838915" lon="9.390727926870973"><ele>531.0</ele><time>2026-03-28T13:13:03.983Z</time></trkpt><trkpt lat="45.991899805850345" lon="9.390656369087509"><ele>531.0</ele><time>2026-03-28T13:13:05.983Z</time></trkpt><trkpt lat="45.99197779954017" lon="9.390650878788561"><ele>531.0</ele><time>2026-03-28T13:13:08.983Z</time></trkpt><trkpt lat="45.99204152944493" lon="9.390592077236455"><ele>531.0</ele><time>2026-03-28T13:13:16.983Z</time></trkpt><trkpt lat="45.99212236059837" lon="9.390496094513713"><ele>531.0</ele><time>2026-03-28T13:13:19.983Z</time></trkpt><trkpt lat="45.99218892411944" lon="9.390507002674891"><ele>531.0</ele><time>2026-03-28T13:13:32.982Z</time></trkpt><trkpt lat="45.99225789697428" lon="9.39043580136331"><ele>531.0</ele><time>2026-03-28T13:14:35.983Z</time></trkpt><trkpt lat="45.99224425518214" lon="9.390556334155855"><ele>531.0</ele><time>2026-03-28T13:15:49.984Z</time></trkpt><trkpt lat="45.992295718442975" lon="9.390475831203004"><ele>531.0</ele><time>2026-03-28T13:16:13.984Z</time></trkpt><trkpt lat="45.99239012056638" lon="9.390466366083011"><ele>529.0</ele><time>2026-03-28T13:16:33.983Z</time></trkpt><trkpt lat="45.99244809284778" lon="9.390363545812344"><ele>527.0</ele><time>2026-03-28T13:17:35.982Z</time></trkpt><trkpt lat="45.99251296880493" lon="9.39032379304458"><ele>525.0</ele><time>2026-03-28T13:17:47.982Z</time></trkpt><trkpt lat="45.992581430693946" lon="9.390255695956819"><ele>523.0</ele><time>2026-03-28T13:18:01.984Z</time></trkpt><trkpt lat="45.992577812053455" lon="9.39016053973678"><ele>521.0</ele><time>2026-03-28T13:19:00.983Z</time></trkpt><trkpt lat="45.992663453905145" lon="9.390143460253743"><ele>519.0</ele><time>2026-03-28T13:19:56.984Z</time></trkpt><trkpt lat="45.99269276765947" lon="9.390062953116827"><ele>519.0</ele><time>2026-03-28T13:20:01.984Z</time></trkpt><trkpt lat="45.99275238092155" lon="9.390024699204991"><ele>519.0</ele><time>2026-03-28T13:20:06.984Z</time></trkpt><trkpt lat="45.99283497725676" lon="9.389993825272487"><ele>519.0</ele><time>2026-03-28T13:20:12.984Z</time></trkpt><trkpt lat="45.99290565856707" lon="9.38996955691165"><ele>519.0</ele><time>2026-03-28T13:20:16.983Z</time></trkpt><trkpt lat="45.99297078660498" lon="9.390002159053243"><ele>519.0</ele><time>2026-03-28T13:20:19.983Z</time></trkpt><trkpt lat="45.99303229700207" lon="9.390031105610348"><ele>519.0</ele><time>2026-03-28T13:20:22.983Z</time></trkpt><trkpt lat="45.99309703952771" lon="9.390050505925357"><ele>519.0</ele><time>2026-03-28T13:20:24.983Z</time></trkpt><trkpt lat="45.993178762816044" lon="9.390122160710778"><ele>519.0</ele><time>2026-03-28T13:20:26.983Z</time></trkpt><trkpt lat="45.99325368880484" lon="9.390093606618398"><ele>519.0</ele><time>2026-03-28T13:20:28.983Z</time></trkpt><trkpt lat="45.99329498381628" lon="9.390003318334003"><ele>519.0</ele><time>2026-03-28T13:20:31.983Z</time></trkpt><trkpt lat="45.99327070134545" lon="9.38987591041077"><ele>519.0</ele><time>2026-03-28T13:20:34.983Z</time></trkpt><trkpt lat="45.99324897181646" lon="9.389659513454859"><ele>519.0</ele><time>2026-03-28T13:20:36.983Z</time></trkpt><trkpt lat="45.9932084574112" lon="9.38953451589412"><ele>519.4285714285714</ele><time>2026-03-28T13:20:38.983Z</time></trkpt><trkpt lat="45.99326580709464" lon="9.389460030303047"><ele>519.8571428571428</ele><time>2026-03-28T13:20:39.983Z</time></trkpt><trkpt lat="45.993319135194355" lon="9.3893554969703"><ele>520.2857142857142</ele><time>2026-03-28T13:20:40.983Z</time></trkpt><trkpt lat="45.9933643124193" lon="9.389288627290705"><ele>520.7142857142857</ele><time>2026-03-28T13:20:41.983Z</time></trkpt><trkpt lat="45.99339772051914" lon="9.389210705310619"><ele>521.1428571428571</ele><time>2026-03-28T13:20:42.983Z</time></trkpt><trkpt lat="45.993423635955786" lon="9.38912187527606"><ele>521.5714285714286</ele><time>2026-03-28T13:20:43.983Z</time></trkpt><trkpt lat="45.99344702504793" lon="9.389024833548298"><ele>522.0</ele><time>2026-03-28T13:20:44.983Z</time></trkpt><trkpt lat="45.99347147564771" lon="9.38892433487312"><ele>523.0</ele><time>2026-03-28T13:20:45.983Z</time></trkpt><trkpt lat="45.993468692863416" lon="9.388797107316288"><ele>524.0</ele><time>2026-03-28T13:20:46.983Z</time></trkpt><trkpt lat="45.99341242846178" lon="9.388624240143407"><ele>525.0</ele><time>2026-03-28T13:20:48.983Z</time></trkpt><trkpt lat="45.99338064016712" lon="9.388528284231228"><ele>526.0</ele><time>2026-03-28T13:20:49.983Z</time></trkpt><trkpt lat="45.9933341156283" lon="9.388433284853082"><ele>527.0</ele><time>2026-03-28T13:20:50.983Z</time></trkpt><trkpt lat="45.993297951386786" lon="9.388349672688637"><ele>528.0</ele><time>2026-03-28T13:20:51.983Z</time></trkpt><trkpt lat="45.993274909022" lon="9.388197159014997"><ele>530.4</ele><time>2026-03-28T13:20:53.983Z</time></trkpt><trkpt lat="45.99325359595126" lon="9.388082680137504"><ele>532.8</ele><time>2026-03-28T13:20:55.983Z</time></trkpt><trkpt lat="45.99324396905408" lon="9.387930359655389"><ele>535.2</ele><time>2026-03-28T13:20:57.983Z</time></trkpt><trkpt lat="45.993240626764496" lon="9.387809011659884"><ele>537.6</ele><time>2026-03-28T13:20:58.983Z</time></trkpt><trkpt lat="45.99326742491269" lon="9.387646434189623"><ele>540.0</ele><time>2026-03-28T13:21:00.983Z</time></trkpt><trkpt lat="45.99328348084559" lon="9.387555792414547"><ele>542.0</ele><time>2026-03-28T13:21:01.983Z</time></trkpt><trkpt lat="45.99329367804466" lon="9.387453414665401"><ele>544.0</ele><time>2026-03-28T13:21:02.983Z</time></trkpt><trkpt lat="45.9933107939015" lon="9.387290541706465"><ele>546.0</ele><time>2026-03-28T13:21:04.983Z</time></trkpt><trkpt lat="45.99328520257179" lon="9.387124782361479"><ele>548.0</ele><time>2026-03-28T13:21:06.983Z</time></trkpt><trkpt lat="45.99327096954428" lon="9.387035884678989"><ele>550.0</ele><time>2026-03-28T13:21:07.983Z</time></trkpt><trkpt lat="45.99324270695422" lon="9.386858798180961"><ele>550.0</ele><time>2026-03-28T13:21:09.983Z</time></trkpt><trkpt lat="45.993225852998165" lon="9.386765769977277"><ele>550.0</ele><time>2026-03-28T13:21:10.983Z</time></trkpt><trkpt lat="45.993204015374566" lon="9.386636228803637"><ele>550.0</ele><time>2026-03-28T13:21:14.983Z</time></trkpt><trkpt lat="45.993205865996906" lon="9.386534152658033"><ele>550.0</ele><time>2026-03-28T13:21:19.983Z</time></trkpt><trkpt lat="45.99315273709317" lon="9.386433958771775"><ele>550.0</ele><time>2026-03-28T13:21:27.982Z</time></trkpt><trkpt lat="45.99306855016885" lon="9.386374306963946"><ele>550.0</ele><time>2026-03-28T13:21:30.982Z</time></trkpt><trkpt lat="45.9930473286193" lon="9.38626995432559"><ele>550.0</ele><time>2026-03-28T13:22:18.984Z</time></trkpt><trkpt lat="45.99311156099786" lon="9.386354328140614"><ele>550.0</ele><time>2026-03-28T13:22:21.984Z</time></trkpt><trkpt lat="45.99317467761615" lon="9.38639814703249"><ele>550.0</ele><time>2026-03-28T13:22:57.982Z</time></trkpt><trkpt lat="45.99323723362543" lon="9.386302441402858"><ele>550.0</ele><time>2026-03-28T13:23:01.982Z</time></trkpt><trkpt lat="45.993254249368285" lon="9.38621408307636"><ele>550.0</ele><time>2026-03-28T13:23:03.982Z</time></trkpt><trkpt lat="45.99332272875011" lon="9.386161802380723"><ele>550.0</ele><time>2026-03-28T13:23:05.982Z</time></trkpt><trkpt lat="45.993397641233464" lon="9.38617019306195"><ele>551.5</ele><time>2026-03-28T13:23:07.982Z</time></trkpt><trkpt lat="45.993510114874255" lon="9.38624120749781"><ele>553.0</ele><time>2026-03-28T13:23:09.982Z</time></trkpt><trkpt lat="45.993567954538996" lon="9.386281445776314"><ele>554.5</ele><time>2026-03-28T13:23:12.982Z</time></trkpt><trkpt lat="45.99364135173507" lon="9.386272299813799"><ele>556.0</ele><time>2026-03-28T13:23:15.982Z</time></trkpt><trkpt lat="45.99373424209377" lon="9.386236042731417"><ele>557.5</ele><time>2026-03-28T13:23:17.982Z</time></trkpt><trkpt lat="45.99379898110762" lon="9.386232623505254"><ele>559.0</ele><time>2026-03-28T13:23:19.982Z</time></trkpt><trkpt lat="45.99386235083382" lon="9.386247433827897"><ele>559.0</ele><time>2026-03-28T13:23:21.982Z</time></trkpt><trkpt lat="45.99393894337609" lon="9.386302434532334"><ele>559.0</ele><time>2026-03-28T13:23:25.981Z</time></trkpt><trkpt lat="45.99401449933495" lon="9.386277680104824"><ele>559.0</ele><time>2026-03-28T13:23:28.981Z</time></trkpt><trkpt lat="45.99407247365751" lon="9.386218358539033"><ele>559.0</ele><time>2026-03-28T13:23:30.981Z</time></trkpt><trkpt lat="45.99414160601713" lon="9.386204032527532"><ele>559.0</ele><time>2026-03-28T13:23:32.981Z</time></trkpt><trkpt lat="45.994200568603084" lon="9.386168993153335"><ele>559.0</ele><time>2026-03-28T13:23:35.981Z</time></trkpt><trkpt lat="45.99428126154643" lon="9.38613770608777"><ele>553.6666666666667</ele><time>2026-03-28T13:23:38.981Z</time></trkpt><trkpt lat="45.99434358869298" lon="9.38612086380185"><ele>548.3333333333334</ele><time>2026-03-28T13:23:39.981Z</time></trkpt><trkpt lat="45.99441533874059" lon="9.38610152134162"><ele>543.0</ele><time>2026-03-28T13:23:41.981Z</time></trkpt><trkpt lat="45.99450905178474" lon="9.386020826122781"><ele>537.6666666666666</ele><time>2026-03-28T13:23:44.981Z</time></trkpt><trkpt lat="45.994573818688266" lon="9.385982909179106"><ele>532.3333333333333</ele><time>2026-03-28T13:23:45.981Z</time></trkpt><trkpt lat="45.994639509593725" lon="9.38594781325923"><ele>527.0</ele><time>2026-03-28T13:23:46.981Z</time></trkpt><trkpt lat="45.994703503000345" lon="9.38584899321631"><ele>527.0</ele><time>2026-03-28T13:23:48.981Z</time></trkpt><trkpt lat="45.994747192962045" lon="9.385735348015166"><ele>527.0</ele><time>2026-03-28T13:23:50.981Z</time></trkpt><trkpt lat="45.994800869772426" lon="9.385595784905775"><ele>527.0</ele><time>2026-03-28T13:23:52.981Z</time></trkpt><trkpt lat="45.994842919694484" lon="9.385513601696235"><ele>527.0</ele><time>2026-03-28T13:23:53.981Z</time></trkpt><trkpt lat="45.994928869181194" lon="9.385391167866706"><ele>527.0</ele><time>2026-03-28T13:23:55.981Z</time></trkpt><trkpt lat="45.99497832535455" lon="9.385292799397494"><ele>525.0</ele><time>2026-03-28T13:23:59.981Z</time></trkpt><trkpt lat="45.995035655608845" lon="9.385207012728506"><ele>523.0</ele><time>2026-03-28T13:24:01.981Z</time></trkpt><trkpt lat="45.99511784405394" lon="9.385100457901924"><ele>521.0</ele><time>2026-03-28T13:24:03.981Z</time></trkpt><trkpt lat="45.99520195959538" lon="9.385050199858997"><ele>519.0</ele><time>2026-03-28T13:24:04.981Z</time></trkpt><trkpt lat="45.99529203509236" lon="9.384984981779407"><ele>517.0</ele><time>2026-03-28T13:24:05.981Z</time></trkpt><trkpt lat="45.99535284055259" lon="9.384940878544988"><ele>517.0</ele><time>2026-03-28T13:24:06.981Z</time></trkpt><trkpt lat="45.995409397548556" lon="9.384888843845399"><ele>517.0</ele><time>2026-03-28T13:24:07.983Z</time></trkpt><trkpt lat="45.99550387079686" lon="9.384804028436225"><ele>517.0</ele><time>2026-03-28T13:24:09.982Z</time></trkpt><trkpt lat="45.99557181158919" lon="9.384764768253689"><ele>517.0</ele><time>2026-03-28T13:24:10.983Z</time></trkpt><trkpt lat="45.99567010798189" lon="9.384679793457613"><ele>517.0</ele><time>2026-03-28T13:24:12.983Z</time></trkpt><trkpt lat="45.99573922260328" lon="9.384653955547602"><ele>517.0</ele><time>2026-03-28T13:24:13.982Z</time></trkpt><trkpt lat="45.99580795049506" lon="9.384623923360897"><ele>514.8333333333334</ele><time>2026-03-28T13:24:14.982Z</time></trkpt><trkpt lat="45.99588027104283" lon="9.384496035857426"><ele>512.6666666666667</ele><time>2026-03-28T13:24:16.982Z</time></trkpt><trkpt lat="45.99591469397674" lon="9.384405502947136"><ele>510.5</ele><time>2026-03-28T13:24:17.983Z</time></trkpt><trkpt lat="45.9959343396028" lon="9.384314819056009"><ele>508.33333333333337</ele><time>2026-03-28T13:24:18.983Z</time></trkpt><trkpt lat="45.995980355409145" lon="9.384191532190677"><ele>506.1666666666667</ele><time>2026-03-28T13:24:20.982Z</time></trkpt><trkpt lat="45.996021518130846" lon="9.384088598005345"><ele>504.0</ele><time>2026-03-28T13:24:21.982Z</time></trkpt><trkpt lat="45.996073403273535" lon="9.38394183349308"><ele>504.0</ele><time>2026-03-28T13:24:23.982Z</time></trkpt><trkpt lat="45.99612476124206" lon="9.383851939441074"><ele>504.0</ele><time>2026-03-28T13:24:25.982Z</time></trkpt><trkpt lat="45.9961923219391" lon="9.383759030869335"><ele>504.0</ele><time>2026-03-28T13:24:27.982Z</time></trkpt><trkpt lat="45.99626896158923" lon="9.383691703176721"><ele>504.0</ele><time>2026-03-28T13:24:29.982Z</time></trkpt><trkpt lat="45.996323452613154" lon="9.383609591269135"><ele>504.0</ele><time>2026-03-28T13:24:31.982Z</time></trkpt><trkpt lat="45.99636875888969" lon="9.38352540209204"><ele>504.0</ele><time>2026-03-28T13:24:33.982Z</time></trkpt><trkpt lat="45.99644462462848" lon="9.383400276481822"><ele>503.5</ele><time>2026-03-28T13:24:35.982Z</time></trkpt><trkpt lat="45.99651886024665" lon="9.383308822455541"><ele>503.0</ele><time>2026-03-28T13:24:37.982Z</time></trkpt><trkpt lat="45.996587536828116" lon="9.383278102893296"><ele>502.5</ele><time>2026-03-28T13:24:39.982Z</time></trkpt><trkpt lat="45.99669544151067" lon="9.383212579947445"><ele>502.0</ele><time>2026-03-28T13:25:20.981Z</time></trkpt><trkpt lat="45.99676646718535" lon="9.383231893259133"><ele>501.5</ele><time>2026-03-28T13:25:21.981Z</time></trkpt><trkpt lat="45.99682798446218" lon="9.383274855587496"><ele>501.0</ele><time>2026-03-28T13:25:22.981Z</time></trkpt><trkpt lat="45.99689142913085" lon="9.383321219267021"><ele>501.0</ele><time>2026-03-28T13:25:23.981Z</time></trkpt><trkpt lat="45.99697329320107" lon="9.383370028292655"><ele>501.0</ele><time>2026-03-28T13:25:24.981Z</time></trkpt><trkpt lat="45.99706660797859" lon="9.38340658473176"><ele>501.0</ele><time>2026-03-28T13:25:25.981Z</time></trkpt><trkpt lat="45.997141754882406" lon="9.383422895038688"><ele>501.0</ele><time>2026-03-28T13:25:26.981Z</time></trkpt><trkpt lat="45.99726854789591" lon="9.38342953085553"><ele>501.0</ele><time>2026-03-28T13:25:28.981Z</time></trkpt><trkpt lat="45.9974089917994" lon="9.38344571238938"><ele>501.0</ele><time>2026-03-28T13:25:30.981Z</time></trkpt><trkpt lat="45.99749785472105" lon="9.383457680111205"><ele>501.0</ele><time>2026-03-28T13:25:31.981Z</time></trkpt><trkpt lat="45.997583232952" lon="9.383450014239996"><ele>501.0</ele><time>2026-03-28T13:25:32.981Z</time></trkpt><trkpt lat="45.99765588255877" lon="9.383428813438398"><ele>501.0</ele><time>2026-03-28T13:25:33.981Z</time></trkpt><trkpt lat="45.99773337828054" lon="9.383401666872516"><ele>501.0</ele><time>2026-03-28T13:25:34.981Z</time></trkpt><trkpt lat="45.99780914985654" lon="9.383374815650162"><ele>501.0</ele><time>2026-03-28T13:25:35.981Z</time></trkpt><trkpt lat="45.99787752038829" lon="9.383365992573049"><ele>500.0</ele><time>2026-03-28T13:25:36.981Z</time></trkpt><trkpt lat="45.997942404917794" lon="9.383371526674486"><ele>499.0</ele><time>2026-03-28T13:25:37.981Z</time></trkpt><trkpt lat="45.99801357449795" lon="9.383414720351158"><ele>498.0</ele><time>2026-03-28T13:25:38.981Z</time></trkpt><trkpt lat="45.998079509665686" lon="9.383477667316528"><ele>497.0</ele><time>2026-03-28T13:25:39.981Z</time></trkpt><trkpt lat="45.998151123831555" lon="9.383532746837957"><ele>496.0</ele><time>2026-03-28T13:25:40.981Z</time></trkpt><trkpt lat="45.998212339209616" lon="9.383567205650074"><ele>495.0</ele><time>2026-03-28T13:25:41.981Z</time></trkpt><trkpt lat="45.99830572419177" lon="9.383634029291189"><ele>493.3333333333333</ele><time>2026-03-28T13:25:43.981Z</time></trkpt><trkpt lat="45.99836639396418" lon="9.383659891055286"><ele>491.66666666666663</ele><time>2026-03-28T13:25:45.981Z</time></trkpt><trkpt lat="45.99845463252631" lon="9.38365998496596"><ele>490.0</ele><time>2026-03-28T13:25:48.981Z</time></trkpt><trkpt lat="45.998579583758875" lon="9.383649857981577"><ele>488.3333333333333</ele><time>2026-03-28T13:25:50.981Z</time></trkpt><trkpt lat="45.998641363637056" lon="9.383709036747161"><ele>486.66666666666663</ele><time>2026-03-28T13:25:51.981Z</time></trkpt><trkpt lat="45.99870790428257" lon="9.383762808719018"><ele>485.0</ele><time>2026-03-28T13:25:52.981Z</time></trkpt><trkpt lat="45.99877263510882" lon="9.383823103442682"><ele>484.8333333333333</ele><time>2026-03-28T13:25:53.981Z</time></trkpt><trkpt lat="45.99884551804758" lon="9.383873488593931"><ele>484.66666666666663</ele><time>2026-03-28T13:25:54.981Z</time></trkpt><trkpt lat="45.99892121737133" lon="9.383930020821705"><ele>484.5</ele><time>2026-03-28T13:25:55.981Z</time></trkpt><trkpt lat="45.99898704691554" lon="9.383983974997813"><ele>484.33333333333337</ele><time>2026-03-28T13:25:56.981Z</time></trkpt><trkpt lat="45.999047076015145" lon="9.384032347502782"><ele>484.1666666666667</ele><time>2026-03-28T13:25:57.981Z</time></trkpt><trkpt lat="45.99908588219362" lon="9.384104338218181"><ele>484.0</ele><time>2026-03-28T13:25:58.981Z</time></trkpt><trkpt lat="45.999187717964396" lon="9.384206680102007"><ele>481.6666666666667</ele><time>2026-03-28T13:26:00.981Z</time></trkpt><trkpt lat="45.9992612966232" lon="9.384279528004896"><ele>479.33333333333337</ele><time>2026-03-28T13:26:02.981Z</time></trkpt><trkpt lat="45.99932532307134" lon="9.384322669923229"><ele>477.0</ele><time>2026-03-28T13:26:04.981Z</time></trkpt><trkpt lat="45.99939416202092" lon="9.38431957100723"><ele>474.66666666666663</ele><time>2026-03-28T13:26:05.981Z</time></trkpt><trkpt lat="45.99945813067629" lon="9.38426250499006"><ele>472.3333333333333</ele><time>2026-03-28T13:26:06.981Z</time></trkpt><trkpt lat="45.99954065734206" lon="9.384208361743408"><ele>470.0</ele><time>2026-03-28T13:26:07.98Z</time></trkpt><trkpt lat="45.999629922589975" lon="9.384167091474811"><ele>469.99999999999994</ele><time>2026-03-28T13:26:08.98Z</time></trkpt><trkpt lat="45.99970977902996" lon="9.384105279350239"><ele>470.0</ele><time>2026-03-28T13:26:09.98Z</time></trkpt><trkpt lat="45.99977472122176" lon="9.384044827343889"><ele>470.0</ele><time>2026-03-28T13:26:10.98Z</time></trkpt><trkpt lat="45.999816353329344" lon="9.383968004682279"><ele>470.0</ele><time>2026-03-28T13:26:11.98Z</time></trkpt><trkpt lat="45.9998501648961" lon="9.383882794165036"><ele>469.99999999999994</ele><time>2026-03-28T13:26:12.98Z</time></trkpt><trkpt lat="45.99988110605632" lon="9.383765992635817"><ele>470.0</ele><time>2026-03-28T13:26:13.983Z</time></trkpt><trkpt lat="45.99990362815068" lon="9.383681227932202"><ele>471.4</ele><time>2026-03-28T13:26:14.982Z</time></trkpt><trkpt lat="45.99995577182451" lon="9.383503089640605"><ele>472.8</ele><time>2026-03-28T13:26:16.982Z</time></trkpt><trkpt lat="46.00001603342453" lon="9.383404161793642"><ele>474.20000000000005</ele><time>2026-03-28T13:26:18.982Z</time></trkpt><trkpt lat="46.00010356365607" lon="9.383345791470045"><ele>475.6</ele><time>2026-03-28T13:26:20.982Z</time></trkpt><trkpt lat="46.000177141987386" lon="9.383316824889798"><ele>477.0</ele><time>2026-03-28T13:26:22.982Z</time></trkpt><trkpt lat="46.00028951562215" lon="9.383340389846335"><ele>477.0</ele><time>2026-03-28T13:26:25.982Z</time></trkpt><trkpt lat="46.00039491399235" lon="9.383337082488701"><ele>477.00000000000006</ele><time>2026-03-28T13:26:27.982Z</time></trkpt><trkpt lat="46.00049190884428" lon="9.383348639094525"><ele>477.00000000000006</ele><time>2026-03-28T13:26:29.982Z</time></trkpt><trkpt lat="46.00057281854583" lon="9.38340479931229"><ele>477.0</ele><time>2026-03-28T13:26:31.982Z</time></trkpt><trkpt lat="46.00054670127323" lon="9.383575740214441"><ele>477.0</ele><time>2026-03-28T13:26:34.982Z</time></trkpt><trkpt lat="46.00052685666752" lon="9.383721192072763"><ele>475.6</ele><time>2026-03-28T13:26:36.982Z</time></trkpt><trkpt lat="46.000494718562564" lon="9.383880785560041"><ele>474.20000000000005</ele><time>2026-03-28T13:26:38.982Z</time></trkpt><trkpt lat="46.00045624725643" lon="9.384009069721776"><ele>472.8</ele><time>2026-03-28T13:26:39.982Z</time></trkpt><trkpt lat="46.000401213786084" lon="9.384142320041331"><ele>471.4</ele><time>2026-03-28T13:26:40.982Z</time></trkpt><trkpt lat="46.000374886591864" lon="9.384262469992327"><ele>470.0</ele><time>2026-03-28T13:26:41.982Z</time></trkpt><trkpt lat="46.00038016308834" lon="9.38436745505403"><ele>470.0</ele><time>2026-03-28T13:26:42.982Z</time></trkpt><trkpt lat="46.00038470016427" lon="9.384485217936652"><ele>470.0</ele><time>2026-03-28T13:26:43.982Z</time></trkpt><trkpt lat="46.00037991501723" lon="9.38461314322789"><ele>470.0</ele><time>2026-03-28T13:26:44.982Z</time></trkpt><trkpt lat="46.000392419620304" lon="9.384750355987244"><ele>470.0</ele><time>2026-03-28T13:26:45.982Z</time></trkpt><trkpt lat="46.00043573041996" lon="9.384891967606473"><ele>470.0</ele><time>2026-03-28T13:26:46.982Z</time></trkpt><trkpt lat="46.00053818244414" lon="9.385038259040346"><ele>466.66666666666663</ele><time>2026-03-28T13:26:47.982Z</time></trkpt><trkpt lat="46.00067601538856" lon="9.38517325232341"><ele>463.33333333333337</ele><time>2026-03-28T13:26:48.982Z</time></trkpt><trkpt lat="46.00082068152392" lon="9.385293353872193"><ele>460.0</ele><time>2026-03-28T13:26:49.982Z</time></trkpt><trkpt lat="46.00093549389243" lon="9.385425647562291"><ele>459.8</ele><time>2026-03-28T13:26:50.982Z</time></trkpt><trkpt lat="46.00102608639208" lon="9.385528346361053"><ele>459.6</ele><time>2026-03-28T13:26:51.982Z</time></trkpt><trkpt lat="46.00110206130056" lon="9.385615697813439"><ele>459.4</ele><time>2026-03-28T13:26:52.982Z</time></trkpt><trkpt lat="46.00117345478343" lon="9.385695840325788"><ele>459.2</ele><time>2026-03-28T13:26:53.982Z</time></trkpt><trkpt lat="46.00123455744739" lon="9.385790546350355"><ele>459.0</ele><time>2026-03-28T13:26:54.982Z</time></trkpt><trkpt lat="46.00131887860051" lon="9.385894949829098"><ele>459.0</ele><time>2026-03-28T13:26:55.982Z</time></trkpt><trkpt lat="46.00138697977614" lon="9.386000872218709"><ele>459.0</ele><time>2026-03-28T13:26:56.982Z</time></trkpt><trkpt lat="46.00147123533931" lon="9.386112074489377"><ele>459.0</ele><time>2026-03-28T13:26:57.982Z</time></trkpt><trkpt lat="46.001560049471955" lon="9.386241545610051"><ele>459.0</ele><time>2026-03-28T13:26:58.982Z</time></trkpt><trkpt lat="46.00163960863047" lon="9.38636620862692"><ele>460.2</ele><time>2026-03-28T13:26:59.982Z</time></trkpt><trkpt lat="46.00171730329517" lon="9.386493189144797"><ele>461.4</ele><time>2026-03-28T13:27:00.982Z</time></trkpt><trkpt lat="46.00179777323341" lon="9.386594468544898"><ele>462.6</ele><time>2026-03-28T13:27:01.982Z</time></trkpt><trkpt lat="46.001864992961046" lon="9.38669645592772"><ele>463.8</ele><time>2026-03-28T13:27:02.982Z</time></trkpt><trkpt lat="46.00192407344805" lon="9.386773924209429"><ele>465.0</ele><time>2026-03-28T13:27:03.982Z</time></trkpt><trkpt lat="46.001999766928485" lon="9.386907493919255"><ele>465.0</ele><time>2026-03-28T13:27:05.982Z</time></trkpt><trkpt lat="46.00200894965592" lon="9.387010922100265"><ele>465.0</ele><time>2026-03-28T13:27:07.981Z</time></trkpt><trkpt lat="46.00205501915541" lon="9.387099170904758"><ele>465.0</ele><time>2026-03-28T13:27:10.981Z</time></trkpt><trkpt lat="46.00213816704209" lon="9.387078145333902"><ele>465.0</ele><time>2026-03-28T13:27:13.981Z</time></trkpt><trkpt lat="46.002199762178485" lon="9.387032572196821"><ele>465.0</ele><time>2026-03-28T13:27:15.981Z</time></trkpt><trkpt lat="46.00231207600343" lon="9.386939273840403"><ele>465.0</ele><time>2026-03-28T13:27:17.981Z</time></trkpt><trkpt lat="46.00238264259773" lon="9.386903578251511"><ele>465.0</ele><time>2026-03-28T13:27:18.981Z</time></trkpt><trkpt lat="46.002473190700194" lon="9.386865544226563"><ele>465.0</ele><time>2026-03-28T13:27:19.981Z</time></trkpt><trkpt lat="46.00257994228901" lon="9.386788104058605"><ele>465.0</ele><time>2026-03-28T13:27:20.981Z</time></trkpt><trkpt lat="46.00267796210614" lon="9.386702913143207"><ele>465.0</ele><time>2026-03-28T13:27:21.981Z</time></trkpt><trkpt lat="46.00272966631757" lon="9.386647343483562"><ele>465.0</ele><time>2026-03-28T13:27:22.981Z</time></trkpt><trkpt lat="46.00279938180154" lon="9.386630043205452"><ele>465.3333333333333</ele><time>2026-03-28T13:27:24.981Z</time></trkpt><trkpt lat="46.00287183134093" lon="9.38667926608315"><ele>465.66666666666663</ele><time>2026-03-28T13:27:26.981Z</time></trkpt><trkpt lat="46.00290567321752" lon="9.386787517539872"><ele>466.0</ele><time>2026-03-28T13:27:30.981Z</time></trkpt><trkpt lat="46.002877672727806" lon="9.38686940064395"><ele>466.3333333333333</ele><time>2026-03-28T13:27:31.981Z</time></trkpt><trkpt lat="46.00283739685684" lon="9.38701955978517"><ele>466.66666666666663</ele><time>2026-03-28T13:27:33.981Z</time></trkpt><trkpt lat="46.00285644926508" lon="9.387155610880047"><ele>467.0</ele><time>2026-03-28T13:27:35.981Z</time></trkpt><trkpt lat="46.00285520977218" lon="9.387265609680338"><ele>468.3333333333333</ele><time>2026-03-28T13:27:38.981Z</time></trkpt><trkpt lat="46.00283652526106" lon="9.38736180490152"><ele>469.66666666666663</ele><time>2026-03-28T13:27:41.981Z</time></trkpt><trkpt lat="46.002793054707126" lon="9.387452224653462"><ele>471.0</ele><time>2026-03-28T13:27:43.981Z</time></trkpt><trkpt lat="46.00279389904543" lon="9.387568883782192"><ele>472.33333333333337</ele><time>2026-03-28T13:27:47.981Z</time></trkpt><trkpt lat="46.002850563809396" lon="9.387639421765861"><ele>473.6666666666667</ele><time>2026-03-28T13:27:49.981Z</time></trkpt><trkpt lat="46.00293872904055" lon="9.387678071289157"><ele>475.0</ele><time>2026-03-28T13:27:51.981Z</time></trkpt><trkpt lat="46.00305759451734" lon="9.387716930486349"><ele>475.00000000000006</ele><time>2026-03-28T13:27:53.981Z</time></trkpt><trkpt lat="46.00316118897889" lon="9.38772890782823"><ele>475.0</ele><time>2026-03-28T13:27:56.981Z</time></trkpt><trkpt lat="46.00322638621289" lon="9.387694695716332"><ele>475.0</ele><time>2026-03-28T13:27:58.981Z</time></trkpt><trkpt lat="46.00327362834053" lon="9.387602429220454"><ele>475.0</ele><time>2026-03-28T13:28:00.981Z</time></trkpt><trkpt lat="46.00333129213922" lon="9.387504360387556"><ele>475.00000000000006</ele><time>2026-03-28T13:28:02.981Z</time></trkpt><trkpt lat="46.003392826296356" lon="9.387429748095318"><ele>475.0</ele><time>2026-03-28T13:28:04.981Z</time></trkpt><trkpt lat="46.00346100016243" lon="9.38735852571101"><ele>476.33333333333337</ele><time>2026-03-28T13:28:06.981Z</time></trkpt><trkpt lat="46.003541783468336" lon="9.387319733378234"><ele>477.6666666666667</ele><time>2026-03-28T13:28:08.981Z</time></trkpt><trkpt lat="46.003616545481485" lon="9.38734538144974"><ele>479.0</ele><time>2026-03-28T13:28:10.981Z</time></trkpt><trkpt lat="46.00366222300467" lon="9.387469390983133"><ele>480.33333333333337</ele><time>2026-03-28T13:28:13.981Z</time></trkpt><trkpt lat="46.00368989440924" lon="9.38756369706499"><ele>481.6666666666667</ele><time>2026-03-28T13:28:15.98Z</time></trkpt><trkpt lat="46.00367325896364" lon="9.387666798641702"><ele>483.0</ele><time>2026-03-28T13:28:18.98Z</time></trkpt><trkpt lat="46.003622180936176" lon="9.387743874540122"><ele>483.0</ele><time>2026-03-28T13:28:22.982Z</time></trkpt><trkpt lat="46.003684993029445" lon="9.38769935045125"><ele>483.0</ele><time>2026-03-28T13:28:46.982Z</time></trkpt><trkpt lat="46.003623610789305" lon="9.38779153099093"><ele>483.0</ele><time>2026-03-28T13:29:04.982Z</time></trkpt><trkpt lat="46.003528723551234" lon="9.38782281426745"><ele>483.0</ele><time>2026-03-28T13:29:06.982Z</time></trkpt><trkpt lat="46.003454281235946" lon="9.387826614558646"><ele>483.0</ele><time>2026-03-28T13:29:08.982Z</time></trkpt><trkpt lat="46.00334237253479" lon="9.387851717503535"><ele>483.0</ele><time>2026-03-28T13:29:10.982Z</time></trkpt><trkpt lat="46.0032730476095" lon="9.38789785067005"><ele>483.0</ele><time>2026-03-28T13:29:11.982Z</time></trkpt><trkpt lat="46.00320285435966" lon="9.387983015015365"><ele>483.0</ele><time>2026-03-28T13:29:13.982Z</time></trkpt><trkpt lat="46.003168579291085" lon="9.388060361575945"><ele>483.0</ele><time>2026-03-28T13:29:17.982Z</time></trkpt><trkpt lat="46.003079244590126" lon="9.388116683019014"><ele>483.0</ele><time>2026-03-28T13:29:21.981Z</time></trkpt><trkpt lat="46.00300524971404" lon="9.388138701292913"><ele>483.0</ele><time>2026-03-28T13:29:23.981Z</time></trkpt><trkpt lat="46.00296229866504" lon="9.38823319659313"><ele>483.0</ele><time>2026-03-28T13:29:25.981Z</time></trkpt><trkpt lat="46.00290740966739" lon="9.388338794738871"><ele>483.0</ele><time>2026-03-28T13:29:27.981Z</time></trkpt><trkpt lat="46.00286560155422" lon="9.388414340896524"><ele>483.0</ele><time>2026-03-28T13:29:30.981Z</time></trkpt><trkpt lat="46.00291538106684" lon="9.388484706824627"><ele>483.0</ele><time>2026-03-28T13:29:36.981Z</time></trkpt><trkpt lat="46.002985864016416" lon="9.388478271185873"><ele>483.0</ele><time>2026-03-28T13:29:40.981Z</time></trkpt><trkpt lat="46.003059645699715" lon="9.388517194277691"><ele>483.0</ele><time>2026-03-28T13:29:44.981Z</time></trkpt><trkpt lat="46.00312833023853" lon="9.388519184714674"><ele>483.0</ele><time>2026-03-28T13:30:04.981Z</time></trkpt><trkpt lat="46.00309013591779" lon="9.388617552521813"><ele>483.0</ele><time>2026-03-28T13:30:12.981Z</time></trkpt><trkpt lat="46.00302805022881" lon="9.388666194071597"><ele>483.0</ele><time>2026-03-28T13:30:14.981Z</time></trkpt><trkpt lat="46.00300928525462" lon="9.388767199780228"><ele>483.0</ele><time>2026-03-28T13:30:19.981Z</time></trkpt><trkpt lat="46.00300717372238" lon="9.388875104565358"><ele>483.0</ele><time>2026-03-28T13:30:23.981Z</time></trkpt><trkpt lat="46.00299516924081" lon="9.388964259264624"><ele>483.0</ele><time>2026-03-28T13:30:26.982Z</time></trkpt><trkpt lat="46.002969677536875" lon="9.389072226829066"><ele>483.0</ele><time>2026-03-28T13:30:30.982Z</time></trkpt><trkpt lat="46.0029455044569" lon="9.389164689871773"><ele>483.0</ele><time>2026-03-28T13:30:33.981Z</time></trkpt><trkpt lat="46.00292014797948" lon="9.389264478486066"><ele>483.0</ele><time>2026-03-28T13:30:36.982Z</time></trkpt><trkpt lat="46.00288735733736" lon="9.389379293300044"><ele>485.0</ele><time>2026-03-28T13:30:40.982Z</time></trkpt><trkpt lat="46.0028722857542" lon="9.389506060294273"><ele>487.0</ele><time>2026-03-28T13:30:44.982Z</time></trkpt><trkpt lat="46.002845528367416" lon="9.389601841931762"><ele>489.0</ele><time>2026-03-28T13:30:47.982Z</time></trkpt><trkpt lat="46.002853991407605" lon="9.389722587394713"><ele>491.0</ele><time>2026-03-28T13:30:51.982Z</time></trkpt><trkpt lat="46.002851001397026" lon="9.389830972078471"><ele>493.0</ele><time>2026-03-28T13:30:54.982Z</time></trkpt><trkpt lat="46.00285487695249" lon="9.389922837515678"><ele>495.0</ele><time>2026-03-28T13:30:57.982Z</time></trkpt><trkpt lat="46.00280165755944" lon="9.390273880523896"><ele>496.8333333333333</ele><time>2026-03-28T13:30:59.982Z</time></trkpt><trkpt lat="46.002774853919675" lon="9.390387353519186"><ele>498.66666666666663</ele><time>2026-03-28T13:31:01.982Z</time></trkpt><trkpt lat="46.00280591016127" lon="9.390478105362293"><ele>500.5</ele><time>2026-03-28T13:31:05.982Z</time></trkpt><trkpt lat="46.00286256911065" lon="9.390571884072434"><ele>502.3333333333333</ele><time>2026-03-28T13:32:07.981Z</time></trkpt><trkpt lat="46.002866686372684" lon="9.390684615366803"><ele>504.16666666666663</ele><time>2026-03-28T13:32:20.981Z</time></trkpt><trkpt lat="46.00292158129815" lon="9.390750415937166"><ele>506.0</ele><time>2026-03-28T13:32:22.98Z</time></trkpt><trkpt lat="46.00295628181828" lon="9.390835060388179"><ele>507.3333333333333</ele><time>2026-03-28T13:32:30.98Z</time></trkpt><trkpt lat="46.003007990920324" lon="9.390923540798815"><ele>508.66666666666663</ele><time>2026-03-28T13:32:35.982Z</time></trkpt><trkpt lat="46.00308593976125" lon="9.390950271048904"><ele>510.0</ele><time>2026-03-28T13:32:39.981Z</time></trkpt><trkpt lat="46.00316252279303" lon="9.390907818927966"><ele>511.33333333333337</ele><time>2026-03-28T13:32:44.982Z</time></trkpt><trkpt lat="46.00322350650906" lon="9.390874073416796"><ele>512.6666666666667</ele><time>2026-03-28T13:32:49.981Z</time></trkpt><trkpt lat="46.00329455798142" lon="9.390846995041702"><ele>514.0</ele><time>2026-03-28T13:32:54.981Z</time></trkpt><trkpt lat="46.00333870448768" lon="9.390768210999736"><ele>518.7142857142857</ele><time>2026-03-28T13:32:58.981Z</time></trkpt><trkpt lat="46.00339032531164" lon="9.390820538023725"><ele>523.4285714285714</ele><time>2026-03-28T13:33:02.981Z</time></trkpt><trkpt lat="46.00344909611549" lon="9.390873866328333"><ele>528.1428571428571</ele><time>2026-03-28T13:33:07.981Z</time></trkpt><trkpt lat="46.00346963124516" lon="9.39096286857532"><ele>532.8571428571429</ele><time>2026-03-28T13:33:12.981Z</time></trkpt><trkpt lat="46.00352557194698" lon="9.39101055190604"><ele>537.5714285714286</ele><time>2026-03-28T13:33:16.981Z</time></trkpt><trkpt lat="46.0035840975858" lon="9.391045940123242"><ele>542.2857142857142</ele><time>2026-03-28T13:33:19.981Z</time></trkpt><trkpt lat="46.00365215424527" lon="9.391049175409094"><ele>547.0</ele><time>2026-03-28T13:33:24.981Z</time></trkpt><trkpt lat="46.003750125511345" lon="9.39100327557482"><ele>547.0</ele><time>2026-03-28T13:33:28.981Z</time></trkpt><trkpt lat="46.003816587334995" lon="9.390981120429188"><ele>547.0</ele><time>2026-03-28T13:33:31.981Z</time></trkpt><trkpt lat="46.003881989047535" lon="9.39099487280509"><ele>547.0</ele><time>2026-03-28T13:33:33.981Z</time></trkpt><trkpt lat="46.00395202726556" lon="9.390972140546697"><ele>547.0</ele><time>2026-03-28T13:33:36.981Z</time></trkpt><trkpt lat="46.00403777463859" lon="9.390961876081676"><ele>547.0</ele><time>2026-03-28T13:33:39.981Z</time></trkpt><trkpt lat="46.004100623797065" lon="9.390948130338117"><ele>547.0</ele><time>2026-03-28T13:33:42.981Z</time></trkpt><trkpt lat="46.00416681048871" lon="9.390935665936972"><ele>547.0</ele><time>2026-03-28T13:33:46.981Z</time></trkpt><trkpt lat="46.00423361939564" lon="9.390934764464863"><ele>553.5</ele><time>2026-03-28T13:33:50.981Z</time></trkpt><trkpt lat="46.00436890644241" lon="9.390863607915302"><ele>560.0</ele><time>2026-03-28T13:34:03.98Z</time></trkpt><trkpt lat="46.00441701325701" lon="9.390804947674692"><ele>566.5</ele><time>2026-03-28T13:34:10.98Z</time></trkpt><trkpt lat="46.004503888528966" lon="9.390805744717401"><ele>573.0</ele><time>2026-03-28T13:43:22.98Z</time></trkpt><trkpt lat="46.00452561619399" lon="9.390894182204853"><ele>579.5</ele><time>2026-03-28T13:44:04.979Z</time></trkpt><trkpt lat="46.004522607843946" lon="9.391001590217519"><ele>586.0</ele><time>2026-03-28T13:44:11.979Z</time></trkpt><trkpt lat="46.00446760760213" lon="9.391064053706522"><ele>586.0</ele><time>2026-03-28T13:44:21.979Z</time></trkpt><trkpt lat="46.00441203504214" lon="9.391107661835122"><ele>586.0</ele><time>2026-03-28T13:44:27.979Z</time></trkpt><trkpt lat="46.00437461489884" lon="9.391195501310014"><ele>586.0</ele><time>2026-03-28T13:44:32.979Z</time></trkpt><trkpt lat="46.00433038437984" lon="9.39126980697448"><ele>586.0</ele><time>2026-03-28T13:44:38.979Z</time></trkpt><trkpt lat="46.00431465788584" lon="9.391359668833704"><ele>586.0</ele><time>2026-03-28T13:44:44.979Z</time></trkpt><trkpt lat="46.004296892526" lon="9.391554625562089"><ele>586.0</ele><time>2026-03-28T13:45:58.98Z</time></trkpt><trkpt lat="46.00434952633454" lon="9.391624707682222"><ele>585.9999999999999</ele><time>2026-03-28T13:46:24.979Z</time></trkpt><trkpt lat="46.004387785012355" lon="9.39154607643663"><ele>586.0</ele><time>2026-03-28T13:46:33.979Z</time></trkpt><trkpt lat="46.00437411661571" lon="9.391451893642385"><ele>586.0</ele><time>2026-03-28T13:46:39.979Z</time></trkpt><trkpt lat="46.00441687603212" lon="9.391372900777041"><ele>586.0</ele><time>2026-03-28T13:46:45.979Z</time></trkpt><trkpt lat="46.00443650044024" lon="9.391275446622258"><ele>586.0</ele><time>2026-03-28T13:46:51.979Z</time></trkpt><trkpt lat="46.00444390109438" lon="9.391171974498622"><ele>585.9999999999999</ele><time>2026-03-28T13:46:55.979Z</time></trkpt><trkpt lat="46.00447343056788" lon="9.391056673192583"><ele>586.0</ele><time>2026-03-28T13:47:10.979Z</time></trkpt><trkpt lat="46.00453086919317" lon="9.39101791454987"><ele>586.0</ele><time>2026-03-28T13:47:23.98Z</time></trkpt><trkpt lat="46.00451304213981" lon="9.390928575789914"><ele>586.0</ele><time>2026-03-28T13:47:40.98Z</time></trkpt><trkpt lat="46.004448005246424" lon="9.390889512863238"><ele>586.0</ele><time>2026-03-28T13:47:47.98Z</time></trkpt><trkpt lat="46.004386745042" lon="9.390857873467473"><ele>586.0</ele><time>2026-03-28T13:47:53.98Z</time></trkpt><trkpt lat="46.004296227914985" lon="9.39086470444552"><ele>586.0</ele><time>2026-03-28T13:47:58.98Z</time></trkpt><trkpt lat="46.00421263534386" lon="9.390851040686194"><ele>586.0</ele><time>2026-03-28T13:48:02.98Z</time></trkpt><trkpt lat="46.00413277810971" lon="9.390898667041645"><ele>579.5</ele><time>2026-03-28T13:48:05.98Z</time></trkpt><trkpt lat="46.00405135409349" lon="9.390944862462131"><ele>573.0</ele><time>2026-03-28T13:48:08.98Z</time></trkpt><trkpt lat="46.00399351688547" lon="9.391011838987446"><ele>566.5</ele><time>2026-03-28T13:48:11.98Z</time></trkpt><trkpt lat="46.00392379829956" lon="9.39099758050027"><ele>560.0</ele><time>2026-03-28T13:48:16.98Z</time></trkpt><trkpt lat="46.00385380721148" lon="9.39102816379776"><ele>553.5</ele><time>2026-03-28T13:48:20.98Z</time></trkpt><trkpt lat="46.003793758007156" lon="9.390975978709575"><ele>547.0</ele><time>2026-03-28T13:48:25.98Z</time></trkpt><trkpt lat="46.00373301700375" lon="9.390907241910176"><ele>547.0</ele><time>2026-03-28T13:48:30.98Z</time></trkpt><trkpt lat="46.00368801867922" lon="9.390819471949719"><ele>547.0</ele><time>2026-03-28T13:48:34.98Z</time></trkpt><trkpt lat="46.00361816765399" lon="9.39078320682783"><ele>547.0</ele><time>2026-03-28T13:48:39.98Z</time></trkpt><trkpt lat="46.003560790759714" lon="9.390850446561013"><ele>547.0</ele><time>2026-03-28T13:48:43.979Z</time></trkpt><trkpt lat="46.003482817354374" lon="9.390859922434638"><ele>547.0</ele><time>2026-03-28T13:48:48.979Z</time></trkpt><trkpt lat="46.003416946306935" lon="9.390934256545892"><ele>547.0</ele><time>2026-03-28T13:48:52.979Z</time></trkpt><trkpt lat="46.00335053787474" lon="9.390991548439793"><ele>542.2857142857142</ele><time>2026-03-28T13:48:56.979Z</time></trkpt><trkpt lat="46.003291837003154" lon="9.391036976718153"><ele>537.5714285714286</ele><time>2026-03-28T13:48:59.979Z</time></trkpt><trkpt lat="46.00322716295" lon="9.391019030333895"><ele>532.8571428571429</ele><time>2026-03-28T13:49:04.979Z</time></trkpt><trkpt lat="46.003168233523056" lon="9.390975509016226"><ele>528.1428571428571</ele><time>2026-03-28T13:49:08.979Z</time></trkpt><trkpt lat="46.00310518321666" lon="9.390957357088707"><ele>523.4285714285714</ele><time>2026-03-28T13:49:11.979Z</time></trkpt><trkpt lat="46.00304223636492" lon="9.390912055050748"><ele>518.7142857142857</ele><time>2026-03-28T13:49:17.979Z</time></trkpt><trkpt lat="46.002987665865376" lon="9.390797846387121"><ele>514.0</ele><time>2026-03-28T13:49:21.98Z</time></trkpt><trkpt lat="46.002934891232925" lon="9.390701477547935"><ele>514.0</ele><time>2026-03-28T13:49:33.98Z</time></trkpt><trkpt lat="46.00293840617097" lon="9.390589786980502"><ele>514.0</ele><time>2026-03-28T13:49:36.98Z</time></trkpt><trkpt lat="46.00291982315137" lon="9.390479010937904"><ele>514.0</ele><time>2026-03-28T13:49:41.98Z</time></trkpt><trkpt lat="46.00291325589622" lon="9.39035868059816"><ele>514.0</ele><time>2026-03-28T13:49:45.98Z</time></trkpt><trkpt lat="46.00291316982252" lon="9.39022524947346"><ele>514.0</ele><time>2026-03-28T13:49:48.98Z</time></trkpt><trkpt lat="46.002905322440554" lon="9.390114205619902"><ele>514.0</ele><time>2026-03-28T13:49:51.979Z</time></trkpt><trkpt lat="46.00290684465699" lon="9.390014102732753"><ele>512.8571428571429</ele><time>2026-03-28T13:49:53.979Z</time></trkpt><trkpt lat="46.00290599262038" lon="9.3899175698777"><ele>511.7142857142858</ele><time>2026-03-28T13:49:55.979Z</time></trkpt><trkpt lat="46.00292947036301" lon="9.389814362779179"><ele>510.5714285714286</ele><time>2026-03-28T13:49:57.979Z</time></trkpt><trkpt lat="46.002946573744474" lon="9.38971342462212"><ele>509.42857142857144</ele><time>2026-03-28T13:50:00.979Z</time></trkpt><trkpt lat="46.00296920434304" lon="9.389589252562336"><ele>508.28571428571433</ele><time>2026-03-28T13:50:03.979Z</time></trkpt><trkpt lat="46.00299107944031" lon="9.389492921119263"><ele>507.1428571428572</ele><time>2026-03-28T13:50:06.979Z</time></trkpt><trkpt lat="46.00298847852529" lon="9.389387511795926"><ele>506.00000000000006</ele><time>2026-03-28T13:50:09.979Z</time></trkpt><trkpt lat="46.002979646567674" lon="9.389287871555263"><ele>504.16666666666663</ele><time>2026-03-28T13:50:11.979Z</time></trkpt><trkpt lat="46.002985817290146" lon="9.389181105814366"><ele>502.3333333333333</ele><time>2026-03-28T13:50:15.979Z</time></trkpt><trkpt lat="46.00301079300552" lon="9.389073858888722"><ele>500.5</ele><time>2026-03-28T13:50:18.979Z</time></trkpt><trkpt lat="46.003043633049295" lon="9.388964529406632"><ele>498.66666666666663</ele><time>2026-03-28T13:50:21.979Z</time></trkpt><trkpt lat="46.003091411355854" lon="9.388860126525863"><ele>496.8333333333333</ele><time>2026-03-28T13:50:24.979Z</time></trkpt><trkpt lat="46.003119050821205" lon="9.388758926376827"><ele>495.0</ele><time>2026-03-28T13:50:28.979Z</time></trkpt><trkpt lat="46.003067818312246" lon="9.388676639230074"><ele>492.0</ele><time>2026-03-28T13:50:34.979Z</time></trkpt><trkpt lat="46.0030194820893" lon="9.388604767716604"><ele>489.0</ele><time>2026-03-28T13:50:38.979Z</time></trkpt><trkpt lat="46.00295555119088" lon="9.388598333375583"><ele>486.0</ele><time>2026-03-28T13:50:43.979Z</time></trkpt><trkpt lat="46.0029366111214" lon="9.388508723137925"><ele>483.0</ele><time>2026-03-28T13:50:46.979Z</time></trkpt><trkpt lat="46.0029089022468" lon="9.388078393758112"><ele>481.6666666666667</ele><time>2026-03-28T13:50:49.979Z</time></trkpt><trkpt lat="46.00292864640783" lon="9.38797266515408"><ele>480.33333333333337</ele><time>2026-03-28T13:50:50.979Z</time></trkpt><trkpt lat="46.00295881843591" lon="9.387882717044226"><ele>479.0</ele><time>2026-03-28T13:50:51.979Z</time></trkpt><trkpt lat="46.00296303495682" lon="9.38778438228514"><ele>477.6666666666667</ele><time>2026-03-28T13:50:52.979Z</time></trkpt><trkpt lat="46.00289934460931" lon="9.387678208126385"><ele>476.33333333333337</ele><time>2026-03-28T13:50:54.979Z</time></trkpt><trkpt lat="46.00280284031556" lon="9.387604868709719"><ele>475.0</ele><time>2026-03-28T13:50:56.979Z</time></trkpt><trkpt lat="46.00276979297433" lon="9.38752765680197"><ele>475.0</ele><time>2026-03-28T13:50:58.979Z</time></trkpt><trkpt lat="46.002811425325184" lon="9.387403644888222"><ele>475.0</ele><time>2026-03-28T13:51:02.978Z</time></trkpt><trkpt lat="46.00284195343908" lon="9.387251038068586"><ele>475.0</ele><time>2026-03-28T13:51:04.978Z</time></trkpt><trkpt lat="46.0028617062373" lon="9.387069286838754"><ele>475.0</ele><time>2026-03-28T13:51:06.978Z</time></trkpt><trkpt lat="46.00287734279185" lon="9.386949242829987"><ele>475.0</ele><time>2026-03-28T13:51:08.978Z</time></trkpt><trkpt lat="46.002891231983824" lon="9.386845117128836"><ele>473.4</ele><time>2026-03-28T13:51:10.978Z</time></trkpt><trkpt lat="46.00282392600961" lon="9.386732298871335"><ele>471.8</ele><time>2026-03-28T13:51:13.978Z</time></trkpt><trkpt lat="46.002737551159186" lon="9.386722886072716"><ele>470.20000000000005</ele><time>2026-03-28T13:51:15.978Z</time></trkpt><trkpt lat="46.00262605187901" lon="9.386829266506142"><ele>468.6</ele><time>2026-03-28T13:51:17.978Z</time></trkpt><trkpt lat="46.002559980484776" lon="9.386884247497594"><ele>467.0</ele><time>2026-03-28T13:51:18.978Z</time></trkpt><trkpt lat="46.00249804707447" lon="9.386927983347228"><ele>466.66666666666663</ele><time>2026-03-28T13:51:19.978Z</time></trkpt><trkpt lat="46.002401288030754" lon="9.387016950993724"><ele>466.3333333333333</ele><time>2026-03-28T13:51:21.978Z</time></trkpt><trkpt lat="46.00232444481113" lon="9.387082433770304"><ele>466.0</ele><time>2026-03-28T13:51:23.978Z</time></trkpt><trkpt lat="46.002261622241136" lon="9.38711280224279"><ele>465.66666666666663</ele><time>2026-03-28T13:51:26.98Z</time></trkpt><trkpt lat="46.002186568996116" lon="9.38704702611948"><ele>465.3333333333333</ele><time>2026-03-28T13:51:29.98Z</time></trkpt><trkpt lat="46.00212239520016" lon="9.387072616414383"><ele>465.0</ele><time>2026-03-28T13:51:31.98Z</time></trkpt><trkpt lat="46.00206336750619" lon="9.387028665556283"><ele>465.0</ele><time>2026-03-28T13:51:34.98Z</time></trkpt><trkpt lat="46.00205315158043" lon="9.386930902181975"><ele>465.0</ele><time>2026-03-28T13:51:35.98Z</time></trkpt><trkpt lat="46.00202198808987" lon="9.386812049858854"><ele>465.0</ele><time>2026-03-28T13:51:36.98Z</time></trkpt><trkpt lat="46.001948094918646" lon="9.386693062040232"><ele>465.0</ele><time>2026-03-28T13:51:37.98Z</time></trkpt><trkpt lat="46.00185103108427" lon="9.386559270520609"><ele>465.0</ele><time>2026-03-28T13:51:38.98Z</time></trkpt><trkpt lat="46.00175293032984" lon="9.386426587236505"><ele>463.5</ele><time>2026-03-28T13:51:39.98Z</time></trkpt><trkpt lat="46.00162743223391" lon="9.386289770686966"><ele>462.0</ele><time>2026-03-28T13:51:40.98Z</time></trkpt><trkpt lat="46.00155162036286" lon="9.386141896704714"><ele>460.5</ele><time>2026-03-28T13:51:41.98Z</time></trkpt><trkpt lat="46.001460735441285" lon="9.386020674391311"><ele>459.0</ele><time>2026-03-28T13:51:42.98Z</time></trkpt><trkpt lat="46.00136016813515" lon="9.385905725340288"><ele>459.0</ele><time>2026-03-28T13:51:43.98Z</time></trkpt><trkpt lat="46.001278077241814" lon="9.385822090279856"><ele>459.0</ele><time>2026-03-28T13:51:44.98Z</time></trkpt><trkpt lat="46.00117590397167" lon="9.38570831596863"><ele>459.0</ele><time>2026-03-28T13:51:45.98Z</time></trkpt><trkpt lat="46.001057105564854" lon="9.385553235270743"><ele>459.0</ele><time>2026-03-28T13:51:46.98Z</time></trkpt><trkpt lat="46.00093108260154" lon="9.385409732375178"><ele>458.75</ele><time>2026-03-28T13:51:47.98Z</time></trkpt><trkpt lat="46.00083521459526" lon="9.385293297703313"><ele>458.5</ele><time>2026-03-28T13:51:48.98Z</time></trkpt><trkpt lat="46.00073902759788" lon="9.38516903125642"><ele>458.25</ele><time>2026-03-28T13:51:49.98Z</time></trkpt><trkpt lat="46.00062231218292" lon="9.385050389324574"><ele>458.0</ele><time>2026-03-28T13:51:50.98Z</time></trkpt><trkpt lat="46.00051952881592" lon="9.384943362329905"><ele>458.3333333333333</ele><time>2026-03-28T13:51:51.98Z</time></trkpt><trkpt lat="46.0004446341987" lon="9.384849072331058"><ele>458.66666666666663</ele><time>2026-03-28T13:51:52.98Z</time></trkpt><trkpt lat="46.0004078272035" lon="9.384764252167063"><ele>459.0</ele><time>2026-03-28T13:51:53.98Z</time></trkpt><trkpt lat="46.00039586973245" lon="9.38464326312186"><ele>459.33333333333337</ele><time>2026-03-28T13:51:54.98Z</time></trkpt><trkpt lat="46.00040263255641" lon="9.384517023049247"><ele>459.6666666666667</ele><time>2026-03-28T13:51:55.98Z</time></trkpt><trkpt lat="46.000411905801144" lon="9.384416883545647"><ele>460.0</ele><time>2026-03-28T13:51:56.98Z</time></trkpt><trkpt lat="46.00041285298312" lon="9.384312593683592"><ele>462.0</ele><time>2026-03-28T13:51:57.98Z</time></trkpt><trkpt lat="46.0004556094052" lon="9.384185038749363"><ele>464.0</ele><time>2026-03-28T13:51:59.98Z</time></trkpt><trkpt lat="46.00052444918476" lon="9.384179700079962"><ele>466.0</ele><time>2026-03-28T13:52:00.98Z</time></trkpt><trkpt lat="46.000616354496394" lon="9.384188124846556"><ele>468.0</ele><time>2026-03-28T13:52:01.98Z</time></trkpt><trkpt lat="46.000746959304685" lon="9.38423217561081"><ele>470.0</ele><time>2026-03-28T13:52:02.98Z</time></trkpt><trkpt lat="46.000832479930764" lon="9.384331983779859"><ele>467.0</ele><time>2026-03-28T13:52:03.98Z</time></trkpt><trkpt lat="46.00093980613583" lon="9.384417294656863"><ele>464.0</ele><time>2026-03-28T13:52:04.98Z</time></trkpt><trkpt lat="46.00107564547192" lon="9.38448608687868"><ele>461.0</ele><time>2026-03-28T13:52:05.98Z</time></trkpt><trkpt lat="46.001184324019114" lon="9.384540611764917"><ele>458.0</ele><time>2026-03-28T13:52:06.98Z</time></trkpt><trkpt lat="46.00131514402235" lon="9.384596358737848"><ele>458.0</ele><time>2026-03-28T13:52:07.98Z</time></trkpt><trkpt lat="46.00141180226179" lon="9.384637068893984"><ele>457.99999999999994</ele><time>2026-03-28T13:52:08.98Z</time></trkpt><trkpt lat="46.001493366696955" lon="9.38464736686233"><ele>457.99999999999994</ele><time>2026-03-28T13:52:09.98Z</time></trkpt><trkpt lat="46.00156312698161" lon="9.384626830707285"><ele>458.0</ele><time>2026-03-28T13:52:10.98Z</time></trkpt><trkpt lat="46.00165734240953" lon="9.384561786655416"><ele>458.0</ele><time>2026-03-28T13:52:11.98Z</time></trkpt><trkpt lat="46.00176044051413" lon="9.384464450971912"><ele>457.49999999999994</ele><time>2026-03-28T13:52:12.98Z</time></trkpt><trkpt lat="46.001852859696996" lon="9.384375913076878"><ele>457.0</ele><time>2026-03-28T13:52:13.98Z</time></trkpt><trkpt lat="46.00192417350547" lon="9.384321631743655"><ele>456.5</ele><time>2026-03-28T13:52:14.98Z</time></trkpt><trkpt lat="46.00199736050432" lon="9.384270999767205"><ele>456.0</ele><time>2026-03-28T13:52:15.98Z</time></trkpt><trkpt lat="46.00205764142701" lon="9.384230876574872"><ele>455.49999999999994</ele><time>2026-03-28T13:52:16.98Z</time></trkpt><trkpt lat="46.0021180100772" lon="9.38419660270594"><ele>455.0</ele><time>2026-03-28T13:52:17.98Z</time></trkpt><trkpt lat="46.00218349899991" lon="9.384164643293518"><ele>454.99999999999994</ele><time>2026-03-28T13:52:18.98Z</time></trkpt><trkpt lat="46.002260097640395" lon="9.384152182531706"><ele>455.0</ele><time>2026-03-28T13:52:19.98Z</time></trkpt><trkpt lat="46.002334614445815" lon="9.384163908455779"><ele>455.0</ele><time>2026-03-28T13:52:20.98Z</time></trkpt><trkpt lat="46.002420128392586" lon="9.384182766836574"><ele>455.0</ele><time>2026-03-28T13:52:21.98Z</time></trkpt><trkpt lat="46.002501199531274" lon="9.384178266496097"><ele>454.99999999999994</ele><time>2026-03-28T13:52:22.98Z</time></trkpt><trkpt lat="46.0025689440391" lon="9.3841397764434"><ele>455.0</ele><time>2026-03-28T13:52:23.98Z</time></trkpt><trkpt lat="46.0026243450371" lon="9.384069191234161"><ele>454.8571428571429</ele><time>2026-03-28T13:52:24.98Z</time></trkpt><trkpt lat="46.00268159558446" lon="9.383998698267174"><ele>454.7142857142857</ele><time>2026-03-28T13:52:25.979Z</time></trkpt><trkpt lat="46.002736761247704" lon="9.383948583561006"><ele>454.57142857142856</ele><time>2026-03-28T13:52:26.979Z</time></trkpt><trkpt lat="46.00281730939103" lon="9.38392270082599"><ele>454.42857142857144</ele><time>2026-03-28T13:52:28.979Z</time></trkpt><trkpt lat="46.00287818543798" lon="9.383874502572642"><ele>454.28571428571433</ele><time>2026-03-28T13:52:30.979Z</time></trkpt><trkpt lat="46.002940064657274" lon="9.38378693564704"><ele>454.14285714285717</ele><time>2026-03-28T13:52:32.979Z</time></trkpt><trkpt lat="46.00296556630241" lon="9.38369666210377"><ele>454.0</ele><time>2026-03-28T13:52:33.979Z</time></trkpt><trkpt lat="46.00299047287314" lon="9.38359444688437"><ele>453.83333333333337</ele><time>2026-03-28T13:52:34.979Z</time></trkpt><trkpt lat="46.0030064850045" lon="9.383496882004556"><ele>453.6666666666667</ele><time>2026-03-28T13:52:35.979Z</time></trkpt><trkpt lat="46.003035295327315" lon="9.383394692651464"><ele>453.5</ele><time>2026-03-28T13:52:36.979Z</time></trkpt><trkpt lat="46.00306010946027" lon="9.383298985004386"><ele>453.33333333333337</ele><time>2026-03-28T13:52:37.979Z</time></trkpt><trkpt lat="46.00310752764154" lon="9.383175172601703"><ele>453.1666666666667</ele><time>2026-03-28T13:52:38.979Z</time></trkpt><trkpt lat="46.00315125014001" lon="9.383070738766968"><ele>453.0</ele><time>2026-03-28T13:52:39.979Z</time></trkpt><trkpt lat="46.00321308552524" lon="9.382966831889267"><ele>453.4</ele><time>2026-03-28T13:52:40.979Z</time></trkpt><trkpt lat="46.003269018601124" lon="9.38283366244671"><ele>453.79999999999995</ele><time>2026-03-28T13:52:41.979Z</time></trkpt><trkpt lat="46.003321907076746" lon="9.38273398190497"><ele>454.2</ele><time>2026-03-28T13:52:42.979Z</time></trkpt><trkpt lat="46.00339125161774" lon="9.382658569581015"><ele>454.6</ele><time>2026-03-28T13:52:43.979Z</time></trkpt><trkpt lat="46.003480130401265" lon="9.382588494563388"><ele>455.0</ele><time>2026-03-28T13:52:44.979Z</time></trkpt><trkpt lat="46.00355855228572" lon="9.382521864730883"><ele>454.2</ele><time>2026-03-28T13:52:45.979Z</time></trkpt><trkpt lat="46.0036376564204" lon="9.382429636316667"><ele>453.4</ele><time>2026-03-28T13:52:46.979Z</time></trkpt><trkpt lat="46.00372085270075" lon="9.382342098375418"><ele>452.6</ele><time>2026-03-28T13:52:47.979Z</time></trkpt><trkpt lat="46.00381440193593" lon="9.382247530599637"><ele>451.8</ele><time>2026-03-28T13:52:48.979Z</time></trkpt><trkpt lat="46.003907831684664" lon="9.382175580912582"><ele>451.0</ele><time>2026-03-28T13:52:49.979Z</time></trkpt><trkpt lat="46.003994675344245" lon="9.382122911387262"><ele>451.0</ele><time>2026-03-28T13:52:50.979Z</time></trkpt><trkpt lat="46.004084310218545" lon="9.382072846587844"><ele>451.0</ele><time>2026-03-28T13:52:51.979Z</time></trkpt><trkpt lat="46.00416515777352" lon="9.382006795588246"><ele>451.0</ele><time>2026-03-28T13:52:52.979Z</time></trkpt><trkpt lat="46.00425248624899" lon="9.381969304622416"><ele>451.0</ele><time>2026-03-28T13:52:53.979Z</time></trkpt><trkpt lat="46.00436831873951" lon="9.381931254149135"><ele>451.0</ele><time>2026-03-28T13:52:54.979Z</time></trkpt><trkpt lat="46.004499289819286" lon="9.381903467013027"><ele>450.4</ele><time>2026-03-28T13:52:55.979Z</time></trkpt><trkpt lat="46.004595152012875" lon="9.381854823819262"><ele>449.8</ele><time>2026-03-28T13:52:56.979Z</time></trkpt><trkpt lat="46.004699132992805" lon="9.381835872327036"><ele>449.19999999999993</ele><time>2026-03-28T13:52:57.979Z</time></trkpt><trkpt lat="46.004812014759054" lon="9.381807311460866"><ele>448.59999999999997</ele><time>2026-03-28T13:52:58.979Z</time></trkpt><trkpt lat="46.00492140037944" lon="9.381777589392579"><ele>448.0</ele><time>2026-03-28T13:52:59.979Z</time></trkpt><trkpt lat="46.00500105250514" lon="9.381725157425132"><ele>447.79999999999995</ele><time>2026-03-28T13:53:00.979Z</time></trkpt><trkpt lat="46.0050667204596" lon="9.381622054824177"><ele>447.59999999999997</ele><time>2026-03-28T13:53:01.979Z</time></trkpt><trkpt lat="46.00513290620509" lon="9.381486931026979"><ele>447.40000000000003</ele><time>2026-03-28T13:53:02.979Z</time></trkpt><trkpt lat="46.00519510909595" lon="9.381350415259037"><ele>447.20000000000005</ele><time>2026-03-28T13:53:03.979Z</time></trkpt><trkpt lat="46.00525686289325" lon="9.381202740503417"><ele>447.0</ele><time>2026-03-28T13:53:04.979Z</time></trkpt><trkpt lat="46.00532434672974" lon="9.381099658727708"><ele>446.8333333333333</ele><time>2026-03-28T13:53:05.979Z</time></trkpt><trkpt lat="46.005389190674485" lon="9.381024281489506"><ele>446.66666666666663</ele><time>2026-03-28T13:53:06.979Z</time></trkpt><trkpt lat="46.005460977381915" lon="9.380964969033158"><ele>446.5</ele><time>2026-03-28T13:53:07.979Z</time></trkpt><trkpt lat="46.005543322466366" lon="9.380891776110179"><ele>446.3333333333333</ele><time>2026-03-28T13:53:08.979Z</time></trkpt><trkpt lat="46.00561042964051" lon="9.380820764238882"><ele>446.16666666666663</ele><time>2026-03-28T13:53:09.979Z</time></trkpt><trkpt lat="46.00567450873482" lon="9.380760955929906"><ele>446.0</ele><time>2026-03-28T13:53:10.979Z</time></trkpt><trkpt lat="46.00572126213063" lon="9.38069385630033"><ele>446.0</ele><time>2026-03-28T13:53:11.979Z</time></trkpt><trkpt lat="46.00577922268237" lon="9.380602022808725"><ele>446.0</ele><time>2026-03-28T13:53:13.979Z</time></trkpt><trkpt lat="46.00580563651935" lon="9.38049926990234"><ele>446.0</ele><time>2026-03-28T13:53:16.979Z</time></trkpt><trkpt lat="46.00581582801497" lon="9.380359947749751"><ele>446.0</ele><time>2026-03-28T13:53:20.979Z</time></trkpt><trkpt lat="46.005868035889456" lon="9.380249457531955"><ele>446.0</ele><time>2026-03-28T13:53:21.979Z</time></trkpt><trkpt lat="46.00594088267647" lon="9.380124133738034"><ele>446.20000000000005</ele><time>2026-03-28T13:53:22.979Z</time></trkpt><trkpt lat="46.00596918865261" lon="9.380036285250506"><ele>446.40000000000003</ele><time>2026-03-28T13:53:23.979Z</time></trkpt><trkpt lat="46.0060325887365" lon="9.379860891856797"><ele>446.6</ele><time>2026-03-28T13:53:25.979Z</time></trkpt><trkpt lat="46.006089444829" lon="9.379729412835568"><ele>446.8</ele><time>2026-03-28T13:53:27.979Z</time></trkpt><trkpt lat="46.00611439537188" lon="9.379575833517363"><ele>447.0</ele><time>2026-03-28T13:53:29.979Z</time></trkpt><trkpt lat="46.00614297673882" lon="9.379428088543127"><ele>447.0</ele><time>2026-03-28T13:53:30.98Z</time></trkpt><trkpt lat="46.00618992619069" lon="9.379330727046927"><ele>447.0</ele><time>2026-03-28T13:53:31.98Z</time></trkpt><trkpt lat="46.00624163868518" lon="9.37923861993821"><ele>447.0</ele><time>2026-03-28T13:53:32.98Z</time></trkpt><trkpt lat="46.00628225954122" lon="9.379105609239407"><ele>447.0</ele><time>2026-03-28T13:53:34.98Z</time></trkpt><trkpt lat="46.00638894858782" lon="9.379078943315074"><ele>447.0</ele><time>2026-03-28T13:53:37.98Z</time></trkpt><trkpt lat="46.00645123381983" lon="9.37912472391614"><ele>447.0</ele><time>2026-03-28T13:53:38.98Z</time></trkpt><trkpt lat="46.006513144148265" lon="9.379208628180292"><ele>447.0</ele><time>2026-03-28T13:53:39.98Z</time></trkpt><trkpt lat="46.00660792385569" lon="9.379328140890465"><ele>447.00000000000006</ele><time>2026-03-28T13:53:40.98Z</time></trkpt><trkpt lat="46.00667724293323" lon="9.379423680742331"><ele>447.00000000000006</ele><time>2026-03-28T13:53:41.98Z</time></trkpt><trkpt lat="46.00676305691927" lon="9.379516384232565"><ele>447.0</ele><time>2026-03-28T13:53:42.979Z</time></trkpt><trkpt lat="46.00685250346192" lon="9.379617976567728"><ele>447.0</ele><time>2026-03-28T13:53:43.98Z</time></trkpt><trkpt lat="46.00694159039264" lon="9.37972493128404"><ele>446.40000000000003</ele><time>2026-03-28T13:53:44.98Z</time></trkpt><trkpt lat="46.00703693410036" lon="9.379821617020596"><ele>445.80000000000007</ele><time>2026-03-28T13:53:45.98Z</time></trkpt><trkpt lat="46.00710845659595" lon="9.379917891127366"><ele>445.2</ele><time>2026-03-28T13:53:46.98Z</time></trkpt><trkpt lat="46.00718234132735" lon="9.379999278966416"><ele>444.6</ele><time>2026-03-28T13:53:47.98Z</time></trkpt><trkpt lat="46.007249568700324" lon="9.380078177610422"><ele>444.0</ele><time>2026-03-28T13:53:48.98Z</time></trkpt><trkpt lat="46.00731889896083" lon="9.380151013887652"><ele>444.0</ele><time>2026-03-28T13:53:49.98Z</time></trkpt><trkpt lat="46.00737810142993" lon="9.380225975341268"><ele>444.0</ele><time>2026-03-28T13:53:50.98Z</time></trkpt><trkpt lat="46.007441096954764" lon="9.380292084462218"><ele>444.0</ele><time>2026-03-28T13:53:51.98Z</time></trkpt><trkpt lat="46.00749706136579" lon="9.380371215233795"><ele>444.0</ele><time>2026-03-28T13:53:52.98Z</time></trkpt><trkpt lat="46.00758314909832" lon="9.380467936933627"><ele>444.0</ele><time>2026-03-28T13:53:54.98Z</time></trkpt><trkpt lat="46.00765107189287" lon="9.38048550432602"><ele>444.0</ele><time>2026-03-28T13:54:08.979Z</time></trkpt><trkpt lat="46.00772076600298" lon="9.38041451256798"><ele>444.79999999999995</ele><time>2026-03-28T13:54:10.979Z</time></trkpt><trkpt lat="46.00778795862957" lon="9.380320601397736"><ele>445.59999999999997</ele><time>2026-03-28T13:54:11.979Z</time></trkpt><trkpt lat="46.007851288716395" lon="9.380200980187485"><ele>446.4</ele><time>2026-03-28T13:54:12.979Z</time></trkpt><trkpt lat="46.00795758677316" lon="9.380106209146334"><ele>447.2</ele><time>2026-03-28T13:54:13.979Z</time></trkpt><trkpt lat="46.008008597982226" lon="9.379945515326831"><ele>448.0</ele><time>2026-03-28T13:54:14.979Z</time></trkpt><trkpt lat="46.008086813203185" lon="9.379829834676562"><ele>448.5</ele><time>2026-03-28T13:54:15.979Z</time></trkpt><trkpt lat="46.00817202924927" lon="9.379675645419548"><ele>449.0</ele><time>2026-03-28T13:54:16.979Z</time></trkpt><trkpt lat="46.0082602533672" lon="9.379542067887318"><ele>449.5</ele><time>2026-03-28T13:54:17.979Z</time></trkpt><trkpt lat="46.00835388548113" lon="9.379389880039856"><ele>450.0</ele><time>2026-03-28T13:54:18.979Z</time></trkpt><trkpt lat="46.008445948186186" lon="9.379239701896214"><ele>450.0</ele><time>2026-03-28T13:54:19.979Z</time></trkpt><trkpt lat="46.00852549685898" lon="9.379083007281452"><ele>450.0</ele><time>2026-03-28T13:54:20.979Z</time></trkpt><trkpt lat="46.0085904127734" lon="9.37892173643398"><ele>450.0</ele><time>2026-03-28T13:54:21.979Z</time></trkpt><trkpt lat="46.008648848198725" lon="9.378739380839706"><ele>450.0</ele><time>2026-03-28T13:54:22.979Z</time></trkpt><trkpt lat="46.00869876554947" lon="9.378545502640655"><ele>448.5</ele><time>2026-03-28T13:54:23.979Z</time></trkpt><trkpt lat="46.00876523330836" lon="9.378350855552673"><ele>447.0</ele><time>2026-03-28T13:54:24.979Z</time></trkpt><trkpt lat="46.00881781750278" lon="9.378172487527756"><ele>445.5</ele><time>2026-03-28T13:54:25.979Z</time></trkpt><trkpt lat="46.00890601154098" lon="9.378013920453114"><ele>444.0</ele><time>2026-03-28T13:54:26.979Z</time></trkpt><trkpt lat="46.00900576668954" lon="9.377867934724321"><ele>444.0</ele><time>2026-03-28T13:54:27.979Z</time></trkpt><trkpt lat="46.00911102090991" lon="9.377729795473083"><ele>444.0</ele><time>2026-03-28T13:54:28.979Z</time></trkpt><trkpt lat="46.009184291107964" lon="9.377613998874148"><ele>444.0</ele><time>2026-03-28T13:54:29.979Z</time></trkpt><trkpt lat="46.00925180194115" lon="9.377502629251714"><ele>444.0</ele><time>2026-03-28T13:54:30.979Z</time></trkpt><trkpt lat="46.009329549356146" lon="9.377378051376157"><ele>443.75</ele><time>2026-03-28T13:54:31.979Z</time></trkpt><trkpt lat="46.00940466710157" lon="9.377255169561765"><ele>443.5</ele><time>2026-03-28T13:54:32.979Z</time></trkpt><trkpt lat="46.00947817367584" lon="9.377141420666081"><ele>443.25</ele><time>2026-03-28T13:54:33.979Z</time></trkpt><trkpt lat="46.009561993461844" lon="9.376995107472807"><ele>443.0</ele><time>2026-03-28T13:54:34.979Z</time></trkpt><trkpt lat="46.00967172617561" lon="9.376829394515834"><ele>443.0</ele><time>2026-03-28T13:54:35.979Z</time></trkpt><trkpt lat="46.00977296682543" lon="9.37667417230955"><ele>443.0</ele><time>2026-03-28T13:54:36.979Z</time></trkpt><trkpt lat="46.00986081457829" lon="9.376537126252455"><ele>443.0</ele><time>2026-03-28T13:54:37.979Z</time></trkpt><trkpt lat="46.009955996425326" lon="9.376391560837114"><ele>443.0</ele><time>2026-03-28T13:54:38.979Z</time></trkpt><trkpt lat="46.01004221383062" lon="9.376249247841672"><ele>441.5</ele><time>2026-03-28T13:54:39.979Z</time></trkpt><trkpt lat="46.01011924795187" lon="9.376123275080992"><ele>440.0</ele><time>2026-03-28T13:54:40.979Z</time></trkpt><trkpt lat="46.01020092535072" lon="9.375995277479579"><ele>438.5</ele><time>2026-03-28T13:54:41.979Z</time></trkpt><trkpt lat="46.010289347320736" lon="9.37585476530794"><ele>437.0</ele><time>2026-03-28T13:54:42.979Z</time></trkpt><trkpt lat="46.01037025212565" lon="9.375720135941101"><ele>437.0</ele><time>2026-03-28T13:54:43.979Z</time></trkpt><trkpt lat="46.01045854182924" lon="9.375581049861893"><ele>437.0</ele><time>2026-03-28T13:54:44.979Z</time></trkpt><trkpt lat="46.01054649959087" lon="9.3754355593975"><ele>437.0</ele><time>2026-03-28T13:54:45.979Z</time></trkpt><trkpt lat="46.0106185433169" lon="9.375302811039472"><ele>437.0</ele><time>2026-03-28T13:54:46.979Z</time></trkpt><trkpt lat="46.010699460721256" lon="9.37517991290708"><ele>437.0</ele><time>2026-03-28T13:54:47.979Z</time></trkpt><trkpt lat="46.01078105667781" lon="9.375051379537025"><ele>437.0</ele><time>2026-03-28T13:54:48.979Z</time></trkpt><trkpt lat="46.0108616597406" lon="9.37491075040185"><ele>437.0</ele><time>2026-03-28T13:54:49.979Z</time></trkpt><trkpt lat="46.0109425593973" lon="9.374772299874222"><ele>437.0</ele><time>2026-03-28T13:54:50.979Z</time></trkpt><trkpt lat="46.011028690485276" lon="9.374649190168277"><ele>437.25</ele><time>2026-03-28T13:54:51.979Z</time></trkpt><trkpt lat="46.01111463842018" lon="9.374512446924617"><ele>437.5</ele><time>2026-03-28T13:54:52.979Z</time></trkpt><trkpt lat="46.01120543575015" lon="9.374353406036349"><ele>437.75</ele><time>2026-03-28T13:54:53.979Z</time></trkpt><trkpt lat="46.01129170192953" lon="9.374229839864539"><ele>438.0</ele><time>2026-03-28T13:54:54.979Z</time></trkpt><trkpt lat="46.0113873978694" lon="9.37409811801266"><ele>438.0</ele><time>2026-03-28T13:54:55.979Z</time></trkpt><trkpt lat="46.01149431794534" lon="9.373973728812473"><ele>438.0</ele><time>2026-03-28T13:54:56.979Z</time></trkpt><trkpt lat="46.011608015094204" lon="9.373849832854651"><ele>438.0</ele><time>2026-03-28T13:54:57.979Z</time></trkpt><trkpt lat="46.01173228899515" lon="9.37374180653964"><ele>438.0</ele><time>2026-03-28T13:54:58.979Z</time></trkpt><trkpt lat="46.011862145230225" lon="9.37365123927042"><ele>437.5</ele><time>2026-03-28T13:54:59.979Z</time></trkpt><trkpt lat="46.01198288988164" lon="9.373579344848869"><ele>437.0</ele><time>2026-03-28T13:55:00.979Z</time></trkpt><trkpt lat="46.012108043371875" lon="9.373526379743973"><ele>436.5</ele><time>2026-03-28T13:55:01.979Z</time></trkpt><trkpt lat="46.012230390699976" lon="9.373457001225459"><ele>436.0</ele><time>2026-03-28T13:55:02.979Z</time></trkpt><trkpt lat="46.01236930403159" lon="9.37337586429335"><ele>437.0</ele><time>2026-03-28T13:55:03.979Z</time></trkpt><trkpt lat="46.01251275247743" lon="9.373308189433784"><ele>438.0</ele><time>2026-03-28T13:55:04.979Z</time></trkpt><trkpt lat="46.012653333533656" lon="9.373240406672254"><ele>439.0</ele><time>2026-03-28T13:55:05.978Z</time></trkpt><trkpt lat="46.012789038268366" lon="9.373156035639436"><ele>440.0</ele><time>2026-03-28T13:55:06.978Z</time></trkpt><trkpt lat="46.01292083584886" lon="9.373094553995353"><ele>440.0</ele><time>2026-03-28T13:55:07.978Z</time></trkpt><trkpt lat="46.01306368042004" lon="9.37302569697222"><ele>440.0</ele><time>2026-03-28T13:55:08.978Z</time></trkpt><trkpt lat="46.013187532123276" lon="9.372965165063722"><ele>440.0</ele><time>2026-03-28T13:55:09.978Z</time></trkpt><trkpt lat="46.013303180873805" lon="9.372906760127838"><ele>440.0</ele><time>2026-03-28T13:55:10.978Z</time></trkpt><trkpt lat="46.013431901624344" lon="9.372844679195588"><ele>439.5</ele><time>2026-03-28T13:55:11.978Z</time></trkpt><trkpt lat="46.01356382458" lon="9.372785868482445"><ele>439.0</ele><time>2026-03-28T13:55:12.978Z</time></trkpt><trkpt lat="46.01368150401836" lon="9.37272642623203"><ele>438.5</ele><time>2026-03-28T13:55:13.978Z</time></trkpt><trkpt lat="46.013794847665245" lon="9.372659790413849"><ele>438.0</ele><time>2026-03-28T13:55:14.978Z</time></trkpt><trkpt lat="46.013916094839324" lon="9.372601519170601"><ele>438.0</ele><time>2026-03-28T13:55:15.978Z</time></trkpt><trkpt lat="46.01402722160751" lon="9.372519496913991"><ele>438.0</ele><time>2026-03-28T13:55:16.978Z</time></trkpt><trkpt lat="46.014144049014504" lon="9.372401904818263"><ele>438.0</ele><time>2026-03-28T13:55:17.978Z</time></trkpt><trkpt lat="46.014249179615476" lon="9.372300707695889"><ele>438.0</ele><time>2026-03-28T13:55:18.978Z</time></trkpt><trkpt lat="46.01435408025998" lon="9.372185241824154"><ele>437.25</ele><time>2026-03-28T13:55:19.978Z</time></trkpt><trkpt lat="46.01446661907762" lon="9.372061646919535"><ele>436.5</ele><time>2026-03-28T13:55:20.978Z</time></trkpt><trkpt lat="46.01457124087062" lon="9.371937932215403"><ele>435.75</ele><time>2026-03-28T13:55:21.978Z</time></trkpt><trkpt lat="46.01466938836643" lon="9.371820985004652"><ele>435.0</ele><time>2026-03-28T13:55:22.978Z</time></trkpt><trkpt lat="46.01476621051455" lon="9.371710600500808"><ele>435.0</ele><time>2026-03-28T13:55:23.978Z</time></trkpt><trkpt lat="46.014858098069816" lon="9.371606792068718"><ele>435.0</ele><time>2026-03-28T13:55:24.978Z</time></trkpt><trkpt lat="46.014932402936786" lon="9.371496684956197"><ele>435.0</ele><time>2026-03-28T13:55:25.978Z</time></trkpt><trkpt lat="46.01502973802795" lon="9.371405406075088"><ele>435.0</ele><time>2026-03-28T13:55:26.978Z</time></trkpt><trkpt lat="46.01510968004155" lon="9.371307567541969"><ele>435.0</ele><time>2026-03-28T13:55:27.978Z</time></trkpt><trkpt lat="46.015187252202566" lon="9.371219207917406"><ele>434.8</ele><time>2026-03-28T13:55:28.978Z</time></trkpt><trkpt lat="46.015243300895285" lon="9.371147530595316"><ele>434.6</ele><time>2026-03-28T13:55:29.978Z</time></trkpt><trkpt lat="46.015337000121065" lon="9.371052908538168"><ele>434.4</ele><time>2026-03-28T13:55:31.978Z</time></trkpt><trkpt lat="46.01541196480414" lon="9.370969372143117"><ele>434.2</ele><time>2026-03-28T13:55:33.978Z</time></trkpt><trkpt lat="46.01550207421301" lon="9.370928258218049"><ele>434.0</ele><time>2026-03-28T13:55:35.978Z</time></trkpt><trkpt lat="46.01558921821015" lon="9.371037514175882"><ele>434.0</ele><time>2026-03-28T13:55:37.98Z</time></trkpt><trkpt lat="46.015649532699385" lon="9.371141873490227"><ele>434.0</ele><time>2026-03-28T13:55:38.98Z</time></trkpt><trkpt lat="46.015700322756445" lon="9.371249986814005"><ele>434.0</ele><time>2026-03-28T13:55:39.98Z</time></trkpt><trkpt lat="46.01573788718092" lon="9.371332877017238"><ele>434.0</ele><time>2026-03-28T13:55:40.98Z</time></trkpt><trkpt lat="46.01579858457768" lon="9.371456466198337"><ele>434.0</ele><time>2026-03-28T13:55:42.979Z</time></trkpt><trkpt lat="46.015854960712" lon="9.371568357331665"><ele>434.8333333333333</ele><time>2026-03-28T13:55:44.98Z</time></trkpt><trkpt lat="46.01593596988325" lon="9.371636776918844"><ele>435.66666666666663</ele><time>2026-03-28T13:56:01.979Z</time></trkpt><trkpt lat="46.01602455563812" lon="9.371696183551478"><ele>436.5</ele><time>2026-03-28T13:56:02.979Z</time></trkpt><trkpt lat="46.01608825103253" lon="9.371738794849593"><ele>437.33333333333337</ele><time>2026-03-28T13:56:03.979Z</time></trkpt><trkpt lat="46.01617092417191" lon="9.371740896639414"><ele>438.1666666666667</ele><time>2026-03-28T13:56:04.979Z</time></trkpt><trkpt lat="46.0162372974166" lon="9.371737875626335"><ele>439.0</ele><time>2026-03-28T13:56:05.979Z</time></trkpt><trkpt lat="46.01626130606482" lon="9.371843453797583"><ele>439.0</ele><time>2026-03-28T13:56:12.979Z</time></trkpt><trkpt lat="46.01620690449949" lon="9.371914498040645"><ele>439.0</ele><time>2026-03-28T13:56:19.979Z</time></trkpt><trkpt lat="46.0161486854918" lon="9.371971146234111"><ele>439.0</ele><time>2026-03-28T13:56:23.979Z</time></trkpt><trkpt lat="46.01608514422173" lon="9.372024151699147"><ele>439.0</ele><time>2026-03-28T13:56:29.979Z</time></trkpt><trkpt lat="46.01605219550584" lon="9.37210413660021"><ele>439.0</ele><time>2026-03-28T13:56:33.978Z</time></trkpt><trkpt lat="46.016094960524406" lon="9.372189646686067"><ele>439.0</ele><time>2026-03-28T13:56:37.978Z</time></trkpt><trkpt lat="46.01609932671859" lon="9.372282204173267"><ele>439.0</ele><time>2026-03-28T13:56:42.978Z</time></trkpt><trkpt lat="46.01609966137081" lon="9.37238603196513"><ele>439.2857142857143</ele><time>2026-03-28T13:57:00.978Z</time></trkpt><trkpt lat="46.016059514150555" lon="9.37245844036842"><ele>439.57142857142856</ele><time>2026-03-28T13:57:06.978Z</time></trkpt><trkpt lat="46.016004140275044" lon="9.372509875366456"><ele>439.8571428571429</ele><time>2026-03-28T13:57:10.978Z</time></trkpt><trkpt lat="46.01594622062907" lon="9.37255747664776"><ele>440.1428571428571</ele><time>2026-03-28T13:57:14.978Z</time></trkpt><trkpt lat="46.015905520872195" lon="9.372638322910515"><ele>440.42857142857144</ele><time>2026-03-28T13:57:18.978Z</time></trkpt><trkpt lat="46.01586204860995" lon="9.372724213996452"><ele>440.7142857142857</ele><time>2026-03-28T13:57:22.978Z</time></trkpt><trkpt lat="46.01581789917292" lon="9.372808546711246"><ele>441.0</ele><time>2026-03-28T13:57:26.978Z</time></trkpt><trkpt lat="46.01576320301457" lon="9.372876254192235"><ele>441.0</ele><time>2026-03-28T13:57:30.978Z</time></trkpt><trkpt lat="46.0157096835863" lon="9.372942531125096"><ele>441.0</ele><time>2026-03-28T13:57:34.978Z</time></trkpt><trkpt lat="46.0156485247259" lon="9.373031114184645"><ele>441.0</ele><time>2026-03-28T13:57:38.977Z</time></trkpt><trkpt lat="46.01559604511259" lon="9.373115527021278"><ele>441.0</ele><time>2026-03-28T13:57:42.98Z</time></trkpt><trkpt lat="46.015553578740246" lon="9.373190517776907"><ele>441.0</ele><time>2026-03-28T13:57:45.979Z</time></trkpt><trkpt lat="46.01551620454801" lon="9.373311750912388"><ele>441.0</ele><time>2026-03-28T13:57:49.979Z</time></trkpt><trkpt lat="46.015478544753115" lon="9.373424667069859"><ele>443.42857142857144</ele><time>2026-03-28T13:57:53.978Z</time></trkpt><trkpt lat="46.015446929522476" lon="9.373534013715208"><ele>445.8571428571429</ele><time>2026-03-28T13:57:56.979Z</time></trkpt><trkpt lat="46.01547368918904" lon="9.373634490148936"><ele>448.2857142857143</ele><time>2026-03-28T13:58:00.979Z</time></trkpt><trkpt lat="46.01552079050906" lon="9.37370920739246"><ele>450.7142857142857</ele><time>2026-03-28T13:58:06.978Z</time></trkpt><trkpt lat="46.015527830405716" lon="9.373801030923136"><ele>453.14285714285717</ele><time>2026-03-28T13:58:09.978Z</time></trkpt><trkpt lat="46.015553734007014" lon="9.373883807401135"><ele>455.57142857142856</ele><time>2026-03-28T13:58:19.978Z</time></trkpt><trkpt lat="46.015608064754346" lon="9.373947668099316"><ele>458.0</ele><time>2026-03-28T13:58:39.978Z</time></trkpt><trkpt lat="46.01553135380416" lon="9.374020196945352"><ele>461.99999999999994</ele><time>2026-03-28T13:59:02.977Z</time></trkpt><trkpt lat="46.01545840600613" lon="9.374104090657562"><ele>466.0</ele><time>2026-03-28T13:59:05.977Z</time></trkpt><trkpt lat="46.015411529411026" lon="9.37421779263262"><ele>470.0</ele><time>2026-03-28T13:59:07.977Z</time></trkpt><trkpt lat="46.01536175406991" lon="9.37428117902199"><ele>474.0</ele><time>2026-03-28T13:59:10.977Z</time></trkpt><trkpt lat="46.01531067813964" lon="9.374375545052883"><ele>477.99999999999994</ele><time>2026-03-28T13:59:14.977Z</time></trkpt><trkpt lat="46.01527491365478" lon="9.374472472234302"><ele>482.0</ele><time>2026-03-28T13:59:17.977Z</time></trkpt><trkpt lat="46.015304037530264" lon="9.374555265831393"><ele>481.99999999999994</ele><time>2026-03-28T13:59:21.977Z</time></trkpt><trkpt lat="46.01536767704389" lon="9.374582893557582"><ele>482.0</ele><time>2026-03-28T13:59:24.977Z</time></trkpt><trkpt lat="46.01541705667465" lon="9.374677134666014"><ele>482.0</ele><time>2026-03-28T13:59:28.977Z</time></trkpt><trkpt lat="46.0154962233752" lon="9.374707599344129"><ele>482.0</ele><time>2026-03-28T13:59:31.977Z</time></trkpt><trkpt lat="46.01555055821844" lon="9.374756624006196"><ele>481.99999999999994</ele><time>2026-03-28T13:59:34.977Z</time></trkpt><trkpt lat="46.01562177078366" lon="9.374792964710856"><ele>482.0</ele><time>2026-03-28T13:59:37.977Z</time></trkpt><trkpt lat="46.01578443491067" lon="9.375020933311166"><ele>486.14285714285717</ele><time>2026-03-28T13:59:38.977Z</time></trkpt><trkpt lat="46.01573476586013" lon="9.37508105880233"><ele>490.28571428571433</ele><time>2026-03-28T13:59:41.977Z</time></trkpt><trkpt lat="46.01569730123111" lon="9.375172095230266"><ele>494.42857142857144</ele><time>2026-03-28T13:59:45.977Z</time></trkpt><trkpt lat="46.01569013279081" lon="9.375290007778418"><ele>498.57142857142856</ele><time>2026-03-28T13:59:48.978Z</time></trkpt><trkpt lat="46.01568073408787" lon="9.37538179794834"><ele>502.7142857142857</ele><time>2026-03-28T13:59:51.978Z</time></trkpt><trkpt lat="46.01571194215746" lon="9.375488778818992"><ele>506.8571428571429</ele><time>2026-03-28T13:59:54.978Z</time></trkpt><trkpt lat="46.015718671736835" lon="9.375587646359111"><ele>511.0</ele><time>2026-03-28T13:59:56.978Z</time></trkpt><trkpt lat="46.01567172933708" lon="9.37566389601774"><ele>513.0</ele><time>2026-03-28T13:59:59.978Z</time></trkpt><trkpt lat="46.01563572936075" lon="9.375786252069288"><ele>515.0</ele><time>2026-03-28T14:00:02.978Z</time></trkpt><trkpt lat="46.015660547555406" lon="9.375871539512413"><ele>517.0</ele><time>2026-03-28T14:00:04.978Z</time></trkpt><trkpt lat="46.01571245866895" lon="9.375928793646315"><ele>519.0</ele><time>2026-03-28T14:00:06.978Z</time></trkpt><trkpt lat="46.015755784264094" lon="9.376036703106465"><ele>521.0</ele><time>2026-03-28T14:00:08.978Z</time></trkpt><trkpt lat="46.01576360925605" lon="9.376153443678348"><ele>523.0</ele><time>2026-03-28T14:00:12.978Z</time></trkpt><trkpt lat="46.01577754633848" lon="9.376254481628095"><ele>534.5</ele><time>2026-03-28T14:00:15.978Z</time></trkpt><trkpt lat="46.01583193771693" lon="9.3763680273049"><ele>546.0</ele><time>2026-03-28T14:00:18.978Z</time></trkpt><trkpt lat="46.015884415104985" lon="9.376457266631569"><ele>557.5</ele><time>2026-03-28T14:00:22.978Z</time></trkpt><trkpt lat="46.01593829650621" lon="9.376509773789271"><ele>569.0</ele><time>2026-03-28T14:00:25.978Z</time></trkpt><trkpt lat="46.01599717364795" lon="9.376543453970344"><ele>580.5</ele><time>2026-03-28T14:00:27.978Z</time></trkpt><trkpt lat="46.016072186193725" lon="9.376575878658509"><ele>592.0</ele><time>2026-03-28T14:00:29.978Z</time></trkpt><trkpt lat="46.01617747914793" lon="9.376664114939597"><ele>592.0</ele><time>2026-03-28T14:00:30.978Z</time></trkpt><trkpt lat="46.016259567614334" lon="9.376674904114829"><ele>592.0</ele><time>2026-03-28T14:00:33.978Z</time></trkpt><trkpt lat="46.01632005665771" lon="9.376708759375548"><ele>592.0</ele><time>2026-03-28T14:00:35.978Z</time></trkpt><trkpt lat="46.01638551708593" lon="9.376747220836295"><ele>592.0</ele><time>2026-03-28T14:00:37.977Z</time></trkpt><trkpt lat="46.01645977415451" lon="9.37679237715736"><ele>592.0</ele><time>2026-03-28T14:00:40.977Z</time></trkpt><trkpt lat="46.01656408578928" lon="9.376895696941686"><ele>592.0</ele><time>2026-03-28T14:00:42.977Z</time></trkpt><trkpt lat="46.0166364376242" lon="9.37699029927321"><ele>592.0</ele><time>2026-03-28T14:00:44.977Z</time></trkpt><trkpt lat="46.01670132564561" lon="9.377043559128252"><ele>592.0</ele><time>2026-03-28T14:00:50.977Z</time></trkpt><trkpt lat="46.01662244594146" lon="9.377095211931051"><ele>592.0</ele><time>2026-03-28T14:01:24.977Z</time></trkpt><trkpt lat="46.01664915271391" lon="9.377186819231374"><ele>592.0</ele><time>2026-03-28T14:01:30.977Z</time></trkpt><trkpt lat="46.01663722909825" lon="9.377279010156178"><ele>592.0</ele><time>2026-03-28T14:01:43.976Z</time></trkpt><trkpt lat="46.0166736137781" lon="9.377362024024617"><ele>592.0</ele><time>2026-03-28T14:01:55.978Z</time></trkpt><trkpt lat="46.0166543028606" lon="9.37746472982547"><ele>592.0</ele><time>2026-03-28T14:01:59.978Z</time></trkpt><trkpt lat="46.01662038867694" lon="9.37756375273486"><ele>595.8333333333334</ele><time>2026-03-28T14:02:01.978Z</time></trkpt><trkpt lat="46.01659435392044" lon="9.377672237536592"><ele>599.6666666666667</ele><time>2026-03-28T14:02:08.977Z</time></trkpt><trkpt lat="46.0165762593466" lon="9.377775816687022"><ele>603.5</ele><time>2026-03-28T14:02:11.977Z</time></trkpt><trkpt lat="46.01652562512109" lon="9.37783980650594"><ele>607.3333333333334</ele><time>2026-03-28T14:02:15.977Z</time></trkpt><trkpt lat="46.01648265920612" lon="9.377926396597898"><ele>611.1666666666666</ele><time>2026-03-28T14:02:33.977Z</time></trkpt><trkpt lat="46.01643601483474" lon="9.378028225531974"><ele>615.0</ele><time>2026-03-28T14:02:58.977Z</time></trkpt><trkpt lat="46.016448852548976" lon="9.37813033859266"><ele>618.0</ele><time>2026-03-28T14:03:27.976Z</time></trkpt><trkpt lat="46.01637977134996" lon="9.378118330521342"><ele>621.0</ele><time>2026-03-28T14:03:34.976Z</time></trkpt><trkpt lat="46.016312538949514" lon="9.378142146822196"><ele>624.0</ele><time>2026-03-28T14:03:46.976Z</time></trkpt><trkpt lat="46.01621789714461" lon="9.37815428570236"><ele>627.0</ele><time>2026-03-28T14:04:16.978Z</time></trkpt><trkpt lat="46.01615736982153" lon="9.378198948693049"><ele>630.0</ele><time>2026-03-28T14:04:36.978Z</time></trkpt><trkpt lat="46.01608704757758" lon="9.378221902425432"><ele>633.0</ele><time>2026-03-28T14:04:41.978Z</time></trkpt><trkpt lat="46.01602703772596" lon="9.378250320074018"><ele>636.0</ele><time>2026-03-28T14:04:47.977Z</time></trkpt><trkpt lat="46.01596263402347" lon="9.378256977286693"><ele>636.0</ele><time>2026-03-28T14:04:56.977Z</time></trkpt><trkpt lat="46.0159292812407" lon="9.378334016331795"><ele>636.0</ele><time>2026-03-28T14:05:00.977Z</time></trkpt><trkpt lat="46.015927107963265" lon="9.378447609351252"><ele>636.0</ele><time>2026-03-28T14:05:05.977Z</time></trkpt><trkpt lat="46.01594084200955" lon="9.378541144996207"><ele>636.0</ele><time>2026-03-28T14:05:10.977Z</time></trkpt><trkpt lat="46.01595637110128" lon="9.378655052034114"><ele>636.0</ele><time>2026-03-28T14:05:15.977Z</time></trkpt><trkpt lat="46.01592415312662" lon="9.378734323381506"><ele>636.0</ele><time>2026-03-28T14:05:19.977Z</time></trkpt><trkpt lat="46.015890790759805" lon="9.378822696493557"><ele>636.0</ele><time>2026-03-28T14:05:26.977Z</time></trkpt><trkpt lat="46.015846237934994" lon="9.378889494656091"><ele>635.3333333333334</ele><time>2026-03-28T14:05:32.977Z</time></trkpt><trkpt lat="46.015798417564234" lon="9.378973508292965"><ele>634.6666666666666</ele><time>2026-03-28T14:05:37.977Z</time></trkpt><trkpt lat="46.01575849056221" lon="9.379112178678433"><ele>634.0</ele><time>2026-03-28T14:06:01.976Z</time></trkpt><trkpt lat="46.015822677279665" lon="9.379075381699257"><ele>633.3333333333333</ele><time>2026-03-28T14:06:39.977Z</time></trkpt><trkpt lat="46.01589414530208" lon="9.37902544526485"><ele>632.6666666666666</ele><time>2026-03-28T14:06:42.977Z</time></trkpt><trkpt lat="46.015963522274795" lon="9.378994018953296"><ele>632.0</ele><time>2026-03-28T14:06:46.977Z</time></trkpt><trkpt lat="46.01603033160704" lon="9.378956490027194"><ele>636.6666666666666</ele><time>2026-03-28T14:06:49.977Z</time></trkpt><trkpt lat="46.01609608376759" lon="9.37892586293282"><ele>641.3333333333333</ele><time>2026-03-28T14:06:53.977Z</time></trkpt><trkpt lat="46.01612372465379" lon="9.37901376189812"><ele>646.0</ele><time>2026-03-28T14:07:03.976Z</time></trkpt><trkpt lat="46.016099497486394" lon="9.379140649307349"><ele>650.6666666666666</ele><time>2026-03-28T14:07:06.976Z</time></trkpt><trkpt lat="46.01607964077901" lon="9.379237092858205"><ele>655.3333333333334</ele><time>2026-03-28T14:07:09.976Z</time></trkpt><trkpt lat="46.01610802519907" lon="9.379370292984342"><ele>660.0</ele><time>2026-03-28T14:07:13.976Z</time></trkpt><trkpt lat="46.01608364446797" lon="9.379486500540025"><ele>660.0000000000001</ele><time>2026-03-28T14:07:17.976Z</time></trkpt><trkpt lat="46.01613272214071" lon="9.379546985708156"><ele>660.0</ele><time>2026-03-28T14:07:20.976Z</time></trkpt><trkpt lat="46.01619533610279" lon="9.379596976364816"><ele>660.0</ele><time>2026-03-28T14:07:23.976Z</time></trkpt><trkpt lat="46.0162030413159" lon="9.379702783068831"><ele>660.0</ele><time>2026-03-28T14:07:26.976Z</time></trkpt><trkpt lat="46.01617800800254" lon="9.37979699212483"><ele>660.0</ele><time>2026-03-28T14:07:29.976Z</time></trkpt><trkpt lat="46.01620886152989" lon="9.379891202533193"><ele>660.0000000000001</ele><time>2026-03-28T14:07:33.976Z</time></trkpt><trkpt lat="46.016288912620446" lon="9.37990036189441"><ele>660.0</ele><time>2026-03-28T14:07:37.976Z</time></trkpt><trkpt lat="46.016362751790346" lon="9.38000673278172"><ele>662.8571428571429</ele><time>2026-03-28T14:08:01.976Z</time></trkpt><trkpt lat="46.01642255122634" lon="9.380040127123614"><ele>665.7142857142858</ele><time>2026-03-28T14:08:06.975Z</time></trkpt><trkpt lat="46.0164555215055" lon="9.38012385923577"><ele>668.5714285714287</ele><time>2026-03-28T14:08:08.975Z</time></trkpt><trkpt lat="46.01653679669751" lon="9.380156685587721"><ele>671.4285714285714</ele><time>2026-03-28T14:08:13.977Z</time></trkpt><trkpt lat="46.01656551852802" lon="9.380259174611963"><ele>674.2857142857142</ele><time>2026-03-28T14:08:15.977Z</time></trkpt><trkpt lat="46.01662536825187" lon="9.380311369563419"><ele>677.1428571428572</ele><time>2026-03-28T14:08:27.977Z</time></trkpt><trkpt lat="46.01668043392183" lon="9.38035873233079"><ele>680.0</ele><time>2026-03-28T14:08:37.977Z</time></trkpt><trkpt lat="46.01674335474019" lon="9.380425787922837"><ele>684.1666666666666</ele><time>2026-03-28T14:08:41.977Z</time></trkpt><trkpt lat="46.01681586830512" lon="9.380496979911696"><ele>688.3333333333333</ele><time>2026-03-28T14:08:44.977Z</time></trkpt><trkpt lat="46.01687835237832" lon="9.380534293880325"><ele>692.5</ele><time>2026-03-28T14:08:47.977Z</time></trkpt><trkpt lat="46.016937028902255" lon="9.380587044210174"><ele>696.6666666666666</ele><time>2026-03-28T14:08:49.977Z</time></trkpt><trkpt lat="46.0170059994258" lon="9.380624385281978"><ele>700.8333333333334</ele><time>2026-03-28T14:08:52.977Z</time></trkpt><trkpt lat="46.017060570957305" lon="9.380688164309609"><ele>705.0</ele><time>2026-03-28T14:08:56.977Z</time></trkpt><trkpt lat="46.01714276380181" lon="9.380722801397377"><ele>708.4285714285713</ele><time>2026-03-28T14:08:59.977Z</time></trkpt><trkpt lat="46.01722036849683" lon="9.380700997809468"><ele>711.8571428571429</ele><time>2026-03-28T14:09:02.977Z</time></trkpt><trkpt lat="46.01728971787828" lon="9.380707484093069"><ele>715.2857142857142</ele><time>2026-03-28T14:09:06.977Z</time></trkpt><trkpt lat="46.01735651984414" lon="9.380706978434352"><ele>718.7142857142857</ele><time>2026-03-28T14:09:08.977Z</time></trkpt><trkpt lat="46.01742850485555" lon="9.380659735604066"><ele>722.1428571428571</ele><time>2026-03-28T14:09:11.977Z</time></trkpt><trkpt lat="46.01750989626114" lon="9.380664684183717"><ele>725.5714285714286</ele><time>2026-03-28T14:09:15.977Z</time></trkpt><trkpt lat="46.01756397442531" lon="9.38072645338891"><ele>729.0</ele><time>2026-03-28T14:09:18.977Z</time></trkpt><trkpt lat="46.01755309337457" lon="9.38082691096055"><ele>736.5</ele><time>2026-03-28T14:09:20.977Z</time></trkpt><trkpt lat="46.01791575368258" lon="9.381013737880934"><ele>744.0</ele><time>2026-03-28T14:09:23.977Z</time></trkpt><trkpt lat="46.0178442317339" lon="9.381114736730071"><ele>744.0</ele><time>2026-03-28T14:09:30.976Z</time></trkpt><trkpt lat="46.01781202518925" lon="9.381234328031267"><ele>744.0</ele><time>2026-03-28T14:09:32.976Z</time></trkpt><trkpt lat="46.01773816778044" lon="9.381347419302923"><ele>744.0</ele><time>2026-03-28T14:09:35.976Z</time></trkpt><trkpt lat="46.01768394989859" lon="9.381430641573736"><ele>744.0</ele><time>2026-03-28T14:09:37.976Z</time></trkpt><trkpt lat="46.017641449047154" lon="9.381505329937005"><ele>744.0</ele><time>2026-03-28T14:09:39.976Z</time></trkpt><trkpt lat="46.0174640017262" lon="9.381463054661264"><ele>744.8333333333334</ele><time>2026-03-28T14:09:43.976Z</time></trkpt><trkpt lat="46.01737440489842" lon="9.381442512530192"><ele>745.6666666666666</ele><time>2026-03-28T14:09:46.976Z</time></trkpt><trkpt lat="46.01729109184109" lon="9.381516337019121"><ele>746.5</ele><time>2026-03-28T14:09:48.976Z</time></trkpt><trkpt lat="46.017210730944335" lon="9.381547354237664"><ele>747.3333333333333</ele><time>2026-03-28T14:09:50.976Z</time></trkpt><trkpt lat="46.01714902511727" lon="9.38162305862075"><ele>748.1666666666666</ele><time>2026-03-28T14:09:52.976Z</time></trkpt><trkpt lat="46.017077919318794" lon="9.38168464244308"><ele>749.0</ele><time>2026-03-28T14:09:54.976Z</time></trkpt><trkpt lat="46.01703591393866" lon="9.381786357537848"><ele>749.0</ele><time>2026-03-28T14:09:58.976Z</time></trkpt><trkpt lat="46.01697969288402" lon="9.381836940575756"><ele>749.0</ele><time>2026-03-28T14:10:00.976Z</time></trkpt><trkpt lat="46.01691476545736" lon="9.38187416628664"><ele>749.0</ele><time>2026-03-28T14:10:02.976Z</time></trkpt><trkpt lat="46.016828985537416" lon="9.381899498930705"><ele>749.0</ele><time>2026-03-28T14:10:06.976Z</time></trkpt><trkpt lat="46.016757313433516" lon="9.381894460003126"><ele>749.0</ele><time>2026-03-28T14:10:09.976Z</time></trkpt><trkpt lat="46.01668640506403" lon="9.381905700339809"><ele>749.0</ele><time>2026-03-28T14:10:12.976Z</time></trkpt><trkpt lat="46.016605402265625" lon="9.381935325641164"><ele>748.0</ele><time>2026-03-28T14:10:14.976Z</time></trkpt><trkpt lat="46.01654500640766" lon="9.38200628674057"><ele>747.0</ele><time>2026-03-28T14:10:16.976Z</time></trkpt><trkpt lat="46.01646793322334" lon="9.382031132547638"><ele>746.0</ele><time>2026-03-28T14:10:19.976Z</time></trkpt><trkpt lat="46.01639088068238" lon="9.382121910061505"><ele>745.0</ele><time>2026-03-28T14:10:22.977Z</time></trkpt><trkpt lat="46.016379890337554" lon="9.382217827242927"><ele>744.0</ele><time>2026-03-28T14:10:23.977Z</time></trkpt><trkpt lat="46.01636204349948" lon="9.382337654135855"><ele>743.0</ele><time>2026-03-28T14:10:25.977Z</time></trkpt><trkpt lat="46.01630956821139" lon="9.382434191152765"><ele>743.0</ele><time>2026-03-28T14:10:27.977Z</time></trkpt><trkpt lat="46.01624150718606" lon="9.382547221388906"><ele>743.0</ele><time>2026-03-28T14:10:29.976Z</time></trkpt><trkpt lat="46.01616293661939" lon="9.3826593748759"><ele>743.0</ele><time>2026-03-28T14:10:31.977Z</time></trkpt><trkpt lat="46.01607129387034" lon="9.38276694334721"><ele>743.0</ele><time>2026-03-28T14:10:33.977Z</time></trkpt><trkpt lat="46.01604927360201" lon="9.382902744244797"><ele>743.0</ele><time>2026-03-28T14:10:35.977Z</time></trkpt><trkpt lat="46.01604295619902" lon="9.383024099231333"><ele>744.5714285714286</ele><time>2026-03-28T14:10:37.977Z</time></trkpt><trkpt lat="46.01602862072229" lon="9.383153634844385"><ele>746.1428571428571</ele><time>2026-03-28T14:10:43.976Z</time></trkpt><trkpt lat="46.0160040110469" lon="9.383249834888288"><ele>747.7142857142857</ele><time>2026-03-28T14:10:48.976Z</time></trkpt><trkpt lat="46.01598596943556" lon="9.383343950602354"><ele>749.2857142857142</ele><time>2026-03-28T14:10:53.976Z</time></trkpt><trkpt lat="46.015980140081055" lon="9.38343684166573"><ele>750.8571428571429</ele><time>2026-03-28T14:10:59.976Z</time></trkpt><trkpt lat="46.0159896103304" lon="9.383531119734165"><ele>752.4285714285713</ele><time>2026-03-28T14:11:24.976Z</time></trkpt><trkpt lat="46.016010669667395" lon="9.383420448206072"><ele>754.0</ele><time>2026-03-28T14:11:50.975Z</time></trkpt><trkpt lat="46.01601579287738" lon="9.383304871501164"><ele>754.0</ele><time>2026-03-28T14:11:53.975Z</time></trkpt><trkpt lat="46.016026375681705" lon="9.383181690143875"><ele>754.0</ele><time>2026-03-28T14:11:57.975Z</time></trkpt><trkpt lat="46.016018297433746" lon="9.383073386026442"><ele>754.0</ele><time>2026-03-28T14:12:00.975Z</time></trkpt><trkpt lat="46.01605298910887" lon="9.382969671697781"><ele>754.0</ele><time>2026-03-28T14:12:03.975Z</time></trkpt><trkpt lat="46.016095415663756" lon="9.382857309968736"><ele>754.0</ele><time>2026-03-28T14:12:06.975Z</time></trkpt><trkpt lat="46.01613991433619" lon="9.382762263343421"><ele>754.0</ele><time>2026-03-28T14:12:09.975Z</time></trkpt><trkpt lat="46.01616460233015" lon="9.382654560969092"><ele>752.1666666666667</ele><time>2026-03-28T14:12:12.975Z</time></trkpt><trkpt lat="46.01618501507487" lon="9.382539664091098"><ele>750.3333333333334</ele><time>2026-03-28T14:12:15.975Z</time></trkpt><trkpt lat="46.01619219330608" lon="9.382443522078507"><ele>748.5</ele><time>2026-03-28T14:12:17.975Z</time></trkpt><trkpt lat="46.01618813305855" lon="9.38233125554573"><ele>746.6666666666666</ele><time>2026-03-28T14:12:28.976Z</time></trkpt><trkpt lat="46.016165858201354" lon="9.382216462110133"><ele>744.8333333333333</ele><time>2026-03-28T14:12:31.976Z</time></trkpt><trkpt lat="46.016200629047106" lon="9.382055420212016"><ele>743.0</ele><time>2026-03-28T14:13:17.976Z</time></trkpt><trkpt lat="46.016271772567386" lon="9.382053359515178"><ele>740.0</ele><time>2026-03-28T14:13:20.976Z</time></trkpt><trkpt lat="46.01634510573428" lon="9.38209408299222"><ele>737.0</ele><time>2026-03-28T14:13:22.976Z</time></trkpt><trkpt lat="46.01631946256252" lon="9.381990468978564"><ele>734.0</ele><time>2026-03-28T14:13:27.976Z</time></trkpt><trkpt lat="46.01628090372151" lon="9.381912430018554"><ele>731.0</ele><time>2026-03-28T14:13:29.976Z</time></trkpt><trkpt lat="46.01621977218472" lon="9.381846228142097"><ele>728.0</ele><time>2026-03-28T14:13:35.976Z</time></trkpt><trkpt lat="46.01614975143608" lon="9.38174155590368"><ele>725.0</ele><time>2026-03-28T14:14:13.977Z</time></trkpt><trkpt lat="46.01609035761276" lon="9.381705673059795"><ele>725.0</ele><time>2026-03-28T14:14:20.977Z</time></trkpt><trkpt lat="46.01604312921429" lon="9.381635393469193"><ele>725.0</ele><time>2026-03-28T14:14:38.978Z</time></trkpt><trkpt lat="46.01604323349805" lon="9.381534553674479"><ele>725.0</ele><time>2026-03-28T14:14:42.978Z</time></trkpt><trkpt lat="46.01600539944216" lon="9.381441823043756"><ele>725.0</ele><time>2026-03-28T14:14:49.978Z</time></trkpt><trkpt lat="46.01594456394539" lon="9.38137410151322"><ele>725.0</ele><time>2026-03-28T14:14:53.978Z</time></trkpt><trkpt lat="46.015909952918584" lon="9.381289091813583"><ele>725.0</ele><time>2026-03-28T14:14:57.978Z</time></trkpt><trkpt lat="46.01590875121597" lon="9.381193874040852"><ele>725.0</ele><time>2026-03-28T14:15:10.978Z</time></trkpt><trkpt lat="46.015942722689445" lon="9.3810742064043"><ele>721.8333333333333</ele><time>2026-03-28T14:15:17.977Z</time></trkpt><trkpt lat="46.01596884511112" lon="9.380971323408591"><ele>718.6666666666666</ele><time>2026-03-28T14:15:19.977Z</time></trkpt><trkpt lat="46.01599769836484" lon="9.38086401668462"><ele>715.5</ele><time>2026-03-28T14:15:23.977Z</time></trkpt><trkpt lat="46.01592658424629" lon="9.380801303551328"><ele>712.3333333333334</ele><time>2026-03-28T14:15:29.977Z</time></trkpt><trkpt lat="46.01585157205627" lon="9.380821814905053"><ele>709.1666666666667</ele><time>2026-03-28T14:15:34.977Z</time></trkpt><trkpt lat="46.01577819333189" lon="9.380854804134678"><ele>706.0</ele><time>2026-03-28T14:15:37.977Z</time></trkpt><trkpt lat="46.01568412230517" lon="9.380827409380307"><ele>701.4</ele><time>2026-03-28T14:15:48.977Z</time></trkpt><trkpt lat="46.01559640622683" lon="9.38096021292389"><ele>696.8</ele><time>2026-03-28T14:15:53.977Z</time></trkpt><trkpt lat="46.015536499281964" lon="9.381089052654008"><ele>692.1999999999999</ele><time>2026-03-28T14:15:55.977Z</time></trkpt><trkpt lat="46.015455971751955" lon="9.38110822095662"><ele>687.5999999999999</ele><time>2026-03-28T14:15:57.977Z</time></trkpt><trkpt lat="46.01537678182768" lon="9.381162820337646"><ele>683.0</ele><time>2026-03-28T14:15:59.977Z</time></trkpt><trkpt lat="46.015343818070775" lon="9.381249892746023"><ele>683.0</ele><time>2026-03-28T14:16:02.977Z</time></trkpt><trkpt lat="46.015282391847485" lon="9.38130476403157"><ele>683.0</ele><time>2026-03-28T14:16:05.977Z</time></trkpt><trkpt lat="46.01522446876748" lon="9.381371842239268"><ele>683.0</ele><time>2026-03-28T14:16:09.977Z</time></trkpt><trkpt lat="46.01514417284726" lon="9.381499188153054"><ele>683.0</ele><time>2026-03-28T14:16:23.977Z</time></trkpt><trkpt lat="46.01509866610412" lon="9.38156506823146"><ele>683.0</ele><time>2026-03-28T14:16:28.976Z</time></trkpt><trkpt lat="46.0150503612876" lon="9.381658187397877"><ele>683.0</ele><time>2026-03-28T14:16:31.976Z</time></trkpt><trkpt lat="46.014971816092675" lon="9.381691050184337"><ele>681.6666666666666</ele><time>2026-03-28T14:16:34.976Z</time></trkpt><trkpt lat="46.01491817393096" lon="9.381781670721823"><ele>680.3333333333334</ele><time>2026-03-28T14:16:36.978Z</time></trkpt><trkpt lat="46.01472104849157" lon="9.382056559602129"><ele>679.0</ele><time>2026-03-28T14:16:39.978Z</time></trkpt><trkpt lat="46.01464172555616" lon="9.382175430791877"><ele>682.1666666666667</ele><time>2026-03-28T14:16:41.977Z</time></trkpt><trkpt lat="46.01457623412652" lon="9.382264319829304"><ele>685.3333333333334</ele><time>2026-03-28T14:16:43.978Z</time></trkpt><trkpt lat="46.01448881080544" lon="9.382364979680096"><ele>688.5</ele><time>2026-03-28T14:16:45.978Z</time></trkpt><trkpt lat="46.014444389700934" lon="9.382450140038962"><ele>691.6666666666666</ele><time>2026-03-28T14:16:47.978Z</time></trkpt><trkpt lat="46.01442056043264" lon="9.382543672572382"><ele>694.8333333333333</ele><time>2026-03-28T14:16:49.978Z</time></trkpt><trkpt lat="46.01437332032924" lon="9.382606408610824"><ele>698.0</ele><time>2026-03-28T14:16:51.978Z</time></trkpt><trkpt lat="46.01430425571062" lon="9.382711102906852"><ele>698.0</ele><time>2026-03-28T14:16:53.978Z</time></trkpt><trkpt lat="46.01425641507985" lon="9.382829069036678"><ele>698.0</ele><time>2026-03-28T14:16:55.978Z</time></trkpt><trkpt lat="46.01418702064218" lon="9.38292028305091"><ele>698.0</ele><time>2026-03-28T14:16:57.978Z</time></trkpt><trkpt lat="46.014121607204004" lon="9.383008387656782"><ele>698.0</ele><time>2026-03-28T14:16:59.978Z</time></trkpt><trkpt lat="46.01404222119181" lon="9.38308573342245"><ele>698.0</ele><time>2026-03-28T14:17:01.978Z</time></trkpt><trkpt lat="46.01421703967957" lon="9.382922128150952"><ele>694.6666666666666</ele><time>2026-03-28T14:17:02.978Z</time></trkpt><trkpt lat="46.01415114977382" lon="9.38298194612068"><ele>691.3333333333334</ele><time>2026-03-28T14:17:04.978Z</time></trkpt><trkpt lat="46.01393490101688" lon="9.383294346146574"><ele>688.0</ele><time>2026-03-28T14:17:05.978Z</time></trkpt><trkpt lat="46.013881767006154" lon="9.383411356919213"><ele>688.0</ele><time>2026-03-28T14:17:06.978Z</time></trkpt><trkpt lat="46.01383915766289" lon="9.383514593177226"><ele>688.0</ele><time>2026-03-28T14:17:07.978Z</time></trkpt><trkpt lat="46.013763219995" lon="9.383622786285954"><ele>688.0</ele><time>2026-03-28T14:17:09.978Z</time></trkpt><trkpt lat="46.01371237037195" lon="9.383691099948724"><ele>688.0</ele><time>2026-03-28T14:17:10.978Z</time></trkpt><trkpt lat="46.01365806911092" lon="9.38375632605486"><ele>688.0</ele><time>2026-03-28T14:17:11.978Z</time></trkpt><trkpt lat="46.013590492507596" lon="9.383864948424794"><ele>688.0</ele><time>2026-03-28T14:17:13.978Z</time></trkpt><trkpt lat="46.0135431211729" lon="9.383959445332717"><ele>687.0</ele><time>2026-03-28T14:17:16.978Z</time></trkpt><trkpt lat="46.013475195557085" lon="9.384096614705928"><ele>686.0</ele><time>2026-03-28T14:17:18.978Z</time></trkpt><trkpt lat="46.01341878497168" lon="9.38421063931905"><ele>685.0</ele><time>2026-03-28T14:17:21.978Z</time></trkpt><trkpt lat="46.01337249602656" lon="9.384298509031042"><ele>684.0</ele><time>2026-03-28T14:17:24.977Z</time></trkpt><trkpt lat="46.013318523344" lon="9.384405639198642"><ele>683.0</ele><time>2026-03-28T14:17:27.977Z</time></trkpt><trkpt lat="46.0134502262332" lon="9.384287287933073"><ele>683.2</ele><time>2026-03-28T14:17:28.977Z</time></trkpt><trkpt lat="46.01341697704864" lon="9.384434132381207"><ele>683.4</ele><time>2026-03-28T14:17:30.977Z</time></trkpt><trkpt lat="46.013381474030254" lon="9.384523245584877"><ele>683.6</ele><time>2026-03-28T14:17:31.977Z</time></trkpt><trkpt lat="46.01336503451293" lon="9.384616427608798"><ele>683.8000000000001</ele><time>2026-03-28T14:17:32.977Z</time></trkpt><trkpt lat="46.013289473374776" lon="9.384758547888959"><ele>684.0</ele><time>2026-03-28T14:17:34.977Z</time></trkpt><trkpt lat="46.01321102361142" lon="9.384843951912723"><ele>684.0</ele><time>2026-03-28T14:17:36.977Z</time></trkpt><trkpt lat="46.01317320779375" lon="9.384936436895142"><ele>684.0</ele><time>2026-03-28T14:17:39.977Z</time></trkpt><trkpt lat="46.01312106073371" lon="9.38502808685315"><ele>684.0</ele><time>2026-03-28T14:17:41.977Z</time></trkpt><trkpt lat="46.01307351396127" lon="9.385107184751016"><ele>684.0</ele><time>2026-03-28T14:17:43.977Z</time></trkpt><trkpt lat="46.01303482570304" lon="9.385211760361718"><ele>684.0</ele><time>2026-03-28T14:17:45.977Z</time></trkpt><trkpt lat="46.01298984468174" lon="9.385331841372782"><ele>684.0</ele><time>2026-03-28T14:17:48.977Z</time></trkpt><trkpt lat="46.01297653949279" lon="9.385438125283578"><ele>686.0</ele><time>2026-03-28T14:17:50.977Z</time></trkpt><trkpt lat="46.01297660050683" lon="9.38554005833285"><ele>688.0</ele><time>2026-03-28T14:17:53.977Z</time></trkpt><trkpt lat="46.01299519554793" lon="9.385636619561351"><ele>690.0</ele><time>2026-03-28T14:17:55.977Z</time></trkpt><trkpt lat="46.01298781319413" lon="9.385733274449835"><ele>692.0</ele><time>2026-03-28T14:17:57.977Z</time></trkpt><trkpt lat="46.01294480426097" lon="9.385858671901058"><ele>694.0</ele><time>2026-03-28T14:18:00.977Z</time></trkpt><trkpt lat="46.01292205617634" lon="9.385974792663966"><ele>696.0</ele><time>2026-03-28T14:18:02.977Z</time></trkpt><trkpt lat="46.01292738156037" lon="9.386094436399734"><ele>696.0</ele><time>2026-03-28T14:18:04.977Z</time></trkpt><trkpt lat="46.012893227909906" lon="9.38619575243292"><ele>696.0</ele><time>2026-03-28T14:18:07.977Z</time></trkpt><trkpt lat="46.01287027779957" lon="9.386333189059739"><ele>696.0</ele><time>2026-03-28T14:18:09.977Z</time></trkpt><trkpt lat="46.01285321766689" lon="9.386429441520107"><ele>696.0</ele><time>2026-03-28T14:18:11.977Z</time></trkpt><trkpt lat="46.01285853073653" lon="9.386543975619166"><ele>696.0</ele><time>2026-03-28T14:18:13.977Z</time></trkpt><trkpt lat="46.012895285683044" lon="9.386641917121272"><ele>696.0</ele><time>2026-03-28T14:18:15.977Z</time></trkpt><trkpt lat="46.01291700151709" lon="9.386749383055534"><ele>698.5</ele><time>2026-03-28T14:18:17.977Z</time></trkpt><trkpt lat="46.012942297704704" lon="9.386864418506597"><ele>701.0</ele><time>2026-03-28T14:18:20.977Z</time></trkpt><trkpt lat="46.01295912470472" lon="9.386953247408726"><ele>703.5</ele><time>2026-03-28T14:18:22.977Z</time></trkpt><trkpt lat="46.01297818869662" lon="9.387071196031636"><ele>706.0</ele><time>2026-03-28T14:18:25.977Z</time></trkpt><trkpt lat="46.01301306930493" lon="9.38715528602066"><ele>708.5</ele><time>2026-03-28T14:18:27.977Z</time></trkpt><trkpt lat="46.013044121892584" lon="9.387272247391255"><ele>711.0</ele><time>2026-03-28T14:18:30.976Z</time></trkpt><trkpt lat="46.013067733619536" lon="9.387356560317093"><ele>714.1666666666666</ele><time>2026-03-28T14:18:32.976Z</time></trkpt><trkpt lat="46.0130819313852" lon="9.387468299157128"><ele>717.3333333333334</ele><time>2026-03-28T14:18:36.976Z</time></trkpt><trkpt lat="46.01311216621793" lon="9.387581865446505"><ele>720.5</ele><time>2026-03-28T14:18:38.976Z</time></trkpt><trkpt lat="46.013084941677064" lon="9.387695660342832"><ele>723.6666666666667</ele><time>2026-03-28T14:18:40.976Z</time></trkpt><trkpt lat="46.013126756609516" lon="9.387774544273789"><ele>726.8333333333334</ele><time>2026-03-28T14:18:43.978Z</time></trkpt><trkpt lat="46.01314516526422" lon="9.387893972964042"><ele>730.0</ele><time>2026-03-28T14:18:46.978Z</time></trkpt><trkpt lat="46.013157756397064" lon="9.387990796411694"><ele>735.0</ele><time>2026-03-28T14:18:48.978Z</time></trkpt><trkpt lat="46.013155598378326" lon="9.388114742043786"><ele>740.0</ele><time>2026-03-28T14:18:52.978Z</time></trkpt><trkpt lat="46.013149448809" lon="9.3882141254306"><ele>745.0</ele><time>2026-03-28T14:18:55.978Z</time></trkpt><trkpt lat="46.01306742813128" lon="9.38819563637787"><ele>750.0</ele><time>2026-03-28T14:18:58.978Z</time></trkpt><trkpt lat="46.013003240366395" lon="9.388201634004972"><ele>755.0</ele><time>2026-03-28T14:19:08.978Z</time></trkpt><trkpt lat="46.012918484624414" lon="9.388160623359482"><ele>760.0</ele><time>2026-03-28T14:19:20.978Z</time></trkpt><trkpt lat="46.012869723111535" lon="9.388084519986178"><ele>760.0</ele><time>2026-03-28T14:19:22.978Z</time></trkpt><trkpt lat="46.012807709509985" lon="9.388055515528462"><ele>760.0</ele><time>2026-03-28T14:19:24.978Z</time></trkpt><trkpt lat="46.012731504804805" lon="9.38799292019505"><ele>760.0</ele><time>2026-03-28T14:19:27.978Z</time></trkpt><trkpt lat="46.01267006714999" lon="9.387956784720558"><ele>760.0</ele><time>2026-03-28T14:19:31.978Z</time></trkpt><trkpt lat="46.01260615329137" lon="9.388053815309354"><ele>760.0</ele><time>2026-03-28T14:19:34.978Z</time></trkpt><trkpt lat="46.01253994542969" lon="9.388082534133849"><ele>760.0</ele><time>2026-03-28T14:19:38.978Z</time></trkpt><trkpt lat="46.01255263028378" lon="9.38819227234724"><ele>760.0</ele><time>2026-03-28T14:19:45.977Z</time></trkpt><trkpt lat="46.01257520551916" lon="9.388281926493063"><ele>760.0</ele><time>2026-03-28T14:19:48.977Z</time></trkpt><trkpt lat="46.01256355407103" lon="9.388406756470582"><ele>760.0</ele><time>2026-03-28T14:19:52.977Z</time></trkpt><trkpt lat="46.012555443291596" lon="9.388538888388469"><ele>760.0</ele><time>2026-03-28T14:19:56.977Z</time></trkpt><trkpt lat="46.01253582935389" lon="9.388633393418655"><ele>760.0</ele><time>2026-03-28T14:19:59.977Z</time></trkpt><trkpt lat="46.01252252868991" lon="9.388726095253263"><ele>760.0</ele><time>2026-03-28T14:20:02.977Z</time></trkpt><trkpt lat="46.012542753606205" lon="9.388821355181141"><ele>760.0</ele><time>2026-03-28T14:20:05.977Z</time></trkpt><trkpt lat="46.012598626076695" lon="9.388890955001752"><ele>761.7142857142858</ele><time>2026-03-28T14:20:09.977Z</time></trkpt><trkpt lat="46.01261269979698" lon="9.38898972692956"><ele>763.4285714285714</ele><time>2026-03-28T14:20:14.977Z</time></trkpt><trkpt lat="46.01254678795318" lon="9.389004266374048"><ele>765.1428571428571</ele><time>2026-03-28T14:20:17.977Z</time></trkpt><trkpt lat="46.01248375944239" lon="9.388974689030686"><ele>766.8571428571429</ele><time>2026-03-28T14:20:20.977Z</time></trkpt><trkpt lat="46.01242740442569" lon="9.388922039143129"><ele>768.5714285714286</ele><time>2026-03-28T14:20:25.977Z</time></trkpt><trkpt lat="46.012369589769456" lon="9.388877483889468"><ele>770.2857142857143</ele><time>2026-03-28T14:20:30.977Z</time></trkpt><trkpt lat="46.012271506504995" lon="9.388812486124847"><ele>772.0</ele><time>2026-03-28T14:20:34.977Z</time></trkpt><trkpt lat="46.012191681685394" lon="9.388851730009186"><ele>776.8333333333333</ele><time>2026-03-28T14:20:36.977Z</time></trkpt><trkpt lat="46.012139790807" lon="9.388915828762368"><ele>781.6666666666666</ele><time>2026-03-28T14:20:38.977Z</time></trkpt><trkpt lat="46.012084150813955" lon="9.388964267543853"><ele>786.5</ele><time>2026-03-28T14:20:40.977Z</time></trkpt><trkpt lat="46.012024921361196" lon="9.389031753145561"><ele>791.3333333333333</ele><time>2026-03-28T14:20:42.977Z</time></trkpt><trkpt lat="46.01196698190625" lon="9.389077798032789"><ele>796.1666666666666</ele><time>2026-03-28T14:20:44.977Z</time></trkpt><trkpt lat="46.01190053612071" lon="9.389142614530185"><ele>801.0</ele><time>2026-03-28T14:20:46.977Z</time></trkpt><trkpt lat="46.0117969188777" lon="9.389133154298795"><ele>801.0</ele><time>2026-03-28T14:20:50.978Z</time></trkpt><trkpt lat="46.011707952376774" lon="9.389142856173132"><ele>801.0</ele><time>2026-03-28T14:20:53.977Z</time></trkpt><trkpt lat="46.01166352441875" lon="9.389234458573668"><ele>801.0</ele><time>2026-03-28T14:20:57.978Z</time></trkpt><trkpt lat="46.01169812786324" lon="9.389326924175505"><ele>801.0</ele><time>2026-03-28T14:21:00.977Z</time></trkpt><trkpt lat="46.01171642889603" lon="9.38942012082146"><ele>801.0</ele><time>2026-03-28T14:21:02.977Z</time></trkpt><trkpt lat="46.01170856812577" lon="9.389512518832626"><ele>801.0</ele><time>2026-03-28T14:21:04.977Z</time></trkpt><trkpt lat="46.011694288595606" lon="9.38963662179069"><ele>804.4285714285714</ele><time>2026-03-28T14:21:06.977Z</time></trkpt><trkpt lat="46.01167758891571" lon="9.38972404773202"><ele>807.8571428571429</ele><time>2026-03-28T14:21:09.977Z</time></trkpt><trkpt lat="46.011693729685554" lon="9.389824887705615"><ele>811.2857142857142</ele><time>2026-03-28T14:21:13.977Z</time></trkpt><trkpt lat="46.01174382166434" lon="9.389898520845874"><ele>814.7142857142858</ele><time>2026-03-28T14:21:17.977Z</time></trkpt><trkpt lat="46.011809271709204" lon="9.38995765590483"><ele>818.1428571428572</ele><time>2026-03-28T14:21:19.977Z</time></trkpt><trkpt lat="46.01187519744814" lon="9.390018373457522"><ele>821.5714285714286</ele><time>2026-03-28T14:21:22.977Z</time></trkpt><trkpt lat="46.011925223563594" lon="9.390100458070846"><ele>825.0</ele><time>2026-03-28T14:21:25.977Z</time></trkpt><trkpt lat="46.012014714282465" lon="9.39017713187908"><ele>825.0</ele><time>2026-03-28T14:21:27.977Z</time></trkpt><trkpt lat="46.012073004616646" lon="9.390275864514747"><ele>825.0</ele><time>2026-03-28T14:21:29.977Z</time></trkpt><trkpt lat="46.01207797741993" lon="9.390382597926704"><ele>825.0</ele><time>2026-03-28T14:21:31.977Z</time></trkpt><trkpt lat="46.012076200494676" lon="9.390488682260294"><ele>825.0</ele><time>2026-03-28T14:21:33.977Z</time></trkpt><trkpt lat="46.01210912873856" lon="9.39059441794503"><ele>825.0</ele><time>2026-03-28T14:21:35.977Z</time></trkpt><trkpt lat="46.01212265179777" lon="9.390710242832151"><ele>825.0</ele><time>2026-03-28T14:21:37.977Z</time></trkpt><trkpt lat="46.01213104066737" lon="9.390814560877953"><ele>828.8333333333334</ele><time>2026-03-28T14:21:39.977Z</time></trkpt><trkpt lat="46.01217466307441" lon="9.390920150072816"><ele>832.6666666666667</ele><time>2026-03-28T14:22:01.976Z</time></trkpt><trkpt lat="46.012175734831565" lon="9.391033414239509"><ele>836.5</ele><time>2026-03-28T14:23:17.976Z</time></trkpt><trkpt lat="46.01224832239964" lon="9.391091810366401"><ele>840.3333333333334</ele><time>2026-03-28T14:23:20.976Z</time></trkpt><trkpt lat="46.01228593155989" lon="9.391179603613237"><ele>844.1666666666667</ele><time>2026-03-28T14:23:22.976Z</time></trkpt><trkpt lat="46.01230761821452" lon="9.391291398439439"><ele>848.0</ele><time>2026-03-28T14:23:24.976Z</time></trkpt><trkpt lat="46.01229775244563" lon="9.391421074071717"><ele>851.0000000000001</ele><time>2026-03-28T14:23:27.976Z</time></trkpt><trkpt lat="46.01236399174412" lon="9.391499976451573"><ele>854.0</ele><time>2026-03-28T14:23:30.976Z</time></trkpt><trkpt lat="46.01242387786022" lon="9.391570525543704"><ele>857.0</ele><time>2026-03-28T14:23:38.976Z</time></trkpt><trkpt lat="46.01243876452852" lon="9.391696510141736"><ele>860.0</ele><time>2026-03-28T14:23:41.976Z</time></trkpt><trkpt lat="46.01245277806752" lon="9.39180706560722"><ele>863.0000000000001</ele><time>2026-03-28T14:23:44.976Z</time></trkpt><trkpt lat="46.012461765085135" lon="9.391905208244813"><ele>866.0</ele><time>2026-03-28T14:24:05.976Z</time></trkpt><trkpt lat="46.012482806393585" lon="9.391991155608707"><ele>865.9999999999999</ele><time>2026-03-28T14:24:13.976Z</time></trkpt><trkpt lat="46.012487441894535" lon="9.392117913068038"><ele>866.0</ele><time>2026-03-28T14:25:08.977Z</time></trkpt><trkpt lat="46.01242556921922" lon="9.392094503270268"><ele>866.0</ele><time>2026-03-28T14:34:51.977Z</time></trkpt><trkpt lat="46.01236437186535" lon="9.39213438511881"><ele>866.0</ele><time>2026-03-28T14:35:10.976Z</time></trkpt><trkpt lat="46.012318313242986" lon="9.39219805535027"><ele>866.0</ele><time>2026-03-28T14:35:23.976Z</time></trkpt><trkpt lat="46.01228259266093" lon="9.392275620632946"><ele>865.9999999999999</ele><time>2026-03-28T14:35:31.977Z</time></trkpt><trkpt lat="46.012231986331976" lon="9.392346236408367"><ele>866.0</ele><time>2026-03-28T14:35:44.977Z</time></trkpt><trkpt lat="46.01215931586994" lon="9.392391238642231"><ele>868.7142857142857</ele><time>2026-03-28T14:35:50.977Z</time></trkpt><trkpt lat="46.012115698250746" lon="9.392468689151261"><ele>871.4285714285714</ele><time>2026-03-28T14:35:54.977Z</time></trkpt><trkpt lat="46.012121382554376" lon="9.392565238975765"><ele>874.1428571428571</ele><time>2026-03-28T14:35:58.977Z</time></trkpt><trkpt lat="46.012118315387795" lon="9.392661051353436"><ele>876.8571428571429</ele><time>2026-03-28T14:36:02.977Z</time></trkpt><trkpt lat="46.01208800853006" lon="9.392787502458619"><ele>879.5714285714286</ele><time>2026-03-28T14:36:06.977Z</time></trkpt><trkpt lat="46.012056286854204" lon="9.392881561397218"><ele>882.2857142857142</ele><time>2026-03-28T14:36:09.977Z</time></trkpt><trkpt lat="46.012047800886585" lon="9.39298268283555"><ele>885.0</ele><time>2026-03-28T14:36:13.977Z</time></trkpt><trkpt lat="46.01205048850446" lon="9.393088859578624"><ele>886.7142857142857</ele><time>2026-03-28T14:36:16.977Z</time></trkpt><trkpt lat="46.012081755168694" lon="9.393184613982122"><ele>888.4285714285713</ele><time>2026-03-28T14:36:19.977Z</time></trkpt><trkpt lat="46.0120940533154" lon="9.393277331034978"><ele>890.1428571428571</ele><time>2026-03-28T14:36:23.977Z</time></trkpt><trkpt lat="46.012108811514025" lon="9.393392032790626"><ele>891.8571428571429</ele><time>2026-03-28T14:36:27.977Z</time></trkpt><trkpt lat="46.01210417100952" lon="9.393498203466022"><ele>893.5714285714286</ele><time>2026-03-28T14:36:30.977Z</time></trkpt><trkpt lat="46.01209287852937" lon="9.393588864785423"><ele>895.2857142857143</ele><time>2026-03-28T14:36:34.976Z</time></trkpt><trkpt lat="46.01209521842452" lon="9.393687910880038"><ele>897.0</ele><time>2026-03-28T14:36:38.976Z</time></trkpt><trkpt lat="46.012085026678314" lon="9.393806202681297"><ele>899.1428571428571</ele><time>2026-03-28T14:36:43.976Z</time></trkpt><trkpt lat="46.01208696446559" lon="9.393904376910676"><ele>901.2857142857142</ele><time>2026-03-28T14:36:47.976Z</time></trkpt><trkpt lat="46.012107555994845" lon="9.393998821792053"><ele>903.4285714285713</ele><time>2026-03-28T14:36:51.976Z</time></trkpt><trkpt lat="46.01210940566016" lon="9.394098572816116"><ele>905.5714285714286</ele><time>2026-03-28T14:36:54.976Z</time></trkpt><trkpt lat="46.01213111745177" lon="9.394202334584289"><ele>907.7142857142856</ele><time>2026-03-28T14:36:58.976Z</time></trkpt><trkpt lat="46.01213409523632" lon="9.394294776947483"><ele>909.8571428571428</ele><time>2026-03-28T14:37:01.976Z</time></trkpt><trkpt lat="46.012121411262015" lon="9.394401964038574"><ele>912.0</ele><time>2026-03-28T14:37:04.976Z</time></trkpt><trkpt lat="46.012117430272404" lon="9.394517545187359"><ele>912.0</ele><time>2026-03-28T14:37:08.976Z</time></trkpt><trkpt lat="46.012102816393416" lon="9.39463102713771"><ele>911.9999999999999</ele><time>2026-03-28T14:37:12.976Z</time></trkpt><trkpt lat="46.01209510935037" lon="9.394725917265195"><ele>912.0</ele><time>2026-03-28T14:37:20.976Z</time></trkpt><trkpt lat="46.012092727546644" lon="9.394818078917961"><ele>912.0</ele><time>2026-03-28T14:37:32.976Z</time></trkpt><trkpt lat="46.01215334364321" lon="9.394765047846683"><ele>911.9999999999999</ele><time>2026-03-28T14:37:47.978Z</time></trkpt><trkpt lat="46.01220115424476" lon="9.394825788136734"><ele>912.0</ele><time>2026-03-28T14:37:55.978Z</time></trkpt><trkpt lat="46.01219406204925" lon="9.39472881328492"><ele>912.0</ele><time>2026-03-28T14:38:03.977Z</time></trkpt><trkpt lat="46.01220202986663" lon="9.394637160808854"><ele>912.0</ele><time>2026-03-28T14:38:10.977Z</time></trkpt><trkpt lat="46.01221745702142" lon="9.394542316901525"><ele>911.9999999999999</ele><time>2026-03-28T14:38:31.977Z</time></trkpt><trkpt lat="46.01224121701035" lon="9.394456287772398"><ele>912.0</ele><time>2026-03-28T14:38:35.977Z</time></trkpt><trkpt lat="46.01227330646855" lon="9.394367779270551"><ele>912.0</ele><time>2026-03-28T14:38:47.977Z</time></trkpt><trkpt lat="46.01230672525398" lon="9.394288257823417"><ele>911.9999999999999</ele><time>2026-03-28T14:38:51.977Z</time></trkpt><trkpt lat="46.01234955091324" lon="9.394200573800159"><ele>912.0</ele><time>2026-03-28T14:39:05.977Z</time></trkpt><trkpt lat="46.012295127236825" lon="9.394258011207267"><ele>912.0</ele><time>2026-03-28T14:39:35.976Z</time></trkpt><trkpt lat="46.01226220144863" lon="9.39436567107395"><ele>912.0</ele><time>2026-03-28T14:39:42.978Z</time></trkpt><trkpt lat="46.01224680290213" lon="9.394454313881042"><ele>911.9999999999999</ele><time>2026-03-28T14:39:48.977Z</time></trkpt><trkpt lat="46.01223237472303" lon="9.394552305913793"><ele>912.0</ele><time>2026-03-28T14:40:06.978Z</time></trkpt><trkpt lat="46.012292828598895" lon="9.394594863302933"><ele>912.0</ele><time>2026-03-28T14:40:11.978Z</time></trkpt><trkpt lat="46.01235668826429" lon="9.394683187900997"><ele>911.9999999999999</ele><time>2026-03-28T14:40:33.977Z</time></trkpt><trkpt lat="46.01236663394657" lon="9.394781818147537"><ele>912.0</ele><time>2026-03-28T14:40:44.977Z</time></trkpt><trkpt lat="46.01244249890957" lon="9.394821552170244"><ele>912.0</ele><time>2026-03-28T14:40:50.977Z</time></trkpt><trkpt lat="46.01250377233322" lon="9.39489238519385"><ele>913.8571428571428</ele><time>2026-03-28T14:40:54.977Z</time></trkpt><trkpt lat="46.01255445078866" lon="9.394949861551165"><ele>915.7142857142856</ele><time>2026-03-28T14:40:59.977Z</time></trkpt><trkpt lat="46.01249521187062" lon="9.394858473901627"><ele>917.5714285714286</ele><time>2026-03-28T14:41:30.976Z</time></trkpt><trkpt lat="46.01243478920567" lon="9.394785642210703"><ele>919.4285714285713</ele><time>2026-03-28T14:41:33.976Z</time></trkpt><trkpt lat="46.0123641439695" lon="9.394828418117298"><ele>921.2857142857142</ele><time>2026-03-28T14:41:42.976Z</time></trkpt><trkpt lat="46.0123248611001" lon="9.394915531192972"><ele>923.1428571428571</ele><time>2026-03-28T14:41:48.978Z</time></trkpt><trkpt lat="46.01226869118749" lon="9.394976017995532"><ele>925.0</ele><time>2026-03-28T14:41:52.977Z</time></trkpt><trkpt lat="46.01221998612199" lon="9.395042170360208"><ele>925.0</ele><time>2026-03-28T14:41:55.977Z</time></trkpt><trkpt lat="46.01221590706283" lon="9.395140835389341"><ele>925.0</ele><time>2026-03-28T14:41:58.977Z</time></trkpt><trkpt lat="46.01218913364623" lon="9.395247046281558"><ele>925.0</ele><time>2026-03-28T14:42:01.977Z</time></trkpt><trkpt lat="46.0121722079419" lon="9.395343868108856"><ele>925.0</ele><time>2026-03-28T14:42:05.977Z</time></trkpt><trkpt lat="46.01217317757272" lon="9.395445522859369"><ele>925.0</ele><time>2026-03-28T14:42:11.977Z</time></trkpt><trkpt lat="46.01216021352488" lon="9.395534299413915"><ele>925.0</ele><time>2026-03-28T14:42:18.977Z</time></trkpt><trkpt lat="46.01216496200774" lon="9.395648837045684"><ele>925.0</ele><time>2026-03-28T14:42:21.977Z</time></trkpt><trkpt lat="46.01215337093097" lon="9.39575974883993"><ele>927.1428571428571</ele><time>2026-03-28T14:42:25.977Z</time></trkpt><trkpt lat="46.012130599413396" lon="9.395852686051452"><ele>929.2857142857142</ele><time>2026-03-28T14:42:29.977Z</time></trkpt><trkpt lat="46.01212094686221" lon="9.39595103597827"><ele>931.4285714285713</ele><time>2026-03-28T14:42:32.977Z</time></trkpt><trkpt lat="46.0121095079803" lon="9.396055135044497"><ele>933.5714285714286</ele><time>2026-03-28T14:42:35.977Z</time></trkpt><trkpt lat="46.01210654814645" lon="9.396157840760008"><ele>935.7142857142856</ele><time>2026-03-28T14:42:39.977Z</time></trkpt><trkpt lat="46.01212729442982" lon="9.396253133258611"><ele>937.8571428571428</ele><time>2026-03-28T14:42:43.977Z</time></trkpt><trkpt lat="46.012185451436515" lon="9.396327145853958"><ele>940.0</ele><time>2026-03-28T14:42:46.977Z</time></trkpt><trkpt lat="46.012148267686584" lon="9.396409933211924"><ele>943.6666666666666</ele><time>2026-03-28T14:42:50.977Z</time></trkpt><trkpt lat="46.012074830673505" lon="9.396506248871553"><ele>947.3333333333333</ele><time>2026-03-28T14:42:53.976Z</time></trkpt><trkpt lat="46.012023754356534" lon="9.396588530065157"><ele>951.0</ele><time>2026-03-28T14:42:55.976Z</time></trkpt><trkpt lat="46.01196918607864" lon="9.396635897199388"><ele>954.6666666666667</ele><time>2026-03-28T14:42:57.976Z</time></trkpt><trkpt lat="46.01191186668027" lon="9.396695577709554"><ele>958.3333333333334</ele><time>2026-03-28T14:43:00.976Z</time></trkpt><trkpt lat="46.01187156930917" lon="9.396790852235346"><ele>962.0</ele><time>2026-03-28T14:43:03.976Z</time></trkpt><trkpt lat="46.011821199825945" lon="9.39690156262858"><ele>962.0</ele><time>2026-03-28T14:43:06.976Z</time></trkpt><trkpt lat="46.011811403637374" lon="9.397013365941907"><ele>962.0</ele><time>2026-03-28T14:43:09.976Z</time></trkpt><trkpt lat="46.01141401359744" lon="9.397965798697866"><ele>963.5714285714284</ele><time>2026-03-28T14:43:11.976Z</time></trkpt><trkpt lat="46.011382359207886" lon="9.39804945908063"><ele>965.1428571428571</ele><time>2026-03-28T14:43:12.976Z</time></trkpt><trkpt lat="46.01134456193938" lon="9.39814091630201"><ele>966.7142857142857</ele><time>2026-03-28T14:43:13.976Z</time></trkpt><trkpt lat="46.011305073517335" lon="9.398236970669048"><ele>968.2857142857142</ele><time>2026-03-28T14:43:14.976Z</time></trkpt><trkpt lat="46.01128314792588" lon="9.398351023252774"><ele>969.8571428571429</ele><time>2026-03-28T14:43:15.976Z</time></trkpt><trkpt lat="46.01126804280842" lon="9.39844450208288"><ele>971.4285714285714</ele><time>2026-03-28T14:43:16.976Z</time></trkpt><trkpt lat="46.01122419139832" lon="9.398511317751801"><ele>973.0</ele><time>2026-03-28T14:43:18.976Z</time></trkpt><trkpt lat="46.01118298855009" lon="9.398620600725335"><ele>973.0</ele><time>2026-03-28T14:43:22.976Z</time></trkpt><trkpt lat="46.01113537885638" lon="9.398693164573881"><ele>973.0</ele><time>2026-03-28T14:43:24.976Z</time></trkpt><trkpt lat="46.011078383690055" lon="9.398792611837889"><ele>973.0</ele><time>2026-03-28T14:43:27.976Z</time></trkpt><trkpt lat="46.01146921788626" lon="9.397932628667645"><ele>973.0</ele><time>2026-03-28T14:43:28.976Z</time></trkpt><trkpt lat="46.01143303294436" lon="9.398011001746559"><ele>973.0</ele><time>2026-03-28T14:43:29.976Z</time></trkpt><trkpt lat="46.01135013568041" lon="9.398166015868153"><ele>973.0</ele><time>2026-03-28T14:43:31.976Z</time></trkpt><trkpt lat="46.011339795827126" lon="9.398051654535557"><ele>973.0</ele><time>2026-03-28T14:43:33.976Z</time></trkpt><trkpt lat="46.01126508258552" lon="9.398196526437482"><ele>973.0</ele><time>2026-03-28T14:43:37.976Z</time></trkpt><trkpt lat="46.01122942827579" lon="9.398319876386553"><ele>973.0</ele><time>2026-03-28T14:43:39.976Z</time></trkpt><trkpt lat="46.0111431616133" lon="9.398470596036232"><ele>973.0</ele><time>2026-03-28T14:43:43.976Z</time></trkpt><trkpt lat="46.011176183726" lon="9.398667401968437"><ele>973.0</ele><time>2026-03-28T14:43:45.976Z</time></trkpt><trkpt lat="46.01119508166062" lon="9.39875986306535"><ele>973.0</ele><time>2026-03-28T14:43:46.976Z</time></trkpt><trkpt lat="46.01121372849379" lon="9.39885989721557"><ele>973.0</ele><time>2026-03-28T14:43:47.976Z</time></trkpt><trkpt lat="46.01126717983824" lon="9.399020611141104"><ele>975.4999999999999</ele><time>2026-03-28T14:43:49.976Z</time></trkpt><trkpt lat="46.01130148389779" lon="9.399110343105853"><ele>978.0</ele><time>2026-03-28T14:43:50.976Z</time></trkpt><trkpt lat="46.01131742216961" lon="9.39921592551899"><ele>980.5</ele><time>2026-03-28T14:43:51.976Z</time></trkpt><trkpt lat="46.01128250813918" lon="9.399345233366537"><ele>983.0</ele><time>2026-03-28T14:43:53.977Z</time></trkpt><trkpt lat="46.01129362082503" lon="9.399451117467652"><ele>985.4999999999999</ele><time>2026-03-28T14:43:55.977Z</time></trkpt><trkpt lat="46.01128569640458" lon="9.399576515960906"><ele>988.0</ele><time>2026-03-28T14:43:57.977Z</time></trkpt><trkpt lat="46.011262061432994" lon="9.399674776674825"><ele>989.6666666666666</ele><time>2026-03-28T14:43:59.978Z</time></trkpt><trkpt lat="46.01126408551165" lon="9.39980531869564"><ele>991.3333333333333</ele><time>2026-03-28T14:44:03.977Z</time></trkpt><trkpt lat="46.011279226621376" lon="9.39998129658929"><ele>993.0</ele><time>2026-03-28T14:44:11.978Z</time></trkpt><trkpt lat="46.01126219998084" lon="9.40007028867784"><ele>994.6666666666667</ele><time>2026-03-28T14:44:14.977Z</time></trkpt><trkpt lat="46.01122924253156" lon="9.400153731430375"><ele>996.3333333333334</ele><time>2026-03-28T14:44:19.977Z</time></trkpt><trkpt lat="46.01122189830385" lon="9.400260031579231"><ele>998.0</ele><time>2026-03-28T14:44:24.977Z</time></trkpt><trkpt lat="46.01116888845464" lon="9.400370378156344"><ele>998.0</ele><time>2026-03-28T14:44:30.977Z</time></trkpt><trkpt lat="46.01116270448983" lon="9.400468828163692"><ele>998.0</ele><time>2026-03-28T14:44:32.977Z</time></trkpt><trkpt lat="46.01114001055802" lon="9.400612431344742"><ele>998.0</ele><time>2026-03-28T14:44:34.977Z</time></trkpt><trkpt lat="46.01112701548763" lon="9.400707772443358"><ele>998.0</ele><time>2026-03-28T14:44:36.977Z</time></trkpt><trkpt lat="46.01107537364782" lon="9.400796678581392"><ele>998.0</ele><time>2026-03-28T14:44:38.977Z</time></trkpt><trkpt lat="46.010836576119154" lon="9.401480933745049"><ele>992.2</ele><time>2026-03-28T14:44:40.977Z</time></trkpt><trkpt lat="46.010784977891646" lon="9.401556372402476"><ele>986.4</ele><time>2026-03-28T14:44:41.977Z</time></trkpt><trkpt lat="46.0107555358623" lon="9.401674110985903"><ele>980.6000000000001</ele><time>2026-03-28T14:44:42.977Z</time></trkpt><trkpt lat="46.010718386424394" lon="9.40180097488507"><ele>974.8000000000001</ele><time>2026-03-28T14:44:43.977Z</time></trkpt><trkpt lat="46.01061836917829" lon="9.40193109756117"><ele>969.0</ele><time>2026-03-28T14:44:45.977Z</time></trkpt><trkpt lat="46.010591708821025" lon="9.402052394796712"><ele>968.9999999999999</ele><time>2026-03-28T14:44:46.977Z</time></trkpt><trkpt lat="46.010552962896405" lon="9.40213168093313"><ele>969.0</ele><time>2026-03-28T14:44:47.977Z</time></trkpt><trkpt lat="46.01054033136994" lon="9.402234648962043"><ele>968.9999999999999</ele><time>2026-03-28T14:44:48.977Z</time></trkpt><trkpt lat="46.010541785377804" lon="9.402337773745511"><ele>968.9999999999999</ele><time>2026-03-28T14:44:49.977Z</time></trkpt><trkpt lat="46.010552916793934" lon="9.402437008813227"><ele>969.0</ele><time>2026-03-28T14:44:50.977Z</time></trkpt><trkpt lat="46.01056641701815" lon="9.402527120587452"><ele>968.9999999999999</ele><time>2026-03-28T14:44:51.977Z</time></trkpt><trkpt lat="46.01058241259067" lon="9.402623761071412"><ele>968.9999999999999</ele><time>2026-03-28T14:44:52.977Z</time></trkpt><trkpt lat="46.01058509828538" lon="9.402740867260931"><ele>971.2</ele><time>2026-03-28T14:44:53.977Z</time></trkpt><trkpt lat="46.010584103399694" lon="9.402849976982576"><ele>973.4000000000001</ele><time>2026-03-28T14:44:54.977Z</time></trkpt><trkpt lat="46.01058257100465" lon="9.40302037625442"><ele>975.6</ele><time>2026-03-28T14:44:56.977Z</time></trkpt><trkpt lat="46.01059160928811" lon="9.403135519297333"><ele>977.8</ele><time>2026-03-28T14:44:57.977Z</time></trkpt><trkpt lat="46.010615963359434" lon="9.403224194404798"><ele>980.0</ele><time>2026-03-28T14:44:58.977Z</time></trkpt><trkpt lat="46.01063653559544" lon="9.403411847124127"><ele>983.2</ele><time>2026-03-28T14:45:00.977Z</time></trkpt><trkpt lat="46.010650370770456" lon="9.403501166479359"><ele>986.4</ele><time>2026-03-28T14:45:01.977Z</time></trkpt><trkpt lat="46.01066048767535" lon="9.403624981447033"><ele>989.5999999999999</ele><time>2026-03-28T14:45:02.977Z</time></trkpt><trkpt lat="46.0106854762494" lon="9.40376812315804"><ele>992.8</ele><time>2026-03-28T14:45:03.977Z</time></trkpt><trkpt lat="46.01069258002464" lon="9.403935738676193"><ele>996.0</ele><time>2026-03-28T14:45:05.977Z</time></trkpt><trkpt lat="46.01068435590441" lon="9.404058817595136"><ele>1000.3333333333334</ele><time>2026-03-28T14:45:07.977Z</time></trkpt><trkpt lat="46.010625807105406" lon="9.404097521120942"><ele>1004.6666666666667</ele><time>2026-03-28T14:45:11.977Z</time></trkpt><trkpt lat="46.01055523006603" lon="9.404111777777409"><ele>1009.0</ele><time>2026-03-28T14:45:14.977Z</time></trkpt><trkpt lat="46.01047186956226" lon="9.404137905195231"><ele>1013.3333333333334</ele><time>2026-03-28T14:45:16.977Z</time></trkpt><trkpt lat="46.0104099213374" lon="9.404199317103563"><ele>1017.6666666666667</ele><time>2026-03-28T14:45:17.977Z</time></trkpt><trkpt lat="46.010322418068725" lon="9.404316792085856"><ele>1022.0</ele><time>2026-03-28T14:45:19.977Z</time></trkpt><trkpt lat="46.010255111038845" lon="9.404406759794092"><ele>1022.0</ele><time>2026-03-28T14:45:21.977Z</time></trkpt><trkpt lat="46.01021783092071" lon="9.404493698537722"><ele>1022.0</ele><time>2026-03-28T14:45:23.976Z</time></trkpt><trkpt lat="46.01015869813287" lon="9.404654022294125"><ele>1022.0</ele><time>2026-03-28T14:45:25.976Z</time></trkpt><trkpt lat="46.01010566702968" lon="9.404767909096178"><ele>1022.0</ele><time>2026-03-28T14:45:27.976Z</time></trkpt><trkpt lat="46.01002184727414" lon="9.404858034684505"><ele>1022.0</ele><time>2026-03-28T14:45:29.976Z</time></trkpt><trkpt lat="46.009959414663335" lon="9.40492095462193"><ele>1024.2857142857142</ele><time>2026-03-28T14:45:31.976Z</time></trkpt><trkpt lat="46.00992755846477" lon="9.405006197924362"><ele>1026.5714285714284</ele><time>2026-03-28T14:45:33.976Z</time></trkpt><trkpt lat="46.00995007640665" lon="9.405122103255119"><ele>1028.857142857143</ele><time>2026-03-28T14:45:37.976Z</time></trkpt><trkpt lat="46.00994139720458" lon="9.405216872579517"><ele>1031.142857142857</ele><time>2026-03-28T14:45:46.976Z</time></trkpt><trkpt lat="46.009943755325594" lon="9.405316578378175"><ele>1033.4285714285713</ele><time>2026-03-28T14:45:52.976Z</time></trkpt><trkpt lat="46.009996820770915" lon="9.405381561504676"><ele>1035.7142857142858</ele><time>2026-03-28T14:45:55.976Z</time></trkpt><trkpt lat="46.01006819188165" lon="9.40538669964303"><ele>1038.0</ele><time>2026-03-28T14:45:57.976Z</time></trkpt><trkpt lat="46.01011670598972" lon="9.405316317533538"><ele>1038.0</ele><time>2026-03-28T14:46:00.977Z</time></trkpt><trkpt lat="46.01019264940899" lon="9.405344570307884"><ele>1038.0</ele><time>2026-03-28T14:46:03.977Z</time></trkpt><trkpt lat="46.010237989744766" lon="9.40541469237068"><ele>1038.0</ele><time>2026-03-28T14:46:06.977Z</time></trkpt><trkpt lat="46.01029805665648" lon="9.405448418700184"><ele>1038.0</ele><time>2026-03-28T14:46:09.977Z</time></trkpt><trkpt lat="46.01037774081838" lon="9.405482764957268"><ele>1038.0</ele><time>2026-03-28T14:46:12.977Z</time></trkpt><trkpt lat="46.0104443705004" lon="9.405499714738792"><ele>1038.0</ele><time>2026-03-28T14:46:16.977Z</time></trkpt><trkpt lat="46.010500610928446" lon="9.405548796585741"><ele>1038.0</ele><time>2026-03-28T14:46:20.977Z</time></trkpt><trkpt lat="46.01055017162409" lon="9.405634661408925"><ele>1039.0</ele><time>2026-03-28T14:46:24.977Z</time></trkpt><trkpt lat="46.0106302133123" lon="9.405695737142537"><ele>1040.0</ele><time>2026-03-28T14:46:27.977Z</time></trkpt><trkpt lat="46.01067663860238" lon="9.405776444949161"><ele>1041.0</ele><time>2026-03-28T14:46:29.977Z</time></trkpt><trkpt lat="46.01071633591798" lon="9.405863225673235"><ele>1042.0</ele><time>2026-03-28T14:46:31.977Z</time></trkpt><trkpt lat="46.01075515847579" lon="9.405938498426304"><ele>1043.0</ele><time>2026-03-28T14:46:34.976Z</time></trkpt><trkpt lat="46.010793228236196" lon="9.40604000422111"><ele>1044.0</ele><time>2026-03-28T14:46:37.976Z</time></trkpt><trkpt lat="46.010849887829394" lon="9.406098687227106"><ele>1050.0</ele><time>2026-03-28T14:46:42.976Z</time></trkpt><trkpt lat="46.01098424744684" lon="9.406131028804822"><ele>1056.0</ele><time>2026-03-28T14:46:56.976Z</time></trkpt><trkpt lat="46.01109715310328" lon="9.40621297336685"><ele>1062.0</ele><time>2026-03-28T14:47:10.976Z</time></trkpt><trkpt lat="46.01111740610527" lon="9.406320730945634"><ele>1068.0</ele><time>2026-03-28T14:47:13.976Z</time></trkpt><trkpt lat="46.011102968480344" lon="9.406410101971327"><ele>1074.0</ele><time>2026-03-28T14:47:16.976Z</time></trkpt><trkpt lat="46.011086413250695" lon="9.406514157005304"><ele>1074.142857142857</ele><time>2026-03-28T14:47:19.976Z</time></trkpt><trkpt lat="46.01107559550863" lon="9.406605401772847"><ele>1074.2857142857142</ele><time>2026-03-28T14:47:21.976Z</time></trkpt><trkpt lat="46.01110055208674" lon="9.406694115236203"><ele>1074.4285714285716</ele><time>2026-03-28T14:47:26.976Z</time></trkpt><trkpt lat="46.011101759645626" lon="9.406797145431895"><ele>1074.5714285714284</ele><time>2026-03-28T14:47:30.976Z</time></trkpt><trkpt lat="46.011105201285396" lon="9.406904138755804"><ele>1074.7142857142858</ele><time>2026-03-28T14:47:42.976Z</time></trkpt><trkpt lat="46.01111392152845" lon="9.407006251184551"><ele>1074.857142857143</ele><time>2026-03-28T14:47:46.975Z</time></trkpt><trkpt lat="46.011147260843366" lon="9.407092430664342"><ele>1075.0</ele><time>2026-03-28T14:47:49.975Z</time></trkpt><trkpt lat="46.0111510470981" lon="9.40718779553501"><ele>1073.5</ele><time>2026-03-28T14:47:57.975Z</time></trkpt><trkpt lat="46.01106884377331" lon="9.407257378448"><ele>1072.0</ele><time>2026-03-28T14:48:01.975Z</time></trkpt><trkpt lat="46.01101958114434" lon="9.407337645440656"><ele>1070.5</ele><time>2026-03-28T14:48:04.977Z</time></trkpt><trkpt lat="46.0110289376408" lon="9.407436696208885"><ele>1069.0</ele><time>2026-03-28T14:48:05.977Z</time></trkpt><trkpt lat="46.01105837967656" lon="9.407521935810092"><ele>1067.5</ele><time>2026-03-28T14:48:06.977Z</time></trkpt><trkpt lat="46.0110146311132" lon="9.407630807619803"><ele>1066.0</ele><time>2026-03-28T14:48:10.977Z</time></trkpt><trkpt lat="46.01100418213684" lon="9.407721836264527"><ele>1066.0</ele><time>2026-03-28T14:48:13.977Z</time></trkpt><trkpt lat="46.01100402285114" lon="9.407846715059279"><ele>1066.0</ele><time>2026-03-28T14:48:16.977Z</time></trkpt><trkpt lat="46.011015684833744" lon="9.40796684179116"><ele>1066.0</ele><time>2026-03-28T14:48:19.976Z</time></trkpt><trkpt lat="46.01107642776565" lon="9.408051000656918"><ele>1066.0</ele><time>2026-03-28T14:48:23.976Z</time></trkpt><trkpt lat="46.01109609335889" lon="9.408140101753517"><ele>1066.0</ele><time>2026-03-28T14:48:29.976Z</time></trkpt><trkpt lat="46.01102597974866" lon="9.408143313050916"><ele>1066.0</ele><time>2026-03-28T14:48:36.976Z</time></trkpt><trkpt lat="46.010960906744465" lon="9.40821728981741"><ele>1068.0</ele><time>2026-03-28T14:48:40.976Z</time></trkpt><trkpt lat="46.01090448246167" lon="9.408290448012346"><ele>1070.0</ele><time>2026-03-28T14:48:44.976Z</time></trkpt><trkpt lat="46.010825053115106" lon="9.408336523872508"><ele>1072.0</ele><time>2026-03-28T14:48:48.976Z</time></trkpt><trkpt lat="46.010746294131174" lon="9.408389598211112"><ele>1074.0</ele><time>2026-03-28T14:48:51.976Z</time></trkpt><trkpt lat="46.01067371934247" lon="9.408454771487195"><ele>1076.0</ele><time>2026-03-28T14:48:55.976Z</time></trkpt><trkpt lat="46.010637026099054" lon="9.408534224490616"><ele>1078.0</ele><time>2026-03-28T14:48:58.976Z</time></trkpt><trkpt lat="46.010560134715625" lon="9.408633641325729"><ele>1075.8333333333333</ele><time>2026-03-28T14:49:03.976Z</time></trkpt><trkpt lat="46.01052096678158" lon="9.408754164541563"><ele>1073.6666666666665</ele><time>2026-03-28T14:49:06.976Z</time></trkpt><trkpt lat="46.010446340340806" lon="9.408831394938957"><ele>1071.5</ele><time>2026-03-28T14:49:09.975Z</time></trkpt><trkpt lat="46.01041703758484" lon="9.408915522546357"><ele>1069.3333333333333</ele><time>2026-03-28T14:49:12.975Z</time></trkpt><trkpt lat="46.01037168509798" lon="9.409010300777565"><ele>1067.1666666666667</ele><time>2026-03-28T14:49:15.975Z</time></trkpt><trkpt lat="46.01035253261288" lon="9.409107780051903"><ele>1065.0</ele><time>2026-03-28T14:49:19.975Z</time></trkpt><trkpt lat="46.01032153097783" lon="9.409195693769316"><ele>1065.0</ele><time>2026-03-28T14:49:25.975Z</time></trkpt><trkpt lat="46.010290954678915" lon="9.409280528100844"><ele>1065.0</ele><time>2026-03-28T14:49:29.975Z</time></trkpt><trkpt lat="46.010263888294986" lon="9.409375491241939"><ele>1065.0</ele><time>2026-03-28T14:49:32.975Z</time></trkpt><trkpt lat="46.0102614832612" lon="9.40950327703078"><ele>1065.0</ele><time>2026-03-28T14:49:35.975Z</time></trkpt><trkpt lat="46.010216120136704" lon="9.40958356936597"><ele>1065.0</ele><time>2026-03-28T14:49:38.976Z</time></trkpt><trkpt lat="46.010194723455996" lon="9.409685613798215"><ele>1065.0</ele><time>2026-03-28T14:49:41.976Z</time></trkpt><trkpt lat="46.01017391898374" lon="9.409773865151354"><ele>1065.0</ele><time>2026-03-28T14:49:44.976Z</time></trkpt><trkpt lat="46.01013984924271" lon="9.409883665381516"><ele>1067.7142857142858</ele><time>2026-03-28T14:49:48.976Z</time></trkpt><trkpt lat="46.01010551114423" lon="9.409962683674566"><ele>1070.4285714285713</ele><time>2026-03-28T14:49:51.976Z</time></trkpt><trkpt lat="46.01008729609966" lon="9.410056406291444"><ele>1073.142857142857</ele><time>2026-03-28T14:49:53.976Z</time></trkpt><trkpt lat="46.01006167353437" lon="9.41014021468424"><ele>1075.857142857143</ele><time>2026-03-28T14:49:56.976Z</time></trkpt><trkpt lat="46.01003660668754" lon="9.41022469513794"><ele>1078.5714285714287</ele><time>2026-03-28T14:49:59.976Z</time></trkpt><trkpt lat="46.01003115367512" lon="9.410333060883987"><ele>1081.2857142857142</ele><time>2026-03-28T14:50:03.976Z</time></trkpt><trkpt lat="46.00998846658637" lon="9.41040643464796"><ele>1084.0</ele><time>2026-03-28T14:50:07.976Z</time></trkpt><trkpt lat="46.00940709797652" lon="9.411844612196253"><ele>1084.0</ele><time>2026-03-28T14:50:08.976Z</time></trkpt><trkpt lat="46.00935019173198" lon="9.41193701422814"><ele>1084.0</ele><time>2026-03-28T14:50:11.978Z</time></trkpt><trkpt lat="46.00933201203047" lon="9.412034609257471"><ele>1084.0</ele><time>2026-03-28T14:50:13.978Z</time></trkpt><trkpt lat="46.00931882648931" lon="9.412147906592503"><ele>1084.0</ele><time>2026-03-28T14:50:16.978Z</time></trkpt><trkpt lat="46.009301319584985" lon="9.412265504139869"><ele>1084.0</ele><time>2026-03-28T14:50:19.978Z</time></trkpt><trkpt lat="46.00929500205251" lon="9.412355930585564"><ele>1084.0</ele><time>2026-03-28T14:50:21.978Z</time></trkpt><trkpt lat="46.009297164595424" lon="9.412467736753197"><ele>1090.0</ele><time>2026-03-28T14:50:24.978Z</time></trkpt><trkpt lat="46.009298336359066" lon="9.412571012138628"><ele>1096.0</ele><time>2026-03-28T14:50:27.978Z</time></trkpt><trkpt lat="46.009325168214545" lon="9.412680697450705"><ele>1102.0</ele><time>2026-03-28T14:50:30.978Z</time></trkpt><trkpt lat="46.00925983972414" lon="9.412844891171902"><ele>1108.0</ele><time>2026-03-28T14:50:32.978Z</time></trkpt><trkpt lat="46.00929133501098" lon="9.412934402542284"><ele>1114.0</ele><time>2026-03-28T14:50:46.978Z</time></trkpt><trkpt lat="46.009198294707964" lon="9.412882040381762"><ele>1114.0</ele><time>2026-03-28T14:50:50.978Z</time></trkpt><trkpt lat="46.00909717511412" lon="9.412908600139652"><ele>1114.0</ele><time>2026-03-28T14:50:55.978Z</time></trkpt><trkpt lat="46.00901308869143" lon="9.412941620920062"><ele>1114.0</ele><time>2026-03-28T14:50:58.978Z</time></trkpt><trkpt lat="46.00891813378985" lon="9.412942318582811"><ele>1114.0</ele><time>2026-03-28T14:51:01.978Z</time></trkpt><trkpt lat="46.0088507283819" lon="9.412926415574047"><ele>1114.0</ele><time>2026-03-28T14:51:03.978Z</time></trkpt><trkpt lat="46.00878802235385" lon="9.412891941594998"><ele>1114.0</ele><time>2026-03-28T14:51:05.978Z</time></trkpt><trkpt lat="46.00869249820805" lon="9.412869583925406"><ele>1114.0</ele><time>2026-03-28T14:51:08.977Z</time></trkpt><trkpt lat="46.00862497136076" lon="9.412852544963199"><ele>1114.0</ele><time>2026-03-28T14:51:10.977Z</time></trkpt><trkpt lat="46.00852603630671" lon="9.412808739051707"><ele>1114.0</ele><time>2026-03-28T14:51:12.977Z</time></trkpt><trkpt lat="46.00844614520838" lon="9.412766648328368"><ele>1114.0</ele><time>2026-03-28T14:51:14.977Z</time></trkpt><trkpt lat="46.00837642422783" lon="9.41277565523065"><ele>1114.0</ele><time>2026-03-28T14:51:15.977Z</time></trkpt><trkpt lat="46.008321729043345" lon="9.412727106191838"><ele>1114.0</ele><time>2026-03-28T14:51:18.977Z</time></trkpt><trkpt lat="46.0082622108304" lon="9.41267581668201"><ele>1112.3333333333333</ele><time>2026-03-28T14:51:20.977Z</time></trkpt><trkpt lat="46.00817672933125" lon="9.412614803398375"><ele>1110.6666666666665</ele><time>2026-03-28T14:51:24.977Z</time></trkpt><trkpt lat="46.00810457221025" lon="9.412547112828058"><ele>1109.0</ele><time>2026-03-28T14:51:27.977Z</time></trkpt><trkpt lat="46.00802865277212" lon="9.41247943954923"><ele>1107.3333333333333</ele><time>2026-03-28T14:51:30.977Z</time></trkpt><trkpt lat="46.00797374354726" lon="9.412424564610935"><ele>1105.6666666666667</ele><time>2026-03-28T14:51:33.977Z</time></trkpt><trkpt lat="46.00792183568225" lon="9.41236453966922"><ele>1104.0</ele><time>2026-03-28T14:51:35.977Z</time></trkpt><trkpt lat="46.00786564686108" lon="9.412321838728335"><ele>1104.0</ele><time>2026-03-28T14:51:38.977Z</time></trkpt><trkpt lat="46.0077990281307" lon="9.412259286460058"><ele>1104.0</ele><time>2026-03-28T14:51:44.977Z</time></trkpt><trkpt lat="46.00773904212822" lon="9.41222791372158"><ele>1104.0</ele><time>2026-03-28T14:51:47.977Z</time></trkpt><trkpt lat="46.00766152303614" lon="9.412229726888807"><ele>1104.0</ele><time>2026-03-28T14:51:51.977Z</time></trkpt><trkpt lat="46.00758533504882" lon="9.412243983114696"><ele>1104.0</ele><time>2026-03-28T14:51:55.977Z</time></trkpt><trkpt lat="46.007512959312486" lon="9.412254153718616"><ele>1104.0</ele><time>2026-03-28T14:51:58.977Z</time></trkpt><trkpt lat="46.00744642905438" lon="9.412289511931483"><ele>1104.0</ele><time>2026-03-28T14:52:01.977Z</time></trkpt><trkpt lat="46.00737002869242" lon="9.412342765978096"><ele>1093.2</ele><time>2026-03-28T14:52:04.977Z</time></trkpt><trkpt lat="46.00729291232249" lon="9.41229198490687"><ele>1082.4</ele><time>2026-03-28T14:52:07.977Z</time></trkpt><trkpt lat="46.00724300121798" lon="9.412389678338148"><ele>1071.6</ele><time>2026-03-28T14:52:10.977Z</time></trkpt><trkpt lat="46.007220901989996" lon="9.412476537742101"><ele>1060.8</ele><time>2026-03-28T14:52:14.977Z</time></trkpt><trkpt lat="46.00707794243439" lon="9.412498234807117"><ele>1050.0</ele><time>2026-03-28T14:52:34.977Z</time></trkpt><trkpt lat="46.007022795700415" lon="9.412427250053948"><ele>1050.0</ele><time>2026-03-28T14:52:36.977Z</time></trkpt><trkpt lat="46.00698525355518" lon="9.41233551280321"><ele>1050.0</ele><time>2026-03-28T14:52:40.977Z</time></trkpt><trkpt lat="46.00691995920041" lon="9.412247611083039"><ele>1050.0</ele><time>2026-03-28T14:52:43.977Z</time></trkpt><trkpt lat="46.00686225085157" lon="9.412184645559021"><ele>1050.0</ele><time>2026-03-28T14:52:52.977Z</time></trkpt><trkpt lat="46.006871934882554" lon="9.412082361746519"><ele>1050.0</ele><time>2026-03-28T14:52:55.977Z</time></trkpt><trkpt lat="46.00686930218177" lon="9.41198985792308"><ele>1050.0</ele><time>2026-03-28T14:52:57.977Z</time></trkpt><trkpt lat="46.006864174997034" lon="9.411864184209259"><ele>1049.3333333333333</ele><time>2026-03-28T14:53:00.977Z</time></trkpt><trkpt lat="46.00685895253245" lon="9.411760625294635"><ele>1048.6666666666667</ele><time>2026-03-28T14:53:06.977Z</time></trkpt><trkpt lat="46.0068250040927" lon="9.41167125872432"><ele>1048.0</ele><time>2026-03-28T14:53:11.977Z</time></trkpt><trkpt lat="46.006838361459614" lon="9.411582501131507"><ele>1047.3333333333335</ele><time>2026-03-28T14:53:13.977Z</time></trkpt><trkpt lat="46.006800470334454" lon="9.411457963754955"><ele>1046.6666666666667</ele><time>2026-03-28T14:53:16.977Z</time></trkpt><trkpt lat="46.006777145299964" lon="9.411355391947726"><ele>1046.0</ele><time>2026-03-28T14:53:19.977Z</time></trkpt><trkpt lat="46.00676999139042" lon="9.411246010938394"><ele>1042.9999999999998</ele><time>2026-03-28T14:53:22.977Z</time></trkpt><trkpt lat="46.006747425582354" lon="9.411160445844393"><ele>1040.0</ele><time>2026-03-28T14:53:24.977Z</time></trkpt><trkpt lat="46.00676870207627" lon="9.411064430938609"><ele>1037.0</ele><time>2026-03-28T14:53:28.977Z</time></trkpt><trkpt lat="46.006838931808126" lon="9.411032208146857"><ele>1034.0</ele><time>2026-03-28T14:53:31.977Z</time></trkpt><trkpt lat="46.00685016526514" lon="9.410936965026261"><ele>1031.0</ele><time>2026-03-28T14:53:35.977Z</time></trkpt><trkpt lat="46.00685826219344" lon="9.410828057185581"><ele>1027.9999999999998</ele><time>2026-03-28T14:53:41.977Z</time></trkpt><trkpt lat="46.00691911835179" lon="9.41076246382582"><ele>1025.0</ele><time>2026-03-28T14:53:46.976Z</time></trkpt><trkpt lat="46.00687582105625" lon="9.410662280122196"><ele>1024.9999999999998</ele><time>2026-03-28T14:53:49.976Z</time></trkpt><trkpt lat="46.006811644899685" lon="9.410614032943522"><ele>1025.0</ele><time>2026-03-28T14:53:53.976Z</time></trkpt><trkpt lat="46.00673400038421" lon="9.410587357662868"><ele>1025.0</ele><time>2026-03-28T14:53:57.976Z</time></trkpt><trkpt lat="46.006651710531" lon="9.410575768713933"><ele>1025.0</ele><time>2026-03-28T14:54:02.976Z</time></trkpt><trkpt lat="46.00659366906842" lon="9.410529805102843"><ele>1025.0</ele><time>2026-03-28T14:54:06.976Z</time></trkpt><trkpt lat="46.00658758496306" lon="9.41042139582248"><ele>1024.9999999999998</ele><time>2026-03-28T14:54:10.976Z</time></trkpt><trkpt lat="46.00660824594082" lon="9.410335345943516"><ele>1025.0</ele><time>2026-03-28T14:54:14.976Z</time></trkpt><trkpt lat="46.00663515405898" lon="9.410236991478179"><ele>1013.8571428571427</ele><time>2026-03-28T14:54:19.976Z</time></trkpt><trkpt lat="46.00657267956295" lon="9.410193231353295"><ele>1002.7142857142857</ele><time>2026-03-28T14:54:23.978Z</time></trkpt><trkpt lat="46.00650141382246" lon="9.410150482976485"><ele>991.5714285714284</ele><time>2026-03-28T14:54:27.977Z</time></trkpt><trkpt lat="46.00642913477901" lon="9.410120605285304"><ele>980.4285714285713</ele><time>2026-03-28T14:54:32.978Z</time></trkpt><trkpt lat="46.006362349925006" lon="9.410053528481809"><ele>969.2857142857142</ele><time>2026-03-28T14:54:38.978Z</time></trkpt><trkpt lat="46.00634246640723" lon="9.409952766440538"><ele>958.1428571428571</ele><time>2026-03-28T14:54:42.978Z</time></trkpt><trkpt lat="46.00633146749604" lon="9.409857903117011"><ele>947.0</ele><time>2026-03-28T14:54:46.978Z</time></trkpt><trkpt lat="46.00627415637138" lon="9.409794323050688"><ele>947.0</ele><time>2026-03-28T14:54:50.978Z</time></trkpt><trkpt lat="46.006227676358904" lon="9.409715809850965"><ele>946.9999999999999</ele><time>2026-03-28T14:54:53.977Z</time></trkpt><trkpt lat="46.0061937634336" lon="9.409629713595006"><ele>947.0</ele><time>2026-03-28T14:54:56.977Z</time></trkpt><trkpt lat="46.00615358192937" lon="9.409549912931578"><ele>947.0</ele><time>2026-03-28T14:54:59.977Z</time></trkpt><trkpt lat="46.00615188788515" lon="9.40945416034499"><ele>946.9999999999999</ele><time>2026-03-28T14:55:03.977Z</time></trkpt><trkpt lat="46.006202091134945" lon="9.409365876133824"><ele>947.0</ele><time>2026-03-28T14:55:08.977Z</time></trkpt><trkpt lat="46.00617353484311" lon="9.409278797457645"><ele>947.0</ele><time>2026-03-28T14:55:12.977Z</time></trkpt><trkpt lat="46.00610889356218" lon="9.409237792749398"><ele>946.5714285714286</ele><time>2026-03-28T14:55:17.977Z</time></trkpt><trkpt lat="46.00605228768023" lon="9.40919590537099"><ele>946.1428571428571</ele><time>2026-03-28T14:55:20.977Z</time></trkpt><trkpt lat="46.00599825087984" lon="9.409122444474507"><ele>945.7142857142857</ele><time>2026-03-28T14:55:24.977Z</time></trkpt><trkpt lat="46.00596115584421" lon="9.40903998131316"><ele>945.2857142857142</ele><time>2026-03-28T14:55:29.977Z</time></trkpt><trkpt lat="46.00589222277178" lon="9.40901412066117"><ele>944.8571428571429</ele><time>2026-03-28T14:55:32.977Z</time></trkpt><trkpt lat="46.00583877752136" lon="9.408956149959739"><ele>944.4285714285713</ele><time>2026-03-28T14:55:36.977Z</time></trkpt><trkpt lat="46.005808027827044" lon="9.40887254286848"><ele>944.0</ele><time>2026-03-28T14:55:43.977Z</time></trkpt><trkpt lat="46.00581210275556" lon="9.408774699026507"><ele>942.5714285714286</ele><time>2026-03-28T14:55:48.977Z</time></trkpt><trkpt lat="46.005832302610294" lon="9.408687037403796"><ele>941.1428571428571</ele><time>2026-03-28T14:55:53.977Z</time></trkpt><trkpt lat="46.005857333643846" lon="9.40859826697368"><ele>939.7142857142857</ele><time>2026-03-28T14:56:08.976Z</time></trkpt><trkpt lat="46.00581894238139" lon="9.408524915001221"><ele>938.2857142857142</ele><time>2026-03-28T14:56:12.976Z</time></trkpt><trkpt lat="46.00578583835323" lon="9.40844153760167"><ele>936.8571428571429</ele><time>2026-03-28T14:56:16.976Z</time></trkpt><trkpt lat="46.005748532599" lon="9.408357040278622"><ele>935.4285714285713</ele><time>2026-03-28T14:56:19.976Z</time></trkpt><trkpt lat="46.00569036015084" lon="9.408301604149877"><ele>933.9999999999999</ele><time>2026-03-28T14:56:22.976Z</time></trkpt><trkpt lat="46.00564999190691" lon="9.408216239024403"><ele>928.5714285714284</ele><time>2026-03-28T14:56:26.976Z</time></trkpt><trkpt lat="46.0056620951373" lon="9.408120385307273"><ele>923.1428571428571</ele><time>2026-03-28T14:56:31.977Z</time></trkpt><trkpt lat="46.005693517348604" lon="9.408038466647628"><ele>917.7142857142857</ele><time>2026-03-28T14:56:36.977Z</time></trkpt><trkpt lat="46.005633578209505" lon="9.407964254500863"><ele>912.2857142857142</ele><time>2026-03-28T14:56:39.977Z</time></trkpt><trkpt lat="46.00557065388153" lon="9.407909032892258"><ele>906.8571428571429</ele><time>2026-03-28T14:56:43.977Z</time></trkpt><trkpt lat="46.00553429889161" lon="9.40783141338306"><ele>901.4285714285714</ele><time>2026-03-28T14:56:49.977Z</time></trkpt><trkpt lat="46.005541674162814" lon="9.407736991272305"><ele>896.0</ele><time>2026-03-28T14:56:55.977Z</time></trkpt><trkpt lat="46.00556450187074" lon="9.407650832362316"><ele>894.2857142857143</ele><time>2026-03-28T14:57:02.977Z</time></trkpt><trkpt lat="46.00555136685855" lon="9.407559237186296"><ele>892.5714285714286</ele><time>2026-03-28T14:57:06.977Z</time></trkpt><trkpt lat="46.005476343516534" lon="9.40751206009622"><ele>890.8571428571429</ele><time>2026-03-28T14:57:11.977Z</time></trkpt><trkpt lat="46.00540768193912" lon="9.407470947001858"><ele>889.1428571428571</ele><time>2026-03-28T14:57:16.977Z</time></trkpt><trkpt lat="46.00534517817419" lon="9.407413023225981"><ele>887.4285714285714</ele><time>2026-03-28T14:57:22.977Z</time></trkpt><trkpt lat="46.00534508313106" lon="9.407315657384887"><ele>885.7142857142858</ele><time>2026-03-28T14:57:27.977Z</time></trkpt><trkpt lat="46.005339658568495" lon="9.407211074715594"><ele>884.0</ele><time>2026-03-28T14:57:34.977Z</time></trkpt><trkpt lat="46.00533356747828" lon="9.407067919022811"><ele>881.7142857142858</ele><time>2026-03-28T14:57:51.977Z</time></trkpt><trkpt lat="46.005309696836896" lon="9.406981175935448"><ele>879.4285714285714</ele><time>2026-03-28T14:57:56.976Z</time></trkpt><trkpt lat="46.00530008381989" lon="9.406882836156512"><ele>877.1428571428571</ele><time>2026-03-28T14:58:13.976Z</time></trkpt><trkpt lat="46.0053128385254" lon="9.406768765155165"><ele>874.8571428571429</ele><time>2026-03-28T14:58:18.976Z</time></trkpt><trkpt lat="46.005302325652075" lon="9.40667091780455"><ele>872.5714285714286</ele><time>2026-03-28T14:58:22.976Z</time></trkpt><trkpt lat="46.0053584229491" lon="9.406618303130953"><ele>870.2857142857143</ele><time>2026-03-28T14:58:26.976Z</time></trkpt><trkpt lat="46.00531559980658" lon="9.40651589525129"><ele>868.0</ele><time>2026-03-28T14:58:31.976Z</time></trkpt><trkpt lat="46.00525587156389" lon="9.40644045318133"><ele>868.0</ele><time>2026-03-28T14:58:35.977Z</time></trkpt><trkpt lat="46.005210262827894" lon="9.406373115015322"><ele>868.0</ele><time>2026-03-28T14:58:42.977Z</time></trkpt><trkpt lat="46.0051720734324" lon="9.40628256297293"><ele>868.0</ele><time>2026-03-28T14:58:57.978Z</time></trkpt><trkpt lat="46.00513340900765" lon="9.406204700199401"><ele>868.0</ele><time>2026-03-28T14:59:06.977Z</time></trkpt><trkpt lat="46.005131800943566" lon="9.40610876731141"><ele>868.0</ele><time>2026-03-28T14:59:10.977Z</time></trkpt><trkpt lat="46.005135306111775" lon="9.406004271775537"><ele>868.0</ele><time>2026-03-28T14:59:14.977Z</time></trkpt><trkpt lat="46.00507441634555" lon="9.40596475484432"><ele>868.0</ele><time>2026-03-28T14:59:20.977Z</time></trkpt><trkpt lat="46.00501377520694" lon="9.405909598211666"><ele>865.7142857142857</ele><time>2026-03-28T14:59:26.977Z</time></trkpt><trkpt lat="46.00500188587588" lon="9.405814732673534"><ele>863.4285714285714</ele><time>2026-03-28T14:59:31.977Z</time></trkpt><trkpt lat="46.00498215888162" lon="9.4057219946901"><ele>861.1428571428571</ele><time>2026-03-28T14:59:34.977Z</time></trkpt><trkpt lat="46.00498064893784" lon="9.405626770790679"><ele>858.8571428571429</ele><time>2026-03-28T14:59:37.977Z</time></trkpt><trkpt lat="46.00497589008245" lon="9.405534507932925"><ele>856.5714285714286</ele><time>2026-03-28T14:59:40.977Z</time></trkpt><trkpt lat="46.00495497413087" lon="9.40543028759752"><ele>854.2857142857142</ele><time>2026-03-28T14:59:43.977Z</time></trkpt><trkpt lat="46.00487897429212" lon="9.405345560181267"><ele>852.0</ele><time>2026-03-28T14:59:47.977Z</time></trkpt><trkpt lat="46.004859241490074" lon="9.405240846902005"><ele>847.9999999999999</ele><time>2026-03-28T14:59:50.977Z</time></trkpt><trkpt lat="46.0047943458139" lon="9.405226868035419"><ele>844.0</ele><time>2026-03-28T14:59:55.977Z</time></trkpt><trkpt lat="46.004752673602816" lon="9.405311836250242"><ele>840.0</ele><time>2026-03-28T15:00:00.977Z</time></trkpt><trkpt lat="46.00467801140091" lon="9.405338227933695"><ele>836.0</ele><time>2026-03-28T15:00:04.977Z</time></trkpt><trkpt lat="46.00464226628193" lon="9.405240615412715"><ele>832.0</ele><time>2026-03-28T15:00:08.977Z</time></trkpt><trkpt lat="46.00460839929708" lon="9.405153648141491"><ele>827.9999999999999</ele><time>2026-03-28T15:00:13.977Z</time></trkpt><trkpt lat="46.004548561852204" lon="9.405188483680174"><ele>824.0</ele><time>2026-03-28T15:00:19.976Z</time></trkpt><trkpt lat="46.0044997464097" lon="9.405252442738002"><ele>824.0000000000001</ele><time>2026-03-28T15:00:24.976Z</time></trkpt><trkpt lat="46.00442036224588" lon="9.405223140763129"><ele>824.0</ele><time>2026-03-28T15:00:28.976Z</time></trkpt><trkpt lat="46.00435665431513" lon="9.405201633880829"><ele>824.0</ele><time>2026-03-28T15:01:48.976Z</time></trkpt><trkpt lat="46.00433405507983" lon="9.405107992147043"><ele>824.0</ele><time>2026-03-28T15:01:52.976Z</time></trkpt><trkpt lat="46.00428662191204" lon="9.405017562737795"><ele>824.0000000000001</ele><time>2026-03-28T15:01:58.976Z</time></trkpt><trkpt lat="46.00421090241425" lon="9.404957925520339"><ele>824.0</ele><time>2026-03-28T15:02:01.976Z</time></trkpt><trkpt lat="46.00414032003836" lon="9.40490212911862"><ele>825.5714285714286</ele><time>2026-03-28T15:02:11.976Z</time></trkpt><trkpt lat="46.004091717578646" lon="9.404816765914001"><ele>827.1428571428571</ele><time>2026-03-28T15:02:15.976Z</time></trkpt><trkpt lat="46.00405564489911" lon="9.40472116469206"><ele>828.7142857142858</ele><time>2026-03-28T15:02:21.976Z</time></trkpt><trkpt lat="46.00401485283584" lon="9.404639401968177"><ele>830.2857142857142</ele><time>2026-03-28T15:02:25.976Z</time></trkpt><trkpt lat="46.00396456407437" lon="9.40456827804125"><ele>831.8571428571429</ele><time>2026-03-28T15:02:29.975Z</time></trkpt><trkpt lat="46.00391404475139" lon="9.404489611335418"><ele>833.4285714285714</ele><time>2026-03-28T15:02:31.975Z</time></trkpt><trkpt lat="46.00387199169565" lon="9.404402301338614"><ele>835.0</ele><time>2026-03-28T15:02:35.975Z</time></trkpt><trkpt lat="46.00385442259405" lon="9.404314994596989"><ele>834.9999999999999</ele><time>2026-03-28T15:02:40.975Z</time></trkpt><trkpt lat="46.00384212663264" lon="9.404217167153192"><ele>835.0</ele><time>2026-03-28T15:03:14.977Z</time></trkpt><trkpt lat="46.00382209969948" lon="9.404112688291729"><ele>835.0</ele><time>2026-03-28T15:03:20.977Z</time></trkpt><trkpt lat="46.00385270121884" lon="9.404026617256541"><ele>835.0</ele><time>2026-03-28T15:03:24.977Z</time></trkpt><trkpt lat="46.00381942253423" lon="9.403908653562834"><ele>834.9999999999999</ele><time>2026-03-28T15:03:28.977Z</time></trkpt><trkpt lat="46.00374913346468" lon="9.403865222505848"><ele>835.0</ele><time>2026-03-28T15:03:33.977Z</time></trkpt><trkpt lat="46.003674976675946" lon="9.403841682028704"><ele>834.4285714285714</ele><time>2026-03-28T15:03:37.977Z</time></trkpt><trkpt lat="46.00362602358784" lon="9.403757201999712"><ele>833.8571428571429</ele><time>2026-03-28T15:03:40.976Z</time></trkpt><trkpt lat="46.00356180581771" lon="9.403729168478257"><ele>833.2857142857142</ele><time>2026-03-28T15:03:43.976Z</time></trkpt><trkpt lat="46.003525030528685" lon="9.403645757552061"><ele>832.7142857142858</ele><time>2026-03-28T15:03:47.976Z</time></trkpt><trkpt lat="46.00348853616793" lon="9.403549787575232"><ele>832.1428571428571</ele><time>2026-03-28T15:03:53.976Z</time></trkpt><trkpt lat="46.00342102018126" lon="9.403541278783813"><ele>831.5714285714286</ele><time>2026-03-28T15:03:56.976Z</time></trkpt><trkpt lat="46.00335656601948" lon="9.403554919952635"><ele>831.0</ele><time>2026-03-28T15:04:01.976Z</time></trkpt><trkpt lat="46.003289588650794" lon="9.40357033973089"><ele>837.9999999999999</ele><time>2026-03-28T15:04:04.976Z</time></trkpt><trkpt lat="46.003252699075944" lon="9.403658478872984"><ele>845.0</ele><time>2026-03-28T15:04:09.976Z</time></trkpt><trkpt lat="46.003193533766506" lon="9.403702507548829"><ele>852.0</ele><time>2026-03-28T15:04:13.976Z</time></trkpt><trkpt lat="46.003167391588526" lon="9.403790709605099"><ele>859.0</ele><time>2026-03-28T15:04:16.976Z</time></trkpt><trkpt lat="46.00310653127194" lon="9.403738739222039"><ele>866.0</ele><time>2026-03-28T15:04:20.976Z</time></trkpt><trkpt lat="46.00308626626325" lon="9.403650107661004"><ele>872.9999999999999</ele><time>2026-03-28T15:04:27.976Z</time></trkpt><trkpt lat="46.00303384647321" lon="9.403582064182316"><ele>880.0</ele><time>2026-03-28T15:04:31.976Z</time></trkpt><trkpt lat="46.003000314403025" lon="9.403487577355685"><ele>879.9999999999999</ele><time>2026-03-28T15:04:40.976Z</time></trkpt><trkpt lat="46.0029779690597" lon="9.403385144788558"><ele>880.0</ele><time>2026-03-28T15:04:43.976Z</time></trkpt><trkpt lat="46.00295866744173" lon="9.403288558114618"><ele>880.0</ele><time>2026-03-28T15:04:46.976Z</time></trkpt><trkpt lat="46.00300462780704" lon="9.40319689614412"><ele>880.0</ele><time>2026-03-28T15:04:49.976Z</time></trkpt><trkpt lat="46.003012070377586" lon="9.403100546766993"><ele>879.9999999999999</ele><time>2026-03-28T15:04:52.977Z</time></trkpt><trkpt lat="46.002992169997704" lon="9.403009357297316"><ele>880.0</ele><time>2026-03-28T15:04:54.977Z</time></trkpt><trkpt lat="46.00302647018983" lon="9.40282699177646"><ele>876.6666666666666</ele><time>2026-03-28T15:05:10.976Z</time></trkpt><trkpt lat="46.00303467841915" lon="9.402688819186523"><ele>873.3333333333333</ele><time>2026-03-28T15:05:22.976Z</time></trkpt><trkpt lat="46.002976760004195" lon="9.402596521304519"><ele>870.0</ele><time>2026-03-28T15:05:25.976Z</time></trkpt><trkpt lat="46.0029836958849" lon="9.402493068911747"><ele>866.6666666666667</ele><time>2026-03-28T15:05:29.976Z</time></trkpt><trkpt lat="46.0029571545149" lon="9.402377396165397"><ele>863.3333333333334</ele><time>2026-03-28T15:05:33.976Z</time></trkpt><trkpt lat="46.00294870041952" lon="9.402283587474173"><ele>860.0</ele><time>2026-03-28T15:05:37.976Z</time></trkpt><trkpt lat="46.00294832567145" lon="9.402186350271402"><ele>855.6666666666667</ele><time>2026-03-28T15:05:40.976Z</time></trkpt><trkpt lat="46.00293784778478" lon="9.402060692293277"><ele>851.3333333333334</ele><time>2026-03-28T15:05:43.976Z</time></trkpt><trkpt lat="46.00294395214588" lon="9.40195838037619"><ele>847.0</ele><time>2026-03-28T15:05:47.976Z</time></trkpt><trkpt lat="46.00294190511033" lon="9.401857620512644"><ele>842.6666666666667</ele><time>2026-03-28T15:05:51.976Z</time></trkpt><trkpt lat="46.00294857404313" lon="9.401730641270792"><ele>838.3333333333334</ele><time>2026-03-28T15:05:55.976Z</time></trkpt><trkpt lat="46.00292653312461" lon="9.401612045903956"><ele>834.0</ele><time>2026-03-28T15:05:59.976Z</time></trkpt><trkpt lat="46.0028985170799" lon="9.401493303289962"><ele>834.0</ele><time>2026-03-28T15:06:02.976Z</time></trkpt><trkpt lat="46.002884422144255" lon="9.401392464066486"><ele>834.0</ele><time>2026-03-28T15:06:05.976Z</time></trkpt><trkpt lat="46.00288726003118" lon="9.401294670175778"><ele>834.0</ele><time>2026-03-28T15:06:08.976Z</time></trkpt><trkpt lat="46.00283777303339" lon="9.401233840837321"><ele>834.0</ele><time>2026-03-28T15:06:10.976Z</time></trkpt><trkpt lat="46.00277827028642" lon="9.401180051443959"><ele>834.0</ele><time>2026-03-28T15:06:13.976Z</time></trkpt><trkpt lat="46.002708787785515" lon="9.40113075219314"><ele>834.0</ele><time>2026-03-28T15:06:16.976Z</time></trkpt><trkpt lat="46.00263786292516" lon="9.401114459170163"><ele>834.0</ele><time>2026-03-28T15:06:18.976Z</time></trkpt><trkpt lat="46.00256133105553" lon="9.40109337200971"><ele>828.5</ele><time>2026-03-28T15:06:22.975Z</time></trkpt><trkpt lat="46.00249794470053" lon="9.401071354712839"><ele>823.0</ele><time>2026-03-28T15:06:25.975Z</time></trkpt><trkpt lat="46.00242603723113" lon="9.401050577241254"><ele>817.5</ele><time>2026-03-28T15:06:28.975Z</time></trkpt><trkpt lat="46.002336638599154" lon="9.401010307617055"><ele>812.0</ele><time>2026-03-28T15:06:32.975Z</time></trkpt><trkpt lat="46.00234103313688" lon="9.4009119742317"><ele>806.5</ele><time>2026-03-28T15:06:39.975Z</time></trkpt><trkpt lat="46.002355982255565" lon="9.400798510534143"><ele>801.0</ele><time>2026-03-28T15:06:45.975Z</time></trkpt><trkpt lat="46.00236362174858" lon="9.400695858283886"><ele>801.0</ele><time>2026-03-28T15:06:49.975Z</time></trkpt><trkpt lat="46.00229518334967" lon="9.400656517372123"><ele>801.0</ele><time>2026-03-28T15:06:52.975Z</time></trkpt><trkpt lat="46.00223310400021" lon="9.400559087520111"><ele>801.0</ele><time>2026-03-28T15:06:56.975Z</time></trkpt><trkpt lat="46.00226685348795" lon="9.400464038212935"><ele>801.0</ele><time>2026-03-28T15:07:01.977Z</time></trkpt><trkpt lat="46.00231419377554" lon="9.400381058615602"><ele>801.0</ele><time>2026-03-28T15:07:05.977Z</time></trkpt><trkpt lat="46.002349984294" lon="9.400302469996884"><ele>801.0</ele><time>2026-03-28T15:07:10.977Z</time></trkpt><trkpt lat="46.00237142692025" lon="9.400191296479491"><ele>796.5</ele><time>2026-03-28T15:07:13.977Z</time></trkpt><trkpt lat="46.00243749919287" lon="9.400099874614606"><ele>792.0</ele><time>2026-03-28T15:07:16.977Z</time></trkpt><trkpt lat="46.00249493381285" lon="9.399988168626724"><ele>787.5</ele><time>2026-03-28T15:07:26.977Z</time></trkpt><trkpt lat="46.00255351416368" lon="9.3999221499814"><ele>783.0</ele><time>2026-03-28T15:07:29.977Z</time></trkpt><trkpt lat="46.00261348763693" lon="9.399850444262231"><ele>778.5</ele><time>2026-03-28T15:07:31.977Z</time></trkpt><trkpt lat="46.00254014423493" lon="9.399761627056536"><ele>774.0</ele><time>2026-03-28T15:07:35.977Z</time></trkpt><trkpt lat="46.00247314313637" lon="9.39971118809411"><ele>769.4285714285714</ele><time>2026-03-28T15:07:37.977Z</time></trkpt><trkpt lat="46.00241273025872" lon="9.399655652664922"><ele>764.8571428571429</ele><time>2026-03-28T15:07:41.978Z</time></trkpt><trkpt lat="46.00235773654391" lon="9.39956438656237"><ele>760.2857142857142</ele><time>2026-03-28T15:07:45.978Z</time></trkpt><trkpt lat="46.00229241125494" lon="9.399533132764756"><ele>755.7142857142858</ele><time>2026-03-28T15:07:47.978Z</time></trkpt><trkpt lat="46.00223326312251" lon="9.399496341316766"><ele>751.1428571428571</ele><time>2026-03-28T15:07:49.978Z</time></trkpt><trkpt lat="46.00216780762717" lon="9.399460685216324"><ele>746.5714285714286</ele><time>2026-03-28T15:07:51.978Z</time></trkpt><trkpt lat="46.00210627952467" lon="9.399403269108314"><ele>742.0</ele><time>2026-03-28T15:07:55.978Z</time></trkpt><trkpt lat="46.002145369504184" lon="9.399319162693857"><ele>742.0</ele><time>2026-03-28T15:07:59.978Z</time></trkpt><trkpt lat="46.00208344791623" lon="9.399251097167195"><ele>742.0</ele><time>2026-03-28T15:08:05.978Z</time></trkpt><trkpt lat="46.00211850218299" lon="9.399159228793746"><ele>742.0</ele><time>2026-03-28T15:08:09.977Z</time></trkpt><trkpt lat="46.00214019643005" lon="9.399056558955635"><ele>742.0</ele><time>2026-03-28T15:08:38.977Z</time></trkpt><trkpt lat="46.00220838902041" lon="9.399011758911525"><ele>742.0</ele><time>2026-03-28T15:08:41.977Z</time></trkpt><trkpt lat="46.00225012961746" lon="9.398933986839763"><ele>742.0</ele><time>2026-03-28T15:08:46.977Z</time></trkpt><trkpt lat="46.00231620160817" lon="9.398867495769428"><ele>742.0</ele><time>2026-03-28T15:08:51.977Z</time></trkpt><trkpt lat="46.002363038066115" lon="9.398783872286916"><ele>738.0</ele><time>2026-03-28T15:08:56.977Z</time></trkpt><trkpt lat="46.00239623610572" lon="9.398693036205307"><ele>734.0</ele><time>2026-03-28T15:08:59.977Z</time></trkpt><trkpt lat="46.00240312609418" lon="9.398602939829479"><ele>730.0</ele><time>2026-03-28T15:09:02.977Z</time></trkpt><trkpt lat="46.002443623842915" lon="9.398509964802649"><ele>726.0</ele><time>2026-03-28T15:09:05.978Z</time></trkpt><trkpt lat="46.0023969791815" lon="9.398432987601309"><ele>722.0</ele><time>2026-03-28T15:09:08.979Z</time></trkpt><trkpt lat="46.002371692739054" lon="9.398331879198302"><ele>718.0</ele><time>2026-03-28T15:09:12.978Z</time></trkpt><trkpt lat="46.00239951184818" lon="9.398243489797652"><ele>714.0</ele><time>2026-03-28T15:09:14.978Z</time></trkpt><trkpt lat="46.002372083358644" lon="9.39813646370147"><ele>714.0</ele><time>2026-03-28T15:09:17.978Z</time></trkpt><trkpt lat="46.00233175670683" lon="9.398044926768346"><ele>714.0</ele><time>2026-03-28T15:09:20.978Z</time></trkpt><trkpt lat="46.00232864602713" lon="9.397909028405504"><ele>714.0</ele><time>2026-03-28T15:09:23.978Z</time></trkpt><trkpt lat="46.00233219239886" lon="9.397807761531757"><ele>714.0</ele><time>2026-03-28T15:09:26.978Z</time></trkpt><trkpt lat="46.00233641143776" lon="9.397678682061155"><ele>714.0</ele><time>2026-03-28T15:09:29.978Z</time></trkpt><trkpt lat="46.002328548690784" lon="9.39754816415105"><ele>714.0</ele><time>2026-03-28T15:09:32.978Z</time></trkpt><trkpt lat="46.00226452201225" lon="9.397475869844698"><ele>709.8571428571429</ele><time>2026-03-28T15:09:35.978Z</time></trkpt><trkpt lat="46.00219970595482" lon="9.39743689147006"><ele>705.7142857142858</ele><time>2026-03-28T15:09:39.978Z</time></trkpt><trkpt lat="46.00213642564117" lon="9.397455176227663"><ele>701.5714285714286</ele><time>2026-03-28T15:09:44.978Z</time></trkpt><trkpt lat="46.00207546905555" lon="9.397481541434116"><ele>697.4285714285714</ele><time>2026-03-28T15:09:47.978Z</time></trkpt><trkpt lat="46.0020163804418" lon="9.3974193866649"><ele>693.2857142857143</ele><time>2026-03-28T15:09:50.978Z</time></trkpt><trkpt lat="46.00201115833665" lon="9.397305810384225"><ele>689.1428571428571</ele><time>2026-03-28T15:09:54.978Z</time></trkpt><trkpt lat="46.00198989245077" lon="9.397216530626489"><ele>685.0</ele><time>2026-03-28T15:09:59.978Z</time></trkpt><trkpt lat="46.00199740372455" lon="9.3971144576418"><ele>681.2857142857142</ele><time>2026-03-28T15:10:03.978Z</time></trkpt><trkpt lat="46.00199474352252" lon="9.39699231216688"><ele>677.5714285714287</ele><time>2026-03-28T15:10:06.978Z</time></trkpt><trkpt lat="46.00200226274403" lon="9.3968922385918"><ele>673.8571428571429</ele><time>2026-03-28T15:10:09.978Z</time></trkpt><trkpt lat="46.002018113609935" lon="9.396791864846717"><ele>670.1428571428571</ele><time>2026-03-28T15:10:12.978Z</time></trkpt><trkpt lat="46.00197686473251" lon="9.396704964186851"><ele>666.4285714285713</ele><time>2026-03-28T15:10:16.978Z</time></trkpt><trkpt lat="46.001948047000965" lon="9.39662246209222"><ele>662.7142857142858</ele><time>2026-03-28T15:10:18.978Z</time></trkpt><trkpt lat="46.001959822032426" lon="9.396513761830462"><ele>659.0</ele><time>2026-03-28T15:10:22.977Z</time></trkpt><trkpt lat="46.0019481505728" lon="9.396395207713555"><ele>654.1666666666666</ele><time>2026-03-28T15:10:25.977Z</time></trkpt><trkpt lat="46.00196665390301" lon="9.396282258095404"><ele>649.3333333333333</ele><time>2026-03-28T15:10:28.977Z</time></trkpt><trkpt lat="46.001997384344634" lon="9.396180949821298"><ele>644.5</ele><time>2026-03-28T15:10:32.977Z</time></trkpt><trkpt lat="46.00205045111021" lon="9.39607386906589"><ele>639.6666666666666</ele><time>2026-03-28T15:10:36.977Z</time></trkpt><trkpt lat="46.002082321499365" lon="9.395983433744696"><ele>634.8333333333334</ele><time>2026-03-28T15:10:38.977Z</time></trkpt><trkpt lat="46.00211759354979" lon="9.395905269256179"><ele>630.0</ele><time>2026-03-28T15:10:43.977Z</time></trkpt><trkpt lat="46.00213949445164" lon="9.395790724687298"><ele>630.0</ele><time>2026-03-28T15:10:46.977Z</time></trkpt><trkpt lat="46.00216116813039" lon="9.395680088147094"><ele>630.0</ele><time>2026-03-28T15:10:49.977Z</time></trkpt><trkpt lat="46.00215527476821" lon="9.395580693142405"><ele>630.0</ele><time>2026-03-28T15:10:52.977Z</time></trkpt><trkpt lat="46.002152014962896" lon="9.39548130358796"><ele>630.0</ele><time>2026-03-28T15:10:56.977Z</time></trkpt><trkpt lat="46.0021954327943" lon="9.395366259063268"><ele>630.0</ele><time>2026-03-28T15:10:59.977Z</time></trkpt><trkpt lat="46.002250970145056" lon="9.395288766727806"><ele>630.0</ele><time>2026-03-28T15:11:01.977Z</time></trkpt><trkpt lat="46.00230214985841" lon="9.395182282250875"><ele>625.5</ele><time>2026-03-28T15:11:04.977Z</time></trkpt><trkpt lat="46.00234346804423" lon="9.39510008928378"><ele>621.0</ele><time>2026-03-28T15:11:07.977Z</time></trkpt><trkpt lat="46.00233321242214" lon="9.39499119572278"><ele>616.5</ele><time>2026-03-28T15:11:10.979Z</time></trkpt><trkpt lat="46.00232229772019" lon="9.394898559623774"><ele>612.0</ele><time>2026-03-28T15:11:13.978Z</time></trkpt><trkpt lat="46.00233246733906" lon="9.394800848481221"><ele>607.5</ele><time>2026-03-28T15:11:16.979Z</time></trkpt><trkpt lat="46.00236410020708" lon="9.394639463766913"><ele>603.0</ele><time>2026-03-28T15:11:35.978Z</time></trkpt><trkpt lat="46.00239266038911" lon="9.39454279373083"><ele>595.1666666666666</ele><time>2026-03-28T15:19:06.978Z</time></trkpt><trkpt lat="46.002331535931" lon="9.394597088422774"><ele>587.3333333333334</ele><time>2026-03-28T15:22:57.978Z</time></trkpt><trkpt lat="46.002311250161355" lon="9.394459476000458"><ele>579.5</ele><time>2026-03-28T15:23:47.978Z</time></trkpt><trkpt lat="46.00235798020625" lon="9.394385354865728"><ele>571.6666666666667</ele><time>2026-03-28T15:23:50.979Z</time></trkpt><trkpt lat="46.00239489404904" lon="9.394296099005622"><ele>563.8333333333334</ele><time>2026-03-28T15:23:53.978Z</time></trkpt><trkpt lat="46.002341879927485" lon="9.394239702056053"><ele>556.0</ele><time>2026-03-28T15:23:57.978Z</time></trkpt><trkpt lat="46.00226890419308" lon="9.394282330516798"><ele>556.0</ele><time>2026-03-28T15:24:11.978Z</time></trkpt><trkpt lat="46.00219920946868" lon="9.394314419666681"><ele>556.0</ele><time>2026-03-28T15:24:13.978Z</time></trkpt><trkpt lat="46.00213220848464" lon="9.394332470022308"><ele>556.0</ele><time>2026-03-28T15:24:17.977Z</time></trkpt><trkpt lat="46.00212889362735" lon="9.39423823941143"><ele>556.0</ele><time>2026-03-28T15:24:23.977Z</time></trkpt><trkpt lat="46.00206640248973" lon="9.394292391460082"><ele>556.0</ele><time>2026-03-28T15:24:28.977Z</time></trkpt><trkpt lat="46.00208196880944" lon="9.394202537954017"><ele>556.0</ele><time>2026-03-28T15:24:32.977Z</time></trkpt><trkpt lat="46.00211645266357" lon="9.394116995995867"><ele>556.0</ele><time>2026-03-28T15:24:35.977Z</time></trkpt><trkpt lat="46.002185944927106" lon="9.39402250231114"><ele>556.0</ele><time>2026-03-28T15:24:38.977Z</time></trkpt><trkpt lat="46.002256684672744" lon="9.393963376494899"><ele>556.0</ele><time>2026-03-28T15:24:40.977Z</time></trkpt><trkpt lat="46.0023108328645" lon="9.39387336821091"><ele>556.0</ele><time>2026-03-28T15:24:43.977Z</time></trkpt><trkpt lat="46.00223970665856" lon="9.393827957967346"><ele>556.0</ele><time>2026-03-28T15:24:50.977Z</time></trkpt><trkpt lat="46.00215092964179" lon="9.393849042904954"><ele>556.0</ele><time>2026-03-28T15:24:53.977Z</time></trkpt><trkpt lat="46.002084488930635" lon="9.393860810672969"><ele>556.0</ele><time>2026-03-28T15:24:56.977Z</time></trkpt><trkpt lat="46.002003881576826" lon="9.393884515244611"><ele>551.1428571428571</ele><time>2026-03-28T15:24:59.977Z</time></trkpt><trkpt lat="46.00200504697858" lon="9.393793758795333"><ele>546.2857142857143</ele><time>2026-03-28T15:25:03.977Z</time></trkpt><trkpt lat="46.00206955913422" lon="9.393759259082808"><ele>541.4285714285714</ele><time>2026-03-28T15:25:06.977Z</time></trkpt><trkpt lat="46.00211033594598" lon="9.393685307983523"><ele>536.5714285714286</ele><time>2026-03-28T15:25:18.977Z</time></trkpt><trkpt lat="46.0021852332989" lon="9.393625002545097"><ele>531.7142857142857</ele><time>2026-03-28T15:25:20.977Z</time></trkpt><trkpt lat="46.00223408353919" lon="9.393567755014022"><ele>526.8571428571429</ele><time>2026-03-28T15:25:21.977Z</time></trkpt><trkpt lat="46.00229356772103" lon="9.393492238439288"><ele>522.0</ele><time>2026-03-28T15:25:23.977Z</time></trkpt><trkpt lat="46.002331824526195" lon="9.39339051800495"><ele>522.0</ele><time>2026-03-28T15:25:25.977Z</time></trkpt><trkpt lat="46.00239565680326" lon="9.39329910227683"><ele>522.0</ele><time>2026-03-28T15:25:27.977Z</time></trkpt><trkpt lat="46.00243672593143" lon="9.39319957878891"><ele>522.0</ele><time>2026-03-28T15:25:29.977Z</time></trkpt><trkpt lat="46.00249707295445" lon="9.393072862069486"><ele>522.0</ele><time>2026-03-28T15:25:31.977Z</time></trkpt><trkpt lat="46.00251590392138" lon="9.392970458874826"><ele>522.0</ele><time>2026-03-28T15:25:33.977Z</time></trkpt><trkpt lat="46.00258558940002" lon="9.392898199637903"><ele>522.0</ele><time>2026-03-28T15:25:35.977Z</time></trkpt><trkpt lat="46.002667875934584" lon="9.392834104685202"><ele>523.4285714285714</ele><time>2026-03-28T15:25:37.977Z</time></trkpt><trkpt lat="46.002706543986896" lon="9.392754070501404"><ele>524.8571428571429</ele><time>2026-03-28T15:25:41.977Z</time></trkpt><trkpt lat="46.00271353752582" lon="9.39263747094414"><ele>526.2857142857142</ele><time>2026-03-28T15:25:43.977Z</time></trkpt><trkpt lat="46.00267396664182" lon="9.392566242488577"><ele>527.7142857142858</ele><time>2026-03-28T15:25:50.977Z</time></trkpt><trkpt lat="46.002702878710906" lon="9.392469842452009"><ele>529.1428571428571</ele><time>2026-03-28T15:25:58.979Z</time></trkpt><trkpt lat="46.002660060879094" lon="9.392394739081134"><ele>530.5714285714286</ele><time>2026-03-28T15:26:11.978Z</time></trkpt><trkpt lat="46.002618816975115" lon="9.392299285226482"><ele>532.0</ele><time>2026-03-28T15:26:25.978Z</time></trkpt><trkpt lat="46.00256757875113" lon="9.392236366391622"><ele>529.6666666666667</ele><time>2026-03-28T15:26:30.978Z</time></trkpt><trkpt lat="46.00255781938154" lon="9.39213980821322"><ele>527.3333333333334</ele><time>2026-03-28T15:26:41.978Z</time></trkpt><trkpt lat="46.002632741984065" lon="9.392075033341824"><ele>525.0</ele><time>2026-03-28T15:26:47.978Z</time></trkpt><trkpt lat="46.002602347455195" lon="9.39197859717523"><ele>522.6666666666666</ele><time>2026-03-28T15:26:50.978Z</time></trkpt><trkpt lat="46.00255710818225" lon="9.39189277020816"><ele>520.3333333333333</ele><time>2026-03-28T15:26:53.978Z</time></trkpt><trkpt lat="46.002576992954616" lon="9.391803877008181"><ele>518.0</ele><time>2026-03-28T15:26:55.978Z</time></trkpt><trkpt lat="46.00252288726742" lon="9.391695002009888"><ele>514.25</ele><time>2026-03-28T15:26:56.978Z</time></trkpt><trkpt lat="46.002432865687354" lon="9.391362272462253"><ele>510.5</ele><time>2026-03-28T15:26:57.978Z</time></trkpt><trkpt lat="46.002425570704354" lon="9.391269927932234"><ele>506.75</ele><time>2026-03-28T15:26:59.978Z</time></trkpt><trkpt lat="46.00243953795939" lon="9.391170564498651"><ele>503.0</ele><time>2026-03-28T15:27:28.977Z</time></trkpt><trkpt lat="46.00243323493065" lon="9.391063222484949"><ele>502.16666666666663</ele><time>2026-03-28T15:27:31.977Z</time></trkpt><trkpt lat="46.00242153486367" lon="9.390925168461859"><ele>501.3333333333333</ele><time>2026-03-28T15:27:33.977Z</time></trkpt><trkpt lat="46.00240341839898" lon="9.390832231623689"><ele>500.5</ele><time>2026-03-28T15:27:34.977Z</time></trkpt><trkpt lat="46.002379211431695" lon="9.39073896729234"><ele>499.66666666666663</ele><time>2026-03-28T15:27:35.977Z</time></trkpt><trkpt lat="46.0023440518053" lon="9.390656575785517"><ele>498.8333333333333</ele><time>2026-03-28T15:27:36.977Z</time></trkpt><trkpt lat="46.00232712478608" lon="9.390559263224308"><ele>498.0</ele><time>2026-03-28T15:27:37.977Z</time></trkpt><trkpt lat="46.00229914910057" lon="9.390437338691395"><ele>497.4</ele><time>2026-03-28T15:27:38.977Z</time></trkpt><trkpt lat="46.0022696833185" lon="9.390307928651445"><ele>496.79999999999995</ele><time>2026-03-28T15:27:39.977Z</time></trkpt><trkpt lat="46.00224219202282" lon="9.390184327862713"><ele>496.2</ele><time>2026-03-28T15:27:40.977Z</time></trkpt><trkpt lat="46.00221784714162" lon="9.390063432122776"><ele>495.6</ele><time>2026-03-28T15:27:41.977Z</time></trkpt><trkpt lat="46.0022005848499" lon="9.38995393219723"><ele>495.0</ele><time>2026-03-28T15:27:42.977Z</time></trkpt><trkpt lat="46.00218897471645" lon="9.389811141263504"><ele>495.0</ele><time>2026-03-28T15:27:43.977Z</time></trkpt><trkpt lat="46.002201190292226" lon="9.389693696769195"><ele>495.0</ele><time>2026-03-28T15:27:44.977Z</time></trkpt><trkpt lat="46.00220081431048" lon="9.38958243780719"><ele>495.0</ele><time>2026-03-28T15:27:45.977Z</time></trkpt><trkpt lat="46.002225479287404" lon="9.38947103652937"><ele>495.0</ele><time>2026-03-28T15:27:46.977Z</time></trkpt><trkpt lat="46.00222689064893" lon="9.389360513458914"><ele>495.0</ele><time>2026-03-28T15:27:47.977Z</time></trkpt><trkpt lat="46.002250360829834" lon="9.389255616261607"><ele>495.0</ele><time>2026-03-28T15:27:48.977Z</time></trkpt><trkpt lat="46.00228283592666" lon="9.38915300999634"><ele>494.0</ele><time>2026-03-28T15:27:49.977Z</time></trkpt><trkpt lat="46.00230898329384" lon="9.38905518381225"><ele>493.0</ele><time>2026-03-28T15:27:50.977Z</time></trkpt><trkpt lat="46.002324810664675" lon="9.388949756337748"><ele>492.0</ele><time>2026-03-28T15:27:51.977Z</time></trkpt><trkpt lat="46.002355177472495" lon="9.388859223218684"><ele>491.0</ele><time>2026-03-28T15:27:52.977Z</time></trkpt><trkpt lat="46.00236637134411" lon="9.388747160273196"><ele>490.0</ele><time>2026-03-28T15:27:53.977Z</time></trkpt><trkpt lat="46.002398440436856" lon="9.38860489845211"><ele>489.0</ele><time>2026-03-28T15:27:55.977Z</time></trkpt><trkpt lat="46.00239217329909" lon="9.388495983708802"><ele>486.79999999999995</ele><time>2026-03-28T15:28:01.979Z</time></trkpt><trkpt lat="46.00231652553922" lon="9.38854852008118"><ele>484.59999999999997</ele><time>2026-03-28T15:28:05.978Z</time></trkpt><trkpt lat="46.00222126949251" lon="9.388455398015067"><ele>482.4</ele><time>2026-03-28T15:28:08.979Z</time></trkpt><trkpt lat="46.00212100476048" lon="9.388309010245267"><ele>480.2</ele><time>2026-03-28T15:28:10.979Z</time></trkpt><trkpt lat="46.002071877558" lon="9.388213190940862"><ele>478.0</ele><time>2026-03-28T15:28:11.979Z</time></trkpt><trkpt lat="46.002021505941144" lon="9.388114061557603"><ele>478.00000000000006</ele><time>2026-03-28T15:28:12.979Z</time></trkpt><trkpt lat="46.00198308365399" lon="9.388016366527864"><ele>478.0</ele><time>2026-03-28T15:28:13.979Z</time></trkpt><trkpt lat="46.00193279829692" lon="9.387930407076297"><ele>478.0</ele><time>2026-03-28T15:28:14.979Z</time></trkpt><trkpt lat="46.001889096989316" lon="9.3878503743048"><ele>478.0</ele><time>2026-03-28T15:28:15.979Z</time></trkpt><trkpt lat="46.00184879028457" lon="9.387774333048895"><ele>478.00000000000006</ele><time>2026-03-28T15:28:16.979Z</time></trkpt><trkpt lat="46.00179865302798" lon="9.387657614597934"><ele>478.0</ele><time>2026-03-28T15:28:18.979Z</time></trkpt><trkpt lat="46.00175885331275" lon="9.38756426759903"><ele>476.4</ele><time>2026-03-28T15:28:24.979Z</time></trkpt><trkpt lat="46.00174815213144" lon="9.387454251884447"><ele>474.79999999999995</ele><time>2026-03-28T15:28:26.979Z</time></trkpt><trkpt lat="46.00182795197169" lon="9.387325348030016"><ele>473.2</ele><time>2026-03-28T15:28:28.979Z</time></trkpt><trkpt lat="46.00189143602112" lon="9.387241924017097"><ele>471.6</ele><time>2026-03-28T15:28:29.979Z</time></trkpt><trkpt lat="46.00195499286121" lon="9.387154619664667"><ele>470.0</ele><time>2026-03-28T15:28:30.979Z</time></trkpt><trkpt lat="46.00199992888676" lon="9.387036893038209"><ele>469.0</ele><time>2026-03-28T15:28:31.978Z</time></trkpt><trkpt lat="46.00202742818201" lon="9.386906404561207"><ele>468.0</ele><time>2026-03-28T15:28:32.978Z</time></trkpt><trkpt lat="46.00198729673255" lon="9.386763200386692"><ele>467.0</ele><time>2026-03-28T15:28:33.978Z</time></trkpt><trkpt lat="46.001908233223254" lon="9.386649251337836"><ele>466.0</ele><time>2026-03-28T15:28:34.978Z</time></trkpt><trkpt lat="46.001801230733406" lon="9.38657260800664"><ele>465.0</ele><time>2026-03-28T15:28:35.978Z</time></trkpt><trkpt lat="46.001715077608836" lon="9.386442177185298"><ele>463.5</ele><time>2026-03-28T15:28:36.978Z</time></trkpt><trkpt lat="46.00162490224919" lon="9.386317949430403"><ele>462.0</ele><time>2026-03-28T15:28:37.978Z</time></trkpt><trkpt lat="46.0015375594925" lon="9.386198212202343"><ele>460.5</ele><time>2026-03-28T15:28:38.978Z</time></trkpt><trkpt lat="46.00144816576047" lon="9.386083910640531"><ele>459.0</ele><time>2026-03-28T15:28:39.978Z</time></trkpt><trkpt lat="46.0013551372811" lon="9.385961486487878"><ele>459.0</ele><time>2026-03-28T15:28:40.978Z</time></trkpt><trkpt lat="46.001260519381105" lon="9.385833538616815"><ele>459.0</ele><time>2026-03-28T15:28:41.978Z</time></trkpt><trkpt lat="46.00116824538556" lon="9.385732536642948"><ele>459.0</ele><time>2026-03-28T15:28:42.978Z</time></trkpt><trkpt lat="46.0010831829216" lon="9.385629787015056"><ele>459.0</ele><time>2026-03-28T15:28:43.978Z</time></trkpt><trkpt lat="46.000995700439134" lon="9.385536227502117"><ele>458.75</ele><time>2026-03-28T15:28:44.978Z</time></trkpt><trkpt lat="46.00091690301926" lon="9.385433267139316"><ele>458.5</ele><time>2026-03-28T15:28:45.978Z</time></trkpt><trkpt lat="46.00082138073488" lon="9.385324484109459"><ele>458.25</ele><time>2026-03-28T15:28:46.978Z</time></trkpt><trkpt lat="46.000731734054504" lon="9.385211705590269"><ele>458.0</ele><time>2026-03-28T15:28:47.978Z</time></trkpt><trkpt lat="46.00062891311593" lon="9.385115838875045"><ele>458.4</ele><time>2026-03-28T15:28:48.978Z</time></trkpt><trkpt lat="46.00053335541956" lon="9.385009269747949"><ele>458.79999999999995</ele><time>2026-03-28T15:28:49.978Z</time></trkpt><trkpt lat="46.00044883152039" lon="9.384918051917243"><ele>459.2</ele><time>2026-03-28T15:28:50.978Z</time></trkpt><trkpt lat="46.00039580781974" lon="9.38481543213721"><ele>459.6</ele><time>2026-03-28T15:28:51.978Z</time></trkpt><trkpt lat="46.00037298198431" lon="9.384695460974699"><ele>460.0</ele><time>2026-03-28T15:28:52.978Z</time></trkpt><trkpt lat="46.00039103873803" lon="9.384554881999694"><ele>462.0</ele><time>2026-03-28T15:28:53.978Z</time></trkpt><trkpt lat="46.00039273845073" lon="9.384428343700982"><ele>464.0</ele><time>2026-03-28T15:28:54.978Z</time></trkpt><trkpt lat="46.000407849172845" lon="9.38428898548512"><ele>466.0</ele><time>2026-03-28T15:28:55.978Z</time></trkpt><trkpt lat="46.00042924110826" lon="9.38415318766404"><ele>468.0</ele><time>2026-03-28T15:28:56.978Z</time></trkpt><trkpt lat="46.00047723952521" lon="9.38403182822579"><ele>470.0</ele><time>2026-03-28T15:28:57.978Z</time></trkpt><trkpt lat="46.00052612598316" lon="9.383907140594546"><ele>471.16666666666663</ele><time>2026-03-28T15:28:58.978Z</time></trkpt><trkpt lat="46.000570478055685" lon="9.383771741142123"><ele>472.3333333333333</ele><time>2026-03-28T15:29:00.978Z</time></trkpt><trkpt lat="46.000547223739744" lon="9.383642640584101"><ele>473.5</ele><time>2026-03-28T15:29:04.978Z</time></trkpt><trkpt lat="46.00057159141046" lon="9.38351927956687"><ele>474.66666666666663</ele><time>2026-03-28T15:29:06.978Z</time></trkpt><trkpt lat="46.00059037935267" lon="9.38342846657647"><ele>475.8333333333333</ele><time>2026-03-28T15:29:08.978Z</time></trkpt><trkpt lat="46.00054972402273" lon="9.383352753908234"><ele>477.0</ele><time>2026-03-28T15:29:11.978Z</time></trkpt><trkpt lat="46.0004707069737" lon="9.383346588808934"><ele>477.0</ele><time>2026-03-28T15:29:14.978Z</time></trkpt><trkpt lat="46.00040038132153" lon="9.383319623298805"><ele>477.0</ele><time>2026-03-28T15:29:17.978Z</time></trkpt><trkpt lat="46.000321965136024" lon="9.383291051499977"><ele>477.0</ele><time>2026-03-28T15:29:20.978Z</time></trkpt><trkpt lat="46.00023973081873" lon="9.383270938603966"><ele>477.0</ele><time>2026-03-28T15:29:25.978Z</time></trkpt><trkpt lat="46.00014056160871" lon="9.383291607826344"><ele>477.0</ele><time>2026-03-28T15:29:27.978Z</time></trkpt><trkpt lat="46.00005890887207" lon="9.383321084496162"><ele>477.0</ele><time>2026-03-28T15:29:28.978Z</time></trkpt><trkpt lat="45.99999709968897" lon="9.383376386404507"><ele>477.0</ele><time>2026-03-28T15:29:29.978Z</time></trkpt><trkpt lat="45.99991226548307" lon="9.383600159012182"><ele>477.0</ele><time>2026-03-28T15:29:31.978Z</time></trkpt><trkpt lat="45.99985761662332" lon="9.383743877695004"><ele>477.0</ele><time>2026-03-28T15:29:32.978Z</time></trkpt><trkpt lat="45.99984338715061" lon="9.383875980600363"><ele>477.0</ele><time>2026-03-28T15:29:33.978Z</time></trkpt><trkpt lat="45.99980253549222" lon="9.38399352655053"><ele>475.6</ele><time>2026-03-28T15:29:34.978Z</time></trkpt><trkpt lat="45.999737808561676" lon="9.38406678821682"><ele>474.20000000000005</ele><time>2026-03-28T15:29:35.978Z</time></trkpt><trkpt lat="45.99964951688348" lon="9.384124169897342"><ele>472.8</ele><time>2026-03-28T15:29:36.978Z</time></trkpt><trkpt lat="45.999549677721134" lon="9.384167844565775"><ele>471.4</ele><time>2026-03-28T15:29:37.978Z</time></trkpt><trkpt lat="45.99944167423552" lon="9.384212750580483"><ele>470.0</ele><time>2026-03-28T15:29:38.978Z</time></trkpt><trkpt lat="45.999373337065755" lon="9.384249940725203"><ele>470.0</ele><time>2026-03-28T15:29:39.978Z</time></trkpt><trkpt lat="45.999260032091314" lon="9.384242115925794"><ele>470.0</ele><time>2026-03-28T15:29:41.978Z</time></trkpt><trkpt lat="45.999192463885265" lon="9.384175220882055"><ele>470.0</ele><time>2026-03-28T15:29:42.978Z</time></trkpt><trkpt lat="45.999118124922205" lon="9.38406012329644"><ele>470.0</ele><time>2026-03-28T15:29:43.978Z</time></trkpt><trkpt lat="45.99904944885025" lon="9.383978416688748"><ele>470.0</ele><time>2026-03-28T15:29:44.978Z</time></trkpt><trkpt lat="45.99897571268126" lon="9.383902601440257"><ele>473.0</ele><time>2026-03-28T15:29:45.977Z</time></trkpt><trkpt lat="45.998880896222296" lon="9.383840276802186"><ele>476.0</ele><time>2026-03-28T15:29:46.977Z</time></trkpt><trkpt lat="45.99879363773292" lon="9.383792915053322"><ele>479.0</ele><time>2026-03-28T15:29:47.977Z</time></trkpt><trkpt lat="45.99871569670979" lon="9.383727193928072"><ele>482.0</ele><time>2026-03-28T15:29:48.977Z</time></trkpt><trkpt lat="45.99863013159632" lon="9.383679311404249"><ele>485.0</ele><time>2026-03-28T15:29:49.977Z</time></trkpt><trkpt lat="45.99854959221647" lon="9.383627909516095"><ele>485.0</ele><time>2026-03-28T15:29:51.977Z</time></trkpt><trkpt lat="45.99843903509328" lon="9.383632932421401"><ele>485.0</ele><time>2026-03-28T15:29:55.977Z</time></trkpt><trkpt lat="45.99835748970555" lon="9.383645818887477"><ele>485.0</ele><time>2026-03-28T15:29:56.977Z</time></trkpt><trkpt lat="45.99826476727253" lon="9.383601176187712"><ele>485.0</ele><time>2026-03-28T15:29:57.977Z</time></trkpt><trkpt lat="45.99818415732318" lon="9.383541518374429"><ele>485.0</ele><time>2026-03-28T15:29:58.977Z</time></trkpt><trkpt lat="45.99809728416676" lon="9.383495594782291"><ele>487.0</ele><time>2026-03-28T15:29:59.977Z</time></trkpt><trkpt lat="45.99799923138932" lon="9.383434761276876"><ele>489.0</ele><time>2026-03-28T15:30:00.977Z</time></trkpt><trkpt lat="45.99790057333937" lon="9.383384681649435"><ele>491.0</ele><time>2026-03-28T15:30:01.977Z</time></trkpt><trkpt lat="45.997794111739225" lon="9.383367125935168"><ele>493.0</ele><time>2026-03-28T15:30:02.977Z</time></trkpt><trkpt lat="45.99766858711467" lon="9.383394853043194"><ele>495.0</ele><time>2026-03-28T15:30:03.979Z</time></trkpt><trkpt lat="45.997556921973164" lon="9.383442226601533"><ele>496.2</ele><time>2026-03-28T15:30:04.978Z</time></trkpt><trkpt lat="45.997452260273874" lon="9.383467785255807"><ele>497.4</ele><time>2026-03-28T15:30:05.978Z</time></trkpt><trkpt lat="45.99733693631267" lon="9.383449932180588"><ele>498.6</ele><time>2026-03-28T15:30:06.979Z</time></trkpt><trkpt lat="45.99722617602926" lon="9.383430434969458"><ele>499.8</ele><time>2026-03-28T15:30:07.978Z</time></trkpt><trkpt lat="45.99711403643214" lon="9.383399480739248"><ele>501.0</ele><time>2026-03-28T15:30:08.978Z</time></trkpt><trkpt lat="45.99701188208251" lon="9.383385974078486"><ele>501.0</ele><time>2026-03-28T15:30:09.978Z</time></trkpt><trkpt lat="45.996903220884505" lon="9.383350204849597"><ele>501.0</ele><time>2026-03-28T15:30:10.978Z</time></trkpt><trkpt lat="45.996796190230945" lon="9.383285407734096"><ele>501.0</ele><time>2026-03-28T15:30:11.978Z</time></trkpt><trkpt lat="45.99669952159531" lon="9.383231302972776"><ele>501.0</ele><time>2026-03-28T15:30:12.978Z</time></trkpt><trkpt lat="45.996606225031265" lon="9.383214573926468"><ele>501.0</ele><time>2026-03-28T15:30:13.979Z</time></trkpt><trkpt lat="45.99652644955143" lon="9.383248282629351"><ele>503.6</ele><time>2026-03-28T15:30:14.979Z</time></trkpt><trkpt lat="45.99646084661856" lon="9.383325265740417"><ele>506.20000000000005</ele><time>2026-03-28T15:30:15.979Z</time></trkpt><trkpt lat="45.996398915480114" lon="9.383427731988814"><ele>508.79999999999995</ele><time>2026-03-28T15:30:16.979Z</time></trkpt><trkpt lat="45.99632759311167" lon="9.383549535609404"><ele>511.4</ele><time>2026-03-28T15:30:17.979Z</time></trkpt><trkpt lat="45.99626117266609" lon="9.383645983938555"><ele>514.0</ele><time>2026-03-28T15:30:18.979Z</time></trkpt><trkpt lat="45.99619573600123" lon="9.383723103686497"><ele>514.0</ele><time>2026-03-28T15:30:19.979Z</time></trkpt><trkpt lat="45.99613430077969" lon="9.38380847347584"><ele>514.0</ele><time>2026-03-28T15:30:20.979Z</time></trkpt><trkpt lat="45.996085473388234" lon="9.383891330493409"><ele>514.0</ele><time>2026-03-28T15:30:21.979Z</time></trkpt><trkpt lat="45.99604545166196" lon="9.383983966171334"><ele>514.0</ele><time>2026-03-28T15:30:22.979Z</time></trkpt><trkpt lat="45.99600976769765" lon="9.384068358224205"><ele>514.0</ele><time>2026-03-28T15:30:23.979Z</time></trkpt><trkpt lat="45.995981156384474" lon="9.38416573266068"><ele>514.0</ele><time>2026-03-28T15:30:24.979Z</time></trkpt><trkpt lat="45.99596832207802" lon="9.384284506798211"><ele>511.5</ele><time>2026-03-28T15:30:25.979Z</time></trkpt><trkpt lat="45.995907074269844" lon="9.384399978022365"><ele>509.0</ele><time>2026-03-28T15:30:27.979Z</time></trkpt><trkpt lat="45.995799830410554" lon="9.384431419282594"><ele>506.5</ele><time>2026-03-28T15:30:29.979Z</time></trkpt><trkpt lat="45.9957012807745" lon="9.38447954570713"><ele>504.0</ele><time>2026-03-28T15:30:31.979Z</time></trkpt><trkpt lat="45.995589948710396" lon="9.384591902201208"><ele>506.6</ele><time>2026-03-28T15:30:33.979Z</time></trkpt><trkpt lat="45.99553422643049" lon="9.384652445380016"><ele>509.2</ele><time>2026-03-28T15:30:34.979Z</time></trkpt><trkpt lat="45.99546135530817" lon="9.384739339773944"><ele>511.80000000000007</ele><time>2026-03-28T15:30:36.979Z</time></trkpt><trkpt lat="45.9953964856998" lon="9.384786054138885"><ele>514.4</ele><time>2026-03-28T15:30:37.979Z</time></trkpt><trkpt lat="45.99530062421999" lon="9.384838109733582"><ele>517.0</ele><time>2026-03-28T15:30:39.979Z</time></trkpt><trkpt lat="45.99523871620399" lon="9.384971240363377"><ele>517.0</ele><time>2026-03-28T15:30:41.979Z</time></trkpt><trkpt lat="45.99519874970989" lon="9.38505346272526"><ele>517.0</ele><time>2026-03-28T15:30:42.979Z</time></trkpt><trkpt lat="45.995135528024356" lon="9.385151714443497"><ele>517.0</ele><time>2026-03-28T15:30:44.979Z</time></trkpt><trkpt lat="45.99509443584889" lon="9.385245480997924"><ele>517.0</ele><time>2026-03-28T15:30:45.979Z</time></trkpt><trkpt lat="45.99506893866929" lon="9.385370091416181"><ele>517.0</ele><time>2026-03-28T15:30:47.979Z</time></trkpt><trkpt lat="45.99503241266741" lon="9.38544822659562"><ele>517.0</ele><time>2026-03-28T15:30:48.979Z</time></trkpt><trkpt lat="45.99496989431722" lon="9.385526083510237"><ele>518.4285714285714</ele><time>2026-03-28T15:30:49.979Z</time></trkpt><trkpt lat="45.99492175575585" lon="9.38559536994889"><ele>519.8571428571429</ele><time>2026-03-28T15:30:50.979Z</time></trkpt><trkpt lat="45.99486568145275" lon="9.38568111151291"><ele>521.2857142857143</ele><time>2026-03-28T15:30:52.979Z</time></trkpt><trkpt lat="45.99479970114546" lon="9.385751876761281"><ele>522.7142857142858</ele><time>2026-03-28T15:30:53.979Z</time></trkpt><trkpt lat="45.99473449313578" lon="9.385776339505895"><ele>524.1428571428571</ele><time>2026-03-28T15:30:54.979Z</time></trkpt><trkpt lat="45.99466735808647" lon="9.385784938816633"><ele>525.5714285714287</ele><time>2026-03-28T15:30:56.979Z</time></trkpt><trkpt lat="45.99460851143758" lon="9.385864897754404"><ele>527.0</ele><time>2026-03-28T15:30:59.979Z</time></trkpt><trkpt lat="45.99452947986837" lon="9.385889047892483"><ele>527.0</ele><time>2026-03-28T15:31:01.979Z</time></trkpt><trkpt lat="45.99446503706143" lon="9.385935101464787"><ele>527.0</ele><time>2026-03-28T15:31:04.979Z</time></trkpt><trkpt lat="45.99439438139629" lon="9.385995566141817"><ele>527.0</ele><time>2026-03-28T15:31:07.979Z</time></trkpt><trkpt lat="45.99433986170543" lon="9.386060670999848"><ele>527.0</ele><time>2026-03-28T15:31:10.979Z</time></trkpt><trkpt lat="45.994283571416176" lon="9.386118862087336"><ele>527.0</ele><time>2026-03-28T15:31:13.978Z</time></trkpt><trkpt lat="45.99419440225361" lon="9.386179859830897"><ele>527.0</ele><time>2026-03-28T15:31:15.978Z</time></trkpt><trkpt lat="45.99411512818691" lon="9.386192271494693"><ele>532.3333333333333</ele><time>2026-03-28T15:31:20.978Z</time></trkpt><trkpt lat="45.99403874502838" lon="9.38616737902018"><ele>537.6666666666666</ele><time>2026-03-28T15:31:23.978Z</time></trkpt><trkpt lat="45.99392161279824" lon="9.386188455122118"><ele>543.0</ele><time>2026-03-28T15:31:25.978Z</time></trkpt><trkpt lat="45.99385259620214" lon="9.38620357183869"><ele>548.3333333333334</ele><time>2026-03-28T15:31:26.978Z</time></trkpt><trkpt lat="45.99378167538578" lon="9.386215632587732"><ele>553.6666666666667</ele><time>2026-03-28T15:31:27.978Z</time></trkpt><trkpt lat="45.993702933977" lon="9.386224492167962"><ele>559.0</ele><time>2026-03-28T15:31:28.978Z</time></trkpt><trkpt lat="45.99359636238949" lon="9.386229574028782"><ele>559.0</ele><time>2026-03-28T15:31:30.978Z</time></trkpt><trkpt lat="45.99349694331461" lon="9.386173201879528"><ele>559.0</ele><time>2026-03-28T15:31:32.978Z</time></trkpt><trkpt lat="45.99341795643046" lon="9.386179352101925"><ele>559.0</ele><time>2026-03-28T15:31:34.978Z</time></trkpt><trkpt lat="45.993350423304115" lon="9.38625732221382"><ele>559.0</ele><time>2026-03-28T15:31:37.978Z</time></trkpt><trkpt lat="45.99331955868373" lon="9.38638288054725"><ele>559.0</ele><time>2026-03-28T15:31:41.978Z</time></trkpt><trkpt lat="45.99332762807549" lon="9.38650892262759"><ele>554.4</ele><time>2026-03-28T15:31:43.978Z</time></trkpt><trkpt lat="45.99334237669447" lon="9.386658962195385"><ele>549.8</ele><time>2026-03-28T15:31:45.978Z</time></trkpt><trkpt lat="45.993390411979895" lon="9.3867958730156"><ele>545.2</ele><time>2026-03-28T15:31:47.978Z</time></trkpt><trkpt lat="45.993405666563234" lon="9.386945210384251"><ele>540.6</ele><time>2026-03-28T15:31:49.978Z</time></trkpt><trkpt lat="45.99341118791976" lon="9.38708166987645"><ele>536.0</ele><time>2026-03-28T15:31:51.978Z</time></trkpt><trkpt lat="45.9934137754584" lon="9.387193249786293"><ele>535.6</ele><time>2026-03-28T15:31:53.978Z</time></trkpt><trkpt lat="45.9933970058915" lon="9.387309734894828"><ele>535.2</ele><time>2026-03-28T15:31:55.978Z</time></trkpt><trkpt lat="45.993349573835246" lon="9.387444324900041"><ele>534.8</ele><time>2026-03-28T15:31:57.978Z</time></trkpt><trkpt lat="45.99332596230577" lon="9.387546692108376"><ele>534.4</ele><time>2026-03-28T15:31:59.978Z</time></trkpt><trkpt lat="45.99329026890864" lon="9.38769425071127"><ele>534.0</ele><time>2026-03-28T15:32:01.978Z</time></trkpt><trkpt lat="45.993268204199985" lon="9.38781537771698"><ele>535.0</ele><time>2026-03-28T15:32:03.978Z</time></trkpt><trkpt lat="45.99327742233824" lon="9.387940298899231"><ele>536.0</ele><time>2026-03-28T15:32:05.978Z</time></trkpt><trkpt lat="45.99330056861582" lon="9.388037155559312"><ele>537.0</ele><time>2026-03-28T15:32:08.978Z</time></trkpt><trkpt lat="45.993308290142735" lon="9.388130793255696"><ele>538.0</ele><time>2026-03-28T15:32:12.979Z</time></trkpt><trkpt lat="45.9933145956144" lon="9.388233758020181"><ele>539.0</ele><time>2026-03-28T15:32:35.978Z</time></trkpt><trkpt lat="45.99335372995125" lon="9.388357886945693"><ele>540.0</ele><time>2026-03-28T15:32:37.978Z</time></trkpt><trkpt lat="45.99338620162009" lon="9.388504971777518"><ele>537.6</ele><time>2026-03-28T15:32:39.978Z</time></trkpt><trkpt lat="45.993453682119245" lon="9.388638752327948"><ele>535.2</ele><time>2026-03-28T15:32:41.978Z</time></trkpt><trkpt lat="45.99348507634006" lon="9.388720570372886"><ele>532.8</ele><time>2026-03-28T15:32:42.978Z</time></trkpt><trkpt lat="45.993516494574806" lon="9.388802547356349"><ele>530.4</ele><time>2026-03-28T15:32:43.978Z</time></trkpt><trkpt lat="45.99351474814011" lon="9.388962870018812"><ele>528.0</ele><time>2026-03-28T15:32:45.978Z</time></trkpt><trkpt lat="45.99345271306085" lon="9.389123792168142"><ele>528.6666666666666</ele><time>2026-03-28T15:32:47.978Z</time></trkpt><trkpt lat="45.993399731057195" lon="9.389230922968173"><ele>529.3333333333334</ele><time>2026-03-28T15:32:49.978Z</time></trkpt><trkpt lat="45.99336452549676" lon="9.389352832356467"><ele>530.0</ele><time>2026-03-28T15:32:51.978Z</time></trkpt><trkpt lat="45.99331518667927" lon="9.389458049711147"><ele>530.6666666666667</ele><time>2026-03-28T15:32:54.978Z</time></trkpt><trkpt lat="45.9932639029722" lon="9.389519554340863"><ele>531.3333333333334</ele><time>2026-03-28T15:32:56.978Z</time></trkpt><trkpt lat="45.99329711461068" lon="9.389638895010846"><ele>532.0</ele><time>2026-03-28T15:32:58.978Z</time></trkpt><trkpt lat="45.99334489456025" lon="9.389705596473771"><ele>529.4</ele><time>2026-03-28T15:32:59.978Z</time></trkpt><trkpt lat="45.99340586220959" lon="9.389827261449549"><ele>526.8000000000001</ele><time>2026-03-28T15:33:01.978Z</time></trkpt><trkpt lat="45.993370931874985" lon="9.389903108779105"><ele>524.2</ele><time>2026-03-28T15:33:10.978Z</time></trkpt><trkpt lat="45.9933164714888" lon="9.390008504260168"><ele>521.6</ele><time>2026-03-28T15:33:12.978Z</time></trkpt><trkpt lat="45.9933223140328" lon="9.39014986136233"><ele>519.0</ele><time>2026-03-28T15:33:14.978Z</time></trkpt><trkpt lat="45.99332446855596" lon="9.390312968533484"><ele>519.0</ele><time>2026-03-28T15:33:16.978Z</time></trkpt><trkpt lat="45.99329224629421" lon="9.390403095735525"><ele>519.0</ele><time>2026-03-28T15:33:17.978Z</time></trkpt><trkpt lat="45.99325353358827" lon="9.3904799724238"><ele>519.0</ele><time>2026-03-28T15:33:18.978Z</time></trkpt><trkpt lat="45.993250023140895" lon="9.390640488925047"><ele>519.0</ele><time>2026-03-28T15:33:20.978Z</time></trkpt><trkpt lat="45.99330544386515" lon="9.390711075577125"><ele>519.0</ele><time>2026-03-28T15:33:21.978Z</time></trkpt><trkpt lat="45.99335594457522" lon="9.390773134222156"><ele>519.0</ele><time>2026-03-28T15:33:22.977Z</time></trkpt><trkpt lat="45.99342101872616" lon="9.390862760227588"><ele>517.7142857142857</ele><time>2026-03-28T15:33:24.977Z</time></trkpt><trkpt lat="45.993479093907396" lon="9.390955246148854"><ele>516.4285714285713</ele><time>2026-03-28T15:33:26.977Z</time></trkpt><trkpt lat="45.99351612955423" lon="9.391042787276277"><ele>515.1428571428571</ele><time>2026-03-28T15:33:28.977Z</time></trkpt><trkpt lat="45.99354538902768" lon="9.391144561024353"><ele>513.8571428571429</ele><time>2026-03-28T15:33:31.977Z</time></trkpt><trkpt lat="45.99349266664687" lon="9.391210641615693"><ele>512.5714285714287</ele><time>2026-03-28T15:33:38.977Z</time></trkpt><trkpt lat="45.993491482398646" lon="9.391313635874443"><ele>511.28571428571433</ele><time>2026-03-28T15:33:41.977Z</time></trkpt><trkpt lat="45.993426003143306" lon="9.391277324203513"><ele>510.0</ele><time>2026-03-28T15:34:21.979Z</time></trkpt><trkpt lat="45.99336351069524" lon="9.391298312330589"><ele>509.6666666666667</ele><time>2026-03-28T15:34:23.979Z</time></trkpt><trkpt lat="45.9932945395559" lon="9.391351416078013"><ele>509.33333333333337</ele><time>2026-03-28T15:34:31.979Z</time></trkpt><trkpt lat="45.993235182007524" lon="9.39141563602263"><ele>509.0</ele><time>2026-03-28T15:34:34.979Z</time></trkpt><trkpt lat="45.993170499618024" lon="9.391493210342844"><ele>508.6666666666667</ele><time>2026-03-28T15:34:35.979Z</time></trkpt><trkpt lat="45.99312745831237" lon="9.391628417775594"><ele>508.33333333333337</ele><time>2026-03-28T15:34:37.979Z</time></trkpt><trkpt lat="45.993160380496235" lon="9.391763931490653"><ele>508.0</ele><time>2026-03-28T15:34:39.979Z</time></trkpt><trkpt lat="45.993174072876045" lon="9.391917732698833"><ele>508.0</ele><time>2026-03-28T15:34:41.979Z</time></trkpt><trkpt lat="45.99314336788426" lon="9.391996897220546"><ele>508.0</ele><time>2026-03-28T15:34:42.979Z</time></trkpt><trkpt lat="45.993123481576006" lon="9.392086889497467"><ele>508.0</ele><time>2026-03-28T15:34:43.979Z</time></trkpt><trkpt lat="45.993176138987735" lon="9.392205184407526"><ele>508.0</ele><time>2026-03-28T15:34:45.979Z</time></trkpt><trkpt lat="45.99321181950172" lon="9.392297549145434"><ele>508.0</ele><time>2026-03-28T15:34:47.979Z</time></trkpt><trkpt lat="45.993254869558044" lon="9.39236388650036"><ele>508.0</ele><time>2026-03-28T15:34:49.979Z</time></trkpt><trkpt lat="45.99329392892527" lon="9.392448047481201"><ele>508.0</ele><time>2026-03-28T15:34:53.978Z</time></trkpt><trkpt lat="45.99322171284553" lon="9.392473952335703"><ele>506.75</ele><time>2026-03-28T15:34:55.978Z</time></trkpt><trkpt lat="45.9931359625094" lon="9.392471468068257"><ele>505.5</ele><time>2026-03-28T15:34:56.978Z</time></trkpt><trkpt lat="45.99303060283003" lon="9.39254004989637"><ele>504.25</ele><time>2026-03-28T15:34:57.978Z</time></trkpt><trkpt lat="45.99288266962298" lon="9.392558861409125"><ele>503.0</ele><time>2026-03-28T15:34:58.978Z</time></trkpt><trkpt lat="45.99276510406209" lon="9.392575990482998"><ele>503.0</ele><time>2026-03-28T15:34:59.978Z</time></trkpt><trkpt lat="45.992658304857" lon="9.392594304699916"><ele>503.0</ele><time>2026-03-28T15:35:00.978Z</time></trkpt><trkpt lat="45.99255164792869" lon="9.392620596710358"><ele>503.0</ele><time>2026-03-28T15:35:01.978Z</time></trkpt><trkpt lat="45.9924377925861" lon="9.392658076364736"><ele>503.0</ele><time>2026-03-28T15:35:02.978Z</time></trkpt><trkpt lat="45.99231789909679" lon="9.39268807026738"><ele>503.0</ele><time>2026-03-28T15:35:03.978Z</time></trkpt><trkpt lat="45.992209623606364" lon="9.3927493347176"><ele>502.99999999999994</ele><time>2026-03-28T15:35:04.978Z</time></trkpt><trkpt lat="45.992113689283826" lon="9.39282794039055"><ele>502.99999999999994</ele><time>2026-03-28T15:35:05.978Z</time></trkpt><trkpt lat="45.99202266129157" lon="9.392928025732692"><ele>503.0</ele><time>2026-03-28T15:35:06.978Z</time></trkpt><trkpt lat="45.99195019931415" lon="9.393033081539356"><ele>503.0</ele><time>2026-03-28T15:35:07.978Z</time></trkpt><trkpt lat="45.9918582828846" lon="9.393143920704356"><ele>503.4</ele><time>2026-03-28T15:35:08.978Z</time></trkpt><trkpt lat="45.991785943468805" lon="9.393241245615462"><ele>503.79999999999995</ele><time>2026-03-28T15:35:09.978Z</time></trkpt><trkpt lat="45.99170140173268" lon="9.39334071992982"><ele>504.2</ele><time>2026-03-28T15:35:10.978Z</time></trkpt><trkpt lat="45.99162654967293" lon="9.393447290510297"><ele>504.6</ele><time>2026-03-28T15:35:11.978Z</time></trkpt><trkpt lat="45.99156531221359" lon="9.393563223860028"><ele>505.0</ele><time>2026-03-28T15:35:12.978Z</time></trkpt><trkpt lat="45.991511363250886" lon="9.393677192132005"><ele>505.0</ele><time>2026-03-28T15:35:13.978Z</time></trkpt><trkpt lat="45.99147233264933" lon="9.393798962408727"><ele>505.0</ele><time>2026-03-28T15:35:14.978Z</time></trkpt><trkpt lat="45.99141979350094" lon="9.39395480999905"><ele>505.0</ele><time>2026-03-28T15:35:15.978Z</time></trkpt><trkpt lat="45.99136931167467" lon="9.394134494268302"><ele>505.0</ele><time>2026-03-28T15:35:16.978Z</time></trkpt><trkpt lat="45.99131492788045" lon="9.394302231449906"><ele>501.75</ele><time>2026-03-28T15:35:17.978Z</time></trkpt><trkpt lat="45.991241586877614" lon="9.394471911416655"><ele>498.5</ele><time>2026-03-28T15:35:18.978Z</time></trkpt><trkpt lat="45.99115803284166" lon="9.39462964525771"><ele>495.25</ele><time>2026-03-28T15:35:19.978Z</time></trkpt><trkpt lat="45.99106069639595" lon="9.394753445463515"><ele>492.0</ele><time>2026-03-28T15:35:20.978Z</time></trkpt><trkpt lat="45.99097492464557" lon="9.3948835859434"><ele>492.6</ele><time>2026-03-28T15:35:21.978Z</time></trkpt><trkpt lat="45.99089725028832" lon="9.395007551820177"><ele>493.20000000000005</ele><time>2026-03-28T15:35:22.978Z</time></trkpt><trkpt lat="45.99082965903303" lon="9.395132068355629"><ele>493.8</ele><time>2026-03-28T15:35:23.978Z</time></trkpt><trkpt lat="45.99077780829092" lon="9.395246518475417"><ele>494.4</ele><time>2026-03-28T15:35:24.978Z</time></trkpt><trkpt lat="45.990729511710015" lon="9.395326112369764"><ele>495.0</ele><time>2026-03-28T15:35:25.978Z</time></trkpt><trkpt lat="45.99067012698322" lon="9.395445627825298"><ele>493.3333333333333</ele><time>2026-03-28T15:35:27.978Z</time></trkpt><trkpt lat="45.990622104733475" lon="9.39553611551039"><ele>491.66666666666663</ele><time>2026-03-28T15:35:29.978Z</time></trkpt><trkpt lat="45.99057398029077" lon="9.395645638940135"><ele>490.0</ele><time>2026-03-28T15:35:32.978Z</time></trkpt><trkpt lat="45.99054333357" lon="9.395755915121764"><ele>488.3333333333333</ele><time>2026-03-28T15:35:35.978Z</time></trkpt><trkpt lat="45.99051036063415" lon="9.395836981566688"><ele>486.66666666666663</ele><time>2026-03-28T15:35:37.978Z</time></trkpt><trkpt lat="45.990452541805894" lon="9.395887041229201"><ele>485.0</ele><time>2026-03-28T15:35:39.978Z</time></trkpt><trkpt lat="45.990382834344956" lon="9.395867430602598"><ele>485.00000000000006</ele><time>2026-03-28T15:35:42.978Z</time></trkpt><trkpt lat="45.990320669985756" lon="9.395851383801684"><ele>485.0</ele><time>2026-03-28T15:35:45.978Z</time></trkpt><trkpt lat="45.99025207348748" lon="9.395880120995242"><ele>485.00000000000006</ele><time>2026-03-28T15:35:52.978Z</time></trkpt><trkpt lat="45.990198226761215" lon="9.395937442634136"><ele>485.00000000000006</ele><time>2026-03-28T15:36:28.979Z</time></trkpt><trkpt lat="45.99026122115504" lon="9.39594806824962"><ele>485.0</ele><time>2026-03-28T15:38:23.977Z</time></trkpt><trkpt lat="45.990328383530006" lon="9.39596390865109"><ele>485.00000000000006</ele><time>2026-03-28T15:38:26.977Z</time></trkpt><trkpt lat="45.99038824180805" lon="9.39601109653476"><ele>485.00000000000006</ele><time>2026-03-28T15:38:28.979Z</time></trkpt><trkpt lat="45.99032025659271" lon="9.396100553864686"><ele>485.0</ele><time>2026-03-28T15:38:41.979Z</time></trkpt><trkpt lat="45.99025480011732" lon="9.396117567725232"><ele>485.0</ele><time>2026-03-28T15:38:44.979Z</time></trkpt><trkpt lat="45.9902215204319" lon="9.39619506117808"><ele>485.0</ele><time>2026-03-28T15:39:09.979Z</time></trkpt><trkpt lat="45.99022450307691" lon="9.396338673528222"><ele>485.0</ele><time>2026-03-28T15:40:15.978Z</time></trkpt><trkpt lat="45.99017581866919" lon="9.396505939499185"><ele>485.0</ele><time>2026-03-28T15:40:17.978Z</time></trkpt><trkpt lat="45.99018251393583" lon="9.396712381550968"><ele>483.75</ele><time>2026-03-28T15:40:19.978Z</time></trkpt><trkpt lat="45.990188566178524" lon="9.39686127706531"><ele>482.5</ele><time>2026-03-28T15:40:20.978Z</time></trkpt><trkpt lat="45.99022300791135" lon="9.397016552089802"><ele>481.25</ele><time>2026-03-28T15:40:21.978Z</time></trkpt><trkpt lat="45.990240955107474" lon="9.397182011860329"><ele>480.0</ele><time>2026-03-28T15:40:22.978Z</time></trkpt><trkpt lat="45.99028330158546" lon="9.397366782168534"><ele>480.0</ele><time>2026-03-28T15:40:23.978Z</time></trkpt><trkpt lat="45.9903180647142" lon="9.397531550296979"><ele>480.0</ele><time>2026-03-28T15:40:24.978Z</time></trkpt><trkpt lat="45.99035355977806" lon="9.397711995902837"><ele>480.0</ele><time>2026-03-28T15:40:25.978Z</time></trkpt><trkpt lat="45.990362056208326" lon="9.39788217922878"><ele>480.0</ele><time>2026-03-28T15:40:26.978Z</time></trkpt><trkpt lat="45.990374815985795" lon="9.398039785851855"><ele>480.0</ele><time>2026-03-28T15:40:27.978Z</time></trkpt><trkpt lat="45.990387546411725" lon="9.39818269103689"><ele>480.0</ele><time>2026-03-28T15:40:28.978Z</time></trkpt><trkpt lat="45.990401429558965" lon="9.39831490094298"><ele>480.0</ele><time>2026-03-28T15:40:29.978Z</time></trkpt><trkpt lat="45.9904097100867" lon="9.398440571435483"><ele>480.0</ele><time>2026-03-28T15:40:30.978Z</time></trkpt><trkpt lat="45.99041316118598" lon="9.398548874925037"><ele>480.0</ele><time>2026-03-28T15:40:31.978Z</time></trkpt><trkpt lat="45.99039963970726" lon="9.398703988249785"><ele>480.0</ele><time>2026-03-28T15:40:33.979Z</time></trkpt><trkpt lat="45.99041970082072" lon="9.39879977596172"><ele>480.0</ele><time>2026-03-28T15:40:34.979Z</time></trkpt><trkpt lat="45.99040368917921" lon="9.398905565496348"><ele>480.0</ele><time>2026-03-28T15:40:35.979Z</time></trkpt><trkpt lat="45.990406958728066" lon="9.399059907441417"><ele>480.0</ele><time>2026-03-28T15:40:36.979Z</time></trkpt><trkpt lat="45.99040991966122" lon="9.399199680876976"><ele>480.0</ele><time>2026-03-28T15:40:37.979Z</time></trkpt><trkpt lat="45.99041478845267" lon="9.399381758811762"><ele>480.0</ele><time>2026-03-28T15:40:38.979Z</time></trkpt><trkpt lat="45.99041945046687" lon="9.399558857530227"><ele>480.0</ele><time>2026-03-28T15:40:39.979Z</time></trkpt><trkpt lat="45.99042996327533" lon="9.399710280855572"><ele>480.0</ele><time>2026-03-28T15:40:40.979Z</time></trkpt><trkpt lat="45.99043796146615" lon="9.399852349026823"><ele>480.0</ele><time>2026-03-28T15:40:41.979Z</time></trkpt><trkpt lat="45.99043064594432" lon="9.399985937108744"><ele>480.0</ele><time>2026-03-28T15:40:42.98Z</time></trkpt><trkpt lat="45.990448697232736" lon="9.400117826386742"><ele>480.2</ele><time>2026-03-28T15:40:43.98Z</time></trkpt><trkpt lat="45.99047443871789" lon="9.400276542987704"><ele>480.4</ele><time>2026-03-28T15:40:44.98Z</time></trkpt><trkpt lat="45.99047315781731" lon="9.40040704147268"><ele>480.6</ele><time>2026-03-28T15:40:45.98Z</time></trkpt><trkpt lat="45.990479017253215" lon="9.400546519048762"><ele>480.8</ele><time>2026-03-28T15:40:46.98Z</time></trkpt><trkpt lat="45.990489038061895" lon="9.400666515137571"><ele>481.0</ele><time>2026-03-28T15:40:47.98Z</time></trkpt><trkpt lat="45.99049385243686" lon="9.400808760274808"><ele>481.0</ele><time>2026-03-28T15:40:48.979Z</time></trkpt><trkpt lat="45.990498683331765" lon="9.40096052944858"><ele>481.0</ele><time>2026-03-28T15:40:49.979Z</time></trkpt><trkpt lat="45.99048672684892" lon="9.40110773386011"><ele>481.0</ele><time>2026-03-28T15:40:50.979Z</time></trkpt><trkpt lat="45.99049758440746" lon="9.401238344412592"><ele>481.0</ele><time>2026-03-28T15:40:51.979Z</time></trkpt><trkpt lat="45.99049044192709" lon="9.401365462788924"><ele>481.0</ele><time>2026-03-28T15:40:52.979Z</time></trkpt><trkpt lat="45.99049239038225" lon="9.401484697615048"><ele>481.4</ele><time>2026-03-28T15:40:53.979Z</time></trkpt><trkpt lat="45.99049181972947" lon="9.401599089486917"><ele>481.8</ele><time>2026-03-28T15:40:54.979Z</time></trkpt><trkpt lat="45.99048321276611" lon="9.401703739459158"><ele>482.19999999999993</ele><time>2026-03-28T15:40:55.979Z</time></trkpt><trkpt lat="45.99047817970928" lon="9.401828594626345"><ele>482.59999999999997</ele><time>2026-03-28T15:40:57.979Z</time></trkpt><trkpt lat="45.99034359562793" lon="9.401913301925445"><ele>483.0</ele><time>2026-03-28T15:40:58.979Z</time></trkpt><trkpt lat="45.99024297314496" lon="9.401964017711622"><ele>483.0</ele><time>2026-03-28T15:41:00.979Z</time></trkpt><trkpt lat="45.99014824854119" lon="9.401826412075243"><ele>483.0</ele><time>2026-03-28T15:41:01.979Z</time></trkpt><trkpt lat="45.990085191081675" lon="9.401789581003928"><ele>483.0</ele><time>2026-03-28T15:41:02.979Z</time></trkpt><trkpt lat="45.99002615020445" lon="9.40175294836456"><ele>483.0</ele><time>2026-03-28T15:41:03.979Z</time></trkpt><trkpt lat="45.98996192640087" lon="9.401717963851576"><ele>483.0</ele><time>2026-03-28T15:41:04.979Z</time></trkpt><trkpt lat="45.98990596690404" lon="9.401674618232352"><ele>483.0</ele><time>2026-03-28T15:41:05.979Z</time></trkpt><trkpt lat="45.98985427686126" lon="9.401622262267917"><ele>484.0</ele><time>2026-03-28T15:41:06.979Z</time></trkpt><trkpt lat="45.98979636889855" lon="9.401554514878955"><ele>485.0</ele><time>2026-03-28T15:41:07.979Z</time></trkpt><trkpt lat="45.98974255620653" lon="9.401494624067723"><ele>486.0</ele><time>2026-03-28T15:41:08.979Z</time></trkpt><trkpt lat="45.98969340242966" lon="9.401415750660785"><ele>487.0</ele><time>2026-03-28T15:41:09.979Z</time></trkpt><trkpt lat="45.98964694394329" lon="9.401331923367989"><ele>488.0</ele><time>2026-03-28T15:41:10.979Z</time></trkpt><trkpt lat="45.98955880653048" lon="9.401206921121391"><ele>489.0</ele><time>2026-03-28T15:41:12.979Z</time></trkpt><trkpt lat="45.98951287226194" lon="9.401142800240956"><ele>489.0</ele><time>2026-03-28T15:41:13.979Z</time></trkpt><trkpt lat="45.989466911386685" lon="9.401072204523865"><ele>489.0</ele><time>2026-03-28T15:41:14.979Z</time></trkpt><trkpt lat="45.98938830776837" lon="9.400975203315028"><ele>489.0</ele><time>2026-03-28T15:41:16.979Z</time></trkpt><trkpt lat="45.989318730545904" lon="9.400895426374799"><ele>489.0</ele><time>2026-03-28T15:41:18.979Z</time></trkpt><trkpt lat="45.98920763347937" lon="9.40080667427134"><ele>489.0</ele><time>2026-03-28T15:41:20.979Z</time></trkpt><trkpt lat="45.98914819410032" lon="9.400772687875378"><ele>491.3333333333333</ele><time>2026-03-28T15:41:21.979Z</time></trkpt><trkpt lat="45.98908654539145" lon="9.400747766016531"><ele>493.66666666666663</ele><time>2026-03-28T15:41:22.979Z</time></trkpt><trkpt lat="45.98899632571705" lon="9.400700698253592"><ele>496.0</ele><time>2026-03-28T15:41:24.979Z</time></trkpt><trkpt lat="45.98890795420499" lon="9.400655928042234"><ele>498.3333333333333</ele><time>2026-03-28T15:41:26.979Z</time></trkpt><trkpt lat="45.988835450240565" lon="9.40059844599739"><ele>500.66666666666663</ele><time>2026-03-28T15:41:28.979Z</time></trkpt><trkpt lat="45.9887931789726" lon="9.400513129071959"><ele>503.0</ele><time>2026-03-28T15:41:30.979Z</time></trkpt><trkpt lat="45.988710314535425" lon="9.400401071603417"><ele>503.0</ele><time>2026-03-28T15:41:33.979Z</time></trkpt><trkpt lat="45.988598854495784" lon="9.400336708467748"><ele>502.99999999999994</ele><time>2026-03-28T15:41:35.979Z</time></trkpt><trkpt lat="45.98850106441783" lon="9.400343521885208"><ele>502.99999999999994</ele><time>2026-03-28T15:41:37.979Z</time></trkpt><trkpt lat="45.98841812593677" lon="9.400358577842267"><ele>503.0</ele><time>2026-03-28T15:41:39.979Z</time></trkpt><trkpt lat="45.988321011572936" lon="9.400348340562134"><ele>503.0</ele><time>2026-03-28T15:41:41.979Z</time></trkpt><trkpt lat="45.98824232548646" lon="9.400330990678812"><ele>505.99999999999994</ele><time>2026-03-28T15:41:43.978Z</time></trkpt><trkpt lat="45.98817926278715" lon="9.40031444970031"><ele>509.0</ele><time>2026-03-28T15:41:45.978Z</time></trkpt><trkpt lat="45.988092774312264" lon="9.400318354042467"><ele>512.0</ele><time>2026-03-28T15:41:48.978Z</time></trkpt><trkpt lat="45.98800948043092" lon="9.400341035949932"><ele>515.0</ele><time>2026-03-28T15:41:52.978Z</time></trkpt><trkpt lat="45.987946472708586" lon="9.400341986849826"><ele>518.0</ele><time>2026-03-28T15:41:55.978Z</time></trkpt><trkpt lat="45.98782403411821" lon="9.400305084338195"><ele>521.0</ele><time>2026-03-28T15:41:58.978Z</time></trkpt><trkpt lat="45.98775107812323" lon="9.400330149804953"><ele>521.0</ele><time>2026-03-28T15:42:00.978Z</time></trkpt><trkpt lat="45.98767558257647" lon="9.400318955143723"><ele>521.0</ele><time>2026-03-28T15:42:02.978Z</time></trkpt><trkpt lat="45.98760871996952" lon="9.400365953343316"><ele>521.0</ele><time>2026-03-28T15:42:06.978Z</time></trkpt><trkpt lat="45.987542547187516" lon="9.400376449609544"><ele>521.0</ele><time>2026-03-28T15:42:09.978Z</time></trkpt><trkpt lat="45.987471334671916" lon="9.40038017772626"><ele>521.0</ele><time>2026-03-28T15:42:11.978Z</time></trkpt><trkpt lat="45.98739985236583" lon="9.400367159182421"><ele>521.0</ele><time>2026-03-28T15:42:13.978Z</time></trkpt><trkpt lat="45.98733419931769" lon="9.400358486636925"><ele>521.0</ele><time>2026-03-28T15:42:16.978Z</time></trkpt><trkpt lat="45.98727251580234" lon="9.400327712499283"><ele>523.4285714285714</ele><time>2026-03-28T15:42:19.978Z</time></trkpt><trkpt lat="45.98720176884744" lon="9.400312063109002"><ele>525.8571428571429</ele><time>2026-03-28T15:42:23.978Z</time></trkpt><trkpt lat="45.98713189003077" lon="9.400317933915325"><ele>528.2857142857143</ele><time>2026-03-28T15:42:27.978Z</time></trkpt><trkpt lat="45.98705949209404" lon="9.400352282004393"><ele>530.7142857142858</ele><time>2026-03-28T15:42:32.978Z</time></trkpt><trkpt lat="45.98704335301569" lon="9.400453933472399"><ele>533.1428571428572</ele><time>2026-03-28T15:42:38.978Z</time></trkpt><trkpt lat="45.98703029819188" lon="9.400546280972009"><ele>535.5714285714286</ele><time>2026-03-28T15:42:41.979Z</time></trkpt><trkpt lat="45.9870089200022" lon="9.400637213108014"><ele>538.0</ele><time>2026-03-28T15:42:43.979Z</time></trkpt><trkpt lat="45.98694750167693" lon="9.400699836514999"><ele>538.0</ele><time>2026-03-28T15:42:47.979Z</time></trkpt><trkpt lat="45.986947673255955" lon="9.400794036684385"><ele>538.0</ele><time>2026-03-28T15:42:51.979Z</time></trkpt><trkpt lat="45.986934537786475" lon="9.400884318726206"><ele>538.0</ele><time>2026-03-28T15:42:54.979Z</time></trkpt><trkpt lat="45.986883403948994" lon="9.400995814328837"><ele>538.0</ele><time>2026-03-28T15:42:57.979Z</time></trkpt><trkpt lat="45.986900091654604" lon="9.401102148743865"><ele>538.0</ele><time>2026-03-28T15:42:59.979Z</time></trkpt><trkpt lat="45.98692728137981" lon="9.401202932582475"><ele>538.0</ele><time>2026-03-28T15:43:01.979Z</time></trkpt><trkpt lat="45.98695910438121" lon="9.401290832976237"><ele>538.0</ele><time>2026-03-28T15:43:03.979Z</time></trkpt><trkpt lat="45.986979789213336" lon="9.40140914748387"><ele>536.6</ele><time>2026-03-28T15:43:06.979Z</time></trkpt><trkpt lat="45.98693751291936" lon="9.401517021460865"><ele>535.1999999999999</ele><time>2026-03-28T15:43:09.978Z</time></trkpt><trkpt lat="45.98684461019628" lon="9.40153526918165"><ele>533.8</ele><time>2026-03-28T15:43:11.978Z</time></trkpt><trkpt lat="45.986751516407175" lon="9.4015611998678"><ele>532.4</ele><time>2026-03-28T15:43:13.978Z</time></trkpt><trkpt lat="45.98668630733479" lon="9.401582873068504"><ele>531.0</ele><time>2026-03-28T15:43:15.978Z</time></trkpt><trkpt lat="45.98659815197382" lon="9.401674617370128"><ele>530.4</ele><time>2026-03-28T15:43:17.978Z</time></trkpt><trkpt lat="45.986530633113375" lon="9.401780761705837"><ele>529.8</ele><time>2026-03-28T15:43:19.978Z</time></trkpt><trkpt lat="45.98645851176928" lon="9.40188927950564"><ele>529.1999999999999</ele><time>2026-03-28T15:43:21.978Z</time></trkpt><trkpt lat="45.98639811889303" lon="9.402003295659243"><ele>528.6</ele><time>2026-03-28T15:43:23.978Z</time></trkpt><trkpt lat="45.98635164914076" lon="9.402093624967431"><ele>528.0</ele><time>2026-03-28T15:43:24.978Z</time></trkpt><trkpt lat="45.98629606756588" lon="9.402208452772546"><ele>528.0</ele><time>2026-03-28T15:43:26.978Z</time></trkpt><trkpt lat="45.98625154546374" lon="9.402315028565253"><ele>528.0</ele><time>2026-03-28T15:43:30.978Z</time></trkpt><trkpt lat="45.986179838345514" lon="9.402379619147416"><ele>528.0</ele><time>2026-03-28T15:43:35.978Z</time></trkpt><trkpt lat="45.986122111284" lon="9.402418336309767"><ele>528.0</ele><time>2026-03-28T15:43:37.978Z</time></trkpt><trkpt lat="45.986038003828064" lon="9.402472761163542"><ele>528.0</ele><time>2026-03-28T15:43:39.978Z</time></trkpt><trkpt lat="45.98599842847704" lon="9.4026010784913"><ele>528.0</ele><time>2026-03-28T15:43:43.978Z</time></trkpt><trkpt lat="45.985959532030044" lon="9.40275612926365"><ele>528.0</ele><time>2026-03-28T15:43:45.978Z</time></trkpt><trkpt lat="45.985935541804366" lon="9.402876440541078"><ele>528.0</ele><time>2026-03-28T15:43:47.978Z</time></trkpt><trkpt lat="45.985854019147176" lon="9.402886074254804"><ele>528.0</ele><time>2026-03-28T15:43:49.978Z</time></trkpt><trkpt lat="45.98579201057575" lon="9.402936514508465"><ele>528.0</ele><time>2026-03-28T15:43:51.978Z</time></trkpt><trkpt lat="45.985790118265626" lon="9.403056873948172"><ele>528.0</ele><time>2026-03-28T15:43:53.978Z</time></trkpt><trkpt lat="45.985812563767695" lon="9.403212546533162"><ele>528.0</ele><time>2026-03-28T15:43:55.978Z</time></trkpt><trkpt lat="45.98574735258669" lon="9.403343546342919"><ele>528.5</ele><time>2026-03-28T15:43:57.978Z</time></trkpt><trkpt lat="45.98567417367875" lon="9.403353217376479"><ele>529.0</ele><time>2026-03-28T15:43:58.978Z</time></trkpt><trkpt lat="45.985606541828126" lon="9.40332514316066"><ele>529.5</ele><time>2026-03-28T15:43:59.978Z</time></trkpt><trkpt lat="45.98547824392993" lon="9.403336775193349"><ele>530.0</ele><time>2026-03-28T15:44:01.978Z</time></trkpt><trkpt lat="45.98540976259786" lon="9.403388885803322"><ele>530.5</ele><time>2026-03-28T15:44:02.978Z</time></trkpt><trkpt lat="45.98532288490827" lon="9.403456589421294"><ele>531.0</ele><time>2026-03-28T15:44:04.978Z</time></trkpt><trkpt lat="45.985252780318625" lon="9.403546191630031"><ele>531.0</ele><time>2026-03-28T15:44:07.978Z</time></trkpt><trkpt lat="45.98516173558567" lon="9.40356256528341"><ele>531.0</ele><time>2026-03-28T15:44:09.978Z</time></trkpt><trkpt lat="45.98517582183785" lon="9.4036943757646"><ele>531.0</ele><time>2026-03-28T15:44:11.978Z</time></trkpt><trkpt lat="45.98519701027012" lon="9.403865009605363"><ele>531.0</ele><time>2026-03-28T15:44:13.978Z</time></trkpt><trkpt lat="45.98514230351419" lon="9.403960301497921"><ele>531.0</ele><time>2026-03-28T15:44:14.978Z</time></trkpt><trkpt lat="45.98510640387982" lon="9.404051339352508"><ele>528.8</ele><time>2026-03-28T15:44:15.978Z</time></trkpt><trkpt lat="45.985038350917954" lon="9.404186856530183"><ele>526.6</ele><time>2026-03-28T15:44:16.978Z</time></trkpt><trkpt lat="45.98495974206499" lon="9.404265313626285"><ele>524.4</ele><time>2026-03-28T15:44:17.978Z</time></trkpt><trkpt lat="45.98490557292876" lon="9.404341127996018"><ele>522.2</ele><time>2026-03-28T15:44:18.978Z</time></trkpt><trkpt lat="45.98485388816336" lon="9.404418726669315"><ele>520.0</ele><time>2026-03-28T15:44:19.978Z</time></trkpt><trkpt lat="45.98476520217859" lon="9.404495400795954"><ele>522.2</ele><time>2026-03-28T15:44:21.978Z</time></trkpt><trkpt lat="45.98473479935861" lon="9.404580170591164"><ele>524.4</ele><time>2026-03-28T15:44:23.977Z</time></trkpt><trkpt lat="45.98471642655609" lon="9.404794838220132"><ele>526.6</ele><time>2026-03-28T15:44:25.977Z</time></trkpt><trkpt lat="45.98467757959723" lon="9.404927625301129"><ele>528.8</ele><time>2026-03-28T15:44:26.977Z</time></trkpt><trkpt lat="45.98464374410517" lon="9.405035079108474"><ele>531.0</ele><time>2026-03-28T15:44:27.977Z</time></trkpt><trkpt lat="45.98458233757505" lon="9.405171805626699"><ele>531.0</ele><time>2026-03-28T15:44:29.977Z</time></trkpt><trkpt lat="45.98453349338073" lon="9.405263642756625"><ele>531.0</ele><time>2026-03-28T15:44:30.977Z</time></trkpt><trkpt lat="45.98447037197276" lon="9.405335988454393"><ele>531.0</ele><time>2026-03-28T15:44:31.977Z</time></trkpt><trkpt lat="45.98440012439873" lon="9.405427430317543"><ele>531.0</ele><time>2026-03-28T15:44:32.977Z</time></trkpt><trkpt lat="45.984353467495794" lon="9.405520475133875"><ele>531.0</ele><time>2026-03-28T15:44:33.977Z</time></trkpt><trkpt lat="45.98430575377156" lon="9.4056137361896"><ele>531.0</ele><time>2026-03-28T15:44:34.977Z</time></trkpt><trkpt lat="45.98428462457726" lon="9.405711557742531"><ele>530.8333333333334</ele><time>2026-03-28T15:44:35.977Z</time></trkpt><trkpt lat="45.98425967254681" lon="9.40580525144059"><ele>530.6666666666666</ele><time>2026-03-28T15:44:36.977Z</time></trkpt><trkpt lat="45.98423229542231" lon="9.405897966088261"><ele>530.5</ele><time>2026-03-28T15:44:37.977Z</time></trkpt><trkpt lat="45.98419493595309" lon="9.405995447092371"><ele>530.3333333333333</ele><time>2026-03-28T15:44:38.977Z</time></trkpt><trkpt lat="45.98416866671083" lon="9.406093066096332"><ele>530.1666666666666</ele><time>2026-03-28T15:44:39.977Z</time></trkpt><trkpt lat="45.98411721999648" lon="9.406223178400852"><ele>530.0</ele><time>2026-03-28T15:44:41.977Z</time></trkpt><trkpt lat="45.98411928521907" lon="9.406358956476492"><ele>530.0</ele><time>2026-03-28T15:44:43.977Z</time></trkpt><trkpt lat="45.98408838946712" lon="9.406535412145297"><ele>530.0</ele><time>2026-03-28T15:44:45.979Z</time></trkpt><trkpt lat="45.984056961769234" lon="9.406704518547832"><ele>530.0</ele><time>2026-03-28T15:44:47.979Z</time></trkpt><trkpt lat="45.98404051787777" lon="9.406797354719378"><ele>530.0</ele><time>2026-03-28T15:44:48.979Z</time></trkpt><trkpt lat="45.98397949464601" lon="9.40692024214057"><ele>530.0</ele><time>2026-03-28T15:44:50.979Z</time></trkpt><trkpt lat="45.98394218366531" lon="9.407035912125028"><ele>529.9999999999999</ele><time>2026-03-28T15:44:52.979Z</time></trkpt><trkpt lat="45.9839379158427" lon="9.407129449723941"><ele>530.0</ele><time>2026-03-28T15:44:55.979Z</time></trkpt><trkpt lat="45.98391123852968" lon="9.4072134234317"><ele>530.0</ele><time>2026-03-28T15:44:59.979Z</time></trkpt><trkpt lat="45.98384695191306" lon="9.407261870734324"><ele>530.0</ele><time>2026-03-28T15:45:04.979Z</time></trkpt><trkpt lat="45.98377796306849" lon="9.407309266435513"><ele>530.0</ele><time>2026-03-28T15:45:07.979Z</time></trkpt><trkpt lat="45.98374390870132" lon="9.407404222741558"><ele>529.9999999999999</ele><time>2026-03-28T15:45:12.979Z</time></trkpt><trkpt lat="45.98370674590084" lon="9.407495766458222"><ele>530.0</ele><time>2026-03-28T15:45:21.979Z</time></trkpt><trkpt lat="45.98367475745311" lon="9.407579302944093"><ele>527.2</ele><time>2026-03-28T15:45:23.978Z</time></trkpt><trkpt lat="45.983619599268195" lon="9.407672742600429"><ele>524.4</ele><time>2026-03-28T15:45:26.978Z</time></trkpt><trkpt lat="45.98355595308256" lon="9.4077287505873"><ele>521.6</ele><time>2026-03-28T15:45:27.978Z</time></trkpt><trkpt lat="45.98345069258079" lon="9.40780105740849"><ele>518.8</ele><time>2026-03-28T15:45:29.978Z</time></trkpt><trkpt lat="45.98342466586852" lon="9.407963816557311"><ele>516.0</ele><time>2026-03-28T15:45:31.978Z</time></trkpt><trkpt lat="45.98339095461512" lon="9.40807584048412"><ele>514.6</ele><time>2026-03-28T15:45:32.978Z</time></trkpt><trkpt lat="45.98336599453107" lon="9.408187481954641"><ele>513.2</ele><time>2026-03-28T15:45:33.978Z</time></trkpt><trkpt lat="45.98330737077493" lon="9.408264893506463"><ele>511.79999999999995</ele><time>2026-03-28T15:45:34.978Z</time></trkpt><trkpt lat="45.98326081975395" lon="9.408367603958249"><ele>510.4</ele><time>2026-03-28T15:45:36.978Z</time></trkpt><trkpt lat="45.983205576355935" lon="9.40849350972507"><ele>509.0</ele><time>2026-03-28T15:45:38.978Z</time></trkpt><trkpt lat="45.983117746043895" lon="9.408607315777074"><ele>513.5714285714286</ele><time>2026-03-28T15:45:40.978Z</time></trkpt><trkpt lat="45.983135795521356" lon="9.408705908783249"><ele>518.1428571428571</ele><time>2026-03-28T15:45:42.978Z</time></trkpt><trkpt lat="45.98312249538802" lon="9.4087975851315"><ele>522.7142857142858</ele><time>2026-03-28T15:45:45.978Z</time></trkpt><trkpt lat="45.98313201322843" lon="9.408913501349527"><ele>527.2857142857142</ele><time>2026-03-28T15:45:48.978Z</time></trkpt><trkpt lat="45.9831182130995" lon="9.409010005568105"><ele>531.8571428571429</ele><time>2026-03-28T15:45:52.978Z</time></trkpt><trkpt lat="45.98310514875532" lon="9.40911204917394"><ele>536.4285714285714</ele><time>2026-03-28T15:45:58.978Z</time></trkpt><trkpt lat="45.9831152516823" lon="9.409229653013885"><ele>541.0</ele><time>2026-03-28T15:46:01.978Z</time></trkpt><trkpt lat="45.98309346409758" lon="9.409315840226654"><ele>541.0</ele><time>2026-03-28T15:46:03.978Z</time></trkpt><trkpt lat="45.983082753625894" lon="9.409440969711447"><ele>541.0</ele><time>2026-03-28T15:46:06.978Z</time></trkpt><trkpt lat="45.983061001672844" lon="9.40954237228113"><ele>541.0</ele><time>2026-03-28T15:46:10.978Z</time></trkpt><trkpt lat="45.98304561983569" lon="9.409674372695115"><ele>541.0</ele><time>2026-03-28T15:46:13.978Z</time></trkpt><trkpt lat="45.983040062168996" lon="9.409792837805131"><ele>541.0</ele><time>2026-03-28T15:46:16.978Z</time></trkpt><trkpt lat="45.983048608645944" lon="9.409899991451445"><ele>541.0</ele><time>2026-03-28T15:46:19.978Z</time></trkpt><trkpt lat="45.983028598610424" lon="9.410023624804545"><ele>541.2857142857143</ele><time>2026-03-28T15:46:22.978Z</time></trkpt><trkpt lat="45.9829919100679" lon="9.410106617593042"><ele>541.5714285714286</ele><time>2026-03-28T15:46:24.978Z</time></trkpt><trkpt lat="45.98293510705169" lon="9.410193411245691"><ele>541.8571428571429</ele><time>2026-03-28T15:46:27.978Z</time></trkpt><trkpt lat="45.982916311782205" lon="9.410281530730703"><ele>542.1428571428571</ele><time>2026-03-28T15:46:28.978Z</time></trkpt><trkpt lat="45.98290580081929" lon="9.410373968411411"><ele>542.4285714285714</ele><time>2026-03-28T15:46:30.978Z</time></trkpt><trkpt lat="45.98283357586052" lon="9.410443734865831"><ele>542.7142857142858</ele><time>2026-03-28T15:46:33.978Z</time></trkpt><trkpt lat="45.98283017403234" lon="9.410534380185126"><ele>543.0</ele><time>2026-03-28T15:46:35.978Z</time></trkpt><trkpt lat="45.98281988031758" lon="9.410631966319226"><ele>543.0</ele><time>2026-03-28T15:46:37.977Z</time></trkpt><trkpt lat="45.982751557695146" lon="9.410729305379526"><ele>543.0</ele><time>2026-03-28T15:46:40.977Z</time></trkpt><trkpt lat="45.9827523363594" lon="9.410833504086959"><ele>543.0</ele><time>2026-03-28T15:46:43.977Z</time></trkpt><trkpt lat="45.98266539031388" lon="9.41087320622763"><ele>543.0</ele><time>2026-03-28T15:46:47.977Z</time></trkpt><trkpt lat="45.98264305068883" lon="9.41098497775016"><ele>543.0</ele><time>2026-03-28T15:46:51.979Z</time></trkpt><trkpt lat="45.9824761913244" lon="9.41171703092135"><ele>542.6666666666666</ele><time>2026-03-28T15:46:52.979Z</time></trkpt><trkpt lat="45.982434396498945" lon="9.411791403490524"><ele>542.3333333333334</ele><time>2026-03-28T15:46:53.979Z</time></trkpt><trkpt lat="45.98237692631966" lon="9.411882691118374"><ele>542.0</ele><time>2026-03-28T15:46:55.979Z</time></trkpt><trkpt lat="45.98232905432089" lon="9.41194803437863"><ele>541.6666666666667</ele><time>2026-03-28T15:46:57.979Z</time></trkpt><trkpt lat="45.98232050075962" lon="9.412038918961377"><ele>541.3333333333334</ele><time>2026-03-28T15:46:59.979Z</time></trkpt><trkpt lat="45.98229443541048" lon="9.412161228513428"><ele>541.0</ele><time>2026-03-28T15:47:01.979Z</time></trkpt><trkpt lat="45.982241774134714" lon="9.41224951207026"><ele>541.0</ele><time>2026-03-28T15:47:04.979Z</time></trkpt><trkpt lat="45.98220009752064" lon="9.41234404432979"><ele>541.0</ele><time>2026-03-28T15:47:07.979Z</time></trkpt><trkpt lat="45.98218333125866" lon="9.412431731889125"><ele>541.0</ele><time>2026-03-28T15:47:10.979Z</time></trkpt><trkpt lat="45.98218369515906" lon="9.412529123624104"><ele>541.0</ele><time>2026-03-28T15:47:13.979Z</time></trkpt><trkpt lat="45.98219329557736" lon="9.412660073437621"><ele>541.0</ele><time>2026-03-28T15:47:18.979Z</time></trkpt><trkpt lat="45.982169791996675" lon="9.412840390862817"><ele>541.0</ele><time>2026-03-28T15:47:20.979Z</time></trkpt><trkpt lat="45.98215438548775" lon="9.412955855872159"><ele>539.4</ele><time>2026-03-28T15:47:23.979Z</time></trkpt><trkpt lat="45.98210404350101" lon="9.413056016512853"><ele>537.8</ele><time>2026-03-28T15:47:26.979Z</time></trkpt><trkpt lat="45.98208830509509" lon="9.413204169534588"><ele>536.1999999999999</ele><time>2026-03-28T15:47:29.979Z</time></trkpt><trkpt lat="45.9820511672977" lon="9.413326763603889"><ele>534.6</ele><time>2026-03-28T15:47:30.979Z</time></trkpt><trkpt lat="45.98200273434999" lon="9.41343087710949"><ele>533.0</ele><time>2026-03-28T15:47:31.979Z</time></trkpt><trkpt lat="45.98194761098607" lon="9.413538548627008"><ele>533.0</ele><time>2026-03-28T15:47:32.979Z</time></trkpt><trkpt lat="45.981907196824906" lon="9.413641757648334"><ele>533.0</ele><time>2026-03-28T15:47:33.979Z</time></trkpt><trkpt lat="45.98185945850895" lon="9.413747297034286"><ele>533.0</ele><time>2026-03-28T15:47:34.978Z</time></trkpt><trkpt lat="45.98180004942055" lon="9.413912180285529"><ele>533.0</ele><time>2026-03-28T15:47:36.978Z</time></trkpt><trkpt lat="45.98177775781368" lon="9.414000170999195"><ele>533.0</ele><time>2026-03-28T15:47:37.978Z</time></trkpt><trkpt lat="45.98172624898135" lon="9.414054029668863"><ele>533.0</ele><time>2026-03-28T15:47:38.978Z</time></trkpt><trkpt lat="45.98165885509441" lon="9.414097932165806"><ele>535.8</ele><time>2026-03-28T15:47:39.978Z</time></trkpt><trkpt lat="45.981595198811746" lon="9.414166472755563"><ele>538.5999999999999</ele><time>2026-03-28T15:47:40.978Z</time></trkpt><trkpt lat="45.98149605572294" lon="9.414269585569436"><ele>541.4000000000001</ele><time>2026-03-28T15:47:42.978Z</time></trkpt><trkpt lat="45.981413230671315" lon="9.414366778144593"><ele>544.2</ele><time>2026-03-28T15:47:44.978Z</time></trkpt><trkpt lat="45.98137579775876" lon="9.414440247004011"><ele>547.0</ele><time>2026-03-28T15:47:45.978Z</time></trkpt><trkpt lat="45.98133173642826" lon="9.414577967712267"><ele>547.2</ele><time>2026-03-28T15:47:47.978Z</time></trkpt><trkpt lat="45.98127575448764" lon="9.414733054446057"><ele>547.4000000000001</ele><time>2026-03-28T15:47:49.978Z</time></trkpt><trkpt lat="45.98121737024299" lon="9.414833916005405"><ele>547.5999999999999</ele><time>2026-03-28T15:47:51.978Z</time></trkpt><trkpt lat="45.98114949250052" lon="9.414945079303275"><ele>547.8</ele><time>2026-03-28T15:47:53.978Z</time></trkpt><trkpt lat="45.981124798393736" lon="9.415055208143206"><ele>548.0</ele><time>2026-03-28T15:47:56.978Z</time></trkpt><trkpt lat="45.98104976926092" lon="9.415144208244385"><ele>548.0</ele><time>2026-03-28T15:47:58.978Z</time></trkpt><trkpt lat="45.98100010073494" lon="9.415255008623825"><ele>548.0</ele><time>2026-03-28T15:48:00.978Z</time></trkpt><trkpt lat="45.980953824976496" lon="9.415354476356645"><ele>548.0</ele><time>2026-03-28T15:48:02.978Z</time></trkpt><trkpt lat="45.980882624849" lon="9.415404441951477"><ele>548.0</ele><time>2026-03-28T15:48:04.978Z</time></trkpt><trkpt lat="45.98084133660364" lon="9.415500719988263"><ele>548.0</ele><time>2026-03-28T15:48:06.978Z</time></trkpt><trkpt lat="45.98078177596715" lon="9.415612630044707"><ele>548.0</ele><time>2026-03-28T15:48:08.978Z</time></trkpt><trkpt lat="45.980754566194726" lon="9.415719533558828"><ele>551.1666666666666</ele><time>2026-03-28T15:48:10.978Z</time></trkpt><trkpt lat="45.98068006095376" lon="9.415793712225476"><ele>554.3333333333333</ele><time>2026-03-28T15:48:12.978Z</time></trkpt><trkpt lat="45.98059795040488" lon="9.415837696755045"><ele>557.5</ele><time>2026-03-28T15:48:14.978Z</time></trkpt><trkpt lat="45.98052953877153" lon="9.415879624338832"><ele>560.6666666666666</ele><time>2026-03-28T15:48:15.978Z</time></trkpt><trkpt lat="45.980479123268005" lon="9.415963776532656"><ele>563.8333333333334</ele><time>2026-03-28T15:48:17.978Z</time></trkpt><trkpt lat="45.98038422120803" lon="9.416057247929633"><ele>567.0</ele><time>2026-03-28T15:48:19.978Z</time></trkpt><trkpt lat="45.98033636802223" lon="9.41613785716531"><ele>567.0</ele><time>2026-03-28T15:48:21.978Z</time></trkpt><trkpt lat="45.9802489822389" lon="9.416202883109841"><ele>567.0</ele><time>2026-03-28T15:48:23.978Z</time></trkpt><trkpt lat="45.9801730847145" lon="9.416239790586296"><ele>567.0</ele><time>2026-03-28T15:48:24.978Z</time></trkpt><trkpt lat="45.98007103333562" lon="9.416378831597134"><ele>567.0</ele><time>2026-03-28T15:48:26.978Z</time></trkpt><trkpt lat="45.98002922470565" lon="9.416462401200466"><ele>567.0</ele><time>2026-03-28T15:48:28.978Z</time></trkpt><trkpt lat="45.98003684882801" lon="9.41655750125824"><ele>570.0</ele><time>2026-03-28T15:48:30.978Z</time></trkpt><trkpt lat="45.97999449485649" lon="9.416634316950235"><ele>573.0</ele><time>2026-03-28T15:48:34.978Z</time></trkpt><trkpt lat="45.979926303496946" lon="9.41666488471176"><ele>576.0</ele><time>2026-03-28T15:48:37.978Z</time></trkpt><trkpt lat="45.97987721739012" lon="9.416723831201683"><ele>579.0</ele><time>2026-03-28T15:48:42.978Z</time></trkpt><trkpt lat="45.97982202911916" lon="9.41678426469304"><ele>582.0</ele><time>2026-03-28T15:48:50.977Z</time></trkpt><trkpt lat="45.97975472348803" lon="9.416831565131957"><ele>585.0</ele><time>2026-03-28T15:49:00.979Z</time></trkpt><trkpt lat="45.97972521401019" lon="9.416944948318012"><ele>588.0</ele><time>2026-03-28T15:50:29.978Z</time></trkpt><trkpt lat="45.979668786034146" lon="9.41702339532372"><ele>588.0</ele><time>2026-03-28T15:50:32.978Z</time></trkpt><trkpt lat="45.97964396932009" lon="9.417109089442322"><ele>588.0</ele><time>2026-03-28T15:50:36.978Z</time></trkpt><trkpt lat="45.97958486750597" lon="9.417151438026416"><ele>588.0</ele><time>2026-03-28T15:50:41.978Z</time></trkpt><trkpt lat="45.979520868675806" lon="9.417131424765538"><ele>588.0</ele><time>2026-03-28T15:50:45.978Z</time></trkpt><trkpt lat="45.97955570239027" lon="9.417039351255069"><ele>588.0</ele><time>2026-03-28T15:50:51.978Z</time></trkpt><trkpt lat="45.97960177292955" lon="9.416969314945685"><ele>588.0</ele><time>2026-03-28T15:50:56.978Z</time></trkpt><trkpt lat="45.97963419318433" lon="9.417047437893181"><ele>588.0</ele><time>2026-03-28T15:51:00.978Z</time></trkpt><trkpt lat="45.97958139282542" lon="9.417121971761912"><ele>588.0</ele><time>2026-03-28T15:51:05.979Z</time></trkpt><trkpt lat="45.979514005044905" lon="9.417156734317617"><ele>588.0</ele><time>2026-03-28T15:51:10.979Z</time></trkpt><trkpt lat="45.97954382419906" lon="9.417062375085933"><ele>588.0</ele><time>2026-03-28T15:51:14.98Z</time></trkpt><trkpt lat="45.97961906277972" lon="9.41703571871618"><ele>588.0</ele><time>2026-03-28T15:51:16.98Z</time></trkpt><trkpt lat="45.97969405048825" lon="9.417095408561085"><ele>588.0</ele><time>2026-03-28T15:51:19.98Z</time></trkpt><trkpt lat="45.979745655324066" lon="9.417175775088596"><ele>588.0</ele><time>2026-03-28T15:51:20.98Z</time></trkpt><trkpt lat="45.979770240719795" lon="9.417308608914182"><ele>587.8</ele><time>2026-03-28T15:51:22.98Z</time></trkpt><trkpt lat="45.97983374159718" lon="9.417448954458733"><ele>587.5999999999999</ele><time>2026-03-28T15:51:24.979Z</time></trkpt><trkpt lat="45.97984052417297" lon="9.417561113863007"><ele>587.4000000000001</ele><time>2026-03-28T15:51:27.979Z</time></trkpt><trkpt lat="45.979890795792585" lon="9.417632896453185"><ele>587.2</ele><time>2026-03-28T15:51:30.979Z</time></trkpt><trkpt lat="45.97991170482233" lon="9.41783573815778"><ele>587.0</ele><time>2026-03-28T15:51:31.979Z</time></trkpt><trkpt lat="45.97995141668751" lon="9.417933740387122"><ele>586.3333333333333</ele><time>2026-03-28T15:51:32.979Z</time></trkpt><trkpt lat="45.979985253284646" lon="9.418025986212276"><ele>585.6666666666666</ele><time>2026-03-28T15:51:33.979Z</time></trkpt><trkpt lat="45.97999770880001" lon="9.41816126193249"><ele>585.0</ele><time>2026-03-28T15:51:34.979Z</time></trkpt><trkpt lat="45.98001459101462" lon="9.418267504579038"><ele>584.3333333333334</ele><time>2026-03-28T15:51:36.979Z</time></trkpt><trkpt lat="45.9800612288214" lon="9.418389634150941"><ele>583.6666666666667</ele><time>2026-03-28T15:51:38.979Z</time></trkpt><trkpt lat="45.980096255394734" lon="9.41851379639899"><ele>583.0</ele><time>2026-03-28T15:51:40.979Z</time></trkpt><trkpt lat="45.98009907194181" lon="9.418637805999658"><ele>583.0000000000001</ele><time>2026-03-28T15:51:43.979Z</time></trkpt><trkpt lat="45.98005429612895" lon="9.418710261622623"><ele>583.0</ele><time>2026-03-28T15:51:51.979Z</time></trkpt><trkpt lat="45.98002565449645" lon="9.418801903234263"><ele>583.0</ele><time>2026-03-28T15:52:07.979Z</time></trkpt><trkpt lat="45.97995908625371" lon="9.418800160170978"><ele>583.0</ele><time>2026-03-28T15:52:11.979Z</time></trkpt><trkpt lat="45.97993085978335" lon="9.418717242048391"><ele>583.0</ele><time>2026-03-28T15:52:55.978Z</time></trkpt><trkpt lat="45.97998682196035" lon="9.418661164629906"><ele>583.0000000000001</ele><time>2026-03-28T15:53:01.978Z</time></trkpt><trkpt lat="45.98005996194964" lon="9.418684204993832"><ele>583.0</ele><time>2026-03-28T15:53:07.978Z</time></trkpt><trkpt lat="45.98007888292517" lon="9.41878419089327"><ele>577.6</ele><time>2026-03-28T15:53:09.98Z</time></trkpt><trkpt lat="45.98009395414752" lon="9.418883465093902"><ele>572.1999999999999</ele><time>2026-03-28T15:53:11.979Z</time></trkpt><trkpt lat="45.98012718108402" lon="9.41901927679116"><ele>566.8</ele><time>2026-03-28T15:53:13.98Z</time></trkpt><trkpt lat="45.98016992044593" lon="9.419137276890833"><ele>561.4</ele><time>2026-03-28T15:53:15.979Z</time></trkpt><trkpt lat="45.98020159039872" lon="9.419276231507014"><ele>556.0</ele><time>2026-03-28T15:53:17.98Z</time></trkpt><trkpt lat="45.98024470699694" lon="9.41941054126242"><ele>556.0</ele><time>2026-03-28T15:53:19.979Z</time></trkpt><trkpt lat="45.98027485814907" lon="9.419540302526304"><ele>556.0</ele><time>2026-03-28T15:53:21.979Z</time></trkpt><trkpt lat="45.98028834575201" lon="9.419630959675194"><ele>556.0</ele><time>2026-03-28T15:53:22.979Z</time></trkpt><trkpt lat="45.98030971559157" lon="9.419745720036287"><ele>556.0</ele><time>2026-03-28T15:53:24.979Z</time></trkpt><trkpt lat="45.98034858558402" lon="9.419914118440328"><ele>556.0</ele><time>2026-03-28T15:53:26.979Z</time></trkpt><trkpt lat="45.98036923404619" lon="9.420062367858531"><ele>555.0</ele><time>2026-03-28T15:53:28.979Z</time></trkpt><trkpt lat="45.98040091548832" lon="9.42021740680981"><ele>554.0</ele><time>2026-03-28T15:53:30.979Z</time></trkpt><trkpt lat="45.98043082469249" lon="9.42034966372348"><ele>553.0</ele><time>2026-03-28T15:53:32.979Z</time></trkpt><trkpt lat="45.980479970147336" lon="9.420492377850431"><ele>552.0</ele><time>2026-03-28T15:53:34.979Z</time></trkpt><trkpt lat="45.980504308257174" lon="9.420608912882246"><ele>551.0</ele><time>2026-03-28T15:53:35.979Z</time></trkpt><trkpt lat="45.98053115994829" lon="9.420698565370449"><ele>549.6</ele><time>2026-03-28T15:53:36.979Z</time></trkpt><trkpt lat="45.98056341271482" lon="9.420810286427027"><ele>548.2</ele><time>2026-03-28T15:53:37.979Z</time></trkpt><trkpt lat="45.98060818054373" lon="9.420931563922396"><ele>546.8</ele><time>2026-03-28T15:53:38.979Z</time></trkpt><trkpt lat="45.980655869681286" lon="9.421046016854037"><ele>545.4</ele><time>2026-03-28T15:53:39.979Z</time></trkpt><trkpt lat="45.980709851679734" lon="9.421131493960393"><ele>544.0</ele><time>2026-03-28T15:53:40.979Z</time></trkpt><trkpt lat="45.98077718780028" lon="9.421244663282762"><ele>543.0</ele><time>2026-03-28T15:53:41.979Z</time></trkpt><trkpt lat="45.98083307616518" lon="9.42135452027018"><ele>542.0</ele><time>2026-03-28T15:53:42.979Z</time></trkpt><trkpt lat="45.98087477710255" lon="9.421463817497422"><ele>541.0</ele><time>2026-03-28T15:53:43.979Z</time></trkpt><trkpt lat="45.98092928169898" lon="9.421554211426312"><ele>540.0</ele><time>2026-03-28T15:53:44.979Z</time></trkpt><trkpt lat="45.98096600131307" lon="9.421654149174886"><ele>539.0</ele><time>2026-03-28T15:53:45.979Z</time></trkpt><trkpt lat="45.98101170123971" lon="9.421742126513317"><ele>538.0</ele><time>2026-03-28T15:53:46.979Z</time></trkpt><trkpt lat="45.98104971892012" lon="9.421828335127474"><ele>536.5714285714286</ele><time>2026-03-28T15:53:47.979Z</time></trkpt><trkpt lat="45.98108812057365" lon="9.421922800038544"><ele>535.1428571428572</ele><time>2026-03-28T15:53:48.979Z</time></trkpt><trkpt lat="45.98113782267592" lon="9.421989091743482"><ele>533.7142857142858</ele><time>2026-03-28T15:53:49.979Z</time></trkpt><trkpt lat="45.981172920542555" lon="9.422085315506889"><ele>532.2857142857143</ele><time>2026-03-28T15:53:50.979Z</time></trkpt><trkpt lat="45.981200662216686" lon="9.4221693834349"><ele>530.8571428571429</ele><time>2026-03-28T15:53:51.979Z</time></trkpt><trkpt lat="45.981239928545996" lon="9.422246418791113"><ele>529.4285714285714</ele><time>2026-03-28T15:53:52.979Z</time></trkpt><trkpt lat="45.981278745734606" lon="9.422328472417046"><ele>528.0</ele><time>2026-03-28T15:53:53.979Z</time></trkpt><trkpt lat="45.981314750274805" lon="9.422410138064109"><ele>526.8</ele><time>2026-03-28T15:53:54.979Z</time></trkpt><trkpt lat="45.98135390792199" lon="9.422494374848197"><ele>525.5999999999999</ele><time>2026-03-28T15:53:55.979Z</time></trkpt><trkpt lat="45.981409186175846" lon="9.422639001425713"><ele>524.4000000000001</ele><time>2026-03-28T15:53:57.979Z</time></trkpt><trkpt lat="45.98146071957091" lon="9.422789604488127"><ele>523.2</ele><time>2026-03-28T15:53:59.979Z</time></trkpt><trkpt lat="45.98148763118463" lon="9.422880297747325"><ele>522.0</ele><time>2026-03-28T15:54:00.979Z</time></trkpt><trkpt lat="45.98153859858553" lon="9.423044008315175"><ele>521.8333333333334</ele><time>2026-03-28T15:54:02.979Z</time></trkpt><trkpt lat="45.981574650753416" lon="9.42311863076457"><ele>521.6666666666666</ele><time>2026-03-28T15:54:03.979Z</time></trkpt><trkpt lat="45.981609280958786" lon="9.423198799144675"><ele>521.5</ele><time>2026-03-28T15:54:04.979Z</time></trkpt><trkpt lat="45.98166935208141" lon="9.42334681196254"><ele>521.3333333333333</ele><time>2026-03-28T15:54:06.979Z</time></trkpt><trkpt lat="45.98173694932326" lon="9.423499578761568"><ele>521.1666666666666</ele><time>2026-03-28T15:54:08.979Z</time></trkpt><trkpt lat="45.98177747029" lon="9.423585475915305"><ele>521.0</ele><time>2026-03-28T15:54:09.979Z</time></trkpt><trkpt lat="45.98183418005522" lon="9.423736616970311"><ele>519.2</ele><time>2026-03-28T15:54:11.979Z</time></trkpt><trkpt lat="45.98191404400876" lon="9.423844915692102"><ele>517.4000000000001</ele><time>2026-03-28T15:54:13.979Z</time></trkpt><trkpt lat="45.981971465929846" lon="9.423890938111137"><ele>515.6</ele><time>2026-03-28T15:54:14.979Z</time></trkpt><trkpt lat="45.98206746020209" lon="9.423981180321292"><ele>513.8000000000001</ele><time>2026-03-28T15:54:16.979Z</time></trkpt><trkpt lat="45.98214971507896" lon="9.424049500683113"><ele>512.0</ele><time>2026-03-28T15:54:18.979Z</time></trkpt><trkpt lat="45.9822239321976" lon="9.424095539228972"><ele>511.99999999999994</ele><time>2026-03-28T15:54:19.979Z</time></trkpt><trkpt lat="45.98233909912613" lon="9.424151318435172"><ele>512.0</ele><time>2026-03-28T15:54:21.979Z</time></trkpt><trkpt lat="45.982419834219606" lon="9.424187700595375"><ele>512.0</ele><time>2026-03-28T15:54:23.979Z</time></trkpt><trkpt lat="45.98250786236528" lon="9.424238838187105"><ele>512.0</ele><time>2026-03-28T15:54:25.979Z</time></trkpt><trkpt lat="45.98258359371448" lon="9.42425543282371"><ele>511.99999999999994</ele><time>2026-03-28T15:54:27.979Z</time></trkpt><trkpt lat="45.98265281910037" lon="9.424270946494357"><ele>512.0</ele><time>2026-03-28T15:54:28.979Z</time></trkpt><trkpt lat="45.982746356549555" lon="9.424323511900232"><ele>511.20000000000005</ele><time>2026-03-28T15:54:29.978Z</time></trkpt><trkpt lat="45.98285675855363" lon="9.42433425404258"><ele>510.40000000000003</ele><time>2026-03-28T15:54:31.978Z</time></trkpt><trkpt lat="45.982958763050775" lon="9.42428713852143"><ele>509.59999999999997</ele><time>2026-03-28T15:54:33.978Z</time></trkpt><trkpt lat="45.9830313235018" lon="9.424242975517863"><ele>508.79999999999995</ele><time>2026-03-28T15:54:34.978Z</time></trkpt><trkpt lat="45.98314001076713" lon="9.424183603013992"><ele>508.0</ele><time>2026-03-28T15:54:36.978Z</time></trkpt><trkpt lat="45.983204249149956" lon="9.424178050394216"><ele>508.00000000000006</ele><time>2026-03-28T15:54:40.978Z</time></trkpt><trkpt lat="45.98328083520886" lon="9.424179638523315"><ele>508.0</ele><time>2026-03-28T15:54:45.978Z</time></trkpt><trkpt lat="45.983347937442204" lon="9.424197483121235"><ele>508.0</ele><time>2026-03-28T15:54:47.978Z</time></trkpt><trkpt lat="45.98342126259348" lon="9.424228896233506"><ele>508.0</ele><time>2026-03-28T15:54:49.978Z</time></trkpt><trkpt lat="45.983515696403245" lon="9.424278479347795"><ele>508.00000000000006</ele><time>2026-03-28T15:54:51.978Z</time></trkpt><trkpt lat="45.98357806047757" lon="9.424309244322096"><ele>508.0</ele><time>2026-03-28T15:54:52.978Z</time></trkpt><trkpt lat="45.98363908527024" lon="9.42434056696208"><ele>508.83333333333337</ele><time>2026-03-28T15:54:53.978Z</time></trkpt><trkpt lat="45.98368603594136" lon="9.424404496137656"><ele>509.6666666666667</ele><time>2026-03-28T15:54:54.978Z</time></trkpt><trkpt lat="45.98371767657738" lon="9.424499818826002"><ele>510.5</ele><time>2026-03-28T15:54:55.978Z</time></trkpt><trkpt lat="45.983739496826324" lon="9.424630382162963"><ele>511.33333333333337</ele><time>2026-03-28T15:54:56.978Z</time></trkpt><trkpt lat="45.983727434859254" lon="9.42475001543859"><ele>512.1666666666666</ele><time>2026-03-28T15:54:57.978Z</time></trkpt><trkpt lat="45.98369702304185" lon="9.42486434903456"><ele>513.0</ele><time>2026-03-28T15:54:58.978Z</time></trkpt><trkpt lat="45.98365044389683" lon="9.424966551664635"><ele>513.8</ele><time>2026-03-28T15:54:59.978Z</time></trkpt><trkpt lat="45.98358778757215" lon="9.425073721461397"><ele>514.5999999999999</ele><time>2026-03-28T15:55:00.978Z</time></trkpt><trkpt lat="45.98353597413297" lon="9.425187090198287"><ele>515.4000000000001</ele><time>2026-03-28T15:55:01.978Z</time></trkpt><trkpt lat="45.98349486970144" lon="9.425309809268843"><ele>516.2</ele><time>2026-03-28T15:55:02.978Z</time></trkpt><trkpt lat="45.983456669820136" lon="9.425437560832592"><ele>517.0</ele><time>2026-03-28T15:55:03.978Z</time></trkpt><trkpt lat="45.98341412575108" lon="9.425611929164127"><ele>517.25</ele><time>2026-03-28T15:55:04.978Z</time></trkpt><trkpt lat="45.98336880490294" lon="9.425809948568713"><ele>517.5</ele><time>2026-03-28T15:55:05.978Z</time></trkpt><trkpt lat="45.983313964915865" lon="9.425969391838118"><ele>517.75</ele><time>2026-03-28T15:55:06.978Z</time></trkpt><trkpt lat="45.98327299094684" lon="9.426100355124143"><ele>518.0</ele><time>2026-03-28T15:55:07.978Z</time></trkpt><trkpt lat="45.983243115589765" lon="9.426236996062293"><ele>517.1999999999999</ele><time>2026-03-28T15:55:08.978Z</time></trkpt><trkpt lat="45.98319202554063" lon="9.426371252349176"><ele>516.4</ele><time>2026-03-28T15:55:09.978Z</time></trkpt><trkpt lat="45.983151335857585" lon="9.426496906778151"><ele>515.5999999999999</ele><time>2026-03-28T15:55:10.978Z</time></trkpt><trkpt lat="45.98310948673167" lon="9.426604368076156"><ele>514.8</ele><time>2026-03-28T15:55:11.978Z</time></trkpt><trkpt lat="45.983066627002" lon="9.426722079404986"><ele>514.0</ele><time>2026-03-28T15:55:12.978Z</time></trkpt><trkpt lat="45.98302362511645" lon="9.426826951188113"><ele>514.0</ele><time>2026-03-28T15:55:13.978Z</time></trkpt><trkpt lat="45.982974195615476" lon="9.426940449287942"><ele>514.0</ele><time>2026-03-28T15:55:14.978Z</time></trkpt><trkpt lat="45.982914577789956" lon="9.42706843310617"><ele>514.0</ele><time>2026-03-28T15:55:15.98Z</time></trkpt><trkpt lat="45.9828481941467" lon="9.427204119386921"><ele>514.0</ele><time>2026-03-28T15:55:16.979Z</time></trkpt><trkpt lat="45.982776199706834" lon="9.427344572838905"><ele>514.0</ele><time>2026-03-28T15:55:17.979Z</time></trkpt><trkpt lat="45.9827303794828" lon="9.427458697642699"><ele>514.0</ele><time>2026-03-28T15:55:18.98Z</time></trkpt><trkpt lat="45.982676086321575" lon="9.427550505304032"><ele>514.0</ele><time>2026-03-28T15:55:19.979Z</time></trkpt><trkpt lat="45.982622054273435" lon="9.427663852024947"><ele>514.0</ele><time>2026-03-28T15:55:20.979Z</time></trkpt><trkpt lat="45.98255765177807" lon="9.42779964041057"><ele>514.0</ele><time>2026-03-28T15:55:21.98Z</time></trkpt><trkpt lat="45.98250799583608" lon="9.427908907144873"><ele>514.0</ele><time>2026-03-28T15:55:22.98Z</time></trkpt><trkpt lat="45.982462007272844" lon="9.428008757570645"><ele>514.4</ele><time>2026-03-28T15:55:23.98Z</time></trkpt><trkpt lat="45.98239974054431" lon="9.428107396662947"><ele>514.8</ele><time>2026-03-28T15:55:24.98Z</time></trkpt><trkpt lat="45.98233223288549" lon="9.428208094275082"><ele>515.2</ele><time>2026-03-28T15:55:25.979Z</time></trkpt><trkpt lat="45.98228770099809" lon="9.428309454808469"><ele>515.6</ele><time>2026-03-28T15:55:26.979Z</time></trkpt><trkpt lat="45.98230611806783" lon="9.428483889852192"><ele>516.0</ele><time>2026-03-28T15:55:28.979Z</time></trkpt><trkpt lat="45.9823501661222" lon="9.42857036632603"><ele>516.0</ele><time>2026-03-28T15:55:29.979Z</time></trkpt><trkpt lat="45.982418701457405" lon="9.428648402429836"><ele>516.0</ele><time>2026-03-28T15:55:30.979Z</time></trkpt><trkpt lat="45.982495278810575" lon="9.42875853064192"><ele>516.0</ele><time>2026-03-28T15:55:31.979Z</time></trkpt><trkpt lat="45.9825859949711" lon="9.42887852585281"><ele>516.0</ele><time>2026-03-28T15:55:32.979Z</time></trkpt><trkpt lat="45.98268279461965" lon="9.429005166747062"><ele>517.25</ele><time>2026-03-28T15:55:33.979Z</time></trkpt><trkpt lat="45.982781215567584" lon="9.429128483791997"><ele>518.5</ele><time>2026-03-28T15:55:34.979Z</time></trkpt><trkpt lat="45.98289067664578" lon="9.429269776937543"><ele>519.75</ele><time>2026-03-28T15:55:35.979Z</time></trkpt><trkpt lat="45.98299937630334" lon="9.429383686705389"><ele>521.0</ele><time>2026-03-28T15:55:36.979Z</time></trkpt><trkpt lat="45.98308340088358" lon="9.429470657936195"><ele>521.0</ele><time>2026-03-28T15:55:37.979Z</time></trkpt><trkpt lat="45.98316976085495" lon="9.429521350680096"><ele>521.0</ele><time>2026-03-28T15:55:38.979Z</time></trkpt><trkpt lat="45.98326417548363" lon="9.429527912855932"><ele>521.0</ele><time>2026-03-28T15:55:39.979Z</time></trkpt><trkpt lat="45.983370645268806" lon="9.429509590310193"><ele>521.0</ele><time>2026-03-28T15:55:40.979Z</time></trkpt><trkpt lat="45.983481382787126" lon="9.42949073906158"><ele>521.0</ele><time>2026-03-28T15:55:41.979Z</time></trkpt><trkpt lat="45.983621266647276" lon="9.429497632743624"><ele>522.5</ele><time>2026-03-28T15:55:42.979Z</time></trkpt><trkpt lat="45.98375804960046" lon="9.429508361263137"><ele>524.0</ele><time>2026-03-28T15:55:43.979Z</time></trkpt><trkpt lat="45.983897268644114" lon="9.429514270170577"><ele>525.5</ele><time>2026-03-28T15:55:44.979Z</time></trkpt><trkpt lat="45.98404858962927" lon="9.429509896311059"><ele>527.0</ele><time>2026-03-28T15:55:45.979Z</time></trkpt><trkpt lat="45.98417220397002" lon="9.429485948655849"><ele>528.0</ele><time>2026-03-28T15:55:46.979Z</time></trkpt><trkpt lat="45.98426089616191" lon="9.429466308132099"><ele>529.0</ele><time>2026-03-28T15:55:47.979Z</time></trkpt><trkpt lat="45.98432943038249" lon="9.429454740972183"><ele>530.0</ele><time>2026-03-28T15:55:48.979Z</time></trkpt><trkpt lat="45.98439260574297" lon="9.429445619384989"><ele>531.0</ele><time>2026-03-28T15:55:49.979Z</time></trkpt><trkpt lat="45.98447546778733" lon="9.429522201573167"><ele>532.0</ele><time>2026-03-28T15:55:51.979Z</time></trkpt><trkpt lat="45.98451421917312" lon="9.429603851554944"><ele>533.0</ele><time>2026-03-28T15:55:52.979Z</time></trkpt><trkpt lat="45.984536320560856" lon="9.429706443552117"><ele>533.0</ele><time>2026-03-28T15:55:53.979Z</time></trkpt><trkpt lat="45.9845719305101" lon="9.42980979620727"><ele>533.0</ele><time>2026-03-28T15:55:54.979Z</time></trkpt><trkpt lat="45.98459953292527" lon="9.429907869674771"><ele>533.0</ele><time>2026-03-28T15:55:55.979Z</time></trkpt><trkpt lat="45.98465813608088" lon="9.43002719712704"><ele>533.0</ele><time>2026-03-28T15:55:56.979Z</time></trkpt><trkpt lat="45.98468274351311" lon="9.430142130974323"><ele>533.0</ele><time>2026-03-28T15:55:57.979Z</time></trkpt><trkpt lat="45.98471732726231" lon="9.430290429516038"><ele>533.0</ele><time>2026-03-28T15:55:58.979Z</time></trkpt><trkpt lat="45.98474620614266" lon="9.430455542352794"><ele>533.6</ele><time>2026-03-28T15:55:59.979Z</time></trkpt><trkpt lat="45.984771887646936" lon="9.430630655582316"><ele>534.1999999999999</ele><time>2026-03-28T15:56:00.979Z</time></trkpt><trkpt lat="45.98478413283927" lon="9.430793825047745"><ele>534.8</ele><time>2026-03-28T15:56:01.979Z</time></trkpt><trkpt lat="45.984806661714316" lon="9.430942636574992"><ele>535.4</ele><time>2026-03-28T15:56:02.979Z</time></trkpt><trkpt lat="45.98485150731946" lon="9.431073086927201"><ele>536.0</ele><time>2026-03-28T15:56:03.979Z</time></trkpt><trkpt lat="45.9849208274461" lon="9.431188966555961"><ele>536.75</ele><time>2026-03-28T15:56:04.979Z</time></trkpt><trkpt lat="45.98499124998621" lon="9.431314021515984"><ele>537.5</ele><time>2026-03-28T15:56:05.979Z</time></trkpt><trkpt lat="45.985065983674836" lon="9.43146250586469"><ele>538.25</ele><time>2026-03-28T15:56:06.979Z</time></trkpt><trkpt lat="45.98513277421791" lon="9.431612780888658"><ele>539.0</ele><time>2026-03-28T15:56:07.979Z</time></trkpt><trkpt lat="45.98518543671396" lon="9.431738045979856"><ele>540.6666666666666</ele><time>2026-03-28T15:56:08.979Z</time></trkpt><trkpt lat="45.9852262432369" lon="9.431836704378094"><ele>542.3333333333333</ele><time>2026-03-28T15:56:09.979Z</time></trkpt><trkpt lat="45.98525766862922" lon="9.431924946963935"><ele>544.0</ele><time>2026-03-28T15:56:10.979Z</time></trkpt><trkpt lat="45.985301326350246" lon="9.432022142498662"><ele>545.6666666666666</ele><time>2026-03-28T15:56:12.978Z</time></trkpt><trkpt lat="45.98523526512189" lon="9.432123144049541"><ele>547.3333333333334</ele><time>2026-03-28T15:56:15.978Z</time></trkpt><trkpt lat="45.98517110656282" lon="9.432192345335535"><ele>549.0</ele><time>2026-03-28T15:56:16.978Z</time></trkpt><trkpt lat="45.9850951592717" lon="9.43230981051731"><ele>549.75</ele><time>2026-03-28T15:56:17.978Z</time></trkpt><trkpt lat="45.98502324675898" lon="9.432445064889095"><ele>550.5</ele><time>2026-03-28T15:56:18.978Z</time></trkpt><trkpt lat="45.98493124770009" lon="9.432563113767952"><ele>551.25</ele><time>2026-03-28T15:56:19.978Z</time></trkpt><trkpt lat="45.98480571588396" lon="9.432669303663763"><ele>552.0</ele><time>2026-03-28T15:56:20.978Z</time></trkpt><trkpt lat="45.98468407167506" lon="9.432802727725136"><ele>550.75</ele><time>2026-03-28T15:56:21.978Z</time></trkpt><trkpt lat="45.984545303756164" lon="9.432880070104599"><ele>549.5</ele><time>2026-03-28T15:56:22.978Z</time></trkpt><trkpt lat="45.98441197106034" lon="9.43295768487381"><ele>548.25</ele><time>2026-03-28T15:56:23.978Z</time></trkpt><trkpt lat="45.984294107350784" lon="9.433067267757933"><ele>547.0</ele><time>2026-03-28T15:56:24.978Z</time></trkpt><trkpt lat="45.984188334012664" lon="9.433225653951984"><ele>543.6666666666667</ele><time>2026-03-28T15:56:25.978Z</time></trkpt><trkpt lat="45.984093262721146" lon="9.433461099032757"><ele>540.3333333333334</ele><time>2026-03-28T15:56:26.978Z</time></trkpt><trkpt lat="45.98399918285996" lon="9.433679207975253"><ele>537.0</ele><time>2026-03-28T15:56:27.978Z</time></trkpt><trkpt lat="45.98393587271322" lon="9.433846064825449"><ele>537.0</ele><time>2026-03-28T15:56:28.978Z</time></trkpt><trkpt lat="45.983875908798076" lon="9.433992564985669"><ele>537.0</ele><time>2026-03-28T15:56:29.978Z</time></trkpt><trkpt lat="45.983825020324886" lon="9.434114967736194"><ele>537.0</ele><time>2026-03-28T15:56:30.978Z</time></trkpt><trkpt lat="45.9837645614931" lon="9.434220029476524"><ele>537.0</ele><time>2026-03-28T15:56:31.978Z</time></trkpt><trkpt lat="45.9837061319469" lon="9.434332381565763"><ele>537.0</ele><time>2026-03-28T15:56:32.978Z</time></trkpt><trkpt lat="45.983640038796004" lon="9.434469755727196"><ele>539.25</ele><time>2026-03-28T15:56:33.978Z</time></trkpt><trkpt lat="45.98357420949412" lon="9.434638979317038"><ele>541.5</ele><time>2026-03-28T15:56:34.978Z</time></trkpt><trkpt lat="45.983515865715304" lon="9.43477751060083"><ele>543.75</ele><time>2026-03-28T15:56:35.978Z</time></trkpt><trkpt lat="45.9834312572421" lon="9.434904911124828"><ele>546.0</ele><time>2026-03-28T15:56:36.978Z</time></trkpt><trkpt lat="45.98335030858288" lon="9.435022523172393"><ele>545.5</ele><time>2026-03-28T15:56:37.978Z</time></trkpt><trkpt lat="45.983269406104114" lon="9.435120961302315"><ele>545.0</ele><time>2026-03-28T15:56:38.978Z</time></trkpt><trkpt lat="45.98321782885831" lon="9.435232795826103"><ele>544.5</ele><time>2026-03-28T15:56:39.978Z</time></trkpt><trkpt lat="45.98316744999504" lon="9.435328474952382"><ele>544.0</ele><time>2026-03-28T15:56:40.978Z</time></trkpt><trkpt lat="45.98310769100698" lon="9.435420597359608"><ele>543.5</ele><time>2026-03-28T15:56:41.978Z</time></trkpt><trkpt lat="45.98306232226285" lon="9.435499175448067"><ele>543.0</ele><time>2026-03-28T15:56:42.978Z</time></trkpt><trkpt lat="45.98301529152031" lon="9.435571560200495"><ele>543.0</ele><time>2026-03-28T15:56:44.978Z</time></trkpt><trkpt lat="45.983075357818436" lon="9.435670202188684"><ele>543.0</ele><time>2026-03-28T15:56:56.978Z</time></trkpt><trkpt lat="45.983171305328305" lon="9.43574257823012"><ele>543.0</ele><time>2026-03-28T15:56:58.978Z</time></trkpt><trkpt lat="45.983243770500955" lon="9.435824471996602"><ele>543.0</ele><time>2026-03-28T15:57:00.978Z</time></trkpt><trkpt lat="45.983324053098706" lon="9.435889751764853"><ele>543.0</ele><time>2026-03-28T15:57:02.978Z</time></trkpt><trkpt lat="45.983392700770494" lon="9.435930916753142"><ele>544.8333333333334</ele><time>2026-03-28T15:57:03.978Z</time></trkpt><trkpt lat="45.983451583620635" lon="9.435969271477889"><ele>546.6666666666666</ele><time>2026-03-28T15:57:04.978Z</time></trkpt><trkpt lat="45.98354912177802" lon="9.436039884487865"><ele>548.5</ele><time>2026-03-28T15:57:06.978Z</time></trkpt><trkpt lat="45.98360928416247" lon="9.436081403249743"><ele>550.3333333333333</ele><time>2026-03-28T15:57:09.978Z</time></trkpt><trkpt lat="45.98367467152308" lon="9.436110867711232"><ele>552.1666666666666</ele><time>2026-03-28T15:57:20.977Z</time></trkpt><trkpt lat="45.98377892484712" lon="9.436161847034738"><ele>554.0</ele><time>2026-03-28T15:57:22.979Z</time></trkpt><trkpt lat="45.983855541041905" lon="9.43623010980717"><ele>554.0</ele><time>2026-03-28T15:57:24.979Z</time></trkpt><trkpt lat="45.983970164457816" lon="9.436280638871743"><ele>554.0</ele><time>2026-03-28T15:57:26.979Z</time></trkpt><trkpt lat="45.98403433827481" lon="9.436318420324042"><ele>554.0</ele><time>2026-03-28T15:57:27.98Z</time></trkpt><trkpt lat="45.984104903830435" lon="9.436386446201475"><ele>554.0</ele><time>2026-03-28T15:57:29.98Z</time></trkpt><trkpt lat="45.98406554857013" lon="9.436469074352"><ele>554.0</ele><time>2026-03-28T15:57:31.979Z</time></trkpt><trkpt lat="45.984045936777626" lon="9.436555798885697"><ele>554.0</ele><time>2026-03-28T15:57:32.979Z</time></trkpt><trkpt lat="45.98402614868836" lon="9.436648837995039"><ele>555.6</ele><time>2026-03-28T15:57:33.98Z</time></trkpt><trkpt lat="45.983976228536946" lon="9.436806025509531"><ele>557.2</ele><time>2026-03-28T15:57:35.979Z</time></trkpt><trkpt lat="45.98392089020839" lon="9.436973821215894"><ele>558.8000000000001</ele><time>2026-03-28T15:57:59.979Z</time></trkpt><trkpt lat="45.98390116142555" lon="9.437086883073967"><ele>560.4</ele><time>2026-03-28T15:58:00.979Z</time></trkpt><trkpt lat="45.98386841228312" lon="9.43718508552536"><ele>562.0</ele><time>2026-03-28T15:58:01.979Z</time></trkpt><trkpt lat="45.98383488674126" lon="9.43728064308073"><ele>565.0</ele><time>2026-03-28T15:58:02.979Z</time></trkpt><trkpt lat="45.98384945786445" lon="9.437376479807751"><ele>565.0</ele><time>2026-03-28T15:58:04.979Z</time></trkpt><trkpt lat="45.983808042025146" lon="9.437303705713056"><ele>565.0</ele><time>2026-03-28T15:58:45.978Z</time></trkpt><trkpt lat="45.98383535862441" lon="9.437208507029377"><ele>565.0</ele><time>2026-03-28T15:58:53.978Z</time></trkpt></trkseg></trk></gpx>